<?xml version="1.0" encoding="UTF-8" standalone="no" ?>
<gpx xmlns="http://www.topografix.com/GPX/1/1" xmlns:xsi="http://www.w3.org/2001/XMLSchema-instance" xsi:schemaLocation="http://www.topografix.com/GPX/1/1 http://www.topografix.com/GPX/1/1/gpx.xsd" version="1.1" creator="VisuGPX - https://www.visugpx.com">
  <metadata>
    <name>Lozanne Civrieux </name>
  </metadata>
  <trk>
    <name><![CDATA[2023 04 10 reprise]]></name>
    <trkseg>
      <trkpt lat="45.8333" lon="4.70877">
        <ele>371.39807</ele>
        <time>2023-04-10T14:34:40.615Z</time>
      </trkpt>
      <trkpt lat="45.83331" lon="4.7087">
        <ele>371.47488</ele>
        <time>2023-04-10T14:34:43.000Z</time>
      </trkpt>
      <trkpt lat="45.83332" lon="4.70867">
        <ele>371.48911</ele>
        <time>2023-04-10T14:34:44.000Z</time>
      </trkpt>
      <trkpt lat="45.83333" lon="4.70863">
        <ele>371.43158</ele>
        <time>2023-04-10T14:34:45.000Z</time>
      </trkpt>
      <trkpt lat="45.83334" lon="4.70859">
        <ele>371.44501</ele>
        <time>2023-04-10T14:34:46.000Z</time>
      </trkpt>
      <trkpt lat="45.83334" lon="4.70855">
        <ele>371.48282</ele>
        <time>2023-04-10T14:34:47.000Z</time>
      </trkpt>
      <trkpt lat="45.83335" lon="4.70851">
        <ele>371.47006</ele>
        <time>2023-04-10T14:34:48.000Z</time>
      </trkpt>
      <trkpt lat="45.83336" lon="4.70847">
        <ele>371.48694</ele>
        <time>2023-04-10T14:34:49.000Z</time>
      </trkpt>
      <trkpt lat="45.83336" lon="4.70843">
        <ele>371.51898</ele>
        <time>2023-04-10T14:34:50.000Z</time>
      </trkpt>
      <trkpt lat="45.83337" lon="4.70839">
        <ele>371.0766</ele>
        <time>2023-04-10T14:34:51.000Z</time>
      </trkpt>
      <trkpt lat="45.83337" lon="4.70835">
        <ele>370.84268</ele>
        <time>2023-04-10T14:34:52.000Z</time>
      </trkpt>
      <trkpt lat="45.83338" lon="4.70831">
        <ele>370.6088</ele>
        <time>2023-04-10T14:34:53.000Z</time>
      </trkpt>
      <trkpt lat="45.83339" lon="4.70826">
        <ele>370.36615</ele>
        <time>2023-04-10T14:34:54.000Z</time>
      </trkpt>
      <trkpt lat="45.83339" lon="4.70822">
        <ele>370.17368</ele>
        <time>2023-04-10T14:34:55.000Z</time>
      </trkpt>
      <trkpt lat="45.83339" lon="4.70818">
        <ele>370.00092</ele>
        <time>2023-04-10T14:34:56.000Z</time>
      </trkpt>
      <trkpt lat="45.8334" lon="4.70813">
        <ele>369.81665</ele>
        <time>2023-04-10T14:34:57.000Z</time>
      </trkpt>
      <trkpt lat="45.8334" lon="4.70808">
        <ele>369.66574</ele>
        <time>2023-04-10T14:34:58.000Z</time>
      </trkpt>
      <trkpt lat="45.83341" lon="4.70803">
        <ele>369.51352</ele>
        <time>2023-04-10T14:34:59.000Z</time>
      </trkpt>
      <trkpt lat="45.83341" lon="4.70798">
        <ele>369.38696</ele>
        <time>2023-04-10T14:35:00.000Z</time>
      </trkpt>
      <trkpt lat="45.83342" lon="4.70794">
        <ele>369.26218</ele>
        <time>2023-04-10T14:35:01.000Z</time>
      </trkpt>
      <trkpt lat="45.83342" lon="4.70789">
        <ele>369.05759</ele>
        <time>2023-04-10T14:35:02.000Z</time>
      </trkpt>
      <trkpt lat="45.83343" lon="4.70784">
        <ele>368.85956</ele>
        <time>2023-04-10T14:35:03.000Z</time>
      </trkpt>
      <trkpt lat="45.83343" lon="4.70779">
        <ele>368.64905</ele>
        <time>2023-04-10T14:35:04.000Z</time>
      </trkpt>
      <trkpt lat="45.83343" lon="4.70774">
        <ele>368.42102</ele>
        <time>2023-04-10T14:35:05.000Z</time>
      </trkpt>
      <trkpt lat="45.83344" lon="4.70769">
        <ele>368.17514</ele>
        <time>2023-04-10T14:35:06.000Z</time>
      </trkpt>
      <trkpt lat="45.83344" lon="4.70763">
        <ele>367.90228</ele>
        <time>2023-04-10T14:35:07.000Z</time>
      </trkpt>
      <trkpt lat="45.83344" lon="4.70758">
        <ele>367.67026</ele>
        <time>2023-04-10T14:35:08.000Z</time>
      </trkpt>
      <trkpt lat="45.83345" lon="4.70753">
        <ele>367.57343</ele>
        <time>2023-04-10T14:35:09.000Z</time>
      </trkpt>
      <trkpt lat="45.83345" lon="4.70747">
        <ele>367.48761</ele>
        <time>2023-04-10T14:35:10.000Z</time>
      </trkpt>
      <trkpt lat="45.83346" lon="4.70742">
        <ele>367.64661</ele>
        <time>2023-04-10T14:35:11.000Z</time>
      </trkpt>
      <trkpt lat="45.83346" lon="4.70737">
        <ele>367.7384</ele>
        <time>2023-04-10T14:35:12.000Z</time>
      </trkpt>
      <trkpt lat="45.83347" lon="4.70732">
        <ele>367.83731</ele>
        <time>2023-04-10T14:35:13.000Z</time>
      </trkpt>
      <trkpt lat="45.83347" lon="4.70726">
        <ele>367.95758</ele>
        <time>2023-04-10T14:35:14.000Z</time>
      </trkpt>
      <trkpt lat="45.83347" lon="4.7072">
        <ele>368.06284</ele>
        <time>2023-04-10T14:35:15.000Z</time>
      </trkpt>
      <trkpt lat="45.83348" lon="4.70715">
        <ele>368.16046</ele>
        <time>2023-04-10T14:35:16.000Z</time>
      </trkpt>
      <trkpt lat="45.83348" lon="4.7071">
        <ele>368.35873</ele>
        <time>2023-04-10T14:35:17.000Z</time>
      </trkpt>
      <trkpt lat="45.83349" lon="4.70705">
        <ele>368.1929</ele>
        <time>2023-04-10T14:35:18.000Z</time>
      </trkpt>
      <trkpt lat="45.8335" lon="4.707">
        <ele>368.08423</ele>
        <time>2023-04-10T14:35:19.000Z</time>
      </trkpt>
      <trkpt lat="45.83351" lon="4.70694">
        <ele>367.94058</ele>
        <time>2023-04-10T14:35:20.000Z</time>
      </trkpt>
      <trkpt lat="45.83351" lon="4.70688">
        <ele>367.81238</ele>
        <time>2023-04-10T14:35:21.000Z</time>
      </trkpt>
      <trkpt lat="45.83352" lon="4.70681">
        <ele>367.66217</ele>
        <time>2023-04-10T14:35:22.000Z</time>
      </trkpt>
      <trkpt lat="45.83352" lon="4.70674">
        <ele>367.49423</ele>
        <time>2023-04-10T14:35:23.000Z</time>
      </trkpt>
      <trkpt lat="45.83353" lon="4.70666">
        <ele>367.34076</ele>
        <time>2023-04-10T14:35:24.000Z</time>
      </trkpt>
      <trkpt lat="45.83353" lon="4.70658">
        <ele>367.36325</ele>
        <time>2023-04-10T14:35:25.000Z</time>
      </trkpt>
      <trkpt lat="45.83353" lon="4.70651">
        <ele>367.36707</ele>
        <time>2023-04-10T14:35:26.000Z</time>
      </trkpt>
      <trkpt lat="45.83353" lon="4.70642">
        <ele>367.08585</ele>
        <time>2023-04-10T14:35:27.000Z</time>
      </trkpt>
      <trkpt lat="45.83353" lon="4.70634">
        <ele>366.8222</ele>
        <time>2023-04-10T14:35:28.000Z</time>
      </trkpt>
      <trkpt lat="45.83354" lon="4.70625">
        <ele>366.43268</ele>
        <time>2023-04-10T14:35:29.000Z</time>
      </trkpt>
      <trkpt lat="45.83356" lon="4.70618">
        <ele>365.82373</ele>
        <time>2023-04-10T14:35:30.000Z</time>
      </trkpt>
      <trkpt lat="45.8336" lon="4.70612">
        <ele>365.23743</ele>
        <time>2023-04-10T14:35:31.000Z</time>
      </trkpt>
      <trkpt lat="45.83366" lon="4.7061">
        <ele>364.62201</ele>
        <time>2023-04-10T14:35:32.000Z</time>
      </trkpt>
      <trkpt lat="45.83372" lon="4.70609">
        <ele>364.23373</ele>
        <time>2023-04-10T14:35:33.000Z</time>
      </trkpt>
      <trkpt lat="45.83378" lon="4.7061">
        <ele>363.83356</ele>
        <time>2023-04-10T14:35:34.000Z</time>
      </trkpt>
      <trkpt lat="45.83384" lon="4.70612">
        <ele>363.05212</ele>
        <time>2023-04-10T14:35:35.000Z</time>
      </trkpt>
      <trkpt lat="45.83391" lon="4.70612">
        <ele>362.28525</ele>
        <time>2023-04-10T14:35:36.000Z</time>
      </trkpt>
      <trkpt lat="45.83397" lon="4.70612">
        <ele>361.45343</ele>
        <time>2023-04-10T14:35:37.000Z</time>
      </trkpt>
      <trkpt lat="45.83404" lon="4.70613">
        <ele>360.98392</ele>
        <time>2023-04-10T14:35:38.000Z</time>
      </trkpt>
      <trkpt lat="45.8341" lon="4.70614">
        <ele>360.54095</ele>
        <time>2023-04-10T14:35:39.000Z</time>
      </trkpt>
      <trkpt lat="45.83417" lon="4.70615">
        <ele>360.09338</ele>
        <time>2023-04-10T14:35:40.000Z</time>
      </trkpt>
      <trkpt lat="45.83423" lon="4.70617">
        <ele>359.65884</ele>
        <time>2023-04-10T14:35:41.000Z</time>
      </trkpt>
      <trkpt lat="45.83429" lon="4.70618">
        <ele>359.24365</ele>
        <time>2023-04-10T14:35:42.000Z</time>
      </trkpt>
      <trkpt lat="45.83435" lon="4.7062">
        <ele>358.74799</ele>
        <time>2023-04-10T14:35:43.000Z</time>
      </trkpt>
      <trkpt lat="45.83442" lon="4.7062">
        <ele>358.28119</ele>
        <time>2023-04-10T14:35:44.000Z</time>
      </trkpt>
      <trkpt lat="45.83448" lon="4.70621">
        <ele>357.65121</ele>
        <time>2023-04-10T14:35:45.000Z</time>
      </trkpt>
      <trkpt lat="45.83454" lon="4.70622">
        <ele>357.01898</ele>
        <time>2023-04-10T14:35:46.000Z</time>
      </trkpt>
      <trkpt lat="45.83461" lon="4.70621">
        <ele>356.66165</ele>
        <time>2023-04-10T14:35:47.000Z</time>
      </trkpt>
      <trkpt lat="45.83467" lon="4.7062">
        <ele>356.2583</ele>
        <time>2023-04-10T14:35:48.000Z</time>
      </trkpt>
      <trkpt lat="45.83474" lon="4.7062">
        <ele>355.82031</ele>
        <time>2023-04-10T14:35:49.000Z</time>
      </trkpt>
      <trkpt lat="45.83481" lon="4.70619">
        <ele>355.58221</ele>
        <time>2023-04-10T14:35:50.000Z</time>
      </trkpt>
      <trkpt lat="45.83488" lon="4.70618">
        <ele>355.28082</ele>
        <time>2023-04-10T14:35:51.000Z</time>
      </trkpt>
      <trkpt lat="45.83496" lon="4.70617">
        <ele>355.01846</ele>
        <time>2023-04-10T14:35:52.000Z</time>
      </trkpt>
      <trkpt lat="45.83503" lon="4.70616">
        <ele>354.53351</ele>
        <time>2023-04-10T14:35:53.000Z</time>
      </trkpt>
      <trkpt lat="45.8351" lon="4.70616">
        <ele>354.0433</ele>
        <time>2023-04-10T14:35:54.000Z</time>
      </trkpt>
      <trkpt lat="45.83518" lon="4.70615">
        <ele>353.96246</ele>
        <time>2023-04-10T14:35:55.000Z</time>
      </trkpt>
      <trkpt lat="45.83524" lon="4.70614">
        <ele>353.87137</ele>
        <time>2023-04-10T14:35:56.000Z</time>
      </trkpt>
      <trkpt lat="45.83532" lon="4.70614">
        <ele>353.77103</ele>
        <time>2023-04-10T14:35:57.000Z</time>
      </trkpt>
      <trkpt lat="45.8354" lon="4.70616">
        <ele>353.65649</ele>
        <time>2023-04-10T14:35:58.000Z</time>
      </trkpt>
      <trkpt lat="45.83547" lon="4.70616">
        <ele>353.46503</ele>
        <time>2023-04-10T14:35:59.000Z</time>
      </trkpt>
      <trkpt lat="45.83555" lon="4.70615">
        <ele>353.29828</ele>
        <time>2023-04-10T14:36:00.000Z</time>
      </trkpt>
      <trkpt lat="45.83562" lon="4.70615">
        <ele>353.12213</ele>
        <time>2023-04-10T14:36:01.000Z</time>
      </trkpt>
      <trkpt lat="45.83569" lon="4.70615">
        <ele>352.93292</ele>
        <time>2023-04-10T14:36:02.000Z</time>
      </trkpt>
      <trkpt lat="45.83577" lon="4.70616">
        <ele>352.81879</ele>
        <time>2023-04-10T14:36:03.000Z</time>
      </trkpt>
      <trkpt lat="45.83583" lon="4.70617">
        <ele>352.67035</ele>
        <time>2023-04-10T14:36:04.000Z</time>
      </trkpt>
      <trkpt lat="45.8359" lon="4.70618">
        <ele>352.51984</ele>
        <time>2023-04-10T14:36:05.000Z</time>
      </trkpt>
      <trkpt lat="45.83597" lon="4.7062">
        <ele>352.40582</ele>
        <time>2023-04-10T14:36:06.000Z</time>
      </trkpt>
      <trkpt lat="45.83603" lon="4.70623">
        <ele>352.30374</ele>
        <time>2023-04-10T14:36:07.000Z</time>
      </trkpt>
      <trkpt lat="45.83609" lon="4.70626">
        <ele>352.21515</ele>
        <time>2023-04-10T14:36:08.000Z</time>
      </trkpt>
      <trkpt lat="45.83615" lon="4.70628">
        <ele>352.14975</ele>
        <time>2023-04-10T14:36:09.000Z</time>
      </trkpt>
      <trkpt lat="45.83621" lon="4.70631">
        <ele>352.08459</ele>
        <time>2023-04-10T14:36:10.000Z</time>
      </trkpt>
      <trkpt lat="45.83628" lon="4.7063">
        <ele>352.0434</ele>
        <time>2023-04-10T14:36:11.000Z</time>
      </trkpt>
      <trkpt lat="45.83634" lon="4.70627">
        <ele>351.98187</ele>
        <time>2023-04-10T14:36:12.000Z</time>
      </trkpt>
      <trkpt lat="45.83641" lon="4.70623">
        <ele>351.90543</ele>
        <time>2023-04-10T14:36:13.000Z</time>
      </trkpt>
      <trkpt lat="45.83647" lon="4.7062">
        <ele>351.84995</ele>
        <time>2023-04-10T14:36:14.000Z</time>
      </trkpt>
      <trkpt lat="45.83653" lon="4.70615">
        <ele>351.74869</ele>
        <time>2023-04-10T14:36:15.000Z</time>
      </trkpt>
      <trkpt lat="45.83659" lon="4.70612">
        <ele>351.64005</ele>
        <time>2023-04-10T14:36:16.000Z</time>
      </trkpt>
      <trkpt lat="45.83665" lon="4.70608">
        <ele>351.51178</ele>
        <time>2023-04-10T14:36:17.000Z</time>
      </trkpt>
      <trkpt lat="45.83671" lon="4.70605">
        <ele>351.45294</ele>
        <time>2023-04-10T14:36:18.000Z</time>
      </trkpt>
      <trkpt lat="45.83678" lon="4.70602">
        <ele>351.41669</ele>
        <time>2023-04-10T14:36:19.000Z</time>
      </trkpt>
      <trkpt lat="45.83685" lon="4.70599">
        <ele>351.396</ele>
        <time>2023-04-10T14:36:20.000Z</time>
      </trkpt>
      <trkpt lat="45.83693" lon="4.70598">
        <ele>351.37018</ele>
        <time>2023-04-10T14:36:21.000Z</time>
      </trkpt>
      <trkpt lat="45.837" lon="4.70597">
        <ele>351.30072</ele>
        <time>2023-04-10T14:36:22.000Z</time>
      </trkpt>
      <trkpt lat="45.83706" lon="4.70595">
        <ele>351.22974</ele>
        <time>2023-04-10T14:36:23.000Z</time>
      </trkpt>
      <trkpt lat="45.83713" lon="4.70593">
        <ele>351.15942</ele>
        <time>2023-04-10T14:36:24.000Z</time>
      </trkpt>
      <trkpt lat="45.83719" lon="4.70592">
        <ele>351.08368</ele>
        <time>2023-04-10T14:36:25.000Z</time>
      </trkpt>
      <trkpt lat="45.83726" lon="4.70591">
        <ele>351.00571</ele>
        <time>2023-04-10T14:36:26.000Z</time>
      </trkpt>
      <trkpt lat="45.83734" lon="4.70591">
        <ele>350.90302</ele>
        <time>2023-04-10T14:36:27.000Z</time>
      </trkpt>
      <trkpt lat="45.83741" lon="4.70589">
        <ele>350.76874</ele>
        <time>2023-04-10T14:36:28.000Z</time>
      </trkpt>
      <trkpt lat="45.83747" lon="4.70586">
        <ele>350.61914</ele>
        <time>2023-04-10T14:36:29.000Z</time>
      </trkpt>
      <trkpt lat="45.83754" lon="4.70583">
        <ele>350.45639</ele>
        <time>2023-04-10T14:36:30.000Z</time>
      </trkpt>
      <trkpt lat="45.83761" lon="4.7058">
        <ele>350.36209</ele>
        <time>2023-04-10T14:36:31.000Z</time>
      </trkpt>
      <trkpt lat="45.83769" lon="4.70575">
        <ele>350.27182</ele>
        <time>2023-04-10T14:36:32.000Z</time>
      </trkpt>
      <trkpt lat="45.83776" lon="4.70571">
        <ele>350.02338</ele>
        <time>2023-04-10T14:36:33.000Z</time>
      </trkpt>
      <trkpt lat="45.83782" lon="4.70566">
        <ele>349.81754</ele>
        <time>2023-04-10T14:36:34.000Z</time>
      </trkpt>
      <trkpt lat="45.83789" lon="4.70561">
        <ele>349.63922</ele>
        <time>2023-04-10T14:36:35.000Z</time>
      </trkpt>
      <trkpt lat="45.83796" lon="4.70557">
        <ele>349.46741</ele>
        <time>2023-04-10T14:36:36.000Z</time>
      </trkpt>
      <trkpt lat="45.83803" lon="4.70553">
        <ele>349.28192</ele>
        <time>2023-04-10T14:36:37.000Z</time>
      </trkpt>
      <trkpt lat="45.8381" lon="4.70549">
        <ele>349.03137</ele>
        <time>2023-04-10T14:36:38.000Z</time>
      </trkpt>
      <trkpt lat="45.83817" lon="4.70544">
        <ele>348.77499</ele>
        <time>2023-04-10T14:36:39.000Z</time>
      </trkpt>
      <trkpt lat="45.83823" lon="4.70538">
        <ele>348.48486</ele>
        <time>2023-04-10T14:36:40.000Z</time>
      </trkpt>
      <trkpt lat="45.8383" lon="4.70533">
        <ele>348.1875</ele>
        <time>2023-04-10T14:36:41.000Z</time>
      </trkpt>
      <trkpt lat="45.83837" lon="4.70528">
        <ele>347.92087</ele>
        <time>2023-04-10T14:36:42.000Z</time>
      </trkpt>
      <trkpt lat="45.83843" lon="4.70523">
        <ele>347.67767</ele>
        <time>2023-04-10T14:36:43.000Z</time>
      </trkpt>
      <trkpt lat="45.83849" lon="4.70522">
        <ele>347.41022</ele>
        <time>2023-04-10T14:36:44.000Z</time>
      </trkpt>
      <trkpt lat="45.83854" lon="4.70518">
        <ele>347.18442</ele>
        <time>2023-04-10T14:36:45.000Z</time>
      </trkpt>
      <trkpt lat="45.83858" lon="4.70515">
        <ele>346.95361</ele>
        <time>2023-04-10T14:36:46.000Z</time>
      </trkpt>
      <trkpt lat="45.83862" lon="4.70511">
        <ele>346.75928</ele>
        <time>2023-04-10T14:36:47.000Z</time>
      </trkpt>
      <trkpt lat="45.83865" lon="4.70506">
        <ele>346.56332</ele>
        <time>2023-04-10T14:36:48.000Z</time>
      </trkpt>
      <trkpt lat="45.83866" lon="4.70502">
        <ele>346.41617</ele>
        <time>2023-04-10T14:36:49.000Z</time>
      </trkpt>
      <trkpt lat="45.83866" lon="4.70498">
        <ele>346.254</ele>
        <time>2023-04-10T14:36:50.000Z</time>
      </trkpt>
      <trkpt lat="45.83865" lon="4.70492">
        <ele>346.01044</ele>
        <time>2023-04-10T14:36:51.000Z</time>
      </trkpt>
      <trkpt lat="45.83864" lon="4.70486">
        <ele>345.8118</ele>
        <time>2023-04-10T14:36:52.000Z</time>
      </trkpt>
      <trkpt lat="45.83862" lon="4.70479">
        <ele>345.75024</ele>
        <time>2023-04-10T14:36:53.000Z</time>
      </trkpt>
      <trkpt lat="45.83861" lon="4.70472">
        <ele>345.74661</ele>
        <time>2023-04-10T14:36:54.000Z</time>
      </trkpt>
      <trkpt lat="45.83859" lon="4.70466">
        <ele>345.73093</ele>
        <time>2023-04-10T14:36:55.000Z</time>
      </trkpt>
      <trkpt lat="45.83858" lon="4.70459">
        <ele>345.43463</ele>
        <time>2023-04-10T14:36:56.000Z</time>
      </trkpt>
      <trkpt lat="45.83856" lon="4.70453">
        <ele>345.06796</ele>
        <time>2023-04-10T14:36:57.000Z</time>
      </trkpt>
      <trkpt lat="45.83855" lon="4.70447">
        <ele>345.20499</ele>
        <time>2023-04-10T14:36:58.000Z</time>
      </trkpt>
      <trkpt lat="45.83854" lon="4.70441">
        <ele>345.22964</ele>
        <time>2023-04-10T14:36:59.000Z</time>
      </trkpt>
      <trkpt lat="45.83852" lon="4.70434">
        <ele>345.26495</ele>
        <time>2023-04-10T14:37:00.000Z</time>
      </trkpt>
      <trkpt lat="45.83851" lon="4.70427">
        <ele>345.28821</ele>
        <time>2023-04-10T14:37:01.000Z</time>
      </trkpt>
      <trkpt lat="45.8385" lon="4.70421">
        <ele>345.31531</ele>
        <time>2023-04-10T14:37:02.000Z</time>
      </trkpt>
      <trkpt lat="45.83849" lon="4.70415">
        <ele>345.31561</ele>
        <time>2023-04-10T14:37:03.000Z</time>
      </trkpt>
      <trkpt lat="45.83847" lon="4.70408">
        <ele>345.35492</ele>
        <time>2023-04-10T14:37:04.000Z</time>
      </trkpt>
      <trkpt lat="45.83846" lon="4.70401">
        <ele>345.42487</ele>
        <time>2023-04-10T14:37:05.000Z</time>
      </trkpt>
      <trkpt lat="45.83844" lon="4.70393">
        <ele>345.48734</ele>
        <time>2023-04-10T14:37:06.000Z</time>
      </trkpt>
      <trkpt lat="45.83843" lon="4.70387">
        <ele>345.53897</ele>
        <time>2023-04-10T14:37:07.000Z</time>
      </trkpt>
      <trkpt lat="45.83842" lon="4.7038">
        <ele>345.65985</ele>
        <time>2023-04-10T14:37:08.000Z</time>
      </trkpt>
      <trkpt lat="45.8384" lon="4.70373">
        <ele>345.47763</ele>
        <time>2023-04-10T14:37:09.000Z</time>
      </trkpt>
      <trkpt lat="45.83839" lon="4.70366">
        <ele>345.328</ele>
        <time>2023-04-10T14:37:10.000Z</time>
      </trkpt>
      <trkpt lat="45.83837" lon="4.70358">
        <ele>345.16864</ele>
        <time>2023-04-10T14:37:11.000Z</time>
      </trkpt>
      <trkpt lat="45.83834" lon="4.70352">
        <ele>344.98904</ele>
        <time>2023-04-10T14:37:12.000Z</time>
      </trkpt>
      <trkpt lat="45.83832" lon="4.70345">
        <ele>344.83945</ele>
        <time>2023-04-10T14:37:13.000Z</time>
      </trkpt>
      <trkpt lat="45.83831" lon="4.70338">
        <ele>344.63031</ele>
        <time>2023-04-10T14:37:14.000Z</time>
      </trkpt>
      <trkpt lat="45.83829" lon="4.70331">
        <ele>344.39478</ele>
        <time>2023-04-10T14:37:15.000Z</time>
      </trkpt>
      <trkpt lat="45.83828" lon="4.70324">
        <ele>344.47931</ele>
        <time>2023-04-10T14:37:16.000Z</time>
      </trkpt>
      <trkpt lat="45.83827" lon="4.70317">
        <ele>344.66827</ele>
        <time>2023-04-10T14:37:17.000Z</time>
      </trkpt>
      <trkpt lat="45.83825" lon="4.7031">
        <ele>344.4881</ele>
        <time>2023-04-10T14:37:18.000Z</time>
      </trkpt>
      <trkpt lat="45.83823" lon="4.70303">
        <ele>344.35709</ele>
        <time>2023-04-10T14:37:19.000Z</time>
      </trkpt>
      <trkpt lat="45.83821" lon="4.70295">
        <ele>344.22629</ele>
        <time>2023-04-10T14:37:20.000Z</time>
      </trkpt>
      <trkpt lat="45.83819" lon="4.70285">
        <ele>344.08588</ele>
        <time>2023-04-10T14:37:21.000Z</time>
      </trkpt>
      <trkpt lat="45.83817" lon="4.70276">
        <ele>343.89066</ele>
        <time>2023-04-10T14:37:22.000Z</time>
      </trkpt>
      <trkpt lat="45.83814" lon="4.70267">
        <ele>343.7265</ele>
        <time>2023-04-10T14:37:23.000Z</time>
      </trkpt>
      <trkpt lat="45.83812" lon="4.7026">
        <ele>343.57758</ele>
        <time>2023-04-10T14:37:24.000Z</time>
      </trkpt>
      <trkpt lat="45.8381" lon="4.70253">
        <ele>343.41812</ele>
        <time>2023-04-10T14:37:25.000Z</time>
      </trkpt>
      <trkpt lat="45.8381" lon="4.70245">
        <ele>343.25223</ele>
        <time>2023-04-10T14:37:26.000Z</time>
      </trkpt>
      <trkpt lat="45.83807" lon="4.70237">
        <ele>343.11221</ele>
        <time>2023-04-10T14:37:27.000Z</time>
      </trkpt>
      <trkpt lat="45.83803" lon="4.70225">
        <ele>342.95361</ele>
        <time>2023-04-10T14:37:28.000Z</time>
      </trkpt>
      <trkpt lat="45.838" lon="4.70215">
        <ele>343.09848</ele>
        <time>2023-04-10T14:37:29.000Z</time>
      </trkpt>
      <trkpt lat="45.83799" lon="4.70207">
        <ele>343.24005</ele>
        <time>2023-04-10T14:37:30.000Z</time>
      </trkpt>
      <trkpt lat="45.83797" lon="4.70201">
        <ele>343.36423</ele>
        <time>2023-04-10T14:37:31.000Z</time>
      </trkpt>
      <trkpt lat="45.83799" lon="4.70197">
        <ele>343.42737</ele>
        <time>2023-04-10T14:37:32.000Z</time>
      </trkpt>
      <trkpt lat="45.83801" lon="4.70194">
        <ele>343.43903</ele>
        <time>2023-04-10T14:37:33.000Z</time>
      </trkpt>
      <trkpt lat="45.83805" lon="4.7019">
        <ele>343.3475</ele>
        <time>2023-04-10T14:37:34.000Z</time>
      </trkpt>
      <trkpt lat="45.83808" lon="4.70188">
        <ele>343.22208</ele>
        <time>2023-04-10T14:37:35.000Z</time>
      </trkpt>
      <trkpt lat="45.83812" lon="4.70185">
        <ele>343.08133</ele>
        <time>2023-04-10T14:37:36.000Z</time>
      </trkpt>
      <trkpt lat="45.83816" lon="4.70183">
        <ele>342.9133</ele>
        <time>2023-04-10T14:37:37.000Z</time>
      </trkpt>
      <trkpt lat="45.83819" lon="4.7018">
        <ele>342.63382</ele>
        <time>2023-04-10T14:37:38.000Z</time>
      </trkpt>
      <trkpt lat="45.83823" lon="4.70177">
        <ele>342.40262</ele>
        <time>2023-04-10T14:37:39.000Z</time>
      </trkpt>
      <trkpt lat="45.83827" lon="4.70173">
        <ele>342.21573</ele>
        <time>2023-04-10T14:37:40.000Z</time>
      </trkpt>
      <trkpt lat="45.83829" lon="4.70169">
        <ele>342.04358</ele>
        <time>2023-04-10T14:37:41.000Z</time>
      </trkpt>
      <trkpt lat="45.83832" lon="4.70164">
        <ele>341.85202</ele>
        <time>2023-04-10T14:37:42.000Z</time>
      </trkpt>
      <trkpt lat="45.83835" lon="4.7016">
        <ele>341.66986</ele>
        <time>2023-04-10T14:37:43.000Z</time>
      </trkpt>
      <trkpt lat="45.83837" lon="4.70155">
        <ele>341.42767</ele>
        <time>2023-04-10T14:37:44.000Z</time>
      </trkpt>
      <trkpt lat="45.8384" lon="4.7015">
        <ele>341.12192</ele>
        <time>2023-04-10T14:37:45.000Z</time>
      </trkpt>
      <trkpt lat="45.83842" lon="4.70145">
        <ele>340.82596</ele>
        <time>2023-04-10T14:37:46.000Z</time>
      </trkpt>
      <trkpt lat="45.83843" lon="4.70141">
        <ele>340.58676</ele>
        <time>2023-04-10T14:37:47.000Z</time>
      </trkpt>
      <trkpt lat="45.83845" lon="4.70137">
        <ele>340.38373</ele>
        <time>2023-04-10T14:37:48.000Z</time>
      </trkpt>
      <trkpt lat="45.83847" lon="4.70132">
        <ele>340.16855</ele>
        <time>2023-04-10T14:37:49.000Z</time>
      </trkpt>
      <trkpt lat="45.83848" lon="4.70128">
        <ele>340.00824</ele>
        <time>2023-04-10T14:37:50.000Z</time>
      </trkpt>
      <trkpt lat="45.83849" lon="4.70124">
        <ele>339.5484</ele>
        <time>2023-04-10T14:37:51.000Z</time>
      </trkpt>
      <trkpt lat="45.83851" lon="4.7012">
        <ele>339.08072</ele>
        <time>2023-04-10T14:37:52.000Z</time>
      </trkpt>
      <trkpt lat="45.83852" lon="4.70115">
        <ele>338.6933</ele>
        <time>2023-04-10T14:37:53.000Z</time>
      </trkpt>
      <trkpt lat="45.83853" lon="4.70111">
        <ele>338.38104</ele>
        <time>2023-04-10T14:37:54.000Z</time>
      </trkpt>
      <trkpt lat="45.83854" lon="4.70106">
        <ele>338.16083</ele>
        <time>2023-04-10T14:37:55.000Z</time>
      </trkpt>
      <trkpt lat="45.83854" lon="4.70102">
        <ele>338.13092</ele>
        <time>2023-04-10T14:37:56.000Z</time>
      </trkpt>
      <trkpt lat="45.83855" lon="4.70097">
        <ele>338.15015</ele>
        <time>2023-04-10T14:37:57.000Z</time>
      </trkpt>
      <trkpt lat="45.83856" lon="4.70093">
        <ele>338.14578</ele>
        <time>2023-04-10T14:37:58.000Z</time>
      </trkpt>
      <trkpt lat="45.83856" lon="4.70089">
        <ele>338.19565</ele>
        <time>2023-04-10T14:37:59.000Z</time>
      </trkpt>
      <trkpt lat="45.83857" lon="4.70086">
        <ele>338.25803</ele>
        <time>2023-04-10T14:38:00.000Z</time>
      </trkpt>
      <trkpt lat="45.83858" lon="4.70081">
        <ele>337.99161</ele>
        <time>2023-04-10T14:38:01.000Z</time>
      </trkpt>
      <trkpt lat="45.83858" lon="4.70077">
        <ele>337.85309</ele>
        <time>2023-04-10T14:38:02.000Z</time>
      </trkpt>
      <trkpt lat="45.83859" lon="4.70072">
        <ele>337.67172</ele>
        <time>2023-04-10T14:38:03.000Z</time>
      </trkpt>
      <trkpt lat="45.8386" lon="4.70067">
        <ele>337.52942</ele>
        <time>2023-04-10T14:38:04.000Z</time>
      </trkpt>
      <trkpt lat="45.83861" lon="4.70063">
        <ele>337.39633</ele>
        <time>2023-04-10T14:38:05.000Z</time>
      </trkpt>
      <trkpt lat="45.83862" lon="4.70057">
        <ele>337.26868</ele>
        <time>2023-04-10T14:38:06.000Z</time>
      </trkpt>
      <trkpt lat="45.83864" lon="4.70051">
        <ele>337.05219</ele>
        <time>2023-04-10T14:38:07.000Z</time>
      </trkpt>
      <trkpt lat="45.83866" lon="4.70046">
        <ele>336.91843</ele>
        <time>2023-04-10T14:38:08.000Z</time>
      </trkpt>
      <trkpt lat="45.83868" lon="4.7004">
        <ele>336.75037</ele>
        <time>2023-04-10T14:38:09.000Z</time>
      </trkpt>
      <trkpt lat="45.83869" lon="4.70034">
        <ele>336.53793</ele>
        <time>2023-04-10T14:38:10.000Z</time>
      </trkpt>
      <trkpt lat="45.83871" lon="4.70028">
        <ele>336.78024</ele>
        <time>2023-04-10T14:38:11.000Z</time>
      </trkpt>
      <trkpt lat="45.83873" lon="4.70024">
        <ele>337.07111</ele>
        <time>2023-04-10T14:38:12.000Z</time>
      </trkpt>
      <trkpt lat="45.83876" lon="4.70019">
        <ele>337.00592</ele>
        <time>2023-04-10T14:38:13.000Z</time>
      </trkpt>
      <trkpt lat="45.83879" lon="4.70014">
        <ele>336.97504</ele>
        <time>2023-04-10T14:38:14.000Z</time>
      </trkpt>
      <trkpt lat="45.83882" lon="4.70009">
        <ele>336.96234</ele>
        <time>2023-04-10T14:38:15.000Z</time>
      </trkpt>
      <trkpt lat="45.83884" lon="4.70005">
        <ele>336.74142</ele>
        <time>2023-04-10T14:38:16.000Z</time>
      </trkpt>
      <trkpt lat="45.83887" lon="4.7">
        <ele>336.50201</ele>
        <time>2023-04-10T14:38:17.000Z</time>
      </trkpt>
      <trkpt lat="45.83889" lon="4.69995">
        <ele>336.24615</ele>
        <time>2023-04-10T14:38:18.000Z</time>
      </trkpt>
      <trkpt lat="45.83892" lon="4.69991">
        <ele>335.95334</ele>
        <time>2023-04-10T14:38:19.000Z</time>
      </trkpt>
      <trkpt lat="45.83894" lon="4.69985">
        <ele>335.62875</ele>
        <time>2023-04-10T14:38:20.000Z</time>
      </trkpt>
      <trkpt lat="45.83897" lon="4.6998">
        <ele>335.64227</ele>
        <time>2023-04-10T14:38:21.000Z</time>
      </trkpt>
      <trkpt lat="45.83899" lon="4.69976">
        <ele>335.63702</ele>
        <time>2023-04-10T14:38:22.000Z</time>
      </trkpt>
      <trkpt lat="45.83903" lon="4.69971">
        <ele>335.62408</ele>
        <time>2023-04-10T14:38:23.000Z</time>
      </trkpt>
      <trkpt lat="45.83907" lon="4.69966">
        <ele>335.6156</ele>
        <time>2023-04-10T14:38:24.000Z</time>
      </trkpt>
      <trkpt lat="45.8391" lon="4.69962">
        <ele>335.62097</ele>
        <time>2023-04-10T14:38:25.000Z</time>
      </trkpt>
      <trkpt lat="45.83913" lon="4.69957">
        <ele>335.60516</ele>
        <time>2023-04-10T14:38:26.000Z</time>
      </trkpt>
      <trkpt lat="45.83917" lon="4.69951">
        <ele>335.60248</ele>
        <time>2023-04-10T14:38:27.000Z</time>
      </trkpt>
      <trkpt lat="45.8392" lon="4.69946">
        <ele>335.59424</ele>
        <time>2023-04-10T14:38:28.000Z</time>
      </trkpt>
      <trkpt lat="45.83924" lon="4.69942">
        <ele>335.66827</ele>
        <time>2023-04-10T14:38:29.000Z</time>
      </trkpt>
      <trkpt lat="45.83927" lon="4.69938">
        <ele>335.78357</ele>
        <time>2023-04-10T14:38:30.000Z</time>
      </trkpt>
      <trkpt lat="45.83929" lon="4.69933">
        <ele>335.47934</ele>
        <time>2023-04-10T14:38:31.000Z</time>
      </trkpt>
      <trkpt lat="45.83932" lon="4.69928">
        <ele>335.22675</ele>
        <time>2023-04-10T14:38:32.000Z</time>
      </trkpt>
      <trkpt lat="45.83935" lon="4.69923">
        <ele>334.96722</ele>
        <time>2023-04-10T14:38:33.000Z</time>
      </trkpt>
      <trkpt lat="45.83936" lon="4.69917">
        <ele>334.64969</ele>
        <time>2023-04-10T14:38:34.000Z</time>
      </trkpt>
      <trkpt lat="45.83939" lon="4.69912">
        <ele>334.34259</ele>
        <time>2023-04-10T14:38:35.000Z</time>
      </trkpt>
      <trkpt lat="45.83942" lon="4.69906">
        <ele>334.02716</ele>
        <time>2023-04-10T14:38:36.000Z</time>
      </trkpt>
      <trkpt lat="45.83945" lon="4.69901">
        <ele>333.7287</ele>
        <time>2023-04-10T14:38:37.000Z</time>
      </trkpt>
      <trkpt lat="45.83947" lon="4.69896">
        <ele>333.46066</ele>
        <time>2023-04-10T14:38:38.000Z</time>
      </trkpt>
      <trkpt lat="45.83951" lon="4.69892">
        <ele>333.17517</ele>
        <time>2023-04-10T14:38:39.000Z</time>
      </trkpt>
      <trkpt lat="45.83953" lon="4.69887">
        <ele>332.88174</ele>
        <time>2023-04-10T14:38:40.000Z</time>
      </trkpt>
      <trkpt lat="45.83956" lon="4.69883">
        <ele>332.58157</ele>
        <time>2023-04-10T14:38:41.000Z</time>
      </trkpt>
      <trkpt lat="45.83959" lon="4.69878">
        <ele>332.24844</ele>
        <time>2023-04-10T14:38:42.000Z</time>
      </trkpt>
      <trkpt lat="45.83961" lon="4.69873">
        <ele>331.96182</ele>
        <time>2023-04-10T14:38:43.000Z</time>
      </trkpt>
      <trkpt lat="45.83964" lon="4.69869">
        <ele>331.67242</ele>
        <time>2023-04-10T14:38:44.000Z</time>
      </trkpt>
      <trkpt lat="45.83966" lon="4.69866">
        <ele>331.40063</ele>
        <time>2023-04-10T14:38:45.000Z</time>
      </trkpt>
      <trkpt lat="45.83969" lon="4.69861">
        <ele>331.09283</ele>
        <time>2023-04-10T14:38:46.000Z</time>
      </trkpt>
      <trkpt lat="45.83972" lon="4.69856">
        <ele>330.77936</ele>
        <time>2023-04-10T14:38:47.000Z</time>
      </trkpt>
      <trkpt lat="45.83975" lon="4.69852">
        <ele>330.32648</ele>
        <time>2023-04-10T14:38:48.000Z</time>
      </trkpt>
      <trkpt lat="45.83977" lon="4.69847">
        <ele>329.7728</ele>
        <time>2023-04-10T14:38:49.000Z</time>
      </trkpt>
      <trkpt lat="45.8398" lon="4.69842">
        <ele>329.23651</ele>
        <time>2023-04-10T14:38:50.000Z</time>
      </trkpt>
      <trkpt lat="45.83983" lon="4.69837">
        <ele>329.30481</ele>
        <time>2023-04-10T14:38:51.000Z</time>
      </trkpt>
      <trkpt lat="45.83985" lon="4.69832">
        <ele>329.32162</ele>
        <time>2023-04-10T14:38:52.000Z</time>
      </trkpt>
      <trkpt lat="45.83988" lon="4.69827">
        <ele>329.6861</ele>
        <time>2023-04-10T14:38:53.000Z</time>
      </trkpt>
      <trkpt lat="45.8399" lon="4.69822">
        <ele>330.08249</ele>
        <time>2023-04-10T14:38:54.000Z</time>
      </trkpt>
      <trkpt lat="45.83994" lon="4.69817">
        <ele>330.42438</ele>
        <time>2023-04-10T14:38:55.000Z</time>
      </trkpt>
      <trkpt lat="45.83997" lon="4.69813">
        <ele>330.75662</ele>
        <time>2023-04-10T14:38:56.000Z</time>
      </trkpt>
      <trkpt lat="45.84" lon="4.69808">
        <ele>331.07858</ele>
        <time>2023-04-10T14:38:57.000Z</time>
      </trkpt>
      <trkpt lat="45.84003" lon="4.69802">
        <ele>331.37509</ele>
        <time>2023-04-10T14:38:58.000Z</time>
      </trkpt>
      <trkpt lat="45.84006" lon="4.69797">
        <ele>331.67801</ele>
        <time>2023-04-10T14:38:59.000Z</time>
      </trkpt>
      <trkpt lat="45.84008" lon="4.69792">
        <ele>331.97235</ele>
        <time>2023-04-10T14:39:00.000Z</time>
      </trkpt>
      <trkpt lat="45.84011" lon="4.69785">
        <ele>332.27884</ele>
        <time>2023-04-10T14:39:01.000Z</time>
      </trkpt>
      <trkpt lat="45.84014" lon="4.69778">
        <ele>332.55789</ele>
        <time>2023-04-10T14:39:02.000Z</time>
      </trkpt>
      <trkpt lat="45.84019" lon="4.69772">
        <ele>332.80023</ele>
        <time>2023-04-10T14:39:03.000Z</time>
      </trkpt>
      <trkpt lat="45.84024" lon="4.69765">
        <ele>333.03299</ele>
        <time>2023-04-10T14:39:04.000Z</time>
      </trkpt>
      <trkpt lat="45.84028" lon="4.6976">
        <ele>333.28656</ele>
        <time>2023-04-10T14:39:05.000Z</time>
      </trkpt>
      <trkpt lat="45.84031" lon="4.69754">
        <ele>333.57596</ele>
        <time>2023-04-10T14:39:06.000Z</time>
      </trkpt>
      <trkpt lat="45.84034" lon="4.6975">
        <ele>333.87247</ele>
        <time>2023-04-10T14:39:07.000Z</time>
      </trkpt>
      <trkpt lat="45.84037" lon="4.69745">
        <ele>334.1145</ele>
        <time>2023-04-10T14:39:08.000Z</time>
      </trkpt>
      <trkpt lat="45.84039" lon="4.69741">
        <ele>334.35822</ele>
        <time>2023-04-10T14:39:09.000Z</time>
      </trkpt>
      <trkpt lat="45.84042" lon="4.69737">
        <ele>334.48441</ele>
        <time>2023-04-10T14:39:10.000Z</time>
      </trkpt>
      <trkpt lat="45.84045" lon="4.69734">
        <ele>334.28775</ele>
        <time>2023-04-10T14:39:11.000Z</time>
      </trkpt>
      <trkpt lat="45.84046" lon="4.69731">
        <ele>334.09515</ele>
        <time>2023-04-10T14:39:12.000Z</time>
      </trkpt>
      <trkpt lat="45.84049" lon="4.69727">
        <ele>333.88477</ele>
        <time>2023-04-10T14:39:14.000Z</time>
      </trkpt>
      <trkpt lat="45.8405" lon="4.69724">
        <ele>333.64728</ele>
        <time>2023-04-10T14:39:15.000Z</time>
      </trkpt>
      <trkpt lat="45.84051" lon="4.69722">
        <ele>333.40289</ele>
        <time>2023-04-10T14:39:16.000Z</time>
      </trkpt>
      <trkpt lat="45.84053" lon="4.6972">
        <ele>333.33203</ele>
        <time>2023-04-10T14:39:17.000Z</time>
      </trkpt>
      <trkpt lat="45.84054" lon="4.69717">
        <ele>333.24396</ele>
        <time>2023-04-10T14:39:18.000Z</time>
      </trkpt>
      <trkpt lat="45.84055" lon="4.69715">
        <ele>333.18234</ele>
        <time>2023-04-10T14:39:19.000Z</time>
      </trkpt>
      <trkpt lat="45.84057" lon="4.69712">
        <ele>333.18304</ele>
        <time>2023-04-10T14:39:20.000Z</time>
      </trkpt>
      <trkpt lat="45.8406" lon="4.6971">
        <ele>333.18011</ele>
        <time>2023-04-10T14:39:21.000Z</time>
      </trkpt>
      <trkpt lat="45.84062" lon="4.69707">
        <ele>333.13718</ele>
        <time>2023-04-10T14:39:22.000Z</time>
      </trkpt>
      <trkpt lat="45.84065" lon="4.69705">
        <ele>333.18668</ele>
        <time>2023-04-10T14:39:23.000Z</time>
      </trkpt>
      <trkpt lat="45.84067" lon="4.69703">
        <ele>333.24976</ele>
        <time>2023-04-10T14:39:24.000Z</time>
      </trkpt>
      <trkpt lat="45.84069" lon="4.697">
        <ele>333.33374</ele>
        <time>2023-04-10T14:39:25.000Z</time>
      </trkpt>
      <trkpt lat="45.84071" lon="4.69697">
        <ele>333.42624</ele>
        <time>2023-04-10T14:39:26.000Z</time>
      </trkpt>
      <trkpt lat="45.84073" lon="4.69694">
        <ele>333.55969</ele>
        <time>2023-04-10T14:39:27.000Z</time>
      </trkpt>
      <trkpt lat="45.84076" lon="4.69691">
        <ele>333.66644</ele>
        <time>2023-04-10T14:39:28.000Z</time>
      </trkpt>
      <trkpt lat="45.84078" lon="4.69688">
        <ele>333.74588</ele>
        <time>2023-04-10T14:39:29.000Z</time>
      </trkpt>
      <trkpt lat="45.84081" lon="4.69686">
        <ele>333.90607</ele>
        <time>2023-04-10T14:39:30.000Z</time>
      </trkpt>
      <trkpt lat="45.84083" lon="4.69684">
        <ele>334.11057</ele>
        <time>2023-04-10T14:39:31.000Z</time>
      </trkpt>
      <trkpt lat="45.84085" lon="4.69682">
        <ele>334.33032</ele>
        <time>2023-04-10T14:39:32.000Z</time>
      </trkpt>
      <trkpt lat="45.84088" lon="4.69681">
        <ele>334.46762</ele>
        <time>2023-04-10T14:39:33.000Z</time>
      </trkpt>
      <trkpt lat="45.84091" lon="4.69681">
        <ele>334.62582</ele>
        <time>2023-04-10T14:39:34.000Z</time>
      </trkpt>
      <trkpt lat="45.84095" lon="4.6968">
        <ele>334.80301</ele>
        <time>2023-04-10T14:39:35.000Z</time>
      </trkpt>
      <trkpt lat="45.84097" lon="4.69679">
        <ele>335.00424</ele>
        <time>2023-04-10T14:39:36.000Z</time>
      </trkpt>
      <trkpt lat="45.841" lon="4.69678">
        <ele>335.07391</ele>
        <time>2023-04-10T14:39:37.000Z</time>
      </trkpt>
      <trkpt lat="45.84103" lon="4.69678">
        <ele>335.09924</ele>
        <time>2023-04-10T14:39:38.000Z</time>
      </trkpt>
      <trkpt lat="45.84107" lon="4.69679">
        <ele>335.05887</ele>
        <time>2023-04-10T14:39:39.000Z</time>
      </trkpt>
      <trkpt lat="45.84111" lon="4.6968">
        <ele>334.99545</ele>
        <time>2023-04-10T14:39:40.000Z</time>
      </trkpt>
      <trkpt lat="45.84115" lon="4.6968">
        <ele>334.9538</ele>
        <time>2023-04-10T14:39:41.000Z</time>
      </trkpt>
      <trkpt lat="45.84119" lon="4.69681">
        <ele>334.9371</ele>
        <time>2023-04-10T14:39:42.000Z</time>
      </trkpt>
      <trkpt lat="45.84123" lon="4.69681">
        <ele>334.84357</ele>
        <time>2023-04-10T14:39:43.000Z</time>
      </trkpt>
      <trkpt lat="45.84127" lon="4.69682">
        <ele>334.76108</ele>
        <time>2023-04-10T14:39:44.000Z</time>
      </trkpt>
      <trkpt lat="45.84131" lon="4.69683">
        <ele>334.6442</ele>
        <time>2023-04-10T14:39:45.000Z</time>
      </trkpt>
      <trkpt lat="45.84135" lon="4.69683">
        <ele>334.49512</ele>
        <time>2023-04-10T14:39:46.000Z</time>
      </trkpt>
      <trkpt lat="45.84139" lon="4.69683">
        <ele>334.33524</ele>
        <time>2023-04-10T14:39:47.000Z</time>
      </trkpt>
      <trkpt lat="45.84143" lon="4.69684">
        <ele>334.19199</ele>
        <time>2023-04-10T14:39:48.000Z</time>
      </trkpt>
      <trkpt lat="45.84147" lon="4.69684">
        <ele>334.1553</ele>
        <time>2023-04-10T14:39:49.000Z</time>
      </trkpt>
      <trkpt lat="45.84151" lon="4.69685">
        <ele>334.06332</ele>
        <time>2023-04-10T14:39:50.000Z</time>
      </trkpt>
      <trkpt lat="45.84155" lon="4.69686">
        <ele>333.96436</ele>
        <time>2023-04-10T14:39:51.000Z</time>
      </trkpt>
      <trkpt lat="45.84159" lon="4.69687">
        <ele>333.85541</ele>
        <time>2023-04-10T14:39:52.000Z</time>
      </trkpt>
      <trkpt lat="45.84164" lon="4.69687">
        <ele>333.80893</ele>
        <time>2023-04-10T14:39:53.000Z</time>
      </trkpt>
      <trkpt lat="45.84168" lon="4.69688">
        <ele>333.75522</ele>
        <time>2023-04-10T14:39:54.000Z</time>
      </trkpt>
      <trkpt lat="45.84172" lon="4.69689">
        <ele>333.71005</ele>
        <time>2023-04-10T14:39:55.000Z</time>
      </trkpt>
      <trkpt lat="45.84177" lon="4.69689">
        <ele>333.73743</ele>
        <time>2023-04-10T14:39:56.000Z</time>
      </trkpt>
      <trkpt lat="45.84181" lon="4.6969">
        <ele>333.75385</ele>
        <time>2023-04-10T14:39:57.000Z</time>
      </trkpt>
      <trkpt lat="45.84185" lon="4.69691">
        <ele>333.87616</ele>
        <time>2023-04-10T14:39:58.000Z</time>
      </trkpt>
      <trkpt lat="45.84188" lon="4.69691">
        <ele>333.70856</ele>
        <time>2023-04-10T14:39:59.000Z</time>
      </trkpt>
      <trkpt lat="45.84192" lon="4.69692">
        <ele>333.58142</ele>
        <time>2023-04-10T14:40:00.000Z</time>
      </trkpt>
      <trkpt lat="45.84196" lon="4.69692">
        <ele>333.41965</ele>
        <time>2023-04-10T14:40:01.000Z</time>
      </trkpt>
      <trkpt lat="45.84199" lon="4.69692">
        <ele>333.27591</ele>
        <time>2023-04-10T14:40:02.000Z</time>
      </trkpt>
      <trkpt lat="45.84202" lon="4.69692">
        <ele>333.13016</ele>
        <time>2023-04-10T14:40:03.000Z</time>
      </trkpt>
      <trkpt lat="45.84206" lon="4.69692">
        <ele>332.95529</ele>
        <time>2023-04-10T14:40:04.000Z</time>
      </trkpt>
      <trkpt lat="45.8421" lon="4.69692">
        <ele>332.87653</ele>
        <time>2023-04-10T14:40:05.000Z</time>
      </trkpt>
      <trkpt lat="45.84213" lon="4.69693">
        <ele>332.76672</ele>
        <time>2023-04-10T14:40:06.000Z</time>
      </trkpt>
      <trkpt lat="45.84217" lon="4.69694">
        <ele>332.90656</ele>
        <time>2023-04-10T14:40:07.000Z</time>
      </trkpt>
      <trkpt lat="45.8422" lon="4.69696">
        <ele>333.11996</ele>
        <time>2023-04-10T14:40:08.000Z</time>
      </trkpt>
      <trkpt lat="45.84224" lon="4.69696">
        <ele>333.36334</ele>
        <time>2023-04-10T14:40:09.000Z</time>
      </trkpt>
      <trkpt lat="45.84228" lon="4.69696">
        <ele>333.62158</ele>
        <time>2023-04-10T14:40:10.000Z</time>
      </trkpt>
      <trkpt lat="45.84231" lon="4.69696">
        <ele>333.88879</ele>
        <time>2023-04-10T14:40:11.000Z</time>
      </trkpt>
      <trkpt lat="45.84234" lon="4.69696">
        <ele>334.18491</ele>
        <time>2023-04-10T14:40:12.000Z</time>
      </trkpt>
      <trkpt lat="45.84238" lon="4.69696">
        <ele>334.45041</ele>
        <time>2023-04-10T14:40:13.000Z</time>
      </trkpt>
      <trkpt lat="45.84241" lon="4.69696">
        <ele>334.74194</ele>
        <time>2023-04-10T14:40:14.000Z</time>
      </trkpt>
      <trkpt lat="45.84245" lon="4.69696">
        <ele>335.02667</ele>
        <time>2023-04-10T14:40:15.000Z</time>
      </trkpt>
      <trkpt lat="45.84248" lon="4.69695">
        <ele>335.24609</ele>
        <time>2023-04-10T14:40:16.000Z</time>
      </trkpt>
      <trkpt lat="45.84251" lon="4.69694">
        <ele>335.48825</ele>
        <time>2023-04-10T14:40:17.000Z</time>
      </trkpt>
      <trkpt lat="45.84255" lon="4.69692">
        <ele>335.60654</ele>
        <time>2023-04-10T14:40:18.000Z</time>
      </trkpt>
      <trkpt lat="45.84258" lon="4.6969">
        <ele>336.06842</ele>
        <time>2023-04-10T14:40:19.000Z</time>
      </trkpt>
      <trkpt lat="45.84261" lon="4.69688">
        <ele>336.47</ele>
        <time>2023-04-10T14:40:20.000Z</time>
      </trkpt>
      <trkpt lat="45.84265" lon="4.69687">
        <ele>336.93994</ele>
        <time>2023-04-10T14:40:21.000Z</time>
      </trkpt>
      <trkpt lat="45.84268" lon="4.69686">
        <ele>337.37436</ele>
        <time>2023-04-10T14:40:22.000Z</time>
      </trkpt>
      <trkpt lat="45.84272" lon="4.69685">
        <ele>337.85214</ele>
        <time>2023-04-10T14:40:23.000Z</time>
      </trkpt>
      <trkpt lat="45.84276" lon="4.69683">
        <ele>338.35941</ele>
        <time>2023-04-10T14:40:24.000Z</time>
      </trkpt>
      <trkpt lat="45.8428" lon="4.69682">
        <ele>338.79022</ele>
        <time>2023-04-10T14:40:25.000Z</time>
      </trkpt>
      <trkpt lat="45.84283" lon="4.69681">
        <ele>339.27618</ele>
        <time>2023-04-10T14:40:26.000Z</time>
      </trkpt>
      <trkpt lat="45.84287" lon="4.69679">
        <ele>339.51135</ele>
        <time>2023-04-10T14:40:27.000Z</time>
      </trkpt>
      <trkpt lat="45.84291" lon="4.69677">
        <ele>339.73343</ele>
        <time>2023-04-10T14:40:28.000Z</time>
      </trkpt>
      <trkpt lat="45.84295" lon="4.69674">
        <ele>339.85419</ele>
        <time>2023-04-10T14:40:29.000Z</time>
      </trkpt>
      <trkpt lat="45.84299" lon="4.69672">
        <ele>339.93076</ele>
        <time>2023-04-10T14:40:30.000Z</time>
      </trkpt>
      <trkpt lat="45.84306" lon="4.69667">
        <ele>339.99835</ele>
        <time>2023-04-10T14:40:31.000Z</time>
      </trkpt>
      <trkpt lat="45.8431" lon="4.69666">
        <ele>340.06598</ele>
        <time>2023-04-10T14:40:32.000Z</time>
      </trkpt>
      <trkpt lat="45.84315" lon="4.69665">
        <ele>340.14798</ele>
        <time>2023-04-10T14:40:33.000Z</time>
      </trkpt>
      <trkpt lat="45.84317" lon="4.69665">
        <ele>340.22916</ele>
        <time>2023-04-10T14:40:34.000Z</time>
      </trkpt>
      <trkpt lat="45.84321" lon="4.69664">
        <ele>340.29538</ele>
        <time>2023-04-10T14:40:35.000Z</time>
      </trkpt>
      <trkpt lat="45.84325" lon="4.69661">
        <ele>340.41074</ele>
        <time>2023-04-10T14:40:36.000Z</time>
      </trkpt>
      <trkpt lat="45.84329" lon="4.69657">
        <ele>340.60602</ele>
        <time>2023-04-10T14:40:37.000Z</time>
      </trkpt>
      <trkpt lat="45.84334" lon="4.69656">
        <ele>340.80911</ele>
        <time>2023-04-10T14:40:38.000Z</time>
      </trkpt>
      <trkpt lat="45.84339" lon="4.69653">
        <ele>341.00018</ele>
        <time>2023-04-10T14:40:39.000Z</time>
      </trkpt>
      <trkpt lat="45.84344" lon="4.69651">
        <ele>341.17358</ele>
        <time>2023-04-10T14:40:40.000Z</time>
      </trkpt>
      <trkpt lat="45.84348" lon="4.69649">
        <ele>341.27829</ele>
        <time>2023-04-10T14:40:41.000Z</time>
      </trkpt>
      <trkpt lat="45.84352" lon="4.69648">
        <ele>341.39697</ele>
        <time>2023-04-10T14:40:42.000Z</time>
      </trkpt>
      <trkpt lat="45.84356" lon="4.69647">
        <ele>341.44794</ele>
        <time>2023-04-10T14:40:43.000Z</time>
      </trkpt>
      <trkpt lat="45.8436" lon="4.69645">
        <ele>341.48163</ele>
        <time>2023-04-10T14:40:44.000Z</time>
      </trkpt>
      <trkpt lat="45.84364" lon="4.69643">
        <ele>341.48828</ele>
        <time>2023-04-10T14:40:45.000Z</time>
      </trkpt>
      <trkpt lat="45.84368" lon="4.69641">
        <ele>341.40302</ele>
        <time>2023-04-10T14:40:46.000Z</time>
      </trkpt>
      <trkpt lat="45.84372" lon="4.69639">
        <ele>341.31244</ele>
        <time>2023-04-10T14:40:47.000Z</time>
      </trkpt>
      <trkpt lat="45.84376" lon="4.69637">
        <ele>341.20917</ele>
        <time>2023-04-10T14:40:48.000Z</time>
      </trkpt>
      <trkpt lat="45.8438" lon="4.69634">
        <ele>341.20966</ele>
        <time>2023-04-10T14:40:49.000Z</time>
      </trkpt>
      <trkpt lat="45.84384" lon="4.69632">
        <ele>341.19565</ele>
        <time>2023-04-10T14:40:50.000Z</time>
      </trkpt>
      <trkpt lat="45.84388" lon="4.69627">
        <ele>341.20044</ele>
        <time>2023-04-10T14:40:51.000Z</time>
      </trkpt>
      <trkpt lat="45.84391" lon="4.69622">
        <ele>341.17322</ele>
        <time>2023-04-10T14:40:52.000Z</time>
      </trkpt>
      <trkpt lat="45.84392" lon="4.69616">
        <ele>341.28012</ele>
        <time>2023-04-10T14:40:53.000Z</time>
      </trkpt>
      <trkpt lat="45.84391" lon="4.6961">
        <ele>341.38647</ele>
        <time>2023-04-10T14:40:54.000Z</time>
      </trkpt>
      <trkpt lat="45.8439" lon="4.69604">
        <ele>341.48492</ele>
        <time>2023-04-10T14:40:55.000Z</time>
      </trkpt>
      <trkpt lat="45.84388" lon="4.69599">
        <ele>341.48276</ele>
        <time>2023-04-10T14:40:56.000Z</time>
      </trkpt>
      <trkpt lat="45.84386" lon="4.6959">
        <ele>341.27808</ele>
        <time>2023-04-10T14:40:57.000Z</time>
      </trkpt>
      <trkpt lat="45.84385" lon="4.69585">
        <ele>341.08615</ele>
        <time>2023-04-10T14:40:58.000Z</time>
      </trkpt>
      <trkpt lat="45.84385" lon="4.69579">
        <ele>340.65253</ele>
        <time>2023-04-10T14:40:59.000Z</time>
      </trkpt>
      <trkpt lat="45.84384" lon="4.69573">
        <ele>340.18878</ele>
        <time>2023-04-10T14:41:00.000Z</time>
      </trkpt>
      <trkpt lat="45.84382" lon="4.69567">
        <ele>339.62061</ele>
        <time>2023-04-10T14:41:01.000Z</time>
      </trkpt>
      <trkpt lat="45.84382" lon="4.69562">
        <ele>339.01166</ele>
        <time>2023-04-10T14:41:02.000Z</time>
      </trkpt>
      <trkpt lat="45.84382" lon="4.69556">
        <ele>338.47195</ele>
        <time>2023-04-10T14:41:03.000Z</time>
      </trkpt>
      <trkpt lat="45.84381" lon="4.6955">
        <ele>337.90121</ele>
        <time>2023-04-10T14:41:04.000Z</time>
      </trkpt>
      <trkpt lat="45.8438" lon="4.69546">
        <ele>337.34341</ele>
        <time>2023-04-10T14:41:05.000Z</time>
      </trkpt>
      <trkpt lat="45.84381" lon="4.69542">
        <ele>336.84354</ele>
        <time>2023-04-10T14:41:06.000Z</time>
      </trkpt>
      <trkpt lat="45.84382" lon="4.69538">
        <ele>336.33917</ele>
        <time>2023-04-10T14:41:07.000Z</time>
      </trkpt>
      <trkpt lat="45.84384" lon="4.69535">
        <ele>335.80817</ele>
        <time>2023-04-10T14:41:08.000Z</time>
      </trkpt>
      <trkpt lat="45.84387" lon="4.69533">
        <ele>335.17447</ele>
        <time>2023-04-10T14:41:09.000Z</time>
      </trkpt>
      <trkpt lat="45.8439" lon="4.69531">
        <ele>334.53235</ele>
        <time>2023-04-10T14:41:10.000Z</time>
      </trkpt>
      <trkpt lat="45.84396" lon="4.6953">
        <ele>333.8533</ele>
        <time>2023-04-10T14:41:11.000Z</time>
      </trkpt>
      <trkpt lat="45.84401" lon="4.69529">
        <ele>333.17047</ele>
        <time>2023-04-10T14:41:12.000Z</time>
      </trkpt>
      <trkpt lat="45.84406" lon="4.69528">
        <ele>332.3652</ele>
        <time>2023-04-10T14:41:13.000Z</time>
      </trkpt>
      <trkpt lat="45.84412" lon="4.69526">
        <ele>331.53131</ele>
        <time>2023-04-10T14:41:14.000Z</time>
      </trkpt>
      <trkpt lat="45.84417" lon="4.69525">
        <ele>331.01614</ele>
        <time>2023-04-10T14:41:15.000Z</time>
      </trkpt>
      <trkpt lat="45.84421" lon="4.69522">
        <ele>330.54099</ele>
        <time>2023-04-10T14:41:16.000Z</time>
      </trkpt>
      <trkpt lat="45.84427" lon="4.6952">
        <ele>330.15286</ele>
        <time>2023-04-10T14:41:17.000Z</time>
      </trkpt>
      <trkpt lat="45.84432" lon="4.69518">
        <ele>329.8161</ele>
        <time>2023-04-10T14:41:18.000Z</time>
      </trkpt>
      <trkpt lat="45.84439" lon="4.69516">
        <ele>329.33078</ele>
        <time>2023-04-10T14:41:19.000Z</time>
      </trkpt>
      <trkpt lat="45.84444" lon="4.69514">
        <ele>329.00784</ele>
        <time>2023-04-10T14:41:20.000Z</time>
      </trkpt>
      <trkpt lat="45.8445" lon="4.69511">
        <ele>328.80444</ele>
        <time>2023-04-10T14:41:21.000Z</time>
      </trkpt>
      <trkpt lat="45.84455" lon="4.69511">
        <ele>328.65497</ele>
        <time>2023-04-10T14:41:22.000Z</time>
      </trkpt>
      <trkpt lat="45.84461" lon="4.69509">
        <ele>328.66644</ele>
        <time>2023-04-10T14:41:23.000Z</time>
      </trkpt>
      <trkpt lat="45.84468" lon="4.69507">
        <ele>328.70047</ele>
        <time>2023-04-10T14:41:24.000Z</time>
      </trkpt>
      <trkpt lat="45.84474" lon="4.69503">
        <ele>328.73566</ele>
        <time>2023-04-10T14:41:25.000Z</time>
      </trkpt>
      <trkpt lat="45.84479" lon="4.695">
        <ele>328.78876</ele>
        <time>2023-04-10T14:41:26.000Z</time>
      </trkpt>
      <trkpt lat="45.84482" lon="4.695">
        <ele>328.85776</ele>
        <time>2023-04-10T14:41:27.000Z</time>
      </trkpt>
      <trkpt lat="45.84487" lon="4.69494">
        <ele>329.03424</ele>
        <time>2023-04-10T14:41:28.000Z</time>
      </trkpt>
      <trkpt lat="45.84489" lon="4.69492">
        <ele>329.27347</ele>
        <time>2023-04-10T14:41:29.000Z</time>
      </trkpt>
      <trkpt lat="45.84493" lon="4.6949">
        <ele>329.53534</ele>
        <time>2023-04-10T14:41:30.000Z</time>
      </trkpt>
      <trkpt lat="45.84497" lon="4.6949">
        <ele>329.96378</ele>
        <time>2023-04-10T14:41:32.000Z</time>
      </trkpt>
      <trkpt lat="45.84502" lon="4.69487">
        <ele>330.60223</ele>
        <time>2023-04-10T14:41:34.000Z</time>
      </trkpt>
      <trkpt lat="45.84507" lon="4.69485">
        <ele>331.38409</ele>
        <time>2023-04-10T14:41:36.000Z</time>
      </trkpt>
      <trkpt lat="45.8451" lon="4.69482">
        <ele>332.08545</ele>
        <time>2023-04-10T14:41:37.000Z</time>
      </trkpt>
      <trkpt lat="45.84514" lon="4.69478">
        <ele>332.57269</ele>
        <time>2023-04-10T14:41:38.000Z</time>
      </trkpt>
      <trkpt lat="45.84517" lon="4.69475">
        <ele>333.00128</ele>
        <time>2023-04-10T14:41:39.000Z</time>
      </trkpt>
      <trkpt lat="45.84521" lon="4.69473">
        <ele>333.45166</ele>
        <time>2023-04-10T14:41:40.000Z</time>
      </trkpt>
      <trkpt lat="45.84524" lon="4.69469">
        <ele>333.84833</ele>
        <time>2023-04-10T14:41:41.000Z</time>
      </trkpt>
      <trkpt lat="45.84528" lon="4.69467">
        <ele>334.66583</ele>
        <time>2023-04-10T14:41:42.000Z</time>
      </trkpt>
      <trkpt lat="45.84533" lon="4.69459">
        <ele>335.35107</ele>
        <time>2023-04-10T14:41:43.000Z</time>
      </trkpt>
      <trkpt lat="45.84539" lon="4.69456">
        <ele>336.01251</ele>
        <time>2023-04-10T14:41:44.000Z</time>
      </trkpt>
      <trkpt lat="45.84543" lon="4.69451">
        <ele>336.64951</ele>
        <time>2023-04-10T14:41:45.000Z</time>
      </trkpt>
      <trkpt lat="45.84547" lon="4.69448">
        <ele>337.04965</ele>
        <time>2023-04-10T14:41:46.000Z</time>
      </trkpt>
      <trkpt lat="45.8455" lon="4.69444">
        <ele>337.42151</ele>
        <time>2023-04-10T14:41:47.000Z</time>
      </trkpt>
      <trkpt lat="45.84555" lon="4.6944">
        <ele>337.81168</ele>
        <time>2023-04-10T14:41:48.000Z</time>
      </trkpt>
      <trkpt lat="45.84559" lon="4.69437">
        <ele>338.15836</ele>
        <time>2023-04-10T14:41:49.000Z</time>
      </trkpt>
      <trkpt lat="45.84564" lon="4.69433">
        <ele>338.57495</ele>
        <time>2023-04-10T14:41:50.000Z</time>
      </trkpt>
      <trkpt lat="45.84568" lon="4.69428">
        <ele>338.86325</ele>
        <time>2023-04-10T14:41:51.000Z</time>
      </trkpt>
      <trkpt lat="45.84572" lon="4.69425">
        <ele>339.03354</ele>
        <time>2023-04-10T14:41:52.000Z</time>
      </trkpt>
      <trkpt lat="45.84576" lon="4.69421">
        <ele>339.24634</ele>
        <time>2023-04-10T14:41:53.000Z</time>
      </trkpt>
      <trkpt lat="45.8458" lon="4.69417">
        <ele>339.3168</ele>
        <time>2023-04-10T14:41:54.000Z</time>
      </trkpt>
      <trkpt lat="45.84584" lon="4.69413">
        <ele>339.10757</ele>
        <time>2023-04-10T14:41:55.000Z</time>
      </trkpt>
      <trkpt lat="45.84588" lon="4.69409">
        <ele>338.72299</ele>
        <time>2023-04-10T14:41:56.000Z</time>
      </trkpt>
      <trkpt lat="45.84593" lon="4.69404">
        <ele>338.42569</ele>
        <time>2023-04-10T14:41:57.000Z</time>
      </trkpt>
      <trkpt lat="45.84597" lon="4.694">
        <ele>337.90631</ele>
        <time>2023-04-10T14:41:58.000Z</time>
      </trkpt>
      <trkpt lat="45.846" lon="4.69395">
        <ele>337.47906</ele>
        <time>2023-04-10T14:41:59.000Z</time>
      </trkpt>
      <trkpt lat="45.84604" lon="4.6939">
        <ele>337.08234</ele>
        <time>2023-04-10T14:42:00.000Z</time>
      </trkpt>
      <trkpt lat="45.84608" lon="4.69386">
        <ele>336.69186</ele>
        <time>2023-04-10T14:42:01.000Z</time>
      </trkpt>
      <trkpt lat="45.84612" lon="4.69383">
        <ele>336.2695</ele>
        <time>2023-04-10T14:42:02.000Z</time>
      </trkpt>
      <trkpt lat="45.84615" lon="4.6938">
        <ele>335.85614</ele>
        <time>2023-04-10T14:42:03.000Z</time>
      </trkpt>
      <trkpt lat="45.84618" lon="4.69377">
        <ele>335.38376</ele>
        <time>2023-04-10T14:42:04.000Z</time>
      </trkpt>
      <trkpt lat="45.84621" lon="4.69374">
        <ele>334.84772</ele>
        <time>2023-04-10T14:42:05.000Z</time>
      </trkpt>
      <trkpt lat="45.84624" lon="4.69371">
        <ele>334.3331</ele>
        <time>2023-04-10T14:42:06.000Z</time>
      </trkpt>
      <trkpt lat="45.84626" lon="4.69368">
        <ele>333.76636</ele>
        <time>2023-04-10T14:42:07.000Z</time>
      </trkpt>
      <trkpt lat="45.84628" lon="4.69366">
        <ele>333.24863</ele>
        <time>2023-04-10T14:42:08.000Z</time>
      </trkpt>
      <trkpt lat="45.8463" lon="4.69363">
        <ele>332.73389</ele>
        <time>2023-04-10T14:42:09.000Z</time>
      </trkpt>
      <trkpt lat="45.84633" lon="4.69361">
        <ele>332.07715</ele>
        <time>2023-04-10T14:42:10.000Z</time>
      </trkpt>
      <trkpt lat="45.84635" lon="4.69358">
        <ele>331.50824</ele>
        <time>2023-04-10T14:42:11.000Z</time>
      </trkpt>
      <trkpt lat="45.84637" lon="4.69354">
        <ele>330.98029</ele>
        <time>2023-04-10T14:42:12.000Z</time>
      </trkpt>
      <trkpt lat="45.84638" lon="4.6935">
        <ele>330.5527</ele>
        <time>2023-04-10T14:42:13.000Z</time>
      </trkpt>
      <trkpt lat="45.8464" lon="4.69346">
        <ele>330.29947</ele>
        <time>2023-04-10T14:42:14.000Z</time>
      </trkpt>
      <trkpt lat="45.84641" lon="4.69342">
        <ele>330.19986</ele>
        <time>2023-04-10T14:42:15.000Z</time>
      </trkpt>
      <trkpt lat="45.84642" lon="4.69337">
        <ele>329.61334</ele>
        <time>2023-04-10T14:42:16.000Z</time>
      </trkpt>
      <trkpt lat="45.84644" lon="4.69333">
        <ele>329.12726</ele>
        <time>2023-04-10T14:42:17.000Z</time>
      </trkpt>
      <trkpt lat="45.84645" lon="4.69328">
        <ele>328.76956</ele>
        <time>2023-04-10T14:42:18.000Z</time>
      </trkpt>
      <trkpt lat="45.84647" lon="4.69322">
        <ele>328.24942</ele>
        <time>2023-04-10T14:42:19.000Z</time>
      </trkpt>
      <trkpt lat="45.84649" lon="4.69313">
        <ele>327.59772</ele>
        <time>2023-04-10T14:42:20.000Z</time>
      </trkpt>
      <trkpt lat="45.84651" lon="4.69305">
        <ele>326.96075</ele>
        <time>2023-04-10T14:42:21.000Z</time>
      </trkpt>
      <trkpt lat="45.84652" lon="4.69295">
        <ele>326.37677</ele>
        <time>2023-04-10T14:42:22.000Z</time>
      </trkpt>
      <trkpt lat="45.84655" lon="4.69287">
        <ele>325.79688</ele>
        <time>2023-04-10T14:42:23.000Z</time>
      </trkpt>
      <trkpt lat="45.84657" lon="4.69277">
        <ele>325.12631</ele>
        <time>2023-04-10T14:42:24.000Z</time>
      </trkpt>
      <trkpt lat="45.84659" lon="4.69265">
        <ele>324.79562</ele>
        <time>2023-04-10T14:42:25.000Z</time>
      </trkpt>
      <trkpt lat="45.84663" lon="4.69247">
        <ele>324.49423</ele>
        <time>2023-04-10T14:42:26.000Z</time>
      </trkpt>
      <trkpt lat="45.84667" lon="4.69228">
        <ele>324.40079</ele>
        <time>2023-04-10T14:42:27.000Z</time>
      </trkpt>
      <trkpt lat="45.8467" lon="4.69217">
        <ele>324.24554</ele>
        <time>2023-04-10T14:42:28.000Z</time>
      </trkpt>
      <trkpt lat="45.84673" lon="4.69206">
        <ele>323.99713</ele>
        <time>2023-04-10T14:42:29.000Z</time>
      </trkpt>
      <trkpt lat="45.84673" lon="4.69196">
        <ele>323.83725</ele>
        <time>2023-04-10T14:42:30.000Z</time>
      </trkpt>
      <trkpt lat="45.84675" lon="4.69183">
        <ele>322.74084</ele>
        <time>2023-04-10T14:42:31.000Z</time>
      </trkpt>
      <trkpt lat="45.84674" lon="4.69169">
        <ele>321.79443</ele>
        <time>2023-04-10T14:42:32.000Z</time>
      </trkpt>
      <trkpt lat="45.84673" lon="4.69158">
        <ele>320.63226</ele>
        <time>2023-04-10T14:42:33.000Z</time>
      </trkpt>
      <trkpt lat="45.84673" lon="4.69147">
        <ele>319.26785</ele>
        <time>2023-04-10T14:42:34.000Z</time>
      </trkpt>
      <trkpt lat="45.84671" lon="4.69135">
        <ele>317.8168</ele>
        <time>2023-04-10T14:42:35.000Z</time>
      </trkpt>
      <trkpt lat="45.84671" lon="4.69123">
        <ele>316.91046</ele>
        <time>2023-04-10T14:42:36.000Z</time>
      </trkpt>
      <trkpt lat="45.84671" lon="4.69111">
        <ele>315.87286</ele>
        <time>2023-04-10T14:42:37.000Z</time>
      </trkpt>
      <trkpt lat="45.84671" lon="4.69099">
        <ele>314.82111</ele>
        <time>2023-04-10T14:42:38.000Z</time>
      </trkpt>
      <trkpt lat="45.84672" lon="4.69089">
        <ele>313.87714</ele>
        <time>2023-04-10T14:42:39.000Z</time>
      </trkpt>
      <trkpt lat="45.84674" lon="4.69078">
        <ele>313.01678</ele>
        <time>2023-04-10T14:42:40.000Z</time>
      </trkpt>
      <trkpt lat="45.84678" lon="4.69069">
        <ele>312.15198</ele>
        <time>2023-04-10T14:42:41.000Z</time>
      </trkpt>
      <trkpt lat="45.84682" lon="4.69062">
        <ele>311.2001</ele>
        <time>2023-04-10T14:42:42.000Z</time>
      </trkpt>
      <trkpt lat="45.84688" lon="4.69056">
        <ele>310.23248</ele>
        <time>2023-04-10T14:42:43.000Z</time>
      </trkpt>
      <trkpt lat="45.84695" lon="4.6905">
        <ele>309.39423</ele>
        <time>2023-04-10T14:42:44.000Z</time>
      </trkpt>
      <trkpt lat="45.84702" lon="4.69044">
        <ele>308.24744</ele>
        <time>2023-04-10T14:42:45.000Z</time>
      </trkpt>
      <trkpt lat="45.8471" lon="4.69039">
        <ele>307.10452</ele>
        <time>2023-04-10T14:42:46.000Z</time>
      </trkpt>
      <trkpt lat="45.84718" lon="4.69035">
        <ele>305.78439</ele>
        <time>2023-04-10T14:42:47.000Z</time>
      </trkpt>
      <trkpt lat="45.84726" lon="4.69032">
        <ele>304.52029</ele>
        <time>2023-04-10T14:42:48.000Z</time>
      </trkpt>
      <trkpt lat="45.84734" lon="4.69029">
        <ele>303.33502</ele>
        <time>2023-04-10T14:42:49.000Z</time>
      </trkpt>
      <trkpt lat="45.84741" lon="4.69024">
        <ele>302.14014</ele>
        <time>2023-04-10T14:42:50.000Z</time>
      </trkpt>
      <trkpt lat="45.84749" lon="4.69018">
        <ele>301.76529</ele>
        <time>2023-04-10T14:42:51.000Z</time>
      </trkpt>
      <trkpt lat="45.84757" lon="4.69012">
        <ele>301.26385</ele>
        <time>2023-04-10T14:42:52.000Z</time>
      </trkpt>
      <trkpt lat="45.84763" lon="4.69004">
        <ele>300.83392</ele>
        <time>2023-04-10T14:42:53.000Z</time>
      </trkpt>
      <trkpt lat="45.84771" lon="4.68999">
        <ele>300.38354</ele>
        <time>2023-04-10T14:42:54.000Z</time>
      </trkpt>
      <trkpt lat="45.84778" lon="4.68992">
        <ele>299.92413</ele>
        <time>2023-04-10T14:42:55.000Z</time>
      </trkpt>
      <trkpt lat="45.84787" lon="4.68983">
        <ele>299.40579</ele>
        <time>2023-04-10T14:42:56.000Z</time>
      </trkpt>
      <trkpt lat="45.84794" lon="4.68975">
        <ele>298.92947</ele>
        <time>2023-04-10T14:42:57.000Z</time>
      </trkpt>
      <trkpt lat="45.84801" lon="4.68968">
        <ele>298.41782</ele>
        <time>2023-04-10T14:42:58.000Z</time>
      </trkpt>
      <trkpt lat="45.84808" lon="4.68962">
        <ele>297.94162</ele>
        <time>2023-04-10T14:42:59.000Z</time>
      </trkpt>
      <trkpt lat="45.84816" lon="4.68956">
        <ele>297.40802</ele>
        <time>2023-04-10T14:43:00.000Z</time>
      </trkpt>
      <trkpt lat="45.84823" lon="4.6895">
        <ele>296.85236</ele>
        <time>2023-04-10T14:43:01.000Z</time>
      </trkpt>
      <trkpt lat="45.84831" lon="4.68945">
        <ele>296.35434</ele>
        <time>2023-04-10T14:43:02.000Z</time>
      </trkpt>
      <trkpt lat="45.84839" lon="4.68939">
        <ele>295.84372</ele>
        <time>2023-04-10T14:43:03.000Z</time>
      </trkpt>
      <trkpt lat="45.84846" lon="4.68932">
        <ele>295.33572</ele>
        <time>2023-04-10T14:43:04.000Z</time>
      </trkpt>
      <trkpt lat="45.84853" lon="4.68927">
        <ele>294.86023</ele>
        <time>2023-04-10T14:43:05.000Z</time>
      </trkpt>
      <trkpt lat="45.84861" lon="4.68921">
        <ele>294.36832</ele>
        <time>2023-04-10T14:43:06.000Z</time>
      </trkpt>
      <trkpt lat="45.84868" lon="4.68916">
        <ele>293.94318</ele>
        <time>2023-04-10T14:43:07.000Z</time>
      </trkpt>
      <trkpt lat="45.84876" lon="4.68911">
        <ele>293.4502</ele>
        <time>2023-04-10T14:43:08.000Z</time>
      </trkpt>
      <trkpt lat="45.84883" lon="4.68906">
        <ele>293.04132</ele>
        <time>2023-04-10T14:43:09.000Z</time>
      </trkpt>
      <trkpt lat="45.8489" lon="4.689">
        <ele>292.54706</ele>
        <time>2023-04-10T14:43:10.000Z</time>
      </trkpt>
      <trkpt lat="45.84897" lon="4.68894">
        <ele>292.1073</ele>
        <time>2023-04-10T14:43:11.000Z</time>
      </trkpt>
      <trkpt lat="45.84905" lon="4.68888">
        <ele>291.74268</ele>
        <time>2023-04-10T14:43:12.000Z</time>
      </trkpt>
      <trkpt lat="45.84911" lon="4.68882">
        <ele>291.41016</ele>
        <time>2023-04-10T14:43:13.000Z</time>
      </trkpt>
      <trkpt lat="45.84917" lon="4.68876">
        <ele>291.07477</ele>
        <time>2023-04-10T14:43:14.000Z</time>
      </trkpt>
      <trkpt lat="45.84923" lon="4.68871">
        <ele>290.81171</ele>
        <time>2023-04-10T14:43:15.000Z</time>
      </trkpt>
      <trkpt lat="45.84929" lon="4.68865">
        <ele>290.55621</ele>
        <time>2023-04-10T14:43:16.000Z</time>
      </trkpt>
      <trkpt lat="45.84935" lon="4.6886">
        <ele>290.35574</ele>
        <time>2023-04-10T14:43:17.000Z</time>
      </trkpt>
      <trkpt lat="45.84941" lon="4.68854">
        <ele>290.21347</ele>
        <time>2023-04-10T14:43:18.000Z</time>
      </trkpt>
      <trkpt lat="45.84948" lon="4.68848">
        <ele>290.00568</ele>
        <time>2023-04-10T14:43:19.000Z</time>
      </trkpt>
      <trkpt lat="45.84954" lon="4.68842">
        <ele>289.9115</ele>
        <time>2023-04-10T14:43:20.000Z</time>
      </trkpt>
      <trkpt lat="45.8496" lon="4.68835">
        <ele>289.81808</ele>
        <time>2023-04-10T14:43:21.000Z</time>
      </trkpt>
      <trkpt lat="45.84965" lon="4.6883">
        <ele>289.71906</ele>
        <time>2023-04-10T14:43:22.000Z</time>
      </trkpt>
      <trkpt lat="45.84971" lon="4.68824">
        <ele>289.68732</ele>
        <time>2023-04-10T14:43:23.000Z</time>
      </trkpt>
      <trkpt lat="45.84976" lon="4.68818">
        <ele>288.72296</ele>
        <time>2023-04-10T14:43:24.000Z</time>
      </trkpt>
      <trkpt lat="45.84981" lon="4.68813">
        <ele>287.77142</ele>
        <time>2023-04-10T14:43:25.000Z</time>
      </trkpt>
      <trkpt lat="45.84986" lon="4.68807">
        <ele>286.83652</ele>
        <time>2023-04-10T14:43:26.000Z</time>
      </trkpt>
      <trkpt lat="45.8499" lon="4.688">
        <ele>285.88751</ele>
        <time>2023-04-10T14:43:27.000Z</time>
      </trkpt>
      <trkpt lat="45.84994" lon="4.68793">
        <ele>284.97623</ele>
        <time>2023-04-10T14:43:28.000Z</time>
      </trkpt>
      <trkpt lat="45.84999" lon="4.68787">
        <ele>284.02948</ele>
        <time>2023-04-10T14:43:29.000Z</time>
      </trkpt>
      <trkpt lat="45.85003" lon="4.6878">
        <ele>283.13168</ele>
        <time>2023-04-10T14:43:30.000Z</time>
      </trkpt>
      <trkpt lat="45.85007" lon="4.68773">
        <ele>282.22684</ele>
        <time>2023-04-10T14:43:31.000Z</time>
      </trkpt>
      <trkpt lat="45.85011" lon="4.68766">
        <ele>281.28683</ele>
        <time>2023-04-10T14:43:32.000Z</time>
      </trkpt>
      <trkpt lat="45.85014" lon="4.68759">
        <ele>280.35541</ele>
        <time>2023-04-10T14:43:33.000Z</time>
      </trkpt>
      <trkpt lat="45.85017" lon="4.68753">
        <ele>280.46161</ele>
        <time>2023-04-10T14:43:34.000Z</time>
      </trkpt>
      <trkpt lat="45.85021" lon="4.68745">
        <ele>280.54483</ele>
        <time>2023-04-10T14:43:35.000Z</time>
      </trkpt>
      <trkpt lat="45.85024" lon="4.68738">
        <ele>280.65829</ele>
        <time>2023-04-10T14:43:36.000Z</time>
      </trkpt>
      <trkpt lat="45.85027" lon="4.68732">
        <ele>280.74976</ele>
        <time>2023-04-10T14:43:37.000Z</time>
      </trkpt>
      <trkpt lat="45.8503" lon="4.68725">
        <ele>280.8103</ele>
        <time>2023-04-10T14:43:38.000Z</time>
      </trkpt>
      <trkpt lat="45.85032" lon="4.68718">
        <ele>280.90524</ele>
        <time>2023-04-10T14:43:39.000Z</time>
      </trkpt>
      <trkpt lat="45.85035" lon="4.68712">
        <ele>280.98877</ele>
        <time>2023-04-10T14:43:40.000Z</time>
      </trkpt>
      <trkpt lat="45.85038" lon="4.68705">
        <ele>281.12726</ele>
        <time>2023-04-10T14:43:41.000Z</time>
      </trkpt>
      <trkpt lat="45.8504" lon="4.68698">
        <ele>281.25461</ele>
        <time>2023-04-10T14:43:42.000Z</time>
      </trkpt>
      <trkpt lat="45.85043" lon="4.68691">
        <ele>281.29352</ele>
        <time>2023-04-10T14:43:43.000Z</time>
      </trkpt>
      <trkpt lat="45.85045" lon="4.68684">
        <ele>282.32965</ele>
        <time>2023-04-10T14:43:44.000Z</time>
      </trkpt>
      <trkpt lat="45.85048" lon="4.68677">
        <ele>283.40649</ele>
        <time>2023-04-10T14:43:45.000Z</time>
      </trkpt>
      <trkpt lat="45.85052" lon="4.68672">
        <ele>284.48785</ele>
        <time>2023-04-10T14:43:46.000Z</time>
      </trkpt>
      <trkpt lat="45.85056" lon="4.68666">
        <ele>286.5043</ele>
        <time>2023-04-10T14:43:47.000Z</time>
      </trkpt>
      <trkpt lat="45.85057" lon="4.68658">
        <ele>288.70929</ele>
        <time>2023-04-10T14:43:48.000Z</time>
      </trkpt>
      <trkpt lat="45.85059" lon="4.6865">
        <ele>290.98999</ele>
        <time>2023-04-10T14:43:49.000Z</time>
      </trkpt>
      <trkpt lat="45.85061" lon="4.68643">
        <ele>292.34485</ele>
        <time>2023-04-10T14:43:50.000Z</time>
      </trkpt>
      <trkpt lat="45.85064" lon="4.68634">
        <ele>293.89496</ele>
        <time>2023-04-10T14:43:51.000Z</time>
      </trkpt>
      <trkpt lat="45.85066" lon="4.68626">
        <ele>295.27075</ele>
        <time>2023-04-10T14:43:52.000Z</time>
      </trkpt>
      <trkpt lat="45.85068" lon="4.68619">
        <ele>296.55023</ele>
        <time>2023-04-10T14:43:53.000Z</time>
      </trkpt>
      <trkpt lat="45.85072" lon="4.68611">
        <ele>296.89963</ele>
        <time>2023-04-10T14:43:54.000Z</time>
      </trkpt>
      <trkpt lat="45.85074" lon="4.68604">
        <ele>297.26511</ele>
        <time>2023-04-10T14:43:55.000Z</time>
      </trkpt>
      <trkpt lat="45.85077" lon="4.68596">
        <ele>297.55115</ele>
        <time>2023-04-10T14:43:56.000Z</time>
      </trkpt>
      <trkpt lat="45.8508" lon="4.68588">
        <ele>297.80862</ele>
        <time>2023-04-10T14:43:57.000Z</time>
      </trkpt>
      <trkpt lat="45.85082" lon="4.68582">
        <ele>297.99292</ele>
        <time>2023-04-10T14:43:58.000Z</time>
      </trkpt>
      <trkpt lat="45.85085" lon="4.68575">
        <ele>298.21729</ele>
        <time>2023-04-10T14:43:59.000Z</time>
      </trkpt>
      <trkpt lat="45.85088" lon="4.68567">
        <ele>298.38214</ele>
        <time>2023-04-10T14:44:00.000Z</time>
      </trkpt>
      <trkpt lat="45.85092" lon="4.6856">
        <ele>298.59726</ele>
        <time>2023-04-10T14:44:01.000Z</time>
      </trkpt>
      <trkpt lat="45.85095" lon="4.68553">
        <ele>298.82401</ele>
        <time>2023-04-10T14:44:02.000Z</time>
      </trkpt>
      <trkpt lat="45.85099" lon="4.68546">
        <ele>299.10416</ele>
        <time>2023-04-10T14:44:03.000Z</time>
      </trkpt>
      <trkpt lat="45.85103" lon="4.68538">
        <ele>299.31396</ele>
        <time>2023-04-10T14:44:04.000Z</time>
      </trkpt>
      <trkpt lat="45.85106" lon="4.68531">
        <ele>299.55844</ele>
        <time>2023-04-10T14:44:05.000Z</time>
      </trkpt>
      <trkpt lat="45.85111" lon="4.68524">
        <ele>299.78925</ele>
        <time>2023-04-10T14:44:06.000Z</time>
      </trkpt>
      <trkpt lat="45.85115" lon="4.68517">
        <ele>299.05023</ele>
        <time>2023-04-10T14:44:07.000Z</time>
      </trkpt>
      <trkpt lat="45.85119" lon="4.68511">
        <ele>298.08728</ele>
        <time>2023-04-10T14:44:08.000Z</time>
      </trkpt>
      <trkpt lat="45.85123" lon="4.68505">
        <ele>297.0242</ele>
        <time>2023-04-10T14:44:09.000Z</time>
      </trkpt>
      <trkpt lat="45.85127" lon="4.68499">
        <ele>296.9361</ele>
        <time>2023-04-10T14:44:10.000Z</time>
      </trkpt>
      <trkpt lat="45.85131" lon="4.68493">
        <ele>296.61649</ele>
        <time>2023-04-10T14:44:11.000Z</time>
      </trkpt>
      <trkpt lat="45.85135" lon="4.68486">
        <ele>296.46588</ele>
        <time>2023-04-10T14:44:12.000Z</time>
      </trkpt>
      <trkpt lat="45.85139" lon="4.68479">
        <ele>296.40491</ele>
        <time>2023-04-10T14:44:13.000Z</time>
      </trkpt>
      <trkpt lat="45.85143" lon="4.68473">
        <ele>296.27832</ele>
        <time>2023-04-10T14:44:14.000Z</time>
      </trkpt>
      <trkpt lat="45.85147" lon="4.68466">
        <ele>296.77368</ele>
        <time>2023-04-10T14:44:15.000Z</time>
      </trkpt>
      <trkpt lat="45.85151" lon="4.6846">
        <ele>295.74994</ele>
        <time>2023-04-10T14:44:16.000Z</time>
      </trkpt>
      <trkpt lat="45.85155" lon="4.68453">
        <ele>294.71579</ele>
        <time>2023-04-10T14:44:17.000Z</time>
      </trkpt>
      <trkpt lat="45.85159" lon="4.68446">
        <ele>293.79599</ele>
        <time>2023-04-10T14:44:18.000Z</time>
      </trkpt>
      <trkpt lat="45.85162" lon="4.6844">
        <ele>292.83072</ele>
        <time>2023-04-10T14:44:19.000Z</time>
      </trkpt>
      <trkpt lat="45.85166" lon="4.68432">
        <ele>291.88226</ele>
        <time>2023-04-10T14:44:20.000Z</time>
      </trkpt>
      <trkpt lat="45.8517" lon="4.68425">
        <ele>290.86346</ele>
        <time>2023-04-10T14:44:21.000Z</time>
      </trkpt>
      <trkpt lat="45.85173" lon="4.68419">
        <ele>289.83597</ele>
        <time>2023-04-10T14:44:22.000Z</time>
      </trkpt>
      <trkpt lat="45.85177" lon="4.68413">
        <ele>290.28729</ele>
        <time>2023-04-10T14:44:23.000Z</time>
      </trkpt>
      <trkpt lat="45.85182" lon="4.68408">
        <ele>290.23471</ele>
        <time>2023-04-10T14:44:24.000Z</time>
      </trkpt>
      <trkpt lat="45.85186" lon="4.68402">
        <ele>290.14719</ele>
        <time>2023-04-10T14:44:25.000Z</time>
      </trkpt>
      <trkpt lat="45.85189" lon="4.68394">
        <ele>290.10059</ele>
        <time>2023-04-10T14:44:26.000Z</time>
      </trkpt>
      <trkpt lat="45.85194" lon="4.68387">
        <ele>290.04718</ele>
        <time>2023-04-10T14:44:27.000Z</time>
      </trkpt>
      <trkpt lat="45.85198" lon="4.6838">
        <ele>289.14359</ele>
        <time>2023-04-10T14:44:28.000Z</time>
      </trkpt>
      <trkpt lat="45.85202" lon="4.68373">
        <ele>288.15314</ele>
        <time>2023-04-10T14:44:29.000Z</time>
      </trkpt>
      <trkpt lat="45.85206" lon="4.68366">
        <ele>287.13971</ele>
        <time>2023-04-10T14:44:30.000Z</time>
      </trkpt>
      <trkpt lat="45.8521" lon="4.68358">
        <ele>286.15723</ele>
        <time>2023-04-10T14:44:31.000Z</time>
      </trkpt>
      <trkpt lat="45.85215" lon="4.68352">
        <ele>286.11859</ele>
        <time>2023-04-10T14:44:32.000Z</time>
      </trkpt>
      <trkpt lat="45.85218" lon="4.68344">
        <ele>286.46487</ele>
        <time>2023-04-10T14:44:33.000Z</time>
      </trkpt>
      <trkpt lat="45.85222" lon="4.68337">
        <ele>286.81821</ele>
        <time>2023-04-10T14:44:34.000Z</time>
      </trkpt>
      <trkpt lat="45.85226" lon="4.68331">
        <ele>286.53418</ele>
        <time>2023-04-10T14:44:35.000Z</time>
      </trkpt>
      <trkpt lat="45.8523" lon="4.68325">
        <ele>287.86847</ele>
        <time>2023-04-10T14:44:36.000Z</time>
      </trkpt>
      <trkpt lat="45.85234" lon="4.68318">
        <ele>289.37033</ele>
        <time>2023-04-10T14:44:37.000Z</time>
      </trkpt>
      <trkpt lat="45.85238" lon="4.68312">
        <ele>290.88797</ele>
        <time>2023-04-10T14:44:38.000Z</time>
      </trkpt>
      <trkpt lat="45.85241" lon="4.68305">
        <ele>292.55136</ele>
        <time>2023-04-10T14:44:39.000Z</time>
      </trkpt>
      <trkpt lat="45.85246" lon="4.68297">
        <ele>294.38907</ele>
        <time>2023-04-10T14:44:40.000Z</time>
      </trkpt>
      <trkpt lat="45.8525" lon="4.68289">
        <ele>295.45917</ele>
        <time>2023-04-10T14:44:41.000Z</time>
      </trkpt>
      <trkpt lat="45.85254" lon="4.68283">
        <ele>296.62231</ele>
        <time>2023-04-10T14:44:42.000Z</time>
      </trkpt>
      <trkpt lat="45.85258" lon="4.68277">
        <ele>296.2294</ele>
        <time>2023-04-10T14:44:43.000Z</time>
      </trkpt>
      <trkpt lat="45.85263" lon="4.6827">
        <ele>296.37628</ele>
        <time>2023-04-10T14:44:44.000Z</time>
      </trkpt>
      <trkpt lat="45.85268" lon="4.68263">
        <ele>296.35992</ele>
        <time>2023-04-10T14:44:45.000Z</time>
      </trkpt>
      <trkpt lat="45.85272" lon="4.68256">
        <ele>296.23975</ele>
        <time>2023-04-10T14:44:46.000Z</time>
      </trkpt>
      <trkpt lat="45.85277" lon="4.68249">
        <ele>296.20248</ele>
        <time>2023-04-10T14:44:47.000Z</time>
      </trkpt>
      <trkpt lat="45.85283" lon="4.68242">
        <ele>296.99985</ele>
        <time>2023-04-10T14:44:48.000Z</time>
      </trkpt>
      <trkpt lat="45.85288" lon="4.68235">
        <ele>297.8692</ele>
        <time>2023-04-10T14:44:49.000Z</time>
      </trkpt>
      <trkpt lat="45.85293" lon="4.68227">
        <ele>298.69952</ele>
        <time>2023-04-10T14:44:50.000Z</time>
      </trkpt>
      <trkpt lat="45.85298" lon="4.68219">
        <ele>299.48178</ele>
        <time>2023-04-10T14:44:51.000Z</time>
      </trkpt>
      <trkpt lat="45.85303" lon="4.68212">
        <ele>299.31781</ele>
        <time>2023-04-10T14:44:52.000Z</time>
      </trkpt>
      <trkpt lat="45.85309" lon="4.68205">
        <ele>298.78336</ele>
        <time>2023-04-10T14:44:53.000Z</time>
      </trkpt>
      <trkpt lat="45.85315" lon="4.68197">
        <ele>298.1647</ele>
        <time>2023-04-10T14:44:54.000Z</time>
      </trkpt>
      <trkpt lat="45.85321" lon="4.6819">
        <ele>297.51315</ele>
        <time>2023-04-10T14:44:55.000Z</time>
      </trkpt>
      <trkpt lat="45.85327" lon="4.68183">
        <ele>296.81543</ele>
        <time>2023-04-10T14:44:56.000Z</time>
      </trkpt>
      <trkpt lat="45.85333" lon="4.68177">
        <ele>295.98077</ele>
        <time>2023-04-10T14:44:57.000Z</time>
      </trkpt>
      <trkpt lat="45.85339" lon="4.68169">
        <ele>295.08453</ele>
        <time>2023-04-10T14:44:58.000Z</time>
      </trkpt>
      <trkpt lat="45.85345" lon="4.68162">
        <ele>293.99774</ele>
        <time>2023-04-10T14:44:59.000Z</time>
      </trkpt>
      <trkpt lat="45.85351" lon="4.68155">
        <ele>292.76712</ele>
        <time>2023-04-10T14:45:00.000Z</time>
      </trkpt>
      <trkpt lat="45.85357" lon="4.68147">
        <ele>292.31049</ele>
        <time>2023-04-10T14:45:01.000Z</time>
      </trkpt>
      <trkpt lat="45.85363" lon="4.6814">
        <ele>291.75952</ele>
        <time>2023-04-10T14:45:02.000Z</time>
      </trkpt>
      <trkpt lat="45.85369" lon="4.68132">
        <ele>291.22919</ele>
        <time>2023-04-10T14:45:03.000Z</time>
      </trkpt>
      <trkpt lat="45.85375" lon="4.68125">
        <ele>290.72479</ele>
        <time>2023-04-10T14:45:04.000Z</time>
      </trkpt>
      <trkpt lat="45.85381" lon="4.68119">
        <ele>290.33218</ele>
        <time>2023-04-10T14:45:05.000Z</time>
      </trkpt>
      <trkpt lat="45.85386" lon="4.68111">
        <ele>290.07416</ele>
        <time>2023-04-10T14:45:06.000Z</time>
      </trkpt>
      <trkpt lat="45.85393" lon="4.68104">
        <ele>288.7803</ele>
        <time>2023-04-10T14:45:07.000Z</time>
      </trkpt>
      <trkpt lat="45.854" lon="4.68097">
        <ele>287.49896</ele>
        <time>2023-04-10T14:45:08.000Z</time>
      </trkpt>
      <trkpt lat="45.85407" lon="4.6809">
        <ele>286.25449</ele>
        <time>2023-04-10T14:45:09.000Z</time>
      </trkpt>
      <trkpt lat="45.85414" lon="4.68082">
        <ele>285.01617</ele>
        <time>2023-04-10T14:45:10.000Z</time>
      </trkpt>
      <trkpt lat="45.8542" lon="4.68075">
        <ele>283.57428</ele>
        <time>2023-04-10T14:45:11.000Z</time>
      </trkpt>
      <trkpt lat="45.85427" lon="4.68068">
        <ele>282.03119</ele>
        <time>2023-04-10T14:45:12.000Z</time>
      </trkpt>
      <trkpt lat="45.85434" lon="4.68062">
        <ele>280.39877</ele>
        <time>2023-04-10T14:45:13.000Z</time>
      </trkpt>
      <trkpt lat="45.85441" lon="4.68056">
        <ele>278.84366</ele>
        <time>2023-04-10T14:45:14.000Z</time>
      </trkpt>
      <trkpt lat="45.85448" lon="4.68048">
        <ele>277.29416</ele>
        <time>2023-04-10T14:45:15.000Z</time>
      </trkpt>
      <trkpt lat="45.85455" lon="4.68041">
        <ele>275.76349</ele>
        <time>2023-04-10T14:45:16.000Z</time>
      </trkpt>
      <trkpt lat="45.85462" lon="4.68034">
        <ele>274.17361</ele>
        <time>2023-04-10T14:45:17.000Z</time>
      </trkpt>
      <trkpt lat="45.85469" lon="4.68028">
        <ele>272.55875</ele>
        <time>2023-04-10T14:45:18.000Z</time>
      </trkpt>
      <trkpt lat="45.85476" lon="4.68021">
        <ele>270.99771</ele>
        <time>2023-04-10T14:45:19.000Z</time>
      </trkpt>
      <trkpt lat="45.85483" lon="4.68013">
        <ele>269.41571</ele>
        <time>2023-04-10T14:45:20.000Z</time>
      </trkpt>
      <trkpt lat="45.8549" lon="4.68006">
        <ele>267.84164</ele>
        <time>2023-04-10T14:45:21.000Z</time>
      </trkpt>
      <trkpt lat="45.85497" lon="4.67999">
        <ele>266.24521</ele>
        <time>2023-04-10T14:45:22.000Z</time>
      </trkpt>
      <trkpt lat="45.85504" lon="4.67993">
        <ele>265.09457</ele>
        <time>2023-04-10T14:45:23.000Z</time>
      </trkpt>
      <trkpt lat="45.8551" lon="4.67986">
        <ele>263.92844</ele>
        <time>2023-04-10T14:45:24.000Z</time>
      </trkpt>
      <trkpt lat="45.85515" lon="4.6798">
        <ele>262.35431</ele>
        <time>2023-04-10T14:45:25.000Z</time>
      </trkpt>
      <trkpt lat="45.85521" lon="4.67975">
        <ele>260.703</ele>
        <time>2023-04-10T14:45:26.000Z</time>
      </trkpt>
      <trkpt lat="45.85526" lon="4.6797">
        <ele>260.03998</ele>
        <time>2023-04-10T14:45:27.000Z</time>
      </trkpt>
      <trkpt lat="45.85531" lon="4.67967">
        <ele>259.37537</ele>
        <time>2023-04-10T14:45:28.000Z</time>
      </trkpt>
      <trkpt lat="45.85535" lon="4.67967">
        <ele>258.71222</ele>
        <time>2023-04-10T14:45:29.000Z</time>
      </trkpt>
      <trkpt lat="45.85538" lon="4.67977">
        <ele>258.04977</ele>
        <time>2023-04-10T14:45:30.000Z</time>
      </trkpt>
      <trkpt lat="45.85539" lon="4.67985">
        <ele>257.64407</ele>
        <time>2023-04-10T14:45:31.000Z</time>
      </trkpt>
      <trkpt lat="45.85541" lon="4.67995">
        <ele>257.3205</ele>
        <time>2023-04-10T14:45:32.000Z</time>
      </trkpt>
      <trkpt lat="45.85544" lon="4.68004">
        <ele>257.07974</ele>
        <time>2023-04-10T14:45:33.000Z</time>
      </trkpt>
      <trkpt lat="45.85547" lon="4.68014">
        <ele>256.84393</ele>
        <time>2023-04-10T14:45:34.000Z</time>
      </trkpt>
      <trkpt lat="45.85551" lon="4.68023">
        <ele>256.61707</ele>
        <time>2023-04-10T14:45:35.000Z</time>
      </trkpt>
      <trkpt lat="45.85554" lon="4.68033">
        <ele>256.41803</ele>
        <time>2023-04-10T14:45:36.000Z</time>
      </trkpt>
      <trkpt lat="45.85558" lon="4.68043">
        <ele>256.2627</ele>
        <time>2023-04-10T14:45:37.000Z</time>
      </trkpt>
      <trkpt lat="45.85561" lon="4.68052">
        <ele>256.15979</ele>
        <time>2023-04-10T14:45:38.000Z</time>
      </trkpt>
      <trkpt lat="45.85564" lon="4.68059">
        <ele>255.9753</ele>
        <time>2023-04-10T14:45:39.000Z</time>
      </trkpt>
      <trkpt lat="45.85567" lon="4.68069">
        <ele>255.78867</ele>
        <time>2023-04-10T14:45:40.000Z</time>
      </trkpt>
      <trkpt lat="45.8557" lon="4.68078">
        <ele>255.62325</ele>
        <time>2023-04-10T14:45:41.000Z</time>
      </trkpt>
      <trkpt lat="45.85573" lon="4.68087">
        <ele>255.46262</ele>
        <time>2023-04-10T14:45:42.000Z</time>
      </trkpt>
      <trkpt lat="45.85576" lon="4.68096">
        <ele>254.88925</ele>
        <time>2023-04-10T14:45:43.000Z</time>
      </trkpt>
      <trkpt lat="45.85578" lon="4.68105">
        <ele>254.32381</ele>
        <time>2023-04-10T14:45:44.000Z</time>
      </trkpt>
      <trkpt lat="45.85581" lon="4.68112">
        <ele>254.18672</ele>
        <time>2023-04-10T14:45:45.000Z</time>
      </trkpt>
      <trkpt lat="45.85583" lon="4.68119">
        <ele>254.05383</ele>
        <time>2023-04-10T14:45:46.000Z</time>
      </trkpt>
      <trkpt lat="45.85588" lon="4.68125">
        <ele>253.93591</ele>
        <time>2023-04-10T14:45:47.000Z</time>
      </trkpt>
      <trkpt lat="45.85591" lon="4.68131">
        <ele>253.85583</ele>
        <time>2023-04-10T14:45:48.000Z</time>
      </trkpt>
      <trkpt lat="45.85595" lon="4.68139">
        <ele>253.77148</ele>
        <time>2023-04-10T14:45:49.000Z</time>
      </trkpt>
      <trkpt lat="45.85597" lon="4.68146">
        <ele>253.66931</ele>
        <time>2023-04-10T14:45:50.000Z</time>
      </trkpt>
      <trkpt lat="45.85601" lon="4.68151">
        <ele>253.53357</ele>
        <time>2023-04-10T14:45:51.000Z</time>
      </trkpt>
      <trkpt lat="45.85605" lon="4.68156">
        <ele>253.40666</ele>
        <time>2023-04-10T14:45:52.000Z</time>
      </trkpt>
      <trkpt lat="45.85608" lon="4.68161">
        <ele>253.25928</ele>
        <time>2023-04-10T14:45:53.000Z</time>
      </trkpt>
      <trkpt lat="45.85612" lon="4.68166">
        <ele>253.13913</ele>
        <time>2023-04-10T14:45:54.000Z</time>
      </trkpt>
      <trkpt lat="45.85615" lon="4.68168">
        <ele>253.00363</ele>
        <time>2023-04-10T14:45:55.000Z</time>
      </trkpt>
      <trkpt lat="45.85619" lon="4.68171">
        <ele>252.86002</ele>
        <time>2023-04-10T14:45:56.000Z</time>
      </trkpt>
      <trkpt lat="45.8562" lon="4.68177">
        <ele>252.67903</ele>
        <time>2023-04-10T14:45:57.000Z</time>
      </trkpt>
      <trkpt lat="45.85624" lon="4.6818">
        <ele>252.54192</ele>
        <time>2023-04-10T14:45:58.000Z</time>
      </trkpt>
      <trkpt lat="45.85626" lon="4.68179">
        <ele>252.56567</ele>
        <time>2023-04-10T14:45:59.000Z</time>
      </trkpt>
      <trkpt lat="45.85629" lon="4.68175">
        <ele>252.64111</ele>
        <time>2023-04-10T14:46:00.000Z</time>
      </trkpt>
      <trkpt lat="45.85632" lon="4.68172">
        <ele>252.73911</ele>
        <time>2023-04-10T14:46:01.000Z</time>
      </trkpt>
      <trkpt lat="45.85633" lon="4.68167">
        <ele>252.8566</ele>
        <time>2023-04-10T14:46:02.000Z</time>
      </trkpt>
      <trkpt lat="45.85636" lon="4.68163">
        <ele>252.98398</ele>
        <time>2023-04-10T14:46:03.000Z</time>
      </trkpt>
      <trkpt lat="45.85638" lon="4.6816">
        <ele>253.14993</ele>
        <time>2023-04-10T14:46:04.000Z</time>
      </trkpt>
      <trkpt lat="45.8564" lon="4.68157">
        <ele>253.30176</ele>
        <time>2023-04-10T14:46:05.000Z</time>
      </trkpt>
      <trkpt lat="45.85643" lon="4.68154">
        <ele>253.4489</ele>
        <time>2023-04-10T14:46:06.000Z</time>
      </trkpt>
      <trkpt lat="45.85645" lon="4.68151">
        <ele>253.61096</ele>
        <time>2023-04-10T14:46:07.000Z</time>
      </trkpt>
      <trkpt lat="45.85646" lon="4.6815">
        <ele>253.698</ele>
        <time>2023-04-10T14:46:08.000Z</time>
      </trkpt>
      <trkpt lat="45.85648" lon="4.68146">
        <ele>253.76265</ele>
        <time>2023-04-10T14:46:10.000Z</time>
      </trkpt>
      <trkpt lat="45.85651" lon="4.68143">
        <ele>253.85327</ele>
        <time>2023-04-10T14:46:12.000Z</time>
      </trkpt>
      <trkpt lat="45.85651" lon="4.68139">
        <ele>253.96304</ele>
        <time>2023-04-10T14:46:14.000Z</time>
      </trkpt>
      <trkpt lat="45.8565" lon="4.68136">
        <ele>254.0538</ele>
        <time>2023-04-10T14:46:15.000Z</time>
      </trkpt>
      <trkpt lat="45.85649" lon="4.68133">
        <ele>254.14087</ele>
        <time>2023-04-10T14:46:16.000Z</time>
      </trkpt>
      <trkpt lat="45.85648" lon="4.6813">
        <ele>254.17307</ele>
        <time>2023-04-10T14:46:17.000Z</time>
      </trkpt>
      <trkpt lat="45.85649" lon="4.68126">
        <ele>254.23347</ele>
        <time>2023-04-10T14:46:18.000Z</time>
      </trkpt>
      <trkpt lat="45.85652" lon="4.68123">
        <ele>254.34192</ele>
        <time>2023-04-10T14:46:19.000Z</time>
      </trkpt>
      <trkpt lat="45.85656" lon="4.68123">
        <ele>254.45642</ele>
        <time>2023-04-10T14:46:20.000Z</time>
      </trkpt>
      <trkpt lat="45.85659" lon="4.68127">
        <ele>254.53609</ele>
        <time>2023-04-10T14:46:21.000Z</time>
      </trkpt>
      <trkpt lat="45.85659" lon="4.68132">
        <ele>254.53207</ele>
        <time>2023-04-10T14:46:22.000Z</time>
      </trkpt>
      <trkpt lat="45.85659" lon="4.68138">
        <ele>254.36044</ele>
        <time>2023-04-10T14:46:23.000Z</time>
      </trkpt>
      <trkpt lat="45.85659" lon="4.68145">
        <ele>254.14114</ele>
        <time>2023-04-10T14:46:24.000Z</time>
      </trkpt>
      <trkpt lat="45.8566" lon="4.68151">
        <ele>253.91394</ele>
        <time>2023-04-10T14:46:25.000Z</time>
      </trkpt>
      <trkpt lat="45.85663" lon="4.68156">
        <ele>253.68497</ele>
        <time>2023-04-10T14:46:26.000Z</time>
      </trkpt>
      <trkpt lat="45.85665" lon="4.68161">
        <ele>253.41841</ele>
        <time>2023-04-10T14:46:27.000Z</time>
      </trkpt>
      <trkpt lat="45.85668" lon="4.68165">
        <ele>253.18965</ele>
        <time>2023-04-10T14:46:28.000Z</time>
      </trkpt>
      <trkpt lat="45.85671" lon="4.68169">
        <ele>253.00847</ele>
        <time>2023-04-10T14:46:29.000Z</time>
      </trkpt>
      <trkpt lat="45.85674" lon="4.68174">
        <ele>252.80603</ele>
        <time>2023-04-10T14:46:30.000Z</time>
      </trkpt>
      <trkpt lat="45.85677" lon="4.68178">
        <ele>252.65178</ele>
        <time>2023-04-10T14:46:31.000Z</time>
      </trkpt>
      <trkpt lat="45.8568" lon="4.68182">
        <ele>252.51743</ele>
        <time>2023-04-10T14:46:32.000Z</time>
      </trkpt>
      <trkpt lat="45.85683" lon="4.68187">
        <ele>252.42896</ele>
        <time>2023-04-10T14:46:33.000Z</time>
      </trkpt>
      <trkpt lat="45.85687" lon="4.68193">
        <ele>252.34818</ele>
        <time>2023-04-10T14:46:34.000Z</time>
      </trkpt>
      <trkpt lat="45.8569" lon="4.68199">
        <ele>252.3105</ele>
        <time>2023-04-10T14:46:35.000Z</time>
      </trkpt>
      <trkpt lat="45.85693" lon="4.68205">
        <ele>252.30188</ele>
        <time>2023-04-10T14:46:36.000Z</time>
      </trkpt>
      <trkpt lat="45.85696" lon="4.6821">
        <ele>252.30049</ele>
        <time>2023-04-10T14:46:37.000Z</time>
      </trkpt>
      <trkpt lat="45.85699" lon="4.68215">
        <ele>252.28781</ele>
        <time>2023-04-10T14:46:38.000Z</time>
      </trkpt>
      <trkpt lat="45.85702" lon="4.68219">
        <ele>252.14326</ele>
        <time>2023-04-10T14:46:39.000Z</time>
      </trkpt>
      <trkpt lat="45.85704" lon="4.68223">
        <ele>252.06216</ele>
        <time>2023-04-10T14:46:40.000Z</time>
      </trkpt>
      <trkpt lat="45.85708" lon="4.68227">
        <ele>251.97598</ele>
        <time>2023-04-10T14:46:41.000Z</time>
      </trkpt>
      <trkpt lat="45.85711" lon="4.68231">
        <ele>251.90186</ele>
        <time>2023-04-10T14:46:42.000Z</time>
      </trkpt>
      <trkpt lat="45.85714" lon="4.68237">
        <ele>251.96379</ele>
        <time>2023-04-10T14:46:43.000Z</time>
      </trkpt>
      <trkpt lat="45.85718" lon="4.68241">
        <ele>251.99971</ele>
        <time>2023-04-10T14:46:44.000Z</time>
      </trkpt>
      <trkpt lat="45.85721" lon="4.68245">
        <ele>252.03389</ele>
        <time>2023-04-10T14:46:45.000Z</time>
      </trkpt>
      <trkpt lat="45.85723" lon="4.68249">
        <ele>252.06953</ele>
        <time>2023-04-10T14:46:46.000Z</time>
      </trkpt>
      <trkpt lat="45.85727" lon="4.68253">
        <ele>252.1217</ele>
        <time>2023-04-10T14:46:47.000Z</time>
      </trkpt>
      <trkpt lat="45.8573" lon="4.68256">
        <ele>252.16362</ele>
        <time>2023-04-10T14:46:48.000Z</time>
      </trkpt>
      <trkpt lat="45.85735" lon="4.68261">
        <ele>252.15804</ele>
        <time>2023-04-10T14:46:49.000Z</time>
      </trkpt>
      <trkpt lat="45.8574" lon="4.68265">
        <ele>252.15829</ele>
        <time>2023-04-10T14:46:50.000Z</time>
      </trkpt>
      <trkpt lat="45.85744" lon="4.68269">
        <ele>252.22144</ele>
        <time>2023-04-10T14:46:51.000Z</time>
      </trkpt>
      <trkpt lat="45.85749" lon="4.68273">
        <ele>252.27727</ele>
        <time>2023-04-10T14:46:52.000Z</time>
      </trkpt>
      <trkpt lat="45.85754" lon="4.68278">
        <ele>252.27979</ele>
        <time>2023-04-10T14:46:53.000Z</time>
      </trkpt>
      <trkpt lat="45.85759" lon="4.68285">
        <ele>252.26758</ele>
        <time>2023-04-10T14:46:54.000Z</time>
      </trkpt>
      <trkpt lat="45.85764" lon="4.6829">
        <ele>252.23975</ele>
        <time>2023-04-10T14:46:55.000Z</time>
      </trkpt>
      <trkpt lat="45.85769" lon="4.68295">
        <ele>252.07695</ele>
        <time>2023-04-10T14:46:56.000Z</time>
      </trkpt>
      <trkpt lat="45.85774" lon="4.68301">
        <ele>251.94958</ele>
        <time>2023-04-10T14:46:57.000Z</time>
      </trkpt>
      <trkpt lat="45.85778" lon="4.68306">
        <ele>251.85117</ele>
        <time>2023-04-10T14:46:58.000Z</time>
      </trkpt>
      <trkpt lat="45.85782" lon="4.68312">
        <ele>251.86276</ele>
        <time>2023-04-10T14:46:59.000Z</time>
      </trkpt>
      <trkpt lat="45.85787" lon="4.68319">
        <ele>251.8354</ele>
        <time>2023-04-10T14:47:00.000Z</time>
      </trkpt>
      <trkpt lat="45.85792" lon="4.68323">
        <ele>251.75699</ele>
        <time>2023-04-10T14:47:01.000Z</time>
      </trkpt>
      <trkpt lat="45.85797" lon="4.68328">
        <ele>251.6888</ele>
        <time>2023-04-10T14:47:02.000Z</time>
      </trkpt>
      <trkpt lat="45.85801" lon="4.68331">
        <ele>251.62996</ele>
        <time>2023-04-10T14:47:03.000Z</time>
      </trkpt>
      <trkpt lat="45.85806" lon="4.68335">
        <ele>251.62297</ele>
        <time>2023-04-10T14:47:04.000Z</time>
      </trkpt>
      <trkpt lat="45.85811" lon="4.6834">
        <ele>251.68686</ele>
        <time>2023-04-10T14:47:05.000Z</time>
      </trkpt>
      <trkpt lat="45.85817" lon="4.68345">
        <ele>251.78183</ele>
        <time>2023-04-10T14:47:06.000Z</time>
      </trkpt>
      <trkpt lat="45.8582" lon="4.6835">
        <ele>251.85782</ele>
        <time>2023-04-10T14:47:07.000Z</time>
      </trkpt>
      <trkpt lat="45.85824" lon="4.68356">
        <ele>251.908</ele>
        <time>2023-04-10T14:47:08.000Z</time>
      </trkpt>
      <trkpt lat="45.85828" lon="4.68362">
        <ele>251.97612</ele>
        <time>2023-04-10T14:47:09.000Z</time>
      </trkpt>
      <trkpt lat="45.85833" lon="4.68369">
        <ele>251.9126</ele>
        <time>2023-04-10T14:47:10.000Z</time>
      </trkpt>
      <trkpt lat="45.85836" lon="4.68376">
        <ele>251.78226</ele>
        <time>2023-04-10T14:47:11.000Z</time>
      </trkpt>
      <trkpt lat="45.85839" lon="4.68381">
        <ele>251.62822</ele>
        <time>2023-04-10T14:47:12.000Z</time>
      </trkpt>
      <trkpt lat="45.85843" lon="4.68384">
        <ele>251.49606</ele>
        <time>2023-04-10T14:47:13.000Z</time>
      </trkpt>
      <trkpt lat="45.85846" lon="4.68389">
        <ele>251.39546</ele>
        <time>2023-04-10T14:47:14.000Z</time>
      </trkpt>
      <trkpt lat="45.8585" lon="4.68395">
        <ele>251.31831</ele>
        <time>2023-04-10T14:47:15.000Z</time>
      </trkpt>
      <trkpt lat="45.85853" lon="4.684">
        <ele>251.32779</ele>
        <time>2023-04-10T14:47:16.000Z</time>
      </trkpt>
      <trkpt lat="45.85856" lon="4.68405">
        <ele>251.33076</ele>
        <time>2023-04-10T14:47:17.000Z</time>
      </trkpt>
      <trkpt lat="45.85858" lon="4.6841">
        <ele>251.30948</ele>
        <time>2023-04-10T14:47:18.000Z</time>
      </trkpt>
      <trkpt lat="45.85861" lon="4.68414">
        <ele>251.28316</ele>
        <time>2023-04-10T14:47:19.000Z</time>
      </trkpt>
      <trkpt lat="45.85863" lon="4.68418">
        <ele>251.26074</ele>
        <time>2023-04-10T14:47:20.000Z</time>
      </trkpt>
      <trkpt lat="45.85863" lon="4.68423">
        <ele>251.37021</ele>
        <time>2023-04-10T14:47:21.000Z</time>
      </trkpt>
      <trkpt lat="45.85864" lon="4.68427">
        <ele>251.47128</ele>
        <time>2023-04-10T14:47:22.000Z</time>
      </trkpt>
      <trkpt lat="45.85865" lon="4.68432">
        <ele>251.54166</ele>
        <time>2023-04-10T14:47:23.000Z</time>
      </trkpt>
      <trkpt lat="45.85865" lon="4.68436">
        <ele>251.49553</ele>
        <time>2023-04-10T14:47:24.000Z</time>
      </trkpt>
      <trkpt lat="45.85866" lon="4.68441">
        <ele>251.41318</ele>
        <time>2023-04-10T14:47:25.000Z</time>
      </trkpt>
      <trkpt lat="45.85866" lon="4.68447">
        <ele>251.30193</ele>
        <time>2023-04-10T14:47:26.000Z</time>
      </trkpt>
      <trkpt lat="45.85867" lon="4.68453">
        <ele>251.1813</ele>
        <time>2023-04-10T14:47:27.000Z</time>
      </trkpt>
      <trkpt lat="45.85867" lon="4.68459">
        <ele>251.06404</ele>
        <time>2023-04-10T14:47:28.000Z</time>
      </trkpt>
      <trkpt lat="45.85868" lon="4.68465">
        <ele>250.93152</ele>
        <time>2023-04-10T14:47:29.000Z</time>
      </trkpt>
      <trkpt lat="45.85869" lon="4.68471">
        <ele>250.93445</ele>
        <time>2023-04-10T14:47:30.000Z</time>
      </trkpt>
      <trkpt lat="45.85869" lon="4.68477">
        <ele>250.9709</ele>
        <time>2023-04-10T14:47:31.000Z</time>
      </trkpt>
      <trkpt lat="45.8587" lon="4.68483">
        <ele>251.05193</ele>
        <time>2023-04-10T14:47:32.000Z</time>
      </trkpt>
      <trkpt lat="45.8587" lon="4.68489">
        <ele>251.11848</ele>
        <time>2023-04-10T14:47:33.000Z</time>
      </trkpt>
      <trkpt lat="45.85871" lon="4.68494">
        <ele>251.15718</ele>
        <time>2023-04-10T14:47:34.000Z</time>
      </trkpt>
      <trkpt lat="45.85872" lon="4.68501">
        <ele>251.20134</ele>
        <time>2023-04-10T14:47:35.000Z</time>
      </trkpt>
      <trkpt lat="45.85874" lon="4.68507">
        <ele>251.3147</ele>
        <time>2023-04-10T14:47:36.000Z</time>
      </trkpt>
      <trkpt lat="45.85875" lon="4.68513">
        <ele>251.44763</ele>
        <time>2023-04-10T14:47:37.000Z</time>
      </trkpt>
      <trkpt lat="45.85876" lon="4.68519">
        <ele>251.59122</ele>
        <time>2023-04-10T14:47:38.000Z</time>
      </trkpt>
      <trkpt lat="45.85877" lon="4.68526">
        <ele>251.71005</ele>
        <time>2023-04-10T14:47:39.000Z</time>
      </trkpt>
      <trkpt lat="45.85878" lon="4.68532">
        <ele>251.81323</ele>
        <time>2023-04-10T14:47:40.000Z</time>
      </trkpt>
      <trkpt lat="45.85878" lon="4.68539">
        <ele>251.85342</ele>
        <time>2023-04-10T14:47:41.000Z</time>
      </trkpt>
      <trkpt lat="45.85879" lon="4.68545">
        <ele>251.90849</ele>
        <time>2023-04-10T14:47:42.000Z</time>
      </trkpt>
      <trkpt lat="45.8588" lon="4.68552">
        <ele>251.94998</ele>
        <time>2023-04-10T14:47:43.000Z</time>
      </trkpt>
      <trkpt lat="45.85881" lon="4.68558">
        <ele>252.10446</ele>
        <time>2023-04-10T14:47:44.000Z</time>
      </trkpt>
      <trkpt lat="45.85883" lon="4.68565">
        <ele>252.2312</ele>
        <time>2023-04-10T14:47:45.000Z</time>
      </trkpt>
      <trkpt lat="45.85884" lon="4.68572">
        <ele>252.3667</ele>
        <time>2023-04-10T14:47:46.000Z</time>
      </trkpt>
      <trkpt lat="45.85885" lon="4.68578">
        <ele>252.53049</ele>
        <time>2023-04-10T14:47:47.000Z</time>
      </trkpt>
      <trkpt lat="45.85886" lon="4.68584">
        <ele>252.62244</ele>
        <time>2023-04-10T14:47:48.000Z</time>
      </trkpt>
      <trkpt lat="45.85887" lon="4.6859">
        <ele>252.71353</ele>
        <time>2023-04-10T14:47:49.000Z</time>
      </trkpt>
      <trkpt lat="45.85888" lon="4.68596">
        <ele>252.7935</ele>
        <time>2023-04-10T14:47:50.000Z</time>
      </trkpt>
      <trkpt lat="45.85889" lon="4.68603">
        <ele>252.84665</ele>
        <time>2023-04-10T14:47:51.000Z</time>
      </trkpt>
      <trkpt lat="45.85889" lon="4.68611">
        <ele>252.85896</ele>
        <time>2023-04-10T14:47:52.000Z</time>
      </trkpt>
      <trkpt lat="45.8589" lon="4.68617">
        <ele>252.90329</ele>
        <time>2023-04-10T14:47:53.000Z</time>
      </trkpt>
      <trkpt lat="45.8589" lon="4.68623">
        <ele>252.95003</ele>
        <time>2023-04-10T14:47:54.000Z</time>
      </trkpt>
      <trkpt lat="45.8589" lon="4.68629">
        <ele>252.9689</ele>
        <time>2023-04-10T14:47:55.000Z</time>
      </trkpt>
      <trkpt lat="45.85891" lon="4.68636">
        <ele>252.95195</ele>
        <time>2023-04-10T14:47:56.000Z</time>
      </trkpt>
      <trkpt lat="45.85891" lon="4.68641">
        <ele>252.97717</ele>
        <time>2023-04-10T14:47:57.000Z</time>
      </trkpt>
      <trkpt lat="45.85892" lon="4.68647">
        <ele>253.02737</ele>
        <time>2023-04-10T14:47:58.000Z</time>
      </trkpt>
      <trkpt lat="45.85892" lon="4.68653">
        <ele>253.10413</ele>
        <time>2023-04-10T14:47:59.000Z</time>
      </trkpt>
      <trkpt lat="45.85892" lon="4.68659">
        <ele>253.19649</ele>
        <time>2023-04-10T14:48:00.000Z</time>
      </trkpt>
      <trkpt lat="45.85892" lon="4.68667">
        <ele>253.19907</ele>
        <time>2023-04-10T14:48:01.000Z</time>
      </trkpt>
      <trkpt lat="45.85891" lon="4.68673">
        <ele>253.1613</ele>
        <time>2023-04-10T14:48:02.000Z</time>
      </trkpt>
      <trkpt lat="45.85891" lon="4.6868">
        <ele>253.13985</ele>
        <time>2023-04-10T14:48:03.000Z</time>
      </trkpt>
      <trkpt lat="45.8589" lon="4.68687">
        <ele>253.08804</ele>
        <time>2023-04-10T14:48:04.000Z</time>
      </trkpt>
      <trkpt lat="45.8589" lon="4.68693">
        <ele>253.07468</ele>
        <time>2023-04-10T14:48:05.000Z</time>
      </trkpt>
      <trkpt lat="45.8589" lon="4.68699">
        <ele>253.02914</ele>
        <time>2023-04-10T14:48:06.000Z</time>
      </trkpt>
      <trkpt lat="45.85889" lon="4.68705">
        <ele>252.95464</ele>
        <time>2023-04-10T14:48:07.000Z</time>
      </trkpt>
      <trkpt lat="45.85888" lon="4.6871">
        <ele>252.95142</ele>
        <time>2023-04-10T14:48:08.000Z</time>
      </trkpt>
      <trkpt lat="45.85887" lon="4.68716">
        <ele>252.94173</ele>
        <time>2023-04-10T14:48:09.000Z</time>
      </trkpt>
      <trkpt lat="45.85887" lon="4.6872">
        <ele>252.91055</ele>
        <time>2023-04-10T14:48:10.000Z</time>
      </trkpt>
      <trkpt lat="45.85886" lon="4.68726">
        <ele>252.88818</ele>
        <time>2023-04-10T14:48:11.000Z</time>
      </trkpt>
      <trkpt lat="45.85885" lon="4.68732">
        <ele>252.9003</ele>
        <time>2023-04-10T14:48:12.000Z</time>
      </trkpt>
      <trkpt lat="45.85885" lon="4.68738">
        <ele>252.89853</ele>
        <time>2023-04-10T14:48:13.000Z</time>
      </trkpt>
      <trkpt lat="45.85884" lon="4.68744">
        <ele>252.9294</ele>
        <time>2023-04-10T14:48:14.000Z</time>
      </trkpt>
      <trkpt lat="45.85883" lon="4.68751">
        <ele>252.94446</ele>
        <time>2023-04-10T14:48:15.000Z</time>
      </trkpt>
      <trkpt lat="45.85882" lon="4.68758">
        <ele>252.95804</ele>
        <time>2023-04-10T14:48:16.000Z</time>
      </trkpt>
      <trkpt lat="45.85881" lon="4.68763">
        <ele>252.89983</ele>
        <time>2023-04-10T14:48:17.000Z</time>
      </trkpt>
      <trkpt lat="45.8588" lon="4.68769">
        <ele>252.79788</ele>
        <time>2023-04-10T14:48:18.000Z</time>
      </trkpt>
      <trkpt lat="45.85879" lon="4.68775">
        <ele>252.68689</ele>
        <time>2023-04-10T14:48:19.000Z</time>
      </trkpt>
      <trkpt lat="45.85878" lon="4.68783">
        <ele>252.54314</ele>
        <time>2023-04-10T14:48:20.000Z</time>
      </trkpt>
      <trkpt lat="45.85877" lon="4.6879">
        <ele>252.50288</ele>
        <time>2023-04-10T14:48:21.000Z</time>
      </trkpt>
      <trkpt lat="45.85875" lon="4.68796">
        <ele>252.47775</ele>
        <time>2023-04-10T14:48:22.000Z</time>
      </trkpt>
      <trkpt lat="45.85874" lon="4.68802">
        <ele>252.46367</ele>
        <time>2023-04-10T14:48:23.000Z</time>
      </trkpt>
      <trkpt lat="45.85874" lon="4.68809">
        <ele>252.48096</ele>
        <time>2023-04-10T14:48:24.000Z</time>
      </trkpt>
      <trkpt lat="45.85873" lon="4.68816">
        <ele>252.44644</ele>
        <time>2023-04-10T14:48:25.000Z</time>
      </trkpt>
      <trkpt lat="45.85871" lon="4.68823">
        <ele>252.4155</ele>
        <time>2023-04-10T14:48:26.000Z</time>
      </trkpt>
      <trkpt lat="45.8587" lon="4.68829">
        <ele>252.44052</ele>
        <time>2023-04-10T14:48:27.000Z</time>
      </trkpt>
      <trkpt lat="45.85869" lon="4.68835">
        <ele>252.49887</ele>
        <time>2023-04-10T14:48:28.000Z</time>
      </trkpt>
      <trkpt lat="45.85869" lon="4.68842">
        <ele>252.4949</ele>
        <time>2023-04-10T14:48:29.000Z</time>
      </trkpt>
      <trkpt lat="45.85868" lon="4.68849">
        <ele>252.56653</ele>
        <time>2023-04-10T14:48:30.000Z</time>
      </trkpt>
      <trkpt lat="45.85867" lon="4.68856">
        <ele>252.63374</ele>
        <time>2023-04-10T14:48:31.000Z</time>
      </trkpt>
      <trkpt lat="45.85867" lon="4.68863">
        <ele>252.67886</ele>
        <time>2023-04-10T14:48:32.000Z</time>
      </trkpt>
      <trkpt lat="45.85866" lon="4.6887">
        <ele>252.76462</ele>
        <time>2023-04-10T14:48:33.000Z</time>
      </trkpt>
      <trkpt lat="45.85866" lon="4.68877">
        <ele>252.81474</ele>
        <time>2023-04-10T14:48:34.000Z</time>
      </trkpt>
      <trkpt lat="45.85865" lon="4.68885">
        <ele>252.89194</ele>
        <time>2023-04-10T14:48:35.000Z</time>
      </trkpt>
      <trkpt lat="45.85865" lon="4.68892">
        <ele>252.99536</ele>
        <time>2023-04-10T14:48:36.000Z</time>
      </trkpt>
      <trkpt lat="45.85865" lon="4.68898">
        <ele>253.01456</ele>
        <time>2023-04-10T14:48:37.000Z</time>
      </trkpt>
      <trkpt lat="45.85863" lon="4.68906">
        <ele>253.05209</ele>
        <time>2023-04-10T14:48:38.000Z</time>
      </trkpt>
      <trkpt lat="45.85862" lon="4.68914">
        <ele>253.07407</ele>
        <time>2023-04-10T14:48:39.000Z</time>
      </trkpt>
      <trkpt lat="45.85862" lon="4.6892">
        <ele>253.1088</ele>
        <time>2023-04-10T14:48:40.000Z</time>
      </trkpt>
      <trkpt lat="45.85862" lon="4.68928">
        <ele>253.10571</ele>
        <time>2023-04-10T14:48:41.000Z</time>
      </trkpt>
      <trkpt lat="45.85862" lon="4.68935">
        <ele>253.09656</ele>
        <time>2023-04-10T14:48:42.000Z</time>
      </trkpt>
      <trkpt lat="45.85861" lon="4.68942">
        <ele>253.03365</ele>
        <time>2023-04-10T14:48:43.000Z</time>
      </trkpt>
      <trkpt lat="45.85862" lon="4.6895">
        <ele>252.95085</ele>
        <time>2023-04-10T14:48:44.000Z</time>
      </trkpt>
      <trkpt lat="45.85862" lon="4.68958">
        <ele>252.92398</ele>
        <time>2023-04-10T14:48:45.000Z</time>
      </trkpt>
      <trkpt lat="45.85863" lon="4.68965">
        <ele>252.94986</ele>
        <time>2023-04-10T14:48:46.000Z</time>
      </trkpt>
      <trkpt lat="45.85863" lon="4.68971">
        <ele>252.95444</ele>
        <time>2023-04-10T14:48:47.000Z</time>
      </trkpt>
      <trkpt lat="45.85863" lon="4.68979">
        <ele>252.93149</ele>
        <time>2023-04-10T14:48:48.000Z</time>
      </trkpt>
      <trkpt lat="45.85863" lon="4.68985">
        <ele>252.85403</ele>
        <time>2023-04-10T14:48:49.000Z</time>
      </trkpt>
      <trkpt lat="45.85864" lon="4.68993">
        <ele>252.77896</ele>
        <time>2023-04-10T14:48:50.000Z</time>
      </trkpt>
      <trkpt lat="45.85864" lon="4.69001">
        <ele>252.70317</ele>
        <time>2023-04-10T14:48:51.000Z</time>
      </trkpt>
      <trkpt lat="45.85865" lon="4.69008">
        <ele>252.62766</ele>
        <time>2023-04-10T14:48:52.000Z</time>
      </trkpt>
      <trkpt lat="45.85867" lon="4.69015">
        <ele>252.50671</ele>
        <time>2023-04-10T14:48:53.000Z</time>
      </trkpt>
      <trkpt lat="45.85869" lon="4.69021">
        <ele>252.41524</ele>
        <time>2023-04-10T14:48:54.000Z</time>
      </trkpt>
      <trkpt lat="45.8587" lon="4.69024">
        <ele>252.31023</ele>
        <time>2023-04-10T14:48:55.000Z</time>
      </trkpt>
      <trkpt lat="45.8587" lon="4.6903">
        <ele>252.16293</ele>
        <time>2023-04-10T14:48:56.000Z</time>
      </trkpt>
      <trkpt lat="45.85869" lon="4.69036">
        <ele>252.09941</ele>
        <time>2023-04-10T14:48:57.000Z</time>
      </trkpt>
      <trkpt lat="45.85868" lon="4.69042">
        <ele>252.04138</ele>
        <time>2023-04-10T14:48:58.000Z</time>
      </trkpt>
      <trkpt lat="45.85866" lon="4.6905">
        <ele>252.01201</ele>
        <time>2023-04-10T14:48:59.000Z</time>
      </trkpt>
      <trkpt lat="45.85864" lon="4.69059">
        <ele>251.95024</ele>
        <time>2023-04-10T14:49:00.000Z</time>
      </trkpt>
      <trkpt lat="45.85863" lon="4.69065">
        <ele>251.89957</ele>
        <time>2023-04-10T14:49:01.000Z</time>
      </trkpt>
      <trkpt lat="45.85863" lon="4.69072">
        <ele>251.86606</ele>
        <time>2023-04-10T14:49:02.000Z</time>
      </trkpt>
      <trkpt lat="45.85862" lon="4.69081">
        <ele>251.89917</ele>
        <time>2023-04-10T14:49:03.000Z</time>
      </trkpt>
      <trkpt lat="45.85862" lon="4.6909">
        <ele>251.93787</ele>
        <time>2023-04-10T14:49:04.000Z</time>
      </trkpt>
      <trkpt lat="45.85861" lon="4.69098">
        <ele>251.90657</ele>
        <time>2023-04-10T14:49:05.000Z</time>
      </trkpt>
      <trkpt lat="45.85861" lon="4.69107">
        <ele>251.82964</ele>
        <time>2023-04-10T14:49:06.000Z</time>
      </trkpt>
      <trkpt lat="45.85859" lon="4.69116">
        <ele>251.71516</ele>
        <time>2023-04-10T14:49:07.000Z</time>
      </trkpt>
      <trkpt lat="45.85858" lon="4.69124">
        <ele>251.57385</ele>
        <time>2023-04-10T14:49:08.000Z</time>
      </trkpt>
      <trkpt lat="45.85857" lon="4.69133">
        <ele>251.60347</ele>
        <time>2023-04-10T14:49:09.000Z</time>
      </trkpt>
      <trkpt lat="45.85856" lon="4.6914">
        <ele>251.58969</ele>
        <time>2023-04-10T14:49:10.000Z</time>
      </trkpt>
      <trkpt lat="45.85856" lon="4.69149">
        <ele>251.58194</ele>
        <time>2023-04-10T14:49:11.000Z</time>
      </trkpt>
      <trkpt lat="45.85856" lon="4.69155">
        <ele>251.59207</ele>
        <time>2023-04-10T14:49:12.000Z</time>
      </trkpt>
      <trkpt lat="45.85853" lon="4.69161">
        <ele>251.57564</ele>
        <time>2023-04-10T14:49:13.000Z</time>
      </trkpt>
      <trkpt lat="45.85852" lon="4.69169">
        <ele>251.55356</ele>
        <time>2023-04-10T14:49:14.000Z</time>
      </trkpt>
      <trkpt lat="45.85851" lon="4.69177">
        <ele>251.53889</ele>
        <time>2023-04-10T14:49:15.000Z</time>
      </trkpt>
      <trkpt lat="45.85849" lon="4.69186">
        <ele>251.53787</ele>
        <time>2023-04-10T14:49:16.000Z</time>
      </trkpt>
      <trkpt lat="45.85848" lon="4.69193">
        <ele>251.49629</ele>
        <time>2023-04-10T14:49:17.000Z</time>
      </trkpt>
      <trkpt lat="45.85849" lon="4.692">
        <ele>251.45822</ele>
        <time>2023-04-10T14:49:18.000Z</time>
      </trkpt>
      <trkpt lat="45.85849" lon="4.69206">
        <ele>251.37297</ele>
        <time>2023-04-10T14:49:19.000Z</time>
      </trkpt>
      <trkpt lat="45.85847" lon="4.69214">
        <ele>251.29248</ele>
        <time>2023-04-10T14:49:20.000Z</time>
      </trkpt>
      <trkpt lat="45.85847" lon="4.69221">
        <ele>251.19124</ele>
        <time>2023-04-10T14:49:21.000Z</time>
      </trkpt>
      <trkpt lat="45.85845" lon="4.69227">
        <ele>251.10689</ele>
        <time>2023-04-10T14:49:22.000Z</time>
      </trkpt>
      <trkpt lat="45.85844" lon="4.69233">
        <ele>251.02666</ele>
        <time>2023-04-10T14:49:23.000Z</time>
      </trkpt>
      <trkpt lat="45.85842" lon="4.69242">
        <ele>250.93303</ele>
        <time>2023-04-10T14:49:24.000Z</time>
      </trkpt>
      <trkpt lat="45.85841" lon="4.69249">
        <ele>250.86349</ele>
        <time>2023-04-10T14:49:25.000Z</time>
      </trkpt>
      <trkpt lat="45.8584" lon="4.69255">
        <ele>250.80435</ele>
        <time>2023-04-10T14:49:26.000Z</time>
      </trkpt>
      <trkpt lat="45.85837" lon="4.69262">
        <ele>250.8049</ele>
        <time>2023-04-10T14:49:27.000Z</time>
      </trkpt>
      <trkpt lat="45.85838" lon="4.69268">
        <ele>250.87402</ele>
        <time>2023-04-10T14:49:28.000Z</time>
      </trkpt>
      <trkpt lat="45.85837" lon="4.69275">
        <ele>250.89597</ele>
        <time>2023-04-10T14:49:29.000Z</time>
      </trkpt>
      <trkpt lat="45.85836" lon="4.69283">
        <ele>250.90674</ele>
        <time>2023-04-10T14:49:30.000Z</time>
      </trkpt>
      <trkpt lat="45.85836" lon="4.69291">
        <ele>251.80875</ele>
        <time>2023-04-10T14:49:31.000Z</time>
      </trkpt>
      <trkpt lat="45.85838" lon="4.69297">
        <ele>252.65987</ele>
        <time>2023-04-10T14:49:32.000Z</time>
      </trkpt>
      <trkpt lat="45.85839" lon="4.69304">
        <ele>253.5596</ele>
        <time>2023-04-10T14:49:33.000Z</time>
      </trkpt>
      <trkpt lat="45.85841" lon="4.69312">
        <ele>254.41418</ele>
        <time>2023-04-10T14:49:34.000Z</time>
      </trkpt>
      <trkpt lat="45.85842" lon="4.6932">
        <ele>255.25822</ele>
        <time>2023-04-10T14:49:35.000Z</time>
      </trkpt>
      <trkpt lat="45.85845" lon="4.69328">
        <ele>256.10089</ele>
        <time>2023-04-10T14:49:36.000Z</time>
      </trkpt>
      <trkpt lat="45.85846" lon="4.69336">
        <ele>257.01791</ele>
        <time>2023-04-10T14:49:37.000Z</time>
      </trkpt>
      <trkpt lat="45.85848" lon="4.69343">
        <ele>257.83771</ele>
        <time>2023-04-10T14:49:38.000Z</time>
      </trkpt>
      <trkpt lat="45.8585" lon="4.69352">
        <ele>258.65039</ele>
        <time>2023-04-10T14:49:39.000Z</time>
      </trkpt>
      <trkpt lat="45.85852" lon="4.69358">
        <ele>259.47998</ele>
        <time>2023-04-10T14:49:40.000Z</time>
      </trkpt>
      <trkpt lat="45.85853" lon="4.69366">
        <ele>260.19733</ele>
        <time>2023-04-10T14:49:41.000Z</time>
      </trkpt>
      <trkpt lat="45.85851" lon="4.69374">
        <ele>260.92807</ele>
        <time>2023-04-10T14:49:42.000Z</time>
      </trkpt>
      <trkpt lat="45.85849" lon="4.69381">
        <ele>261.74005</ele>
        <time>2023-04-10T14:49:43.000Z</time>
      </trkpt>
      <trkpt lat="45.85847" lon="4.69388">
        <ele>262.51694</ele>
        <time>2023-04-10T14:49:44.000Z</time>
      </trkpt>
      <trkpt lat="45.85843" lon="4.69394">
        <ele>263.35126</ele>
        <time>2023-04-10T14:49:45.000Z</time>
      </trkpt>
      <trkpt lat="45.8584" lon="4.69401">
        <ele>263.78329</ele>
        <time>2023-04-10T14:49:46.000Z</time>
      </trkpt>
      <trkpt lat="45.85839" lon="4.69406">
        <ele>264.32834</ele>
        <time>2023-04-10T14:49:47.000Z</time>
      </trkpt>
      <trkpt lat="45.85836" lon="4.69413">
        <ele>264.80835</ele>
        <time>2023-04-10T14:49:48.000Z</time>
      </trkpt>
      <trkpt lat="45.85833" lon="4.6942">
        <ele>265.25201</ele>
        <time>2023-04-10T14:49:49.000Z</time>
      </trkpt>
      <trkpt lat="45.8583" lon="4.69428">
        <ele>265.65546</ele>
        <time>2023-04-10T14:49:50.000Z</time>
      </trkpt>
      <trkpt lat="45.85829" lon="4.69436">
        <ele>265.23038</ele>
        <time>2023-04-10T14:49:51.000Z</time>
      </trkpt>
      <trkpt lat="45.85828" lon="4.69445">
        <ele>264.73019</ele>
        <time>2023-04-10T14:49:52.000Z</time>
      </trkpt>
      <trkpt lat="45.85829" lon="4.69451">
        <ele>264.27145</ele>
        <time>2023-04-10T14:49:53.000Z</time>
      </trkpt>
      <trkpt lat="45.8583" lon="4.69457">
        <ele>263.82184</ele>
        <time>2023-04-10T14:49:54.000Z</time>
      </trkpt>
      <trkpt lat="45.85829" lon="4.69464">
        <ele>263.57144</ele>
        <time>2023-04-10T14:49:55.000Z</time>
      </trkpt>
      <trkpt lat="45.85829" lon="4.69469">
        <ele>263.30829</ele>
        <time>2023-04-10T14:49:56.000Z</time>
      </trkpt>
      <trkpt lat="45.85829" lon="4.69476">
        <ele>263.04187</ele>
        <time>2023-04-10T14:49:57.000Z</time>
      </trkpt>
      <trkpt lat="45.85829" lon="4.69481">
        <ele>262.99582</ele>
        <time>2023-04-10T14:49:58.000Z</time>
      </trkpt>
      <trkpt lat="45.85829" lon="4.69488">
        <ele>263.00928</ele>
        <time>2023-04-10T14:49:59.000Z</time>
      </trkpt>
      <trkpt lat="45.85828" lon="4.69496">
        <ele>262.97086</ele>
        <time>2023-04-10T14:50:00.000Z</time>
      </trkpt>
      <trkpt lat="45.85828" lon="4.69502">
        <ele>263.03842</ele>
        <time>2023-04-10T14:50:01.000Z</time>
      </trkpt>
      <trkpt lat="45.85829" lon="4.69507">
        <ele>263.12335</ele>
        <time>2023-04-10T14:50:02.000Z</time>
      </trkpt>
      <trkpt lat="45.8583" lon="4.69512">
        <ele>263.0376</ele>
        <time>2023-04-10T14:50:03.000Z</time>
      </trkpt>
      <trkpt lat="45.85831" lon="4.69518">
        <ele>262.9754</ele>
        <time>2023-04-10T14:50:04.000Z</time>
      </trkpt>
      <trkpt lat="45.85832" lon="4.69525">
        <ele>262.81641</ele>
        <time>2023-04-10T14:50:05.000Z</time>
      </trkpt>
      <trkpt lat="45.85832" lon="4.69532">
        <ele>263.064</ele>
        <time>2023-04-10T14:50:06.000Z</time>
      </trkpt>
      <trkpt lat="45.85833" lon="4.6954">
        <ele>263.13876</ele>
        <time>2023-04-10T14:50:07.000Z</time>
      </trkpt>
      <trkpt lat="45.85834" lon="4.69547">
        <ele>263.25143</ele>
        <time>2023-04-10T14:50:08.000Z</time>
      </trkpt>
      <trkpt lat="45.85835" lon="4.69556">
        <ele>263.49115</ele>
        <time>2023-04-10T14:50:09.000Z</time>
      </trkpt>
      <trkpt lat="45.85836" lon="4.69562">
        <ele>263.7742</ele>
        <time>2023-04-10T14:50:10.000Z</time>
      </trkpt>
      <trkpt lat="45.85838" lon="4.69568">
        <ele>264.13617</ele>
        <time>2023-04-10T14:50:11.000Z</time>
      </trkpt>
      <trkpt lat="45.85839" lon="4.69575">
        <ele>264.6539</ele>
        <time>2023-04-10T14:50:12.000Z</time>
      </trkpt>
      <trkpt lat="45.8584" lon="4.6958">
        <ele>265.04282</ele>
        <time>2023-04-10T14:50:13.000Z</time>
      </trkpt>
      <trkpt lat="45.85842" lon="4.69586">
        <ele>265.47507</ele>
        <time>2023-04-10T14:50:14.000Z</time>
      </trkpt>
      <trkpt lat="45.85842" lon="4.69594">
        <ele>265.75003</ele>
        <time>2023-04-10T14:50:15.000Z</time>
      </trkpt>
      <trkpt lat="45.85844" lon="4.69602">
        <ele>266.04605</ele>
        <time>2023-04-10T14:50:16.000Z</time>
      </trkpt>
      <trkpt lat="45.85846" lon="4.69608">
        <ele>266.30142</ele>
        <time>2023-04-10T14:50:17.000Z</time>
      </trkpt>
      <trkpt lat="45.85845" lon="4.69617">
        <ele>266.38919</ele>
        <time>2023-04-10T14:50:18.000Z</time>
      </trkpt>
      <trkpt lat="45.85846" lon="4.69623">
        <ele>266.43335</ele>
        <time>2023-04-10T14:50:19.000Z</time>
      </trkpt>
      <trkpt lat="45.85848" lon="4.69629">
        <ele>266.54004</ele>
        <time>2023-04-10T14:50:20.000Z</time>
      </trkpt>
      <trkpt lat="45.85851" lon="4.69634">
        <ele>266.68546</ele>
        <time>2023-04-10T14:50:21.000Z</time>
      </trkpt>
      <trkpt lat="45.85851" lon="4.69642">
        <ele>266.72052</ele>
        <time>2023-04-10T14:50:22.000Z</time>
      </trkpt>
      <trkpt lat="45.85854" lon="4.69648">
        <ele>266.6983</ele>
        <time>2023-04-10T14:50:23.000Z</time>
      </trkpt>
      <trkpt lat="45.85855" lon="4.69656">
        <ele>266.66534</ele>
        <time>2023-04-10T14:50:24.000Z</time>
      </trkpt>
      <trkpt lat="45.85857" lon="4.69663">
        <ele>266.65729</ele>
        <time>2023-04-10T14:50:25.000Z</time>
      </trkpt>
      <trkpt lat="45.8586" lon="4.69671">
        <ele>266.61301</ele>
        <time>2023-04-10T14:50:26.000Z</time>
      </trkpt>
      <trkpt lat="45.85861" lon="4.69677">
        <ele>266.6427</ele>
        <time>2023-04-10T14:50:27.000Z</time>
      </trkpt>
      <trkpt lat="45.85863" lon="4.69685">
        <ele>266.69601</ele>
        <time>2023-04-10T14:50:28.000Z</time>
      </trkpt>
      <trkpt lat="45.85865" lon="4.69692">
        <ele>266.6904</ele>
        <time>2023-04-10T14:50:29.000Z</time>
      </trkpt>
      <trkpt lat="45.85869" lon="4.69699">
        <ele>266.85281</ele>
        <time>2023-04-10T14:50:30.000Z</time>
      </trkpt>
      <trkpt lat="45.85873" lon="4.69706">
        <ele>266.88776</ele>
        <time>2023-04-10T14:50:31.000Z</time>
      </trkpt>
      <trkpt lat="45.85875" lon="4.69712">
        <ele>266.36118</ele>
        <time>2023-04-10T14:50:32.000Z</time>
      </trkpt>
      <trkpt lat="45.85878" lon="4.69718">
        <ele>266.02087</ele>
        <time>2023-04-10T14:50:33.000Z</time>
      </trkpt>
      <trkpt lat="45.85881" lon="4.69725">
        <ele>265.72046</ele>
        <time>2023-04-10T14:50:34.000Z</time>
      </trkpt>
      <trkpt lat="45.85885" lon="4.69731">
        <ele>265.41803</ele>
        <time>2023-04-10T14:50:35.000Z</time>
      </trkpt>
      <trkpt lat="45.85888" lon="4.69737">
        <ele>264.96808</ele>
        <time>2023-04-10T14:50:36.000Z</time>
      </trkpt>
      <trkpt lat="45.85892" lon="4.69744">
        <ele>264.65894</ele>
        <time>2023-04-10T14:50:37.000Z</time>
      </trkpt>
      <trkpt lat="45.85895" lon="4.69749">
        <ele>264.37994</ele>
        <time>2023-04-10T14:50:38.000Z</time>
      </trkpt>
      <trkpt lat="45.85898" lon="4.69755">
        <ele>264.11902</ele>
        <time>2023-04-10T14:50:39.000Z</time>
      </trkpt>
      <trkpt lat="45.85902" lon="4.69761">
        <ele>264.01212</ele>
        <time>2023-04-10T14:50:40.000Z</time>
      </trkpt>
      <trkpt lat="45.85906" lon="4.69767">
        <ele>263.55878</ele>
        <time>2023-04-10T14:50:41.000Z</time>
      </trkpt>
      <trkpt lat="45.8591" lon="4.69774">
        <ele>263.21512</ele>
        <time>2023-04-10T14:50:42.000Z</time>
      </trkpt>
      <trkpt lat="45.85914" lon="4.69781">
        <ele>263.11621</ele>
        <time>2023-04-10T14:50:43.000Z</time>
      </trkpt>
      <trkpt lat="45.85918" lon="4.69787">
        <ele>262.97321</ele>
        <time>2023-04-10T14:50:44.000Z</time>
      </trkpt>
      <trkpt lat="45.85922" lon="4.69793">
        <ele>262.35126</ele>
        <time>2023-04-10T14:50:45.000Z</time>
      </trkpt>
      <trkpt lat="45.85926" lon="4.69799">
        <ele>261.58673</ele>
        <time>2023-04-10T14:50:46.000Z</time>
      </trkpt>
      <trkpt lat="45.85929" lon="4.69804">
        <ele>260.73749</ele>
        <time>2023-04-10T14:50:47.000Z</time>
      </trkpt>
      <trkpt lat="45.85932" lon="4.6981">
        <ele>259.87875</ele>
        <time>2023-04-10T14:50:48.000Z</time>
      </trkpt>
      <trkpt lat="45.85936" lon="4.69815">
        <ele>259.01804</ele>
        <time>2023-04-10T14:50:49.000Z</time>
      </trkpt>
      <trkpt lat="45.8594" lon="4.6982">
        <ele>257.99005</ele>
        <time>2023-04-10T14:50:50.000Z</time>
      </trkpt>
      <trkpt lat="45.85944" lon="4.69825">
        <ele>256.87872</ele>
        <time>2023-04-10T14:50:51.000Z</time>
      </trkpt>
      <trkpt lat="45.85949" lon="4.6983">
        <ele>256.30756</ele>
        <time>2023-04-10T14:50:52.000Z</time>
      </trkpt>
      <trkpt lat="45.85953" lon="4.69836">
        <ele>255.62044</ele>
        <time>2023-04-10T14:50:53.000Z</time>
      </trkpt>
      <trkpt lat="45.85957" lon="4.69841">
        <ele>254.89877</ele>
        <time>2023-04-10T14:50:54.000Z</time>
      </trkpt>
      <trkpt lat="45.85961" lon="4.69845">
        <ele>254.15068</ele>
        <time>2023-04-10T14:50:55.000Z</time>
      </trkpt>
      <trkpt lat="45.85966" lon="4.69849">
        <ele>253.53809</ele>
        <time>2023-04-10T14:50:56.000Z</time>
      </trkpt>
      <trkpt lat="45.8597" lon="4.69853">
        <ele>252.81815</ele>
        <time>2023-04-10T14:50:57.000Z</time>
      </trkpt>
      <trkpt lat="45.85974" lon="4.69857">
        <ele>252.10916</ele>
        <time>2023-04-10T14:50:58.000Z</time>
      </trkpt>
      <trkpt lat="45.85979" lon="4.69862">
        <ele>251.39685</ele>
        <time>2023-04-10T14:50:59.000Z</time>
      </trkpt>
      <trkpt lat="45.85984" lon="4.69863">
        <ele>250.55078</ele>
        <time>2023-04-10T14:51:00.000Z</time>
      </trkpt>
      <trkpt lat="45.85989" lon="4.69866">
        <ele>250.03799</ele>
        <time>2023-04-10T14:51:01.000Z</time>
      </trkpt>
      <trkpt lat="45.85994" lon="4.69871">
        <ele>249.48181</ele>
        <time>2023-04-10T14:51:02.000Z</time>
      </trkpt>
      <trkpt lat="45.86" lon="4.69877">
        <ele>248.77603</ele>
        <time>2023-04-10T14:51:03.000Z</time>
      </trkpt>
      <trkpt lat="45.86007" lon="4.69883">
        <ele>248.13855</ele>
        <time>2023-04-10T14:51:04.000Z</time>
      </trkpt>
      <trkpt lat="45.86012" lon="4.69888">
        <ele>247.99765</ele>
        <time>2023-04-10T14:51:05.000Z</time>
      </trkpt>
      <trkpt lat="45.86017" lon="4.69891">
        <ele>248.05954</ele>
        <time>2023-04-10T14:51:06.000Z</time>
      </trkpt>
      <trkpt lat="45.86022" lon="4.69892">
        <ele>248.11703</ele>
        <time>2023-04-10T14:51:07.000Z</time>
      </trkpt>
      <trkpt lat="45.86029" lon="4.69894">
        <ele>248.15349</ele>
        <time>2023-04-10T14:51:08.000Z</time>
      </trkpt>
      <trkpt lat="45.86035" lon="4.69894">
        <ele>248.07117</ele>
        <time>2023-04-10T14:51:09.000Z</time>
      </trkpt>
      <trkpt lat="45.8604" lon="4.69894">
        <ele>248.02885</ele>
        <time>2023-04-10T14:51:10.000Z</time>
      </trkpt>
      <trkpt lat="45.86045" lon="4.69892">
        <ele>248.03181</ele>
        <time>2023-04-10T14:51:11.000Z</time>
      </trkpt>
      <trkpt lat="45.86052" lon="4.69892">
        <ele>248.04837</ele>
        <time>2023-04-10T14:51:12.000Z</time>
      </trkpt>
      <trkpt lat="45.86057" lon="4.69892">
        <ele>248.03145</ele>
        <time>2023-04-10T14:51:13.000Z</time>
      </trkpt>
      <trkpt lat="45.86063" lon="4.69891">
        <ele>247.99809</ele>
        <time>2023-04-10T14:51:14.000Z</time>
      </trkpt>
      <trkpt lat="45.86069" lon="4.69889">
        <ele>247.9377</ele>
        <time>2023-04-10T14:51:15.000Z</time>
      </trkpt>
      <trkpt lat="45.86074" lon="4.69889">
        <ele>247.85591</ele>
        <time>2023-04-10T14:51:16.000Z</time>
      </trkpt>
      <trkpt lat="45.86081" lon="4.69887">
        <ele>247.78</ele>
        <time>2023-04-10T14:51:17.000Z</time>
      </trkpt>
      <trkpt lat="45.86086" lon="4.69887">
        <ele>247.65718</ele>
        <time>2023-04-10T14:51:18.000Z</time>
      </trkpt>
      <trkpt lat="45.86092" lon="4.69885">
        <ele>247.51907</ele>
        <time>2023-04-10T14:51:19.000Z</time>
      </trkpt>
      <trkpt lat="45.86097" lon="4.69884">
        <ele>247.36423</ele>
        <time>2023-04-10T14:51:20.000Z</time>
      </trkpt>
      <trkpt lat="45.86103" lon="4.69882">
        <ele>247.19002</ele>
        <time>2023-04-10T14:51:21.000Z</time>
      </trkpt>
      <trkpt lat="45.86109" lon="4.69879">
        <ele>247.00151</ele>
        <time>2023-04-10T14:51:22.000Z</time>
      </trkpt>
      <trkpt lat="45.86114" lon="4.69875">
        <ele>246.8317</ele>
        <time>2023-04-10T14:51:23.000Z</time>
      </trkpt>
      <trkpt lat="45.8612" lon="4.6987">
        <ele>246.66438</ele>
        <time>2023-04-10T14:51:24.000Z</time>
      </trkpt>
      <trkpt lat="45.86125" lon="4.69866">
        <ele>246.50052</ele>
        <time>2023-04-10T14:51:25.000Z</time>
      </trkpt>
      <trkpt lat="45.86131" lon="4.69864">
        <ele>246.29675</ele>
        <time>2023-04-10T14:51:26.000Z</time>
      </trkpt>
      <trkpt lat="45.86136" lon="4.69859">
        <ele>246.10477</ele>
        <time>2023-04-10T14:51:27.000Z</time>
      </trkpt>
      <trkpt lat="45.86141" lon="4.69854">
        <ele>245.9274</ele>
        <time>2023-04-10T14:51:28.000Z</time>
      </trkpt>
      <trkpt lat="45.86145" lon="4.69851">
        <ele>245.86787</ele>
        <time>2023-04-10T14:51:29.000Z</time>
      </trkpt>
      <trkpt lat="45.86151" lon="4.69846">
        <ele>245.81485</ele>
        <time>2023-04-10T14:51:30.000Z</time>
      </trkpt>
      <trkpt lat="45.86155" lon="4.69841">
        <ele>245.7117</ele>
        <time>2023-04-10T14:51:31.000Z</time>
      </trkpt>
      <trkpt lat="45.86161" lon="4.69837">
        <ele>245.60457</ele>
        <time>2023-04-10T14:51:32.000Z</time>
      </trkpt>
      <trkpt lat="45.86166" lon="4.69834">
        <ele>245.53377</ele>
        <time>2023-04-10T14:51:33.000Z</time>
      </trkpt>
      <trkpt lat="45.86172" lon="4.69829">
        <ele>245.46712</ele>
        <time>2023-04-10T14:51:34.000Z</time>
      </trkpt>
      <trkpt lat="45.86177" lon="4.69824">
        <ele>245.39961</ele>
        <time>2023-04-10T14:51:35.000Z</time>
      </trkpt>
      <trkpt lat="45.8618" lon="4.69819">
        <ele>245.39185</ele>
        <time>2023-04-10T14:51:36.000Z</time>
      </trkpt>
      <trkpt lat="45.86186" lon="4.69814">
        <ele>245.32834</ele>
        <time>2023-04-10T14:51:37.000Z</time>
      </trkpt>
      <trkpt lat="45.86191" lon="4.69809">
        <ele>245.29813</ele>
        <time>2023-04-10T14:51:38.000Z</time>
      </trkpt>
      <trkpt lat="45.86197" lon="4.69805">
        <ele>245.25655</ele>
        <time>2023-04-10T14:51:39.000Z</time>
      </trkpt>
      <trkpt lat="45.86203" lon="4.69803">
        <ele>245.20952</ele>
        <time>2023-04-10T14:51:40.000Z</time>
      </trkpt>
      <trkpt lat="45.86209" lon="4.69801">
        <ele>245.12524</ele>
        <time>2023-04-10T14:51:41.000Z</time>
      </trkpt>
      <trkpt lat="45.86215" lon="4.69799">
        <ele>245.04956</ele>
        <time>2023-04-10T14:51:42.000Z</time>
      </trkpt>
      <trkpt lat="45.86221" lon="4.69795">
        <ele>244.98352</ele>
        <time>2023-04-10T14:51:43.000Z</time>
      </trkpt>
      <trkpt lat="45.86225" lon="4.69791">
        <ele>244.92612</ele>
        <time>2023-04-10T14:51:44.000Z</time>
      </trkpt>
      <trkpt lat="45.8623" lon="4.69786">
        <ele>244.86584</ele>
        <time>2023-04-10T14:51:45.000Z</time>
      </trkpt>
      <trkpt lat="45.86234" lon="4.69782">
        <ele>244.80313</ele>
        <time>2023-04-10T14:51:46.000Z</time>
      </trkpt>
      <trkpt lat="45.86239" lon="4.69776">
        <ele>244.7592</ele>
        <time>2023-04-10T14:51:47.000Z</time>
      </trkpt>
      <trkpt lat="45.86244" lon="4.69771">
        <ele>244.86096</ele>
        <time>2023-04-10T14:51:48.000Z</time>
      </trkpt>
      <trkpt lat="45.86249" lon="4.69768">
        <ele>244.87289</ele>
        <time>2023-04-10T14:51:49.000Z</time>
      </trkpt>
      <trkpt lat="45.86255" lon="4.69764">
        <ele>244.82153</ele>
        <time>2023-04-10T14:51:50.000Z</time>
      </trkpt>
      <trkpt lat="45.86261" lon="4.69763">
        <ele>244.82979</ele>
        <time>2023-04-10T14:51:51.000Z</time>
      </trkpt>
      <trkpt lat="45.86267" lon="4.69762">
        <ele>244.81082</ele>
        <time>2023-04-10T14:51:52.000Z</time>
      </trkpt>
      <trkpt lat="45.86273" lon="4.69761">
        <ele>244.78867</ele>
        <time>2023-04-10T14:51:53.000Z</time>
      </trkpt>
      <trkpt lat="45.86279" lon="4.6976">
        <ele>244.94572</ele>
        <time>2023-04-10T14:51:54.000Z</time>
      </trkpt>
      <trkpt lat="45.86284" lon="4.69758">
        <ele>245.13818</ele>
        <time>2023-04-10T14:51:55.000Z</time>
      </trkpt>
      <trkpt lat="45.86291" lon="4.69757">
        <ele>245.32971</ele>
        <time>2023-04-10T14:51:56.000Z</time>
      </trkpt>
      <trkpt lat="45.86298" lon="4.69758">
        <ele>245.6033</ele>
        <time>2023-04-10T14:51:57.000Z</time>
      </trkpt>
      <trkpt lat="45.86304" lon="4.69758">
        <ele>245.88237</ele>
        <time>2023-04-10T14:51:58.000Z</time>
      </trkpt>
      <trkpt lat="45.8631" lon="4.69757">
        <ele>245.99724</ele>
        <time>2023-04-10T14:51:59.000Z</time>
      </trkpt>
      <trkpt lat="45.86316" lon="4.69757">
        <ele>246.17656</ele>
        <time>2023-04-10T14:52:00.000Z</time>
      </trkpt>
      <trkpt lat="45.86321" lon="4.69757">
        <ele>246.39905</ele>
        <time>2023-04-10T14:52:01.000Z</time>
      </trkpt>
      <trkpt lat="45.86327" lon="4.69761">
        <ele>246.59216</ele>
        <time>2023-04-10T14:52:02.000Z</time>
      </trkpt>
      <trkpt lat="45.86332" lon="4.69762">
        <ele>246.77287</ele>
        <time>2023-04-10T14:52:03.000Z</time>
      </trkpt>
      <trkpt lat="45.86337" lon="4.69764">
        <ele>246.96941</ele>
        <time>2023-04-10T14:52:04.000Z</time>
      </trkpt>
      <trkpt lat="45.86343" lon="4.69769">
        <ele>247.18735</ele>
        <time>2023-04-10T14:52:05.000Z</time>
      </trkpt>
      <trkpt lat="45.86347" lon="4.69773">
        <ele>247.39322</ele>
        <time>2023-04-10T14:52:06.000Z</time>
      </trkpt>
      <trkpt lat="45.86352" lon="4.69777">
        <ele>247.60664</ele>
        <time>2023-04-10T14:52:07.000Z</time>
      </trkpt>
      <trkpt lat="45.86356" lon="4.69783">
        <ele>247.64095</ele>
        <time>2023-04-10T14:52:08.000Z</time>
      </trkpt>
      <trkpt lat="45.86359" lon="4.69789">
        <ele>247.80118</ele>
        <time>2023-04-10T14:52:09.000Z</time>
      </trkpt>
      <trkpt lat="45.86363" lon="4.69797">
        <ele>248.05502</ele>
        <time>2023-04-10T14:52:10.000Z</time>
      </trkpt>
      <trkpt lat="45.86366" lon="4.69804">
        <ele>248.32771</ele>
        <time>2023-04-10T14:52:11.000Z</time>
      </trkpt>
      <trkpt lat="45.86369" lon="4.6981">
        <ele>248.43913</ele>
        <time>2023-04-10T14:52:12.000Z</time>
      </trkpt>
      <trkpt lat="45.86372" lon="4.69816">
        <ele>248.55013</ele>
        <time>2023-04-10T14:52:13.000Z</time>
      </trkpt>
      <trkpt lat="45.86375" lon="4.69822">
        <ele>248.48499</ele>
        <time>2023-04-10T14:52:14.000Z</time>
      </trkpt>
      <trkpt lat="45.86379" lon="4.69828">
        <ele>248.42093</ele>
        <time>2023-04-10T14:52:15.000Z</time>
      </trkpt>
      <trkpt lat="45.86383" lon="4.69834">
        <ele>248.33606</ele>
        <time>2023-04-10T14:52:16.000Z</time>
      </trkpt>
      <trkpt lat="45.86386" lon="4.6984">
        <ele>248.02161</ele>
        <time>2023-04-10T14:52:17.000Z</time>
      </trkpt>
      <trkpt lat="45.86391" lon="4.69847">
        <ele>247.72244</ele>
        <time>2023-04-10T14:52:18.000Z</time>
      </trkpt>
      <trkpt lat="45.86395" lon="4.69854">
        <ele>247.63298</ele>
        <time>2023-04-10T14:52:19.000Z</time>
      </trkpt>
      <trkpt lat="45.86397" lon="4.69863">
        <ele>247.46553</ele>
        <time>2023-04-10T14:52:20.000Z</time>
      </trkpt>
      <trkpt lat="45.86398" lon="4.69872">
        <ele>247.32358</ele>
        <time>2023-04-10T14:52:21.000Z</time>
      </trkpt>
      <trkpt lat="45.86399" lon="4.69881">
        <ele>247.2697</ele>
        <time>2023-04-10T14:52:22.000Z</time>
      </trkpt>
      <trkpt lat="45.86401" lon="4.69889">
        <ele>247.22969</ele>
        <time>2023-04-10T14:52:23.000Z</time>
      </trkpt>
      <trkpt lat="45.86402" lon="4.69898">
        <ele>247.19897</ele>
        <time>2023-04-10T14:52:24.000Z</time>
      </trkpt>
      <trkpt lat="45.86403" lon="4.69907">
        <ele>247.17038</ele>
        <time>2023-04-10T14:52:25.000Z</time>
      </trkpt>
      <trkpt lat="45.86405" lon="4.69915">
        <ele>247.14963</ele>
        <time>2023-04-10T14:52:26.000Z</time>
      </trkpt>
      <trkpt lat="45.86406" lon="4.69925">
        <ele>247.10825</ele>
        <time>2023-04-10T14:52:27.000Z</time>
      </trkpt>
      <trkpt lat="45.86407" lon="4.69934">
        <ele>247.07516</ele>
        <time>2023-04-10T14:52:28.000Z</time>
      </trkpt>
      <trkpt lat="45.86407" lon="4.69942">
        <ele>247.01193</ele>
        <time>2023-04-10T14:52:29.000Z</time>
      </trkpt>
      <trkpt lat="45.86408" lon="4.6995">
        <ele>246.86606</ele>
        <time>2023-04-10T14:52:30.000Z</time>
      </trkpt>
      <trkpt lat="45.86407" lon="4.6996">
        <ele>246.67538</ele>
        <time>2023-04-10T14:52:31.000Z</time>
      </trkpt>
      <trkpt lat="45.86407" lon="4.6997">
        <ele>246.63921</ele>
        <time>2023-04-10T14:52:32.000Z</time>
      </trkpt>
      <trkpt lat="45.86406" lon="4.69979">
        <ele>246.60855</ele>
        <time>2023-04-10T14:52:33.000Z</time>
      </trkpt>
      <trkpt lat="45.86406" lon="4.69987">
        <ele>246.5623</ele>
        <time>2023-04-10T14:52:34.000Z</time>
      </trkpt>
      <trkpt lat="45.86405" lon="4.69996">
        <ele>246.52861</ele>
        <time>2023-04-10T14:52:35.000Z</time>
      </trkpt>
      <trkpt lat="45.86406" lon="4.70004">
        <ele>246.50699</ele>
        <time>2023-04-10T14:52:36.000Z</time>
      </trkpt>
      <trkpt lat="45.86406" lon="4.70013">
        <ele>246.69072</ele>
        <time>2023-04-10T14:52:37.000Z</time>
      </trkpt>
      <trkpt lat="45.86406" lon="4.70022">
        <ele>246.85698</ele>
        <time>2023-04-10T14:52:38.000Z</time>
      </trkpt>
      <trkpt lat="45.86406" lon="4.70031">
        <ele>247.03098</ele>
        <time>2023-04-10T14:52:39.000Z</time>
      </trkpt>
      <trkpt lat="45.86404" lon="4.70041">
        <ele>247.21306</ele>
        <time>2023-04-10T14:52:40.000Z</time>
      </trkpt>
      <trkpt lat="45.86403" lon="4.70049">
        <ele>247.403</ele>
        <time>2023-04-10T14:52:41.000Z</time>
      </trkpt>
      <trkpt lat="45.86402" lon="4.70058">
        <ele>247.50626</ele>
        <time>2023-04-10T14:52:42.000Z</time>
      </trkpt>
      <trkpt lat="45.864" lon="4.70067">
        <ele>247.57735</ele>
        <time>2023-04-10T14:52:43.000Z</time>
      </trkpt>
      <trkpt lat="45.86398" lon="4.70077">
        <ele>247.67429</ele>
        <time>2023-04-10T14:52:44.000Z</time>
      </trkpt>
      <trkpt lat="45.86397" lon="4.70084">
        <ele>247.76521</ele>
        <time>2023-04-10T14:52:45.000Z</time>
      </trkpt>
      <trkpt lat="45.86395" lon="4.70092">
        <ele>247.83943</ele>
        <time>2023-04-10T14:52:46.000Z</time>
      </trkpt>
      <trkpt lat="45.86393" lon="4.701">
        <ele>247.90564</ele>
        <time>2023-04-10T14:52:47.000Z</time>
      </trkpt>
      <trkpt lat="45.8639" lon="4.7011">
        <ele>247.98853</ele>
        <time>2023-04-10T14:52:48.000Z</time>
      </trkpt>
      <trkpt lat="45.86389" lon="4.7012">
        <ele>248.01321</ele>
        <time>2023-04-10T14:52:49.000Z</time>
      </trkpt>
      <trkpt lat="45.86388" lon="4.70128">
        <ele>248.02759</ele>
        <time>2023-04-10T14:52:50.000Z</time>
      </trkpt>
      <trkpt lat="45.86385" lon="4.70136">
        <ele>248.06918</ele>
        <time>2023-04-10T14:52:51.000Z</time>
      </trkpt>
      <trkpt lat="45.86384" lon="4.70145">
        <ele>248.09737</ele>
        <time>2023-04-10T14:52:52.000Z</time>
      </trkpt>
      <trkpt lat="45.86383" lon="4.70154">
        <ele>248.09592</ele>
        <time>2023-04-10T14:52:53.000Z</time>
      </trkpt>
      <trkpt lat="45.86382" lon="4.70162">
        <ele>248.06738</ele>
        <time>2023-04-10T14:52:54.000Z</time>
      </trkpt>
      <trkpt lat="45.86381" lon="4.70171">
        <ele>248.03593</ele>
        <time>2023-04-10T14:52:55.000Z</time>
      </trkpt>
      <trkpt lat="45.8638" lon="4.70178">
        <ele>247.99374</ele>
        <time>2023-04-10T14:52:56.000Z</time>
      </trkpt>
      <trkpt lat="45.86377" lon="4.70185">
        <ele>247.92639</ele>
        <time>2023-04-10T14:52:57.000Z</time>
      </trkpt>
      <trkpt lat="45.86373" lon="4.70191">
        <ele>247.87048</ele>
        <time>2023-04-10T14:52:58.000Z</time>
      </trkpt>
      <trkpt lat="45.8637" lon="4.70199">
        <ele>247.82138</ele>
        <time>2023-04-10T14:52:59.000Z</time>
      </trkpt>
      <trkpt lat="45.86365" lon="4.70205">
        <ele>247.73003</ele>
        <time>2023-04-10T14:53:00.000Z</time>
      </trkpt>
      <trkpt lat="45.86362" lon="4.70212">
        <ele>247.59929</ele>
        <time>2023-04-10T14:53:01.000Z</time>
      </trkpt>
      <trkpt lat="45.86357" lon="4.70218">
        <ele>247.47368</ele>
        <time>2023-04-10T14:53:02.000Z</time>
      </trkpt>
      <trkpt lat="45.86353" lon="4.70223">
        <ele>247.41602</ele>
        <time>2023-04-10T14:53:03.000Z</time>
      </trkpt>
      <trkpt lat="45.86349" lon="4.7023">
        <ele>247.30399</ele>
        <time>2023-04-10T14:53:04.000Z</time>
      </trkpt>
      <trkpt lat="45.86346" lon="4.70236">
        <ele>247.15842</ele>
        <time>2023-04-10T14:53:05.000Z</time>
      </trkpt>
      <trkpt lat="45.86343" lon="4.70242">
        <ele>247.04053</ele>
        <time>2023-04-10T14:53:06.000Z</time>
      </trkpt>
      <trkpt lat="45.86339" lon="4.70249">
        <ele>246.93877</ele>
        <time>2023-04-10T14:53:07.000Z</time>
      </trkpt>
      <trkpt lat="45.86337" lon="4.70257">
        <ele>246.82417</ele>
        <time>2023-04-10T14:53:08.000Z</time>
      </trkpt>
      <trkpt lat="45.86335" lon="4.70264">
        <ele>246.74529</ele>
        <time>2023-04-10T14:53:09.000Z</time>
      </trkpt>
      <trkpt lat="45.86335" lon="4.70272">
        <ele>246.64836</ele>
        <time>2023-04-10T14:53:10.000Z</time>
      </trkpt>
      <trkpt lat="45.86334" lon="4.70281">
        <ele>246.57564</ele>
        <time>2023-04-10T14:53:11.000Z</time>
      </trkpt>
      <trkpt lat="45.86333" lon="4.7029">
        <ele>246.52014</ele>
        <time>2023-04-10T14:53:12.000Z</time>
      </trkpt>
      <trkpt lat="45.8633" lon="4.70298">
        <ele>246.47815</ele>
        <time>2023-04-10T14:53:13.000Z</time>
      </trkpt>
      <trkpt lat="45.8633" lon="4.70307">
        <ele>246.46207</ele>
        <time>2023-04-10T14:53:14.000Z</time>
      </trkpt>
      <trkpt lat="45.86331" lon="4.70314">
        <ele>246.448</ele>
        <time>2023-04-10T14:53:15.000Z</time>
      </trkpt>
      <trkpt lat="45.86334" lon="4.70322">
        <ele>246.40585</ele>
        <time>2023-04-10T14:53:16.000Z</time>
      </trkpt>
      <trkpt lat="45.86336" lon="4.70329">
        <ele>246.36057</ele>
        <time>2023-04-10T14:53:17.000Z</time>
      </trkpt>
      <trkpt lat="45.86341" lon="4.70334">
        <ele>246.32271</ele>
        <time>2023-04-10T14:53:18.000Z</time>
      </trkpt>
      <trkpt lat="45.86344" lon="4.7034">
        <ele>246.22119</ele>
        <time>2023-04-10T14:53:19.000Z</time>
      </trkpt>
      <trkpt lat="45.86348" lon="4.70345">
        <ele>246.19217</ele>
        <time>2023-04-10T14:53:20.000Z</time>
      </trkpt>
      <trkpt lat="45.86354" lon="4.7035">
        <ele>246.14224</ele>
        <time>2023-04-10T14:53:21.000Z</time>
      </trkpt>
      <trkpt lat="45.86358" lon="4.70355">
        <ele>246.11726</ele>
        <time>2023-04-10T14:53:22.000Z</time>
      </trkpt>
      <trkpt lat="45.86363" lon="4.70361">
        <ele>246.04875</ele>
        <time>2023-04-10T14:53:23.000Z</time>
      </trkpt>
      <trkpt lat="45.86369" lon="4.70367">
        <ele>245.98398</ele>
        <time>2023-04-10T14:53:24.000Z</time>
      </trkpt>
      <trkpt lat="45.86373" lon="4.70372">
        <ele>245.97195</ele>
        <time>2023-04-10T14:53:25.000Z</time>
      </trkpt>
      <trkpt lat="45.86378" lon="4.70376">
        <ele>245.91858</ele>
        <time>2023-04-10T14:53:26.000Z</time>
      </trkpt>
      <trkpt lat="45.86383" lon="4.70382">
        <ele>245.82779</ele>
        <time>2023-04-10T14:53:27.000Z</time>
      </trkpt>
      <trkpt lat="45.86387" lon="4.70388">
        <ele>245.75919</ele>
        <time>2023-04-10T14:53:28.000Z</time>
      </trkpt>
      <trkpt lat="45.86391" lon="4.70396">
        <ele>245.68661</ele>
        <time>2023-04-10T14:53:29.000Z</time>
      </trkpt>
      <trkpt lat="45.86393" lon="4.70406">
        <ele>245.60486</ele>
        <time>2023-04-10T14:53:30.000Z</time>
      </trkpt>
      <trkpt lat="45.86396" lon="4.70413">
        <ele>245.56033</ele>
        <time>2023-04-10T14:53:31.000Z</time>
      </trkpt>
      <trkpt lat="45.86396" lon="4.70421">
        <ele>245.5062</ele>
        <time>2023-04-10T14:53:32.000Z</time>
      </trkpt>
      <trkpt lat="45.86398" lon="4.70429">
        <ele>245.45988</ele>
        <time>2023-04-10T14:53:33.000Z</time>
      </trkpt>
      <trkpt lat="45.86399" lon="4.70437">
        <ele>245.43076</ele>
        <time>2023-04-10T14:53:34.000Z</time>
      </trkpt>
      <trkpt lat="45.86398" lon="4.70447">
        <ele>245.34663</ele>
        <time>2023-04-10T14:53:35.000Z</time>
      </trkpt>
      <trkpt lat="45.86398" lon="4.70455">
        <ele>245.26868</ele>
        <time>2023-04-10T14:53:36.000Z</time>
      </trkpt>
      <trkpt lat="45.86396" lon="4.70463">
        <ele>245.18843</ele>
        <time>2023-04-10T14:53:37.000Z</time>
      </trkpt>
      <trkpt lat="45.86392" lon="4.70469">
        <ele>245.08716</ele>
        <time>2023-04-10T14:53:38.000Z</time>
      </trkpt>
      <trkpt lat="45.86389" lon="4.70476">
        <ele>245.01978</ele>
        <time>2023-04-10T14:53:39.000Z</time>
      </trkpt>
      <trkpt lat="45.86385" lon="4.70483">
        <ele>244.94829</ele>
        <time>2023-04-10T14:53:40.000Z</time>
      </trkpt>
      <trkpt lat="45.8638" lon="4.7049">
        <ele>244.93344</ele>
        <time>2023-04-10T14:53:41.000Z</time>
      </trkpt>
      <trkpt lat="45.86377" lon="4.70498">
        <ele>244.93106</ele>
        <time>2023-04-10T14:53:42.000Z</time>
      </trkpt>
      <trkpt lat="45.86376" lon="4.70506">
        <ele>244.94133</ele>
        <time>2023-04-10T14:53:43.000Z</time>
      </trkpt>
      <trkpt lat="45.86375" lon="4.70514">
        <ele>244.93143</ele>
        <time>2023-04-10T14:53:44.000Z</time>
      </trkpt>
      <trkpt lat="45.86376" lon="4.70523">
        <ele>244.88684</ele>
        <time>2023-04-10T14:53:45.000Z</time>
      </trkpt>
      <trkpt lat="45.86376" lon="4.7053">
        <ele>244.89656</ele>
        <time>2023-04-10T14:53:46.000Z</time>
      </trkpt>
      <trkpt lat="45.86377" lon="4.70538">
        <ele>244.94551</ele>
        <time>2023-04-10T14:53:47.000Z</time>
      </trkpt>
      <trkpt lat="45.86378" lon="4.70547">
        <ele>244.96326</ele>
        <time>2023-04-10T14:53:48.000Z</time>
      </trkpt>
      <trkpt lat="45.86378" lon="4.70555">
        <ele>244.94038</ele>
        <time>2023-04-10T14:53:49.000Z</time>
      </trkpt>
      <trkpt lat="45.8638" lon="4.70564">
        <ele>245.00386</ele>
        <time>2023-04-10T14:53:50.000Z</time>
      </trkpt>
      <trkpt lat="45.86383" lon="4.70571">
        <ele>244.99097</ele>
        <time>2023-04-10T14:53:51.000Z</time>
      </trkpt>
      <trkpt lat="45.86388" lon="4.70576">
        <ele>244.99727</ele>
        <time>2023-04-10T14:53:52.000Z</time>
      </trkpt>
      <trkpt lat="45.86394" lon="4.70579">
        <ele>244.96399</ele>
        <time>2023-04-10T14:53:53.000Z</time>
      </trkpt>
      <trkpt lat="45.864" lon="4.70579">
        <ele>244.98935</ele>
        <time>2023-04-10T14:53:54.000Z</time>
      </trkpt>
      <trkpt lat="45.86407" lon="4.70576">
        <ele>245.04143</ele>
        <time>2023-04-10T14:53:55.000Z</time>
      </trkpt>
      <trkpt lat="45.86412" lon="4.70573">
        <ele>245.10999</ele>
        <time>2023-04-10T14:53:56.000Z</time>
      </trkpt>
      <trkpt lat="45.86419" lon="4.70571">
        <ele>245.20718</ele>
        <time>2023-04-10T14:53:57.000Z</time>
      </trkpt>
      <trkpt lat="45.86424" lon="4.7057">
        <ele>245.29585</ele>
        <time>2023-04-10T14:53:58.000Z</time>
      </trkpt>
      <trkpt lat="45.8643" lon="4.70569">
        <ele>245.39946</ele>
        <time>2023-04-10T14:53:59.000Z</time>
      </trkpt>
      <trkpt lat="45.86437" lon="4.7057">
        <ele>245.52762</ele>
        <time>2023-04-10T14:54:00.000Z</time>
      </trkpt>
      <trkpt lat="45.86443" lon="4.70569">
        <ele>245.59558</ele>
        <time>2023-04-10T14:54:01.000Z</time>
      </trkpt>
      <trkpt lat="45.86449" lon="4.70569">
        <ele>245.62773</ele>
        <time>2023-04-10T14:54:02.000Z</time>
      </trkpt>
      <trkpt lat="45.86456" lon="4.70567">
        <ele>245.64558</ele>
        <time>2023-04-10T14:54:03.000Z</time>
      </trkpt>
      <trkpt lat="45.86461" lon="4.70566">
        <ele>245.66818</ele>
        <time>2023-04-10T14:54:04.000Z</time>
      </trkpt>
      <trkpt lat="45.86467" lon="4.70563">
        <ele>245.67256</ele>
        <time>2023-04-10T14:54:05.000Z</time>
      </trkpt>
      <trkpt lat="45.86472" lon="4.70562">
        <ele>245.67053</ele>
        <time>2023-04-10T14:54:06.000Z</time>
      </trkpt>
      <trkpt lat="45.86477" lon="4.70562">
        <ele>245.67892</ele>
        <time>2023-04-10T14:54:07.000Z</time>
      </trkpt>
      <trkpt lat="45.86483" lon="4.70563">
        <ele>245.70883</ele>
        <time>2023-04-10T14:54:08.000Z</time>
      </trkpt>
      <trkpt lat="45.86488" lon="4.70563">
        <ele>245.75192</ele>
        <time>2023-04-10T14:54:09.000Z</time>
      </trkpt>
      <trkpt lat="45.86494" lon="4.70564">
        <ele>245.77121</ele>
        <time>2023-04-10T14:54:10.000Z</time>
      </trkpt>
      <trkpt lat="45.86499" lon="4.70564">
        <ele>245.79581</ele>
        <time>2023-04-10T14:54:11.000Z</time>
      </trkpt>
      <trkpt lat="45.86505" lon="4.70568">
        <ele>245.81689</ele>
        <time>2023-04-10T14:54:12.000Z</time>
      </trkpt>
      <trkpt lat="45.86512" lon="4.70571">
        <ele>245.83713</ele>
        <time>2023-04-10T14:54:13.000Z</time>
      </trkpt>
      <trkpt lat="45.86518" lon="4.70575">
        <ele>245.76338</ele>
        <time>2023-04-10T14:54:14.000Z</time>
      </trkpt>
      <trkpt lat="45.86523" lon="4.70578">
        <ele>245.69394</ele>
        <time>2023-04-10T14:54:15.000Z</time>
      </trkpt>
      <trkpt lat="45.86529" lon="4.70583">
        <ele>245.58391</ele>
        <time>2023-04-10T14:54:16.000Z</time>
      </trkpt>
      <trkpt lat="45.86533" lon="4.70589">
        <ele>245.43906</ele>
        <time>2023-04-10T14:54:17.000Z</time>
      </trkpt>
      <trkpt lat="45.86537" lon="4.70596">
        <ele>245.29712</ele>
        <time>2023-04-10T14:54:18.000Z</time>
      </trkpt>
      <trkpt lat="45.86541" lon="4.70603">
        <ele>245.13113</ele>
        <time>2023-04-10T14:54:19.000Z</time>
      </trkpt>
      <trkpt lat="45.86545" lon="4.70611">
        <ele>244.94348</ele>
        <time>2023-04-10T14:54:20.000Z</time>
      </trkpt>
      <trkpt lat="45.86548" lon="4.7062">
        <ele>244.79398</ele>
        <time>2023-04-10T14:54:21.000Z</time>
      </trkpt>
      <trkpt lat="45.86552" lon="4.70626">
        <ele>244.65152</ele>
        <time>2023-04-10T14:54:22.000Z</time>
      </trkpt>
      <trkpt lat="45.86557" lon="4.70631">
        <ele>244.49324</ele>
        <time>2023-04-10T14:54:23.000Z</time>
      </trkpt>
      <trkpt lat="45.86562" lon="4.70635">
        <ele>244.35092</ele>
        <time>2023-04-10T14:54:24.000Z</time>
      </trkpt>
      <trkpt lat="45.86568" lon="4.70637">
        <ele>244.26462</ele>
        <time>2023-04-10T14:54:25.000Z</time>
      </trkpt>
      <trkpt lat="45.86573" lon="4.70637">
        <ele>244.16951</ele>
        <time>2023-04-10T14:54:26.000Z</time>
      </trkpt>
      <trkpt lat="45.8658" lon="4.70634">
        <ele>244.0592</ele>
        <time>2023-04-10T14:54:27.000Z</time>
      </trkpt>
      <trkpt lat="45.86584" lon="4.70634">
        <ele>243.97282</ele>
        <time>2023-04-10T14:54:28.000Z</time>
      </trkpt>
      <trkpt lat="45.86589" lon="4.70634">
        <ele>243.90767</ele>
        <time>2023-04-10T14:54:29.000Z</time>
      </trkpt>
      <trkpt lat="45.86596" lon="4.70634">
        <ele>243.84753</ele>
        <time>2023-04-10T14:54:30.000Z</time>
      </trkpt>
      <trkpt lat="45.86603" lon="4.70633">
        <ele>243.78523</ele>
        <time>2023-04-10T14:54:31.000Z</time>
      </trkpt>
      <trkpt lat="45.86609" lon="4.70634">
        <ele>243.67749</ele>
        <time>2023-04-10T14:54:32.000Z</time>
      </trkpt>
      <trkpt lat="45.86614" lon="4.70638">
        <ele>243.6252</ele>
        <time>2023-04-10T14:54:33.000Z</time>
      </trkpt>
      <trkpt lat="45.86619" lon="4.70643">
        <ele>243.56921</ele>
        <time>2023-04-10T14:54:34.000Z</time>
      </trkpt>
      <trkpt lat="45.86623" lon="4.70646">
        <ele>243.4996</ele>
        <time>2023-04-10T14:54:35.000Z</time>
      </trkpt>
      <trkpt lat="45.86628" lon="4.70649">
        <ele>243.46298</ele>
        <time>2023-04-10T14:54:36.000Z</time>
      </trkpt>
      <trkpt lat="45.86634" lon="4.70651">
        <ele>243.44832</ele>
        <time>2023-04-10T14:54:37.000Z</time>
      </trkpt>
      <trkpt lat="45.86639" lon="4.70652">
        <ele>243.47281</ele>
        <time>2023-04-10T14:54:38.000Z</time>
      </trkpt>
      <trkpt lat="45.86643" lon="4.70649">
        <ele>243.547</ele>
        <time>2023-04-10T14:54:39.000Z</time>
      </trkpt>
      <trkpt lat="45.86648" lon="4.70645">
        <ele>243.60503</ele>
        <time>2023-04-10T14:54:40.000Z</time>
      </trkpt>
      <trkpt lat="45.8665" lon="4.70639">
        <ele>243.6438</ele>
        <time>2023-04-10T14:54:41.000Z</time>
      </trkpt>
      <trkpt lat="45.86651" lon="4.70634">
        <ele>243.68228</ele>
        <time>2023-04-10T14:54:42.000Z</time>
      </trkpt>
      <trkpt lat="45.86655" lon="4.70626">
        <ele>243.75655</ele>
        <time>2023-04-10T14:54:43.000Z</time>
      </trkpt>
      <trkpt lat="45.86658" lon="4.70622">
        <ele>243.82222</ele>
        <time>2023-04-10T14:54:44.000Z</time>
      </trkpt>
      <trkpt lat="45.86663" lon="4.70618">
        <ele>243.87332</ele>
        <time>2023-04-10T14:54:45.000Z</time>
      </trkpt>
      <trkpt lat="45.86665" lon="4.70616">
        <ele>243.92448</ele>
        <time>2023-04-10T14:54:46.000Z</time>
      </trkpt>
      <trkpt lat="45.8667" lon="4.70613">
        <ele>243.99484</ele>
        <time>2023-04-10T14:54:47.000Z</time>
      </trkpt>
      <trkpt lat="45.86676" lon="4.70615">
        <ele>244.02205</ele>
        <time>2023-04-10T14:54:48.000Z</time>
      </trkpt>
      <trkpt lat="45.86681" lon="4.7062">
        <ele>244.03995</ele>
        <time>2023-04-10T14:54:49.000Z</time>
      </trkpt>
      <trkpt lat="45.86684" lon="4.70624">
        <ele>244.02864</ele>
        <time>2023-04-10T14:54:50.000Z</time>
      </trkpt>
      <trkpt lat="45.86687" lon="4.70632">
        <ele>244.00349</ele>
        <time>2023-04-10T14:54:51.000Z</time>
      </trkpt>
      <trkpt lat="45.8669" lon="4.70637">
        <ele>244.04309</ele>
        <time>2023-04-10T14:54:52.000Z</time>
      </trkpt>
      <trkpt lat="45.86693" lon="4.70643">
        <ele>244.08054</ele>
        <time>2023-04-10T14:54:53.000Z</time>
      </trkpt>
      <trkpt lat="45.86698" lon="4.70651">
        <ele>244.16145</ele>
        <time>2023-04-10T14:54:54.000Z</time>
      </trkpt>
      <trkpt lat="45.86701" lon="4.70656">
        <ele>244.24568</ele>
        <time>2023-04-10T14:54:55.000Z</time>
      </trkpt>
      <trkpt lat="45.86704" lon="4.70666">
        <ele>244.30933</ele>
        <time>2023-04-10T14:54:56.000Z</time>
      </trkpt>
      <trkpt lat="45.86708" lon="4.70671">
        <ele>244.34258</ele>
        <time>2023-04-10T14:54:57.000Z</time>
      </trkpt>
      <trkpt lat="45.86711" lon="4.70677">
        <ele>244.35483</ele>
        <time>2023-04-10T14:54:58.000Z</time>
      </trkpt>
      <trkpt lat="45.86712" lon="4.70684">
        <ele>244.36545</ele>
        <time>2023-04-10T14:54:59.000Z</time>
      </trkpt>
      <trkpt lat="45.86713" lon="4.7069">
        <ele>244.12766</ele>
        <time>2023-04-10T14:55:00.000Z</time>
      </trkpt>
      <trkpt lat="45.86717" lon="4.70695">
        <ele>243.92868</ele>
        <time>2023-04-10T14:55:01.000Z</time>
      </trkpt>
      <trkpt lat="45.86719" lon="4.707">
        <ele>243.76282</ele>
        <time>2023-04-10T14:55:02.000Z</time>
      </trkpt>
      <trkpt lat="45.86722" lon="4.70704">
        <ele>243.45561</ele>
        <time>2023-04-10T14:55:03.000Z</time>
      </trkpt>
      <trkpt lat="45.86726" lon="4.70709">
        <ele>243.1541</ele>
        <time>2023-04-10T14:55:04.000Z</time>
      </trkpt>
      <trkpt lat="45.8673" lon="4.70713">
        <ele>242.72153</ele>
        <time>2023-04-10T14:55:05.000Z</time>
      </trkpt>
      <trkpt lat="45.86735" lon="4.70718">
        <ele>242.31934</ele>
        <time>2023-04-10T14:55:06.000Z</time>
      </trkpt>
      <trkpt lat="45.8674" lon="4.70722">
        <ele>241.86414</ele>
        <time>2023-04-10T14:55:07.000Z</time>
      </trkpt>
      <trkpt lat="45.86745" lon="4.70727">
        <ele>241.41035</ele>
        <time>2023-04-10T14:55:08.000Z</time>
      </trkpt>
      <trkpt lat="45.8675" lon="4.70728">
        <ele>240.97823</ele>
        <time>2023-04-10T14:55:09.000Z</time>
      </trkpt>
      <trkpt lat="45.86755" lon="4.7073">
        <ele>240.55264</ele>
        <time>2023-04-10T14:55:10.000Z</time>
      </trkpt>
      <trkpt lat="45.86758" lon="4.70732">
        <ele>240.181</ele>
        <time>2023-04-10T14:55:11.000Z</time>
      </trkpt>
      <trkpt lat="45.86759" lon="4.70737">
        <ele>239.78207</ele>
        <time>2023-04-10T14:55:12.000Z</time>
      </trkpt>
      <trkpt lat="45.86761" lon="4.70742">
        <ele>239.39249</ele>
        <time>2023-04-10T14:55:13.000Z</time>
      </trkpt>
      <trkpt lat="45.86763" lon="4.70747">
        <ele>238.95403</ele>
        <time>2023-04-10T14:55:14.000Z</time>
      </trkpt>
      <trkpt lat="45.86763" lon="4.70752">
        <ele>238.52347</ele>
        <time>2023-04-10T14:55:15.000Z</time>
      </trkpt>
      <trkpt lat="45.86763" lon="4.70759">
        <ele>238.10522</ele>
        <time>2023-04-10T14:55:16.000Z</time>
      </trkpt>
      <trkpt lat="45.86763" lon="4.70765">
        <ele>237.72751</ele>
        <time>2023-04-10T14:55:17.000Z</time>
      </trkpt>
      <trkpt lat="45.86763" lon="4.70771">
        <ele>237.34554</ele>
        <time>2023-04-10T14:55:18.000Z</time>
      </trkpt>
      <trkpt lat="45.86765" lon="4.70774">
        <ele>236.9126</ele>
        <time>2023-04-10T14:55:19.000Z</time>
      </trkpt>
      <trkpt lat="45.86766" lon="4.70779">
        <ele>236.75566</ele>
        <time>2023-04-10T14:55:20.000Z</time>
      </trkpt>
      <trkpt lat="45.86768" lon="4.70783">
        <ele>236.59146</ele>
        <time>2023-04-10T14:55:21.000Z</time>
      </trkpt>
      <trkpt lat="45.8677" lon="4.70786">
        <ele>236.38542</ele>
        <time>2023-04-10T14:55:22.000Z</time>
      </trkpt>
      <trkpt lat="45.86771" lon="4.70788">
        <ele>236.2731</ele>
        <time>2023-04-10T14:55:23.000Z</time>
      </trkpt>
      <trkpt lat="45.86773" lon="4.70791">
        <ele>236.17892</ele>
        <time>2023-04-10T14:55:25.000Z</time>
      </trkpt>
      <trkpt lat="45.86775" lon="4.70795">
        <ele>236.22446</ele>
        <time>2023-04-10T14:55:27.000Z</time>
      </trkpt>
      <trkpt lat="45.86776" lon="4.70798">
        <ele>236.23776</ele>
        <time>2023-04-10T14:55:28.000Z</time>
      </trkpt>
      <trkpt lat="45.86777" lon="4.70802">
        <ele>236.31995</ele>
        <time>2023-04-10T14:55:29.000Z</time>
      </trkpt>
      <trkpt lat="45.86778" lon="4.70806">
        <ele>236.39352</ele>
        <time>2023-04-10T14:55:30.000Z</time>
      </trkpt>
      <trkpt lat="45.8678" lon="4.7081">
        <ele>236.47343</ele>
        <time>2023-04-10T14:55:31.000Z</time>
      </trkpt>
      <trkpt lat="45.86782" lon="4.70814">
        <ele>236.55891</ele>
        <time>2023-04-10T14:55:32.000Z</time>
      </trkpt>
      <trkpt lat="45.86785" lon="4.70819">
        <ele>236.62393</ele>
        <time>2023-04-10T14:55:33.000Z</time>
      </trkpt>
      <trkpt lat="45.86787" lon="4.70823">
        <ele>236.70207</ele>
        <time>2023-04-10T14:55:34.000Z</time>
      </trkpt>
      <trkpt lat="45.86791" lon="4.70827">
        <ele>236.74712</ele>
        <time>2023-04-10T14:55:35.000Z</time>
      </trkpt>
      <trkpt lat="45.86794" lon="4.70831">
        <ele>236.82405</ele>
        <time>2023-04-10T14:55:36.000Z</time>
      </trkpt>
      <trkpt lat="45.86797" lon="4.70834">
        <ele>236.90486</ele>
        <time>2023-04-10T14:55:37.000Z</time>
      </trkpt>
      <trkpt lat="45.86801" lon="4.70836">
        <ele>236.99402</ele>
        <time>2023-04-10T14:55:38.000Z</time>
      </trkpt>
      <trkpt lat="45.86804" lon="4.70839">
        <ele>237.01494</ele>
        <time>2023-04-10T14:55:39.000Z</time>
      </trkpt>
      <trkpt lat="45.86808" lon="4.70842">
        <ele>237.01302</ele>
        <time>2023-04-10T14:55:40.000Z</time>
      </trkpt>
      <trkpt lat="45.86811" lon="4.70846">
        <ele>237.05078</ele>
        <time>2023-04-10T14:55:41.000Z</time>
      </trkpt>
      <trkpt lat="45.86816" lon="4.70852">
        <ele>237.05766</ele>
        <time>2023-04-10T14:55:42.000Z</time>
      </trkpt>
      <trkpt lat="45.86818" lon="4.70858">
        <ele>237.03459</ele>
        <time>2023-04-10T14:55:43.000Z</time>
      </trkpt>
      <trkpt lat="45.86822" lon="4.70864">
        <ele>237.01538</ele>
        <time>2023-04-10T14:55:44.000Z</time>
      </trkpt>
      <trkpt lat="45.86825" lon="4.7087">
        <ele>237.0518</ele>
        <time>2023-04-10T14:55:45.000Z</time>
      </trkpt>
      <trkpt lat="45.86827" lon="4.70875">
        <ele>237.08516</ele>
        <time>2023-04-10T14:55:46.000Z</time>
      </trkpt>
      <trkpt lat="45.8683" lon="4.70882">
        <ele>237.06819</ele>
        <time>2023-04-10T14:55:47.000Z</time>
      </trkpt>
      <trkpt lat="45.86833" lon="4.70889">
        <ele>237.04053</ele>
        <time>2023-04-10T14:55:48.000Z</time>
      </trkpt>
      <trkpt lat="45.86837" lon="4.70895">
        <ele>236.99687</ele>
        <time>2023-04-10T14:55:49.000Z</time>
      </trkpt>
      <trkpt lat="45.86839" lon="4.70903">
        <ele>236.95573</ele>
        <time>2023-04-10T14:55:50.000Z</time>
      </trkpt>
      <trkpt lat="45.86842" lon="4.7091">
        <ele>236.88676</ele>
        <time>2023-04-10T14:55:51.000Z</time>
      </trkpt>
      <trkpt lat="45.86844" lon="4.70916">
        <ele>236.83394</ele>
        <time>2023-04-10T14:55:52.000Z</time>
      </trkpt>
      <trkpt lat="45.86847" lon="4.70924">
        <ele>236.78853</ele>
        <time>2023-04-10T14:55:53.000Z</time>
      </trkpt>
      <trkpt lat="45.86848" lon="4.70932">
        <ele>236.71358</ele>
        <time>2023-04-10T14:55:54.000Z</time>
      </trkpt>
      <trkpt lat="45.86852" lon="4.70937">
        <ele>236.61584</ele>
        <time>2023-04-10T14:55:55.000Z</time>
      </trkpt>
      <trkpt lat="45.86855" lon="4.70942">
        <ele>236.49345</ele>
        <time>2023-04-10T14:55:56.000Z</time>
      </trkpt>
      <trkpt lat="45.86858" lon="4.70948">
        <ele>236.37964</ele>
        <time>2023-04-10T14:55:57.000Z</time>
      </trkpt>
      <trkpt lat="45.8686" lon="4.70954">
        <ele>236.2623</ele>
        <time>2023-04-10T14:55:58.000Z</time>
      </trkpt>
      <trkpt lat="45.86862" lon="4.70959">
        <ele>236.18745</ele>
        <time>2023-04-10T14:55:59.000Z</time>
      </trkpt>
      <trkpt lat="45.86864" lon="4.70965">
        <ele>236.06987</ele>
        <time>2023-04-10T14:56:00.000Z</time>
      </trkpt>
      <trkpt lat="45.86865" lon="4.7097">
        <ele>235.93228</ele>
        <time>2023-04-10T14:56:01.000Z</time>
      </trkpt>
      <trkpt lat="45.86867" lon="4.70976">
        <ele>235.80441</ele>
        <time>2023-04-10T14:56:02.000Z</time>
      </trkpt>
      <trkpt lat="45.86868" lon="4.70981">
        <ele>235.72285</ele>
        <time>2023-04-10T14:56:03.000Z</time>
      </trkpt>
      <trkpt lat="45.86868" lon="4.70985">
        <ele>235.58493</ele>
        <time>2023-04-10T14:56:04.000Z</time>
      </trkpt>
      <trkpt lat="45.86868" lon="4.70991">
        <ele>235.46382</ele>
        <time>2023-04-10T14:56:05.000Z</time>
      </trkpt>
      <trkpt lat="45.86867" lon="4.70996">
        <ele>235.35176</ele>
        <time>2023-04-10T14:56:06.000Z</time>
      </trkpt>
      <trkpt lat="45.86869" lon="4.71004">
        <ele>235.2579</ele>
        <time>2023-04-10T14:56:07.000Z</time>
      </trkpt>
      <trkpt lat="45.8687" lon="4.71008">
        <ele>235.19441</ele>
        <time>2023-04-10T14:56:08.000Z</time>
      </trkpt>
      <trkpt lat="45.86871" lon="4.71012">
        <ele>235.12491</ele>
        <time>2023-04-10T14:56:09.000Z</time>
      </trkpt>
      <trkpt lat="45.86871" lon="4.71016">
        <ele>235.13257</ele>
        <time>2023-04-10T14:56:10.000Z</time>
      </trkpt>
      <trkpt lat="45.86872" lon="4.71019">
        <ele>235.11052</ele>
        <time>2023-04-10T14:56:11.000Z</time>
      </trkpt>
      <trkpt lat="45.86872" lon="4.71023">
        <ele>235.11288</ele>
        <time>2023-04-10T14:56:13.000Z</time>
      </trkpt>
      <trkpt lat="45.86873" lon="4.71027">
        <ele>235.11104</ele>
        <time>2023-04-10T14:56:15.000Z</time>
      </trkpt>
      <trkpt lat="45.86873" lon="4.71031">
        <ele>235.17957</ele>
        <time>2023-04-10T14:56:17.000Z</time>
      </trkpt>
      <trkpt lat="45.86874" lon="4.71034">
        <ele>235.32016</ele>
        <time>2023-04-10T14:56:18.000Z</time>
      </trkpt>
      <trkpt lat="45.86875" lon="4.71037">
        <ele>235.49405</ele>
        <time>2023-04-10T14:56:19.000Z</time>
      </trkpt>
      <trkpt lat="45.86875" lon="4.71041">
        <ele>235.65816</ele>
        <time>2023-04-10T14:56:20.000Z</time>
      </trkpt>
      <trkpt lat="45.86875" lon="4.71044">
        <ele>235.80579</ele>
        <time>2023-04-10T14:56:21.000Z</time>
      </trkpt>
      <trkpt lat="45.86876" lon="4.71048">
        <ele>235.9523</ele>
        <time>2023-04-10T14:56:22.000Z</time>
      </trkpt>
      <trkpt lat="45.86877" lon="4.71051">
        <ele>236.15201</ele>
        <time>2023-04-10T14:56:23.000Z</time>
      </trkpt>
      <trkpt lat="45.86878" lon="4.71054">
        <ele>236.36182</ele>
        <time>2023-04-10T14:56:24.000Z</time>
      </trkpt>
      <trkpt lat="45.86878" lon="4.71057">
        <ele>236.55949</ele>
        <time>2023-04-10T14:56:25.000Z</time>
      </trkpt>
      <trkpt lat="45.86879" lon="4.71059">
        <ele>236.75598</ele>
        <time>2023-04-10T14:56:26.000Z</time>
      </trkpt>
      <trkpt lat="45.8688" lon="4.71062">
        <ele>237.03816</ele>
        <time>2023-04-10T14:56:27.000Z</time>
      </trkpt>
      <trkpt lat="45.86881" lon="4.71064">
        <ele>237.25346</ele>
        <time>2023-04-10T14:56:28.000Z</time>
      </trkpt>
      <trkpt lat="45.86882" lon="4.71066">
        <ele>237.42082</ele>
        <time>2023-04-10T14:56:29.000Z</time>
      </trkpt>
      <trkpt lat="45.86884" lon="4.71068">
        <ele>237.66699</ele>
        <time>2023-04-10T14:56:30.000Z</time>
      </trkpt>
      <trkpt lat="45.86886" lon="4.71069">
        <ele>237.89938</ele>
        <time>2023-04-10T14:56:31.000Z</time>
      </trkpt>
      <trkpt lat="45.86888" lon="4.7107">
        <ele>238.17468</ele>
        <time>2023-04-10T14:56:32.000Z</time>
      </trkpt>
      <trkpt lat="45.8689" lon="4.71071">
        <ele>238.38309</ele>
        <time>2023-04-10T14:56:33.000Z</time>
      </trkpt>
      <trkpt lat="45.86892" lon="4.71073">
        <ele>238.64026</ele>
        <time>2023-04-10T14:56:34.000Z</time>
      </trkpt>
      <trkpt lat="45.86893" lon="4.71075">
        <ele>238.87915</ele>
        <time>2023-04-10T14:56:36.000Z</time>
      </trkpt>
      <trkpt lat="45.86891" lon="4.71076">
        <ele>239.03047</ele>
        <time>2023-04-10T14:56:44.000Z</time>
      </trkpt>
      <trkpt lat="45.86889" lon="4.71077">
        <ele>239.15787</ele>
        <time>2023-04-10T14:56:47.000Z</time>
      </trkpt>
      <trkpt lat="45.86886" lon="4.71078">
        <ele>239.24699</ele>
        <time>2023-04-10T14:56:49.000Z</time>
      </trkpt>
      <trkpt lat="45.86883" lon="4.7108">
        <ele>239.36531</ele>
        <time>2023-04-10T14:56:51.000Z</time>
      </trkpt>
      <trkpt lat="45.8688" lon="4.71081">
        <ele>239.45752</ele>
        <time>2023-04-10T14:56:53.000Z</time>
      </trkpt>
      <trkpt lat="45.86877" lon="4.71082">
        <ele>239.5903</ele>
        <time>2023-04-10T14:56:55.000Z</time>
      </trkpt>
      <trkpt lat="45.86875" lon="4.71082">
        <ele>239.76413</ele>
        <time>2023-04-10T14:56:57.000Z</time>
      </trkpt>
      <trkpt lat="45.86872" lon="4.71082">
        <ele>239.92651</ele>
        <time>2023-04-10T14:56:59.000Z</time>
      </trkpt>
      <trkpt lat="45.86869" lon="4.71082">
        <ele>240.08383</ele>
        <time>2023-04-10T14:57:01.000Z</time>
      </trkpt>
      <trkpt lat="45.86867" lon="4.71082">
        <ele>240.26151</ele>
        <time>2023-04-10T14:57:02.000Z</time>
      </trkpt>
      <trkpt lat="45.86866" lon="4.71083">
        <ele>240.41043</ele>
        <time>2023-04-10T14:57:03.000Z</time>
      </trkpt>
      <trkpt lat="45.86864" lon="4.71083">
        <ele>240.54092</ele>
        <time>2023-04-10T14:57:04.000Z</time>
      </trkpt>
      <trkpt lat="45.86861" lon="4.71083">
        <ele>240.68694</ele>
        <time>2023-04-10T14:57:05.000Z</time>
      </trkpt>
      <trkpt lat="45.86859" lon="4.71083">
        <ele>240.85713</ele>
        <time>2023-04-10T14:57:06.000Z</time>
      </trkpt>
      <trkpt lat="45.86857" lon="4.71083">
        <ele>240.95273</ele>
        <time>2023-04-10T14:57:07.000Z</time>
      </trkpt>
      <trkpt lat="45.86855" lon="4.71083">
        <ele>241.03072</ele>
        <time>2023-04-10T14:57:08.000Z</time>
      </trkpt>
      <trkpt lat="45.86853" lon="4.71083">
        <ele>241.02319</ele>
        <time>2023-04-10T14:57:09.000Z</time>
      </trkpt>
      <trkpt lat="45.86851" lon="4.71083">
        <ele>241.02071</ele>
        <time>2023-04-10T14:57:10.000Z</time>
      </trkpt>
      <trkpt lat="45.86848" lon="4.71083">
        <ele>241.0638</ele>
        <time>2023-04-10T14:57:12.000Z</time>
      </trkpt>
      <trkpt lat="45.86845" lon="4.71083">
        <ele>241.05557</ele>
        <time>2023-04-10T14:57:14.000Z</time>
      </trkpt>
      <trkpt lat="45.86841" lon="4.71083">
        <ele>241.11475</ele>
        <time>2023-04-10T14:57:16.000Z</time>
      </trkpt>
      <trkpt lat="45.86839" lon="4.71083">
        <ele>241.16496</ele>
        <time>2023-04-10T14:57:18.000Z</time>
      </trkpt>
      <trkpt lat="45.86836" lon="4.71082">
        <ele>241.15898</ele>
        <time>2023-04-10T14:57:20.000Z</time>
      </trkpt>
      <trkpt lat="45.86834" lon="4.71082">
        <ele>241.16211</ele>
        <time>2023-04-10T14:57:22.000Z</time>
      </trkpt>
      <trkpt lat="45.8683" lon="4.71082">
        <ele>241.14497</ele>
        <time>2023-04-10T14:57:26.000Z</time>
      </trkpt>
      <trkpt lat="45.86828" lon="4.71082">
        <ele>241.10738</ele>
        <time>2023-04-10T14:57:27.000Z</time>
      </trkpt>
      <trkpt lat="45.86825" lon="4.71082">
        <ele>241.02885</ele>
        <time>2023-04-10T14:57:28.000Z</time>
      </trkpt>
      <trkpt lat="45.86823" lon="4.71083">
        <ele>240.99808</ele>
        <time>2023-04-10T14:57:31.000Z</time>
      </trkpt>
      <trkpt lat="45.86821" lon="4.71083">
        <ele>240.87032</ele>
        <time>2023-04-10T14:57:40.000Z</time>
      </trkpt>
      <trkpt lat="45.86819" lon="4.71082">
        <ele>240.73154</ele>
        <time>2023-04-10T14:57:41.000Z</time>
      </trkpt>
      <trkpt lat="45.86816" lon="4.71082">
        <ele>240.65646</ele>
        <time>2023-04-10T14:57:42.000Z</time>
      </trkpt>
      <trkpt lat="45.86813" lon="4.71083">
        <ele>240.55766</ele>
        <time>2023-04-10T14:57:43.000Z</time>
      </trkpt>
      <trkpt lat="45.8681" lon="4.71085">
        <ele>240.45883</ele>
        <time>2023-04-10T14:57:44.000Z</time>
      </trkpt>
      <trkpt lat="45.86807" lon="4.71086">
        <ele>240.37271</ele>
        <time>2023-04-10T14:57:45.000Z</time>
      </trkpt>
      <trkpt lat="45.86804" lon="4.71087">
        <ele>240.28056</ele>
        <time>2023-04-10T14:57:46.000Z</time>
      </trkpt>
      <trkpt lat="45.86801" lon="4.71087">
        <ele>240.21411</ele>
        <time>2023-04-10T14:57:47.000Z</time>
      </trkpt>
      <trkpt lat="45.86798" lon="4.71087">
        <ele>240.18137</ele>
        <time>2023-04-10T14:57:48.000Z</time>
      </trkpt>
      <trkpt lat="45.86795" lon="4.71087">
        <ele>240.16785</ele>
        <time>2023-04-10T14:57:49.000Z</time>
      </trkpt>
      <trkpt lat="45.86791" lon="4.71087">
        <ele>240.08798</ele>
        <time>2023-04-10T14:57:50.000Z</time>
      </trkpt>
      <trkpt lat="45.86788" lon="4.71087">
        <ele>240.04074</ele>
        <time>2023-04-10T14:57:51.000Z</time>
      </trkpt>
      <trkpt lat="45.86785" lon="4.71087">
        <ele>240.00821</ele>
        <time>2023-04-10T14:57:52.000Z</time>
      </trkpt>
      <trkpt lat="45.86782" lon="4.71087">
        <ele>239.97493</ele>
        <time>2023-04-10T14:57:53.000Z</time>
      </trkpt>
      <trkpt lat="45.86778" lon="4.71087">
        <ele>239.99023</ele>
        <time>2023-04-10T14:57:54.000Z</time>
      </trkpt>
      <trkpt lat="45.86775" lon="4.71086">
        <ele>239.95163</ele>
        <time>2023-04-10T14:57:55.000Z</time>
      </trkpt>
      <trkpt lat="45.86772" lon="4.71085">
        <ele>239.96255</ele>
        <time>2023-04-10T14:57:56.000Z</time>
      </trkpt>
      <trkpt lat="45.86768" lon="4.71084">
        <ele>239.97</ele>
        <time>2023-04-10T14:57:57.000Z</time>
      </trkpt>
      <trkpt lat="45.86765" lon="4.71083">
        <ele>240.00546</ele>
        <time>2023-04-10T14:57:58.000Z</time>
      </trkpt>
      <trkpt lat="45.86761" lon="4.71082">
        <ele>240.01318</ele>
        <time>2023-04-10T14:57:59.000Z</time>
      </trkpt>
      <trkpt lat="45.86758" lon="4.71081">
        <ele>240.08577</ele>
        <time>2023-04-10T14:58:00.000Z</time>
      </trkpt>
      <trkpt lat="45.86755" lon="4.7108">
        <ele>240.1519</ele>
        <time>2023-04-10T14:58:01.000Z</time>
      </trkpt>
      <trkpt lat="45.86752" lon="4.71078">
        <ele>240.1796</ele>
        <time>2023-04-10T14:58:02.000Z</time>
      </trkpt>
      <trkpt lat="45.86749" lon="4.71077">
        <ele>240.23137</ele>
        <time>2023-04-10T14:58:03.000Z</time>
      </trkpt>
      <trkpt lat="45.86745" lon="4.71076">
        <ele>240.28125</ele>
        <time>2023-04-10T14:58:04.000Z</time>
      </trkpt>
      <trkpt lat="45.86742" lon="4.71075">
        <ele>240.30559</ele>
        <time>2023-04-10T14:58:05.000Z</time>
      </trkpt>
      <trkpt lat="45.86739" lon="4.71073">
        <ele>240.33334</ele>
        <time>2023-04-10T14:58:06.000Z</time>
      </trkpt>
      <trkpt lat="45.86736" lon="4.71072">
        <ele>240.36697</ele>
        <time>2023-04-10T14:58:07.000Z</time>
      </trkpt>
      <trkpt lat="45.86733" lon="4.7107">
        <ele>240.39836</ele>
        <time>2023-04-10T14:58:08.000Z</time>
      </trkpt>
      <trkpt lat="45.8673" lon="4.71069">
        <ele>240.40669</ele>
        <time>2023-04-10T14:58:09.000Z</time>
      </trkpt>
      <trkpt lat="45.86726" lon="4.71067">
        <ele>240.4604</ele>
        <time>2023-04-10T14:58:10.000Z</time>
      </trkpt>
      <trkpt lat="45.86723" lon="4.71066">
        <ele>240.48837</ele>
        <time>2023-04-10T14:58:11.000Z</time>
      </trkpt>
      <trkpt lat="45.86719" lon="4.71064">
        <ele>240.52998</ele>
        <time>2023-04-10T14:58:12.000Z</time>
      </trkpt>
      <trkpt lat="45.86716" lon="4.71062">
        <ele>240.55989</ele>
        <time>2023-04-10T14:58:13.000Z</time>
      </trkpt>
      <trkpt lat="45.86712" lon="4.7106">
        <ele>240.59607</ele>
        <time>2023-04-10T14:58:14.000Z</time>
      </trkpt>
      <trkpt lat="45.86709" lon="4.71058">
        <ele>240.61362</ele>
        <time>2023-04-10T14:58:15.000Z</time>
      </trkpt>
      <trkpt lat="45.86705" lon="4.71055">
        <ele>240.61162</ele>
        <time>2023-04-10T14:58:16.000Z</time>
      </trkpt>
      <trkpt lat="45.86702" lon="4.71053">
        <ele>240.66057</ele>
        <time>2023-04-10T14:58:17.000Z</time>
      </trkpt>
      <trkpt lat="45.86698" lon="4.71051">
        <ele>240.72639</ele>
        <time>2023-04-10T14:58:18.000Z</time>
      </trkpt>
      <trkpt lat="45.86694" lon="4.71049">
        <ele>240.7856</ele>
        <time>2023-04-10T14:58:19.000Z</time>
      </trkpt>
      <trkpt lat="45.8669" lon="4.71047">
        <ele>240.88443</ele>
        <time>2023-04-10T14:58:20.000Z</time>
      </trkpt>
      <trkpt lat="45.86687" lon="4.71046">
        <ele>240.99736</ele>
        <time>2023-04-10T14:58:21.000Z</time>
      </trkpt>
      <trkpt lat="45.86683" lon="4.71045">
        <ele>241.08366</ele>
        <time>2023-04-10T14:58:22.000Z</time>
      </trkpt>
      <trkpt lat="45.86679" lon="4.71043">
        <ele>241.13513</ele>
        <time>2023-04-10T14:58:23.000Z</time>
      </trkpt>
      <trkpt lat="45.86675" lon="4.71041">
        <ele>241.21138</ele>
        <time>2023-04-10T14:58:24.000Z</time>
      </trkpt>
      <trkpt lat="45.86671" lon="4.71039">
        <ele>241.30215</ele>
        <time>2023-04-10T14:58:25.000Z</time>
      </trkpt>
      <trkpt lat="45.86668" lon="4.71038">
        <ele>241.41544</ele>
        <time>2023-04-10T14:58:26.000Z</time>
      </trkpt>
      <trkpt lat="45.86664" lon="4.71037">
        <ele>241.49557</ele>
        <time>2023-04-10T14:58:27.000Z</time>
      </trkpt>
      <trkpt lat="45.8666" lon="4.71035">
        <ele>241.57239</ele>
        <time>2023-04-10T14:58:28.000Z</time>
      </trkpt>
      <trkpt lat="45.86656" lon="4.71033">
        <ele>241.63297</ele>
        <time>2023-04-10T14:58:29.000Z</time>
      </trkpt>
      <trkpt lat="45.86652" lon="4.71031">
        <ele>241.6519</ele>
        <time>2023-04-10T14:58:30.000Z</time>
      </trkpt>
      <trkpt lat="45.86649" lon="4.7103">
        <ele>241.67558</ele>
        <time>2023-04-10T14:58:31.000Z</time>
      </trkpt>
      <trkpt lat="45.86645" lon="4.71028">
        <ele>241.73079</ele>
        <time>2023-04-10T14:58:32.000Z</time>
      </trkpt>
      <trkpt lat="45.86642" lon="4.71026">
        <ele>241.81775</ele>
        <time>2023-04-10T14:58:33.000Z</time>
      </trkpt>
      <trkpt lat="45.86638" lon="4.71024">
        <ele>241.91914</ele>
        <time>2023-04-10T14:58:34.000Z</time>
      </trkpt>
      <trkpt lat="45.86634" lon="4.71022">
        <ele>242.01147</ele>
        <time>2023-04-10T14:58:35.000Z</time>
      </trkpt>
      <trkpt lat="45.86631" lon="4.7102">
        <ele>242.1156</ele>
        <time>2023-04-10T14:58:36.000Z</time>
      </trkpt>
      <trkpt lat="45.86627" lon="4.71019">
        <ele>242.15073</ele>
        <time>2023-04-10T14:58:37.000Z</time>
      </trkpt>
      <trkpt lat="45.86623" lon="4.71017">
        <ele>242.14609</ele>
        <time>2023-04-10T14:58:38.000Z</time>
      </trkpt>
      <trkpt lat="45.86619" lon="4.71016">
        <ele>242.12045</ele>
        <time>2023-04-10T14:58:39.000Z</time>
      </trkpt>
      <trkpt lat="45.86614" lon="4.71015">
        <ele>242.07759</ele>
        <time>2023-04-10T14:58:40.000Z</time>
      </trkpt>
      <trkpt lat="45.8661" lon="4.71013">
        <ele>242.03706</ele>
        <time>2023-04-10T14:58:41.000Z</time>
      </trkpt>
      <trkpt lat="45.86605" lon="4.71012">
        <ele>241.99698</ele>
        <time>2023-04-10T14:58:42.000Z</time>
      </trkpt>
      <trkpt lat="45.86601" lon="4.7101">
        <ele>242.0004</ele>
        <time>2023-04-10T14:58:43.000Z</time>
      </trkpt>
      <trkpt lat="45.86597" lon="4.71009">
        <ele>241.98125</ele>
        <time>2023-04-10T14:58:44.000Z</time>
      </trkpt>
      <trkpt lat="45.86593" lon="4.71008">
        <ele>241.97913</ele>
        <time>2023-04-10T14:58:45.000Z</time>
      </trkpt>
      <trkpt lat="45.86589" lon="4.71006">
        <ele>241.94345</ele>
        <time>2023-04-10T14:58:46.000Z</time>
      </trkpt>
      <trkpt lat="45.86585" lon="4.71005">
        <ele>241.93405</ele>
        <time>2023-04-10T14:58:47.000Z</time>
      </trkpt>
      <trkpt lat="45.86581" lon="4.71004">
        <ele>241.94495</ele>
        <time>2023-04-10T14:58:48.000Z</time>
      </trkpt>
      <trkpt lat="45.86577" lon="4.71004">
        <ele>241.98386</ele>
        <time>2023-04-10T14:58:49.000Z</time>
      </trkpt>
      <trkpt lat="45.86573" lon="4.71003">
        <ele>242.02263</ele>
        <time>2023-04-10T14:58:50.000Z</time>
      </trkpt>
      <trkpt lat="45.8657" lon="4.71002">
        <ele>242.08899</ele>
        <time>2023-04-10T14:58:51.000Z</time>
      </trkpt>
      <trkpt lat="45.86566" lon="4.71001">
        <ele>242.10962</ele>
        <time>2023-04-10T14:58:52.000Z</time>
      </trkpt>
      <trkpt lat="45.86563" lon="4.71">
        <ele>242.09985</ele>
        <time>2023-04-10T14:58:53.000Z</time>
      </trkpt>
      <trkpt lat="45.8656" lon="4.70999">
        <ele>242.08472</ele>
        <time>2023-04-10T14:58:54.000Z</time>
      </trkpt>
      <trkpt lat="45.86556" lon="4.70997">
        <ele>242.10855</ele>
        <time>2023-04-10T14:58:55.000Z</time>
      </trkpt>
      <trkpt lat="45.86553" lon="4.70996">
        <ele>242.1403</ele>
        <time>2023-04-10T14:58:56.000Z</time>
      </trkpt>
      <trkpt lat="45.8655" lon="4.70995">
        <ele>242.19096</ele>
        <time>2023-04-10T14:58:57.000Z</time>
      </trkpt>
      <trkpt lat="45.86547" lon="4.70994">
        <ele>242.26184</ele>
        <time>2023-04-10T14:58:58.000Z</time>
      </trkpt>
      <trkpt lat="45.86543" lon="4.70993">
        <ele>242.35454</ele>
        <time>2023-04-10T14:58:59.000Z</time>
      </trkpt>
      <trkpt lat="45.8654" lon="4.70992">
        <ele>242.43501</ele>
        <time>2023-04-10T14:59:00.000Z</time>
      </trkpt>
      <trkpt lat="45.86536" lon="4.70992">
        <ele>242.51497</ele>
        <time>2023-04-10T14:59:01.000Z</time>
      </trkpt>
      <trkpt lat="45.86532" lon="4.70992">
        <ele>242.58015</ele>
        <time>2023-04-10T14:59:02.000Z</time>
      </trkpt>
      <trkpt lat="45.86528" lon="4.70991">
        <ele>242.61809</ele>
        <time>2023-04-10T14:59:03.000Z</time>
      </trkpt>
      <trkpt lat="45.86525" lon="4.70991">
        <ele>242.66975</ele>
        <time>2023-04-10T14:59:04.000Z</time>
      </trkpt>
      <trkpt lat="45.86521" lon="4.70991">
        <ele>242.70688</ele>
        <time>2023-04-10T14:59:05.000Z</time>
      </trkpt>
      <trkpt lat="45.86517" lon="4.70991">
        <ele>242.76285</ele>
        <time>2023-04-10T14:59:06.000Z</time>
      </trkpt>
      <trkpt lat="45.86513" lon="4.70991">
        <ele>242.79765</ele>
        <time>2023-04-10T14:59:07.000Z</time>
      </trkpt>
      <trkpt lat="45.86509" lon="4.7099">
        <ele>242.8499</ele>
        <time>2023-04-10T14:59:08.000Z</time>
      </trkpt>
      <trkpt lat="45.86506" lon="4.7099">
        <ele>242.88651</ele>
        <time>2023-04-10T14:59:09.000Z</time>
      </trkpt>
      <trkpt lat="45.86502" lon="4.70989">
        <ele>242.94742</ele>
        <time>2023-04-10T14:59:10.000Z</time>
      </trkpt>
      <trkpt lat="45.86499" lon="4.70989">
        <ele>242.9875</ele>
        <time>2023-04-10T14:59:11.000Z</time>
      </trkpt>
      <trkpt lat="45.86495" lon="4.70988">
        <ele>243.02522</ele>
        <time>2023-04-10T14:59:12.000Z</time>
      </trkpt>
      <trkpt lat="45.86492" lon="4.70988">
        <ele>243.08138</ele>
        <time>2023-04-10T14:59:13.000Z</time>
      </trkpt>
      <trkpt lat="45.86487" lon="4.70988">
        <ele>243.08809</ele>
        <time>2023-04-10T14:59:14.000Z</time>
      </trkpt>
      <trkpt lat="45.86483" lon="4.70988">
        <ele>243.08838</ele>
        <time>2023-04-10T14:59:15.000Z</time>
      </trkpt>
      <trkpt lat="45.86479" lon="4.70987">
        <ele>243.24246</ele>
        <time>2023-04-10T14:59:16.000Z</time>
      </trkpt>
      <trkpt lat="45.86476" lon="4.70986">
        <ele>243.44319</ele>
        <time>2023-04-10T14:59:17.000Z</time>
      </trkpt>
      <trkpt lat="45.86472" lon="4.70985">
        <ele>243.5437</ele>
        <time>2023-04-10T14:59:18.000Z</time>
      </trkpt>
      <trkpt lat="45.86468" lon="4.70984">
        <ele>243.55466</ele>
        <time>2023-04-10T14:59:19.000Z</time>
      </trkpt>
      <trkpt lat="45.86464" lon="4.70984">
        <ele>243.57898</ele>
        <time>2023-04-10T14:59:20.000Z</time>
      </trkpt>
      <trkpt lat="45.8646" lon="4.70983">
        <ele>243.59433</ele>
        <time>2023-04-10T14:59:21.000Z</time>
      </trkpt>
      <trkpt lat="45.86456" lon="4.70983">
        <ele>243.61153</ele>
        <time>2023-04-10T14:59:22.000Z</time>
      </trkpt>
      <trkpt lat="45.86452" lon="4.70983">
        <ele>243.64995</ele>
        <time>2023-04-10T14:59:23.000Z</time>
      </trkpt>
      <trkpt lat="45.86448" lon="4.70983">
        <ele>243.66519</ele>
        <time>2023-04-10T14:59:24.000Z</time>
      </trkpt>
      <trkpt lat="45.86444" lon="4.70984">
        <ele>243.68948</ele>
        <time>2023-04-10T14:59:25.000Z</time>
      </trkpt>
      <trkpt lat="45.86441" lon="4.70984">
        <ele>243.72769</ele>
        <time>2023-04-10T14:59:26.000Z</time>
      </trkpt>
      <trkpt lat="45.86437" lon="4.70985">
        <ele>243.74496</ele>
        <time>2023-04-10T14:59:27.000Z</time>
      </trkpt>
      <trkpt lat="45.86433" lon="4.70986">
        <ele>243.74297</ele>
        <time>2023-04-10T14:59:28.000Z</time>
      </trkpt>
      <trkpt lat="45.86429" lon="4.70988">
        <ele>243.72673</ele>
        <time>2023-04-10T14:59:29.000Z</time>
      </trkpt>
      <trkpt lat="45.86425" lon="4.7099">
        <ele>243.67899</ele>
        <time>2023-04-10T14:59:30.000Z</time>
      </trkpt>
      <trkpt lat="45.86421" lon="4.70991">
        <ele>243.67429</ele>
        <time>2023-04-10T14:59:31.000Z</time>
      </trkpt>
      <trkpt lat="45.86417" lon="4.70993">
        <ele>243.69116</ele>
        <time>2023-04-10T14:59:32.000Z</time>
      </trkpt>
      <trkpt lat="45.86413" lon="4.70995">
        <ele>243.69063</ele>
        <time>2023-04-10T14:59:33.000Z</time>
      </trkpt>
      <trkpt lat="45.8641" lon="4.70997">
        <ele>243.71358</ele>
        <time>2023-04-10T14:59:34.000Z</time>
      </trkpt>
      <trkpt lat="45.86406" lon="4.70999">
        <ele>243.70012</ele>
        <time>2023-04-10T14:59:35.000Z</time>
      </trkpt>
      <trkpt lat="45.86402" lon="4.71001">
        <ele>243.52043</ele>
        <time>2023-04-10T14:59:36.000Z</time>
      </trkpt>
      <trkpt lat="45.86399" lon="4.71004">
        <ele>243.29602</ele>
        <time>2023-04-10T14:59:37.000Z</time>
      </trkpt>
      <trkpt lat="45.86395" lon="4.71006">
        <ele>243.15527</ele>
        <time>2023-04-10T14:59:38.000Z</time>
      </trkpt>
      <trkpt lat="45.86392" lon="4.71009">
        <ele>243.11331</ele>
        <time>2023-04-10T14:59:39.000Z</time>
      </trkpt>
      <trkpt lat="45.86388" lon="4.71011">
        <ele>243.07571</ele>
        <time>2023-04-10T14:59:40.000Z</time>
      </trkpt>
      <trkpt lat="45.86385" lon="4.71013">
        <ele>243.04256</ele>
        <time>2023-04-10T14:59:41.000Z</time>
      </trkpt>
      <trkpt lat="45.86381" lon="4.71015">
        <ele>243.01926</ele>
        <time>2023-04-10T14:59:42.000Z</time>
      </trkpt>
      <trkpt lat="45.86377" lon="4.71016">
        <ele>242.9937</ele>
        <time>2023-04-10T14:59:43.000Z</time>
      </trkpt>
      <trkpt lat="45.86374" lon="4.71018">
        <ele>242.97249</ele>
        <time>2023-04-10T14:59:44.000Z</time>
      </trkpt>
      <trkpt lat="45.8637" lon="4.7102">
        <ele>242.93954</ele>
        <time>2023-04-10T14:59:45.000Z</time>
      </trkpt>
      <trkpt lat="45.86367" lon="4.71022">
        <ele>242.8885</ele>
        <time>2023-04-10T14:59:46.000Z</time>
      </trkpt>
      <trkpt lat="45.86363" lon="4.71024">
        <ele>242.88472</ele>
        <time>2023-04-10T14:59:47.000Z</time>
      </trkpt>
      <trkpt lat="45.86359" lon="4.71025">
        <ele>242.86752</ele>
        <time>2023-04-10T14:59:48.000Z</time>
      </trkpt>
      <trkpt lat="45.86355" lon="4.71025">
        <ele>242.88391</ele>
        <time>2023-04-10T14:59:49.000Z</time>
      </trkpt>
      <trkpt lat="45.86351" lon="4.71025">
        <ele>242.89587</ele>
        <time>2023-04-10T14:59:50.000Z</time>
      </trkpt>
      <trkpt lat="45.86346" lon="4.71025">
        <ele>242.88647</ele>
        <time>2023-04-10T14:59:51.000Z</time>
      </trkpt>
      <trkpt lat="45.86343" lon="4.71024">
        <ele>242.86096</ele>
        <time>2023-04-10T14:59:52.000Z</time>
      </trkpt>
      <trkpt lat="45.86339" lon="4.71024">
        <ele>242.84331</ele>
        <time>2023-04-10T14:59:53.000Z</time>
      </trkpt>
      <trkpt lat="45.86335" lon="4.71023">
        <ele>242.85295</ele>
        <time>2023-04-10T14:59:54.000Z</time>
      </trkpt>
      <trkpt lat="45.86331" lon="4.71022">
        <ele>242.92204</ele>
        <time>2023-04-10T14:59:55.000Z</time>
      </trkpt>
      <trkpt lat="45.86328" lon="4.71022">
        <ele>242.99219</ele>
        <time>2023-04-10T14:59:56.000Z</time>
      </trkpt>
      <trkpt lat="45.86324" lon="4.71021">
        <ele>243.07297</ele>
        <time>2023-04-10T14:59:57.000Z</time>
      </trkpt>
      <trkpt lat="45.8632" lon="4.71021">
        <ele>243.16817</ele>
        <time>2023-04-10T14:59:58.000Z</time>
      </trkpt>
      <trkpt lat="45.86316" lon="4.71022">
        <ele>243.22954</ele>
        <time>2023-04-10T14:59:59.000Z</time>
      </trkpt>
      <trkpt lat="45.86312" lon="4.71022">
        <ele>243.27689</ele>
        <time>2023-04-10T15:00:00.000Z</time>
      </trkpt>
      <trkpt lat="45.86308" lon="4.71022">
        <ele>243.33463</ele>
        <time>2023-04-10T15:00:01.000Z</time>
      </trkpt>
      <trkpt lat="45.86304" lon="4.71023">
        <ele>243.40366</ele>
        <time>2023-04-10T15:00:02.000Z</time>
      </trkpt>
      <trkpt lat="45.863" lon="4.71024">
        <ele>243.48935</ele>
        <time>2023-04-10T15:00:03.000Z</time>
      </trkpt>
      <trkpt lat="45.86296" lon="4.71025">
        <ele>243.59431</ele>
        <time>2023-04-10T15:00:04.000Z</time>
      </trkpt>
      <trkpt lat="45.86292" lon="4.71025">
        <ele>243.69711</ele>
        <time>2023-04-10T15:00:05.000Z</time>
      </trkpt>
      <trkpt lat="45.86287" lon="4.71025">
        <ele>243.79138</ele>
        <time>2023-04-10T15:00:06.000Z</time>
      </trkpt>
      <trkpt lat="45.86283" lon="4.71026">
        <ele>243.87097</ele>
        <time>2023-04-10T15:00:07.000Z</time>
      </trkpt>
      <trkpt lat="45.8628" lon="4.71027">
        <ele>243.95529</ele>
        <time>2023-04-10T15:00:08.000Z</time>
      </trkpt>
      <trkpt lat="45.86276" lon="4.71028">
        <ele>244.0303</ele>
        <time>2023-04-10T15:00:09.000Z</time>
      </trkpt>
      <trkpt lat="45.86272" lon="4.71028">
        <ele>244.11887</ele>
        <time>2023-04-10T15:00:10.000Z</time>
      </trkpt>
      <trkpt lat="45.86268" lon="4.71027">
        <ele>244.19113</ele>
        <time>2023-04-10T15:00:11.000Z</time>
      </trkpt>
      <trkpt lat="45.86264" lon="4.71026">
        <ele>244.27756</ele>
        <time>2023-04-10T15:00:12.000Z</time>
      </trkpt>
      <trkpt lat="45.8626" lon="4.71023">
        <ele>244.35356</ele>
        <time>2023-04-10T15:00:13.000Z</time>
      </trkpt>
      <trkpt lat="45.86257" lon="4.7102">
        <ele>244.42351</ele>
        <time>2023-04-10T15:00:14.000Z</time>
      </trkpt>
      <trkpt lat="45.86255" lon="4.71016">
        <ele>244.44934</ele>
        <time>2023-04-10T15:00:15.000Z</time>
      </trkpt>
      <trkpt lat="45.86252" lon="4.71013">
        <ele>244.49097</ele>
        <time>2023-04-10T15:00:16.000Z</time>
      </trkpt>
      <trkpt lat="45.8625" lon="4.71009">
        <ele>244.52237</ele>
        <time>2023-04-10T15:00:17.000Z</time>
      </trkpt>
      <trkpt lat="45.86247" lon="4.71006">
        <ele>244.54199</ele>
        <time>2023-04-10T15:00:18.000Z</time>
      </trkpt>
      <trkpt lat="45.86245" lon="4.71003">
        <ele>244.59488</ele>
        <time>2023-04-10T15:00:19.000Z</time>
      </trkpt>
      <trkpt lat="45.86242" lon="4.71">
        <ele>244.65714</ele>
        <time>2023-04-10T15:00:20.000Z</time>
      </trkpt>
      <trkpt lat="45.8624" lon="4.70997">
        <ele>244.69405</ele>
        <time>2023-04-10T15:00:21.000Z</time>
      </trkpt>
      <trkpt lat="45.86237" lon="4.70995">
        <ele>244.7179</ele>
        <time>2023-04-10T15:00:22.000Z</time>
      </trkpt>
      <trkpt lat="45.86234" lon="4.70993">
        <ele>244.74373</ele>
        <time>2023-04-10T15:00:23.000Z</time>
      </trkpt>
      <trkpt lat="45.86232" lon="4.70993">
        <ele>244.69315</ele>
        <time>2023-04-10T15:00:24.000Z</time>
      </trkpt>
      <trkpt lat="45.86229" lon="4.70993">
        <ele>244.67204</ele>
        <time>2023-04-10T15:00:25.000Z</time>
      </trkpt>
      <trkpt lat="45.86227" lon="4.70995">
        <ele>244.65884</ele>
        <time>2023-04-10T15:00:26.000Z</time>
      </trkpt>
      <trkpt lat="45.86225" lon="4.70997">
        <ele>244.64302</ele>
        <time>2023-04-10T15:00:27.000Z</time>
      </trkpt>
      <trkpt lat="45.86224" lon="4.70998">
        <ele>244.59631</ele>
        <time>2023-04-10T15:00:28.000Z</time>
      </trkpt>
      <trkpt lat="45.86221" lon="4.71002">
        <ele>244.55823</ele>
        <time>2023-04-10T15:00:30.000Z</time>
      </trkpt>
      <trkpt lat="45.86219" lon="4.71003">
        <ele>244.53519</ele>
        <time>2023-04-10T15:01:24.000Z</time>
      </trkpt>
      <trkpt lat="45.86217" lon="4.71004">
        <ele>244.51205</ele>
        <time>2023-04-10T15:01:25.000Z</time>
      </trkpt>
      <trkpt lat="45.86215" lon="4.71005">
        <ele>244.47144</ele>
        <time>2023-04-10T15:01:26.000Z</time>
      </trkpt>
      <trkpt lat="45.86213" lon="4.71008">
        <ele>244.42313</ele>
        <time>2023-04-10T15:01:27.000Z</time>
      </trkpt>
      <trkpt lat="45.86211" lon="4.71011">
        <ele>244.37048</ele>
        <time>2023-04-10T15:01:28.000Z</time>
      </trkpt>
      <trkpt lat="45.86209" lon="4.71014">
        <ele>244.33194</ele>
        <time>2023-04-10T15:01:29.000Z</time>
      </trkpt>
      <trkpt lat="45.86206" lon="4.71018">
        <ele>244.28812</ele>
        <time>2023-04-10T15:01:30.000Z</time>
      </trkpt>
      <trkpt lat="45.86204" lon="4.71021">
        <ele>244.26602</ele>
        <time>2023-04-10T15:01:31.000Z</time>
      </trkpt>
      <trkpt lat="45.862" lon="4.71025">
        <ele>244.23825</ele>
        <time>2023-04-10T15:01:32.000Z</time>
      </trkpt>
      <trkpt lat="45.86197" lon="4.71029">
        <ele>244.1978</ele>
        <time>2023-04-10T15:01:33.000Z</time>
      </trkpt>
      <trkpt lat="45.86194" lon="4.71032">
        <ele>244.12776</ele>
        <time>2023-04-10T15:01:34.000Z</time>
      </trkpt>
      <trkpt lat="45.8619" lon="4.71035">
        <ele>244.09213</ele>
        <time>2023-04-10T15:01:35.000Z</time>
      </trkpt>
      <trkpt lat="45.86187" lon="4.71038">
        <ele>244.06001</ele>
        <time>2023-04-10T15:01:36.000Z</time>
      </trkpt>
      <trkpt lat="45.86184" lon="4.71042">
        <ele>243.97543</ele>
        <time>2023-04-10T15:01:37.000Z</time>
      </trkpt>
      <trkpt lat="45.8618" lon="4.71045">
        <ele>243.93454</ele>
        <time>2023-04-10T15:01:38.000Z</time>
      </trkpt>
      <trkpt lat="45.86176" lon="4.71047">
        <ele>243.86971</ele>
        <time>2023-04-10T15:01:39.000Z</time>
      </trkpt>
      <trkpt lat="45.86173" lon="4.71049">
        <ele>243.81894</ele>
        <time>2023-04-10T15:01:40.000Z</time>
      </trkpt>
      <trkpt lat="45.86169" lon="4.7105">
        <ele>243.79068</ele>
        <time>2023-04-10T15:01:41.000Z</time>
      </trkpt>
      <trkpt lat="45.86165" lon="4.71051">
        <ele>243.79227</ele>
        <time>2023-04-10T15:01:42.000Z</time>
      </trkpt>
      <trkpt lat="45.86161" lon="4.71052">
        <ele>243.82544</ele>
        <time>2023-04-10T15:01:43.000Z</time>
      </trkpt>
      <trkpt lat="45.86158" lon="4.71054">
        <ele>243.84407</ele>
        <time>2023-04-10T15:01:44.000Z</time>
      </trkpt>
      <trkpt lat="45.86155" lon="4.71055">
        <ele>243.82329</ele>
        <time>2023-04-10T15:01:45.000Z</time>
      </trkpt>
      <trkpt lat="45.86151" lon="4.71057">
        <ele>243.80647</ele>
        <time>2023-04-10T15:01:46.000Z</time>
      </trkpt>
      <trkpt lat="45.86147" lon="4.7106">
        <ele>243.80009</ele>
        <time>2023-04-10T15:01:47.000Z</time>
      </trkpt>
      <trkpt lat="45.86143" lon="4.71061">
        <ele>243.80269</ele>
        <time>2023-04-10T15:01:48.000Z</time>
      </trkpt>
      <trkpt lat="45.86139" lon="4.71062">
        <ele>243.78793</ele>
        <time>2023-04-10T15:01:49.000Z</time>
      </trkpt>
      <trkpt lat="45.86135" lon="4.71064">
        <ele>243.76303</ele>
        <time>2023-04-10T15:01:50.000Z</time>
      </trkpt>
      <trkpt lat="45.86134" lon="4.71071">
        <ele>243.71707</ele>
        <time>2023-04-10T15:01:51.000Z</time>
      </trkpt>
      <trkpt lat="45.86132" lon="4.71076">
        <ele>243.65747</ele>
        <time>2023-04-10T15:01:52.000Z</time>
      </trkpt>
      <trkpt lat="45.8613" lon="4.71082">
        <ele>243.58463</ele>
        <time>2023-04-10T15:01:53.000Z</time>
      </trkpt>
      <trkpt lat="45.86129" lon="4.71088">
        <ele>243.51884</ele>
        <time>2023-04-10T15:01:54.000Z</time>
      </trkpt>
      <trkpt lat="45.86126" lon="4.71094">
        <ele>243.43729</ele>
        <time>2023-04-10T15:01:55.000Z</time>
      </trkpt>
      <trkpt lat="45.86124" lon="4.711">
        <ele>243.37251</ele>
        <time>2023-04-10T15:01:56.000Z</time>
      </trkpt>
      <trkpt lat="45.86122" lon="4.71105">
        <ele>243.34375</ele>
        <time>2023-04-10T15:01:57.000Z</time>
      </trkpt>
      <trkpt lat="45.86119" lon="4.71109">
        <ele>243.31255</ele>
        <time>2023-04-10T15:01:58.000Z</time>
      </trkpt>
      <trkpt lat="45.86118" lon="4.71114">
        <ele>243.26575</ele>
        <time>2023-04-10T15:01:59.000Z</time>
      </trkpt>
      <trkpt lat="45.86116" lon="4.7112">
        <ele>243.19968</ele>
        <time>2023-04-10T15:02:00.000Z</time>
      </trkpt>
      <trkpt lat="45.86113" lon="4.71126">
        <ele>243.08777</ele>
        <time>2023-04-10T15:02:01.000Z</time>
      </trkpt>
      <trkpt lat="45.8611" lon="4.71131">
        <ele>242.96533</ele>
        <time>2023-04-10T15:02:02.000Z</time>
      </trkpt>
      <trkpt lat="45.86107" lon="4.71135">
        <ele>242.80717</ele>
        <time>2023-04-10T15:02:03.000Z</time>
      </trkpt>
      <trkpt lat="45.86104" lon="4.71139">
        <ele>242.67622</ele>
        <time>2023-04-10T15:02:04.000Z</time>
      </trkpt>
      <trkpt lat="45.86101" lon="4.71142">
        <ele>242.60538</ele>
        <time>2023-04-10T15:02:05.000Z</time>
      </trkpt>
      <trkpt lat="45.86098" lon="4.71145">
        <ele>242.53342</ele>
        <time>2023-04-10T15:02:06.000Z</time>
      </trkpt>
      <trkpt lat="45.86096" lon="4.71144">
        <ele>242.44283</ele>
        <time>2023-04-10T15:02:07.000Z</time>
      </trkpt>
      <trkpt lat="45.86091" lon="4.71142">
        <ele>242.34531</ele>
        <time>2023-04-10T15:02:08.000Z</time>
      </trkpt>
      <trkpt lat="45.86088" lon="4.7114">
        <ele>242.25244</ele>
        <time>2023-04-10T15:02:09.000Z</time>
      </trkpt>
      <trkpt lat="45.86085" lon="4.71138">
        <ele>242.19504</ele>
        <time>2023-04-10T15:02:10.000Z</time>
      </trkpt>
      <trkpt lat="45.86081" lon="4.71135">
        <ele>242.15353</ele>
        <time>2023-04-10T15:02:11.000Z</time>
      </trkpt>
      <trkpt lat="45.86078" lon="4.71132">
        <ele>242.14731</ele>
        <time>2023-04-10T15:02:12.000Z</time>
      </trkpt>
      <trkpt lat="45.86074" lon="4.71129">
        <ele>242.16882</ele>
        <time>2023-04-10T15:02:13.000Z</time>
      </trkpt>
      <trkpt lat="45.86071" lon="4.71126">
        <ele>242.19958</ele>
        <time>2023-04-10T15:02:14.000Z</time>
      </trkpt>
      <trkpt lat="45.86068" lon="4.71123">
        <ele>242.23727</ele>
        <time>2023-04-10T15:02:15.000Z</time>
      </trkpt>
      <trkpt lat="45.86064" lon="4.71119">
        <ele>242.22798</ele>
        <time>2023-04-10T15:02:16.000Z</time>
      </trkpt>
      <trkpt lat="45.86061" lon="4.71116">
        <ele>242.21225</ele>
        <time>2023-04-10T15:02:17.000Z</time>
      </trkpt>
      <trkpt lat="45.86058" lon="4.71112">
        <ele>242.20218</ele>
        <time>2023-04-10T15:02:18.000Z</time>
      </trkpt>
      <trkpt lat="45.86055" lon="4.71108">
        <ele>242.16602</ele>
        <time>2023-04-10T15:02:19.000Z</time>
      </trkpt>
      <trkpt lat="45.86052" lon="4.71104">
        <ele>242.15219</ele>
        <time>2023-04-10T15:02:20.000Z</time>
      </trkpt>
      <trkpt lat="45.8605" lon="4.71099">
        <ele>242.18411</ele>
        <time>2023-04-10T15:02:21.000Z</time>
      </trkpt>
      <trkpt lat="45.86048" lon="4.71095">
        <ele>242.22229</ele>
        <time>2023-04-10T15:02:22.000Z</time>
      </trkpt>
      <trkpt lat="45.86045" lon="4.71091">
        <ele>242.25801</ele>
        <time>2023-04-10T15:02:23.000Z</time>
      </trkpt>
      <trkpt lat="45.86043" lon="4.71087">
        <ele>242.27995</ele>
        <time>2023-04-10T15:02:24.000Z</time>
      </trkpt>
      <trkpt lat="45.86041" lon="4.71082">
        <ele>242.2692</ele>
        <time>2023-04-10T15:02:25.000Z</time>
      </trkpt>
      <trkpt lat="45.86039" lon="4.71075">
        <ele>242.27319</ele>
        <time>2023-04-10T15:02:26.000Z</time>
      </trkpt>
      <trkpt lat="45.86038" lon="4.71069">
        <ele>242.33389</ele>
        <time>2023-04-10T15:02:27.000Z</time>
      </trkpt>
      <trkpt lat="45.86038" lon="4.71063">
        <ele>242.34212</ele>
        <time>2023-04-10T15:02:28.000Z</time>
      </trkpt>
      <trkpt lat="45.86037" lon="4.71057">
        <ele>242.3497</ele>
        <time>2023-04-10T15:02:29.000Z</time>
      </trkpt>
      <trkpt lat="45.86037" lon="4.7105">
        <ele>242.33817</ele>
        <time>2023-04-10T15:02:30.000Z</time>
      </trkpt>
      <trkpt lat="45.86035" lon="4.71044">
        <ele>242.32173</ele>
        <time>2023-04-10T15:02:31.000Z</time>
      </trkpt>
      <trkpt lat="45.86034" lon="4.71038">
        <ele>242.30342</ele>
        <time>2023-04-10T15:02:32.000Z</time>
      </trkpt>
      <trkpt lat="45.86032" lon="4.71033">
        <ele>242.29922</ele>
        <time>2023-04-10T15:02:33.000Z</time>
      </trkpt>
      <trkpt lat="45.8603" lon="4.71027">
        <ele>242.29788</ele>
        <time>2023-04-10T15:02:34.000Z</time>
      </trkpt>
      <trkpt lat="45.86028" lon="4.71022">
        <ele>242.29102</ele>
        <time>2023-04-10T15:02:35.000Z</time>
      </trkpt>
      <trkpt lat="45.86026" lon="4.71018">
        <ele>242.3269</ele>
        <time>2023-04-10T15:02:36.000Z</time>
      </trkpt>
      <trkpt lat="45.86021" lon="4.71013">
        <ele>242.33601</ele>
        <time>2023-04-10T15:02:37.000Z</time>
      </trkpt>
      <trkpt lat="45.86018" lon="4.71008">
        <ele>242.36508</ele>
        <time>2023-04-10T15:02:38.000Z</time>
      </trkpt>
      <trkpt lat="45.86014" lon="4.71004">
        <ele>242.43311</ele>
        <time>2023-04-10T15:02:39.000Z</time>
      </trkpt>
      <trkpt lat="45.8601" lon="4.71">
        <ele>242.47433</ele>
        <time>2023-04-10T15:02:40.000Z</time>
      </trkpt>
      <trkpt lat="45.86006" lon="4.70996">
        <ele>242.50896</ele>
        <time>2023-04-10T15:02:41.000Z</time>
      </trkpt>
      <trkpt lat="45.86003" lon="4.7099">
        <ele>242.55234</ele>
        <time>2023-04-10T15:02:42.000Z</time>
      </trkpt>
      <trkpt lat="45.85999" lon="4.70987">
        <ele>242.57195</ele>
        <time>2023-04-10T15:02:43.000Z</time>
      </trkpt>
      <trkpt lat="45.85995" lon="4.70984">
        <ele>242.58833</ele>
        <time>2023-04-10T15:02:44.000Z</time>
      </trkpt>
      <trkpt lat="45.85991" lon="4.70982">
        <ele>242.60123</ele>
        <time>2023-04-10T15:02:45.000Z</time>
      </trkpt>
      <trkpt lat="45.85986" lon="4.70979">
        <ele>242.60583</ele>
        <time>2023-04-10T15:02:46.000Z</time>
      </trkpt>
      <trkpt lat="45.85981" lon="4.70977">
        <ele>242.58554</ele>
        <time>2023-04-10T15:02:47.000Z</time>
      </trkpt>
      <trkpt lat="45.85977" lon="4.70974">
        <ele>242.60397</ele>
        <time>2023-04-10T15:02:48.000Z</time>
      </trkpt>
      <trkpt lat="45.85972" lon="4.70974">
        <ele>242.65842</ele>
        <time>2023-04-10T15:02:49.000Z</time>
      </trkpt>
      <trkpt lat="45.85967" lon="4.70973">
        <ele>242.69563</ele>
        <time>2023-04-10T15:02:50.000Z</time>
      </trkpt>
      <trkpt lat="45.85962" lon="4.70973">
        <ele>242.69502</ele>
        <time>2023-04-10T15:02:51.000Z</time>
      </trkpt>
      <trkpt lat="45.85958" lon="4.70972">
        <ele>242.65848</ele>
        <time>2023-04-10T15:02:52.000Z</time>
      </trkpt>
      <trkpt lat="45.85954" lon="4.70972">
        <ele>242.60092</ele>
        <time>2023-04-10T15:02:53.000Z</time>
      </trkpt>
      <trkpt lat="45.85948" lon="4.70971">
        <ele>242.54587</ele>
        <time>2023-04-10T15:02:54.000Z</time>
      </trkpt>
      <trkpt lat="45.85943" lon="4.7097">
        <ele>242.48982</ele>
        <time>2023-04-10T15:02:55.000Z</time>
      </trkpt>
      <trkpt lat="45.85938" lon="4.7097">
        <ele>242.47623</ele>
        <time>2023-04-10T15:02:56.000Z</time>
      </trkpt>
      <trkpt lat="45.85934" lon="4.70972">
        <ele>242.53531</ele>
        <time>2023-04-10T15:02:57.000Z</time>
      </trkpt>
      <trkpt lat="45.8593" lon="4.70975">
        <ele>242.60266</ele>
        <time>2023-04-10T15:02:58.000Z</time>
      </trkpt>
      <trkpt lat="45.85925" lon="4.70977">
        <ele>242.66992</ele>
        <time>2023-04-10T15:02:59.000Z</time>
      </trkpt>
      <trkpt lat="45.85922" lon="4.7098">
        <ele>242.72678</ele>
        <time>2023-04-10T15:03:00.000Z</time>
      </trkpt>
      <trkpt lat="45.85919" lon="4.70984">
        <ele>242.7701</ele>
        <time>2023-04-10T15:03:01.000Z</time>
      </trkpt>
      <trkpt lat="45.85915" lon="4.70988">
        <ele>242.83115</ele>
        <time>2023-04-10T15:03:02.000Z</time>
      </trkpt>
      <trkpt lat="45.85912" lon="4.70992">
        <ele>242.92102</ele>
        <time>2023-04-10T15:03:03.000Z</time>
      </trkpt>
      <trkpt lat="45.85909" lon="4.70995">
        <ele>243.01892</ele>
        <time>2023-04-10T15:03:04.000Z</time>
      </trkpt>
      <trkpt lat="45.85905" lon="4.70999">
        <ele>243.14079</ele>
        <time>2023-04-10T15:03:05.000Z</time>
      </trkpt>
      <trkpt lat="45.85902" lon="4.71003">
        <ele>243.2751</ele>
        <time>2023-04-10T15:03:06.000Z</time>
      </trkpt>
      <trkpt lat="45.85898" lon="4.71007">
        <ele>243.36792</ele>
        <time>2023-04-10T15:03:07.000Z</time>
      </trkpt>
      <trkpt lat="45.85894" lon="4.71011">
        <ele>243.46167</ele>
        <time>2023-04-10T15:03:08.000Z</time>
      </trkpt>
      <trkpt lat="45.8589" lon="4.71015">
        <ele>243.56357</ele>
        <time>2023-04-10T15:03:09.000Z</time>
      </trkpt>
      <trkpt lat="45.85886" lon="4.71018">
        <ele>243.66768</ele>
        <time>2023-04-10T15:03:10.000Z</time>
      </trkpt>
      <trkpt lat="45.85882" lon="4.71022">
        <ele>243.7917</ele>
        <time>2023-04-10T15:03:11.000Z</time>
      </trkpt>
      <trkpt lat="45.85879" lon="4.71026">
        <ele>243.94514</ele>
        <time>2023-04-10T15:03:12.000Z</time>
      </trkpt>
      <trkpt lat="45.85876" lon="4.71031">
        <ele>244.082</ele>
        <time>2023-04-10T15:03:13.000Z</time>
      </trkpt>
      <trkpt lat="45.85872" lon="4.71036">
        <ele>244.21407</ele>
        <time>2023-04-10T15:03:14.000Z</time>
      </trkpt>
      <trkpt lat="45.85868" lon="4.7104">
        <ele>244.35278</ele>
        <time>2023-04-10T15:03:15.000Z</time>
      </trkpt>
      <trkpt lat="45.85865" lon="4.71045">
        <ele>244.45061</ele>
        <time>2023-04-10T15:03:16.000Z</time>
      </trkpt>
      <trkpt lat="45.85861" lon="4.71049">
        <ele>244.48833</ele>
        <time>2023-04-10T15:03:17.000Z</time>
      </trkpt>
      <trkpt lat="45.85858" lon="4.71053">
        <ele>244.48337</ele>
        <time>2023-04-10T15:03:18.000Z</time>
      </trkpt>
      <trkpt lat="45.85854" lon="4.71058">
        <ele>244.4803</ele>
        <time>2023-04-10T15:03:19.000Z</time>
      </trkpt>
      <trkpt lat="45.85851" lon="4.71062">
        <ele>244.51543</ele>
        <time>2023-04-10T15:03:20.000Z</time>
      </trkpt>
      <trkpt lat="45.85847" lon="4.71068">
        <ele>244.56839</ele>
        <time>2023-04-10T15:03:21.000Z</time>
      </trkpt>
      <trkpt lat="45.85845" lon="4.71073">
        <ele>244.59436</ele>
        <time>2023-04-10T15:03:22.000Z</time>
      </trkpt>
      <trkpt lat="45.85842" lon="4.71078">
        <ele>244.61543</ele>
        <time>2023-04-10T15:03:23.000Z</time>
      </trkpt>
      <trkpt lat="45.85839" lon="4.71083">
        <ele>244.63315</ele>
        <time>2023-04-10T15:03:24.000Z</time>
      </trkpt>
      <trkpt lat="45.85836" lon="4.71089">
        <ele>244.64465</ele>
        <time>2023-04-10T15:03:25.000Z</time>
      </trkpt>
      <trkpt lat="45.85833" lon="4.71093">
        <ele>244.64224</ele>
        <time>2023-04-10T15:03:26.000Z</time>
      </trkpt>
      <trkpt lat="45.8583" lon="4.71098">
        <ele>244.64632</ele>
        <time>2023-04-10T15:03:27.000Z</time>
      </trkpt>
      <trkpt lat="45.85827" lon="4.71104">
        <ele>244.64799</ele>
        <time>2023-04-10T15:03:28.000Z</time>
      </trkpt>
      <trkpt lat="45.85824" lon="4.71108">
        <ele>244.62631</ele>
        <time>2023-04-10T15:03:29.000Z</time>
      </trkpt>
      <trkpt lat="45.85821" lon="4.71112">
        <ele>244.60129</ele>
        <time>2023-04-10T15:03:30.000Z</time>
      </trkpt>
      <trkpt lat="45.85818" lon="4.71116">
        <ele>244.57097</ele>
        <time>2023-04-10T15:03:31.000Z</time>
      </trkpt>
      <trkpt lat="45.85815" lon="4.71122">
        <ele>244.53772</ele>
        <time>2023-04-10T15:03:32.000Z</time>
      </trkpt>
      <trkpt lat="45.85813" lon="4.71126">
        <ele>244.51274</ele>
        <time>2023-04-10T15:03:33.000Z</time>
      </trkpt>
      <trkpt lat="45.85811" lon="4.7113">
        <ele>244.50565</ele>
        <time>2023-04-10T15:03:34.000Z</time>
      </trkpt>
      <trkpt lat="45.85808" lon="4.71132">
        <ele>244.46426</ele>
        <time>2023-04-10T15:03:35.000Z</time>
      </trkpt>
      <trkpt lat="45.85806" lon="4.71135">
        <ele>244.40559</ele>
        <time>2023-04-10T15:03:36.000Z</time>
      </trkpt>
      <trkpt lat="45.85804" lon="4.71139">
        <ele>244.33438</ele>
        <time>2023-04-10T15:03:37.000Z</time>
      </trkpt>
      <trkpt lat="45.85804" lon="4.71143">
        <ele>244.3062</ele>
        <time>2023-04-10T15:03:38.000Z</time>
      </trkpt>
      <trkpt lat="45.85802" lon="4.71145">
        <ele>244.26453</ele>
        <time>2023-04-10T15:03:39.000Z</time>
      </trkpt>
      <trkpt lat="45.858" lon="4.71147">
        <ele>244.228</ele>
        <time>2023-04-10T15:03:40.000Z</time>
      </trkpt>
      <trkpt lat="45.85797" lon="4.71148">
        <ele>244.19104</ele>
        <time>2023-04-10T15:03:41.000Z</time>
      </trkpt>
      <trkpt lat="45.85795" lon="4.71149">
        <ele>244.17203</ele>
        <time>2023-04-10T15:03:42.000Z</time>
      </trkpt>
      <trkpt lat="45.85792" lon="4.71151">
        <ele>244.16904</ele>
        <time>2023-04-10T15:03:43.000Z</time>
      </trkpt>
      <trkpt lat="45.8579" lon="4.71154">
        <ele>244.15791</ele>
        <time>2023-04-10T15:03:44.000Z</time>
      </trkpt>
      <trkpt lat="45.85788" lon="4.71157">
        <ele>244.13774</ele>
        <time>2023-04-10T15:03:45.000Z</time>
      </trkpt>
      <trkpt lat="45.85787" lon="4.71161">
        <ele>244.11832</ele>
        <time>2023-04-10T15:03:46.000Z</time>
      </trkpt>
      <trkpt lat="45.85787" lon="4.71166">
        <ele>244.10904</ele>
        <time>2023-04-10T15:03:47.000Z</time>
      </trkpt>
      <trkpt lat="45.85786" lon="4.71172">
        <ele>244.12346</ele>
        <time>2023-04-10T15:03:48.000Z</time>
      </trkpt>
      <trkpt lat="45.85785" lon="4.71177">
        <ele>244.17615</ele>
        <time>2023-04-10T15:03:49.000Z</time>
      </trkpt>
      <trkpt lat="45.85784" lon="4.71182">
        <ele>244.23837</ele>
        <time>2023-04-10T15:03:50.000Z</time>
      </trkpt>
      <trkpt lat="45.85783" lon="4.71188">
        <ele>244.33647</ele>
        <time>2023-04-10T15:03:51.000Z</time>
      </trkpt>
      <trkpt lat="45.85781" lon="4.71193">
        <ele>244.44319</ele>
        <time>2023-04-10T15:03:52.000Z</time>
      </trkpt>
      <trkpt lat="45.8578" lon="4.71198">
        <ele>244.5509</ele>
        <time>2023-04-10T15:03:53.000Z</time>
      </trkpt>
      <trkpt lat="45.85778" lon="4.71202">
        <ele>244.65776</ele>
        <time>2023-04-10T15:03:54.000Z</time>
      </trkpt>
      <trkpt lat="45.85776" lon="4.71207">
        <ele>244.79907</ele>
        <time>2023-04-10T15:03:55.000Z</time>
      </trkpt>
      <trkpt lat="45.85774" lon="4.71212">
        <ele>244.96756</ele>
        <time>2023-04-10T15:03:56.000Z</time>
      </trkpt>
      <trkpt lat="45.85773" lon="4.71216">
        <ele>245.17188</ele>
        <time>2023-04-10T15:03:57.000Z</time>
      </trkpt>
      <trkpt lat="45.85771" lon="4.71222">
        <ele>245.34457</ele>
        <time>2023-04-10T15:03:58.000Z</time>
      </trkpt>
      <trkpt lat="45.8577" lon="4.71227">
        <ele>245.52158</ele>
        <time>2023-04-10T15:03:59.000Z</time>
      </trkpt>
      <trkpt lat="45.85768" lon="4.71233">
        <ele>245.69478</ele>
        <time>2023-04-10T15:04:00.000Z</time>
      </trkpt>
      <trkpt lat="45.85767" lon="4.71239">
        <ele>245.82339</ele>
        <time>2023-04-10T15:04:01.000Z</time>
      </trkpt>
      <trkpt lat="45.85766" lon="4.71245">
        <ele>245.93875</ele>
        <time>2023-04-10T15:04:02.000Z</time>
      </trkpt>
      <trkpt lat="45.85765" lon="4.7125">
        <ele>246.01912</ele>
        <time>2023-04-10T15:04:03.000Z</time>
      </trkpt>
      <trkpt lat="45.85764" lon="4.71256">
        <ele>246.09192</ele>
        <time>2023-04-10T15:04:04.000Z</time>
      </trkpt>
      <trkpt lat="45.85762" lon="4.71261">
        <ele>246.16519</ele>
        <time>2023-04-10T15:04:05.000Z</time>
      </trkpt>
      <trkpt lat="45.85761" lon="4.71267">
        <ele>246.2341</ele>
        <time>2023-04-10T15:04:06.000Z</time>
      </trkpt>
      <trkpt lat="45.85759" lon="4.71272">
        <ele>246.31332</ele>
        <time>2023-04-10T15:04:07.000Z</time>
      </trkpt>
      <trkpt lat="45.85757" lon="4.71276">
        <ele>246.39595</ele>
        <time>2023-04-10T15:04:08.000Z</time>
      </trkpt>
      <trkpt lat="45.85756" lon="4.71281">
        <ele>246.44247</ele>
        <time>2023-04-10T15:04:09.000Z</time>
      </trkpt>
      <trkpt lat="45.85754" lon="4.71285">
        <ele>246.48174</ele>
        <time>2023-04-10T15:04:10.000Z</time>
      </trkpt>
      <trkpt lat="45.85752" lon="4.71289">
        <ele>246.4875</ele>
        <time>2023-04-10T15:04:11.000Z</time>
      </trkpt>
      <trkpt lat="45.85751" lon="4.71293">
        <ele>246.49911</ele>
        <time>2023-04-10T15:04:12.000Z</time>
      </trkpt>
      <trkpt lat="45.85749" lon="4.71296">
        <ele>246.51901</ele>
        <time>2023-04-10T15:04:13.000Z</time>
      </trkpt>
      <trkpt lat="45.85746" lon="4.71299">
        <ele>246.55228</ele>
        <time>2023-04-10T15:04:14.000Z</time>
      </trkpt>
      <trkpt lat="45.85743" lon="4.71299">
        <ele>246.54993</ele>
        <time>2023-04-10T15:04:15.000Z</time>
      </trkpt>
      <trkpt lat="45.85739" lon="4.71299">
        <ele>246.54639</ele>
        <time>2023-04-10T15:04:16.000Z</time>
      </trkpt>
      <trkpt lat="45.85736" lon="4.71297">
        <ele>246.57834</ele>
        <time>2023-04-10T15:04:17.000Z</time>
      </trkpt>
      <trkpt lat="45.85732" lon="4.71296">
        <ele>246.66003</ele>
        <time>2023-04-10T15:04:18.000Z</time>
      </trkpt>
      <trkpt lat="45.85729" lon="4.71295">
        <ele>246.77116</ele>
        <time>2023-04-10T15:04:19.000Z</time>
      </trkpt>
      <trkpt lat="45.85725" lon="4.71294">
        <ele>246.86148</ele>
        <time>2023-04-10T15:04:20.000Z</time>
      </trkpt>
      <trkpt lat="45.85721" lon="4.71293">
        <ele>246.97568</ele>
        <time>2023-04-10T15:04:21.000Z</time>
      </trkpt>
      <trkpt lat="45.85717" lon="4.71293">
        <ele>247.07346</ele>
        <time>2023-04-10T15:04:22.000Z</time>
      </trkpt>
      <trkpt lat="45.85713" lon="4.71293">
        <ele>247.17155</ele>
        <time>2023-04-10T15:04:23.000Z</time>
      </trkpt>
      <trkpt lat="45.85709" lon="4.71293">
        <ele>247.28067</ele>
        <time>2023-04-10T15:04:24.000Z</time>
      </trkpt>
      <trkpt lat="45.85706" lon="4.71292">
        <ele>247.49997</ele>
        <time>2023-04-10T15:04:25.000Z</time>
      </trkpt>
      <trkpt lat="45.85702" lon="4.71291">
        <ele>247.67561</ele>
        <time>2023-04-10T15:04:26.000Z</time>
      </trkpt>
      <trkpt lat="45.85698" lon="4.7129">
        <ele>247.85147</ele>
        <time>2023-04-10T15:04:27.000Z</time>
      </trkpt>
      <trkpt lat="45.85694" lon="4.71288">
        <ele>247.98315</ele>
        <time>2023-04-10T15:04:28.000Z</time>
      </trkpt>
      <trkpt lat="45.8569" lon="4.71287">
        <ele>248.09146</ele>
        <time>2023-04-10T15:04:29.000Z</time>
      </trkpt>
      <trkpt lat="45.85686" lon="4.71285">
        <ele>248.21626</ele>
        <time>2023-04-10T15:04:30.000Z</time>
      </trkpt>
      <trkpt lat="45.85682" lon="4.71282">
        <ele>248.35466</ele>
        <time>2023-04-10T15:04:31.000Z</time>
      </trkpt>
      <trkpt lat="45.85678" lon="4.7128">
        <ele>248.48308</ele>
        <time>2023-04-10T15:04:32.000Z</time>
      </trkpt>
      <trkpt lat="45.85673" lon="4.71277">
        <ele>248.58398</ele>
        <time>2023-04-10T15:04:33.000Z</time>
      </trkpt>
      <trkpt lat="45.85669" lon="4.71273">
        <ele>248.75993</ele>
        <time>2023-04-10T15:04:34.000Z</time>
      </trkpt>
      <trkpt lat="45.85666" lon="4.7127">
        <ele>248.9603</ele>
        <time>2023-04-10T15:04:35.000Z</time>
      </trkpt>
      <trkpt lat="45.85663" lon="4.71268">
        <ele>249.12141</ele>
        <time>2023-04-10T15:04:36.000Z</time>
      </trkpt>
      <trkpt lat="45.85659" lon="4.71265">
        <ele>249.25674</ele>
        <time>2023-04-10T15:04:37.000Z</time>
      </trkpt>
      <trkpt lat="45.85655" lon="4.71264">
        <ele>249.37558</ele>
        <time>2023-04-10T15:04:38.000Z</time>
      </trkpt>
      <trkpt lat="45.85652" lon="4.71263">
        <ele>249.48055</ele>
        <time>2023-04-10T15:04:39.000Z</time>
      </trkpt>
      <trkpt lat="45.85648" lon="4.71263">
        <ele>249.61832</ele>
        <time>2023-04-10T15:04:40.000Z</time>
      </trkpt>
      <trkpt lat="45.85645" lon="4.71264">
        <ele>249.77481</ele>
        <time>2023-04-10T15:04:41.000Z</time>
      </trkpt>
      <trkpt lat="45.85641" lon="4.71265">
        <ele>249.97624</ele>
        <time>2023-04-10T15:04:42.000Z</time>
      </trkpt>
      <trkpt lat="45.85638" lon="4.71266">
        <ele>250.18925</ele>
        <time>2023-04-10T15:04:43.000Z</time>
      </trkpt>
      <trkpt lat="45.85635" lon="4.71267">
        <ele>250.38054</ele>
        <time>2023-04-10T15:04:44.000Z</time>
      </trkpt>
      <trkpt lat="45.85632" lon="4.7127">
        <ele>250.47676</ele>
        <time>2023-04-10T15:04:45.000Z</time>
      </trkpt>
      <trkpt lat="45.85629" lon="4.71273">
        <ele>250.57541</ele>
        <time>2023-04-10T15:04:46.000Z</time>
      </trkpt>
      <trkpt lat="45.85627" lon="4.71276">
        <ele>250.65837</ele>
        <time>2023-04-10T15:04:47.000Z</time>
      </trkpt>
      <trkpt lat="45.85624" lon="4.7128">
        <ele>250.75777</ele>
        <time>2023-04-10T15:04:48.000Z</time>
      </trkpt>
      <trkpt lat="45.85622" lon="4.71284">
        <ele>251.00024</ele>
        <time>2023-04-10T15:04:49.000Z</time>
      </trkpt>
      <trkpt lat="45.85619" lon="4.71288">
        <ele>251.24458</ele>
        <time>2023-04-10T15:04:50.000Z</time>
      </trkpt>
      <trkpt lat="45.85617" lon="4.71292">
        <ele>251.49406</ele>
        <time>2023-04-10T15:04:51.000Z</time>
      </trkpt>
      <trkpt lat="45.85614" lon="4.71295">
        <ele>251.74406</ele>
        <time>2023-04-10T15:04:52.000Z</time>
      </trkpt>
      <trkpt lat="45.85611" lon="4.71299">
        <ele>252.04854</ele>
        <time>2023-04-10T15:04:53.000Z</time>
      </trkpt>
      <trkpt lat="45.85609" lon="4.71303">
        <ele>252.26163</ele>
        <time>2023-04-10T15:04:54.000Z</time>
      </trkpt>
      <trkpt lat="45.85606" lon="4.71307">
        <ele>252.47812</ele>
        <time>2023-04-10T15:04:55.000Z</time>
      </trkpt>
      <trkpt lat="45.85603" lon="4.71311">
        <ele>252.71634</ele>
        <time>2023-04-10T15:04:56.000Z</time>
      </trkpt>
      <trkpt lat="45.856" lon="4.71314">
        <ele>252.99585</ele>
        <time>2023-04-10T15:04:57.000Z</time>
      </trkpt>
      <trkpt lat="45.85596" lon="4.71317">
        <ele>253.27576</ele>
        <time>2023-04-10T15:04:58.000Z</time>
      </trkpt>
      <trkpt lat="45.85592" lon="4.7132">
        <ele>253.56572</ele>
        <time>2023-04-10T15:04:59.000Z</time>
      </trkpt>
      <trkpt lat="45.85589" lon="4.71323">
        <ele>253.8663</ele>
        <time>2023-04-10T15:05:00.000Z</time>
      </trkpt>
      <trkpt lat="45.85585" lon="4.71325">
        <ele>254.16641</ele>
        <time>2023-04-10T15:05:01.000Z</time>
      </trkpt>
      <trkpt lat="45.8558" lon="4.71327">
        <ele>254.40878</ele>
        <time>2023-04-10T15:05:02.000Z</time>
      </trkpt>
      <trkpt lat="45.85576" lon="4.71329">
        <ele>254.70737</ele>
        <time>2023-04-10T15:05:03.000Z</time>
      </trkpt>
      <trkpt lat="45.85573" lon="4.71332">
        <ele>255.05428</ele>
        <time>2023-04-10T15:05:04.000Z</time>
      </trkpt>
      <trkpt lat="45.8557" lon="4.71333">
        <ele>255.36772</ele>
        <time>2023-04-10T15:05:05.000Z</time>
      </trkpt>
      <trkpt lat="45.85566" lon="4.71336">
        <ele>255.76221</ele>
        <time>2023-04-10T15:05:06.000Z</time>
      </trkpt>
      <trkpt lat="45.85563" lon="4.71339">
        <ele>256.15042</ele>
        <time>2023-04-10T15:05:07.000Z</time>
      </trkpt>
      <trkpt lat="45.85559" lon="4.7134">
        <ele>256.50128</ele>
        <time>2023-04-10T15:05:08.000Z</time>
      </trkpt>
      <trkpt lat="45.85556" lon="4.71341">
        <ele>256.75778</ele>
        <time>2023-04-10T15:05:09.000Z</time>
      </trkpt>
      <trkpt lat="45.85551" lon="4.71342">
        <ele>257.07135</ele>
        <time>2023-04-10T15:05:10.000Z</time>
      </trkpt>
      <trkpt lat="45.85547" lon="4.71343">
        <ele>257.40848</ele>
        <time>2023-04-10T15:05:11.000Z</time>
      </trkpt>
      <trkpt lat="45.85543" lon="4.71344">
        <ele>257.74509</ele>
        <time>2023-04-10T15:05:12.000Z</time>
      </trkpt>
      <trkpt lat="45.85539" lon="4.71345">
        <ele>258.0545</ele>
        <time>2023-04-10T15:05:13.000Z</time>
      </trkpt>
      <trkpt lat="45.85535" lon="4.71347">
        <ele>258.33701</ele>
        <time>2023-04-10T15:05:14.000Z</time>
      </trkpt>
      <trkpt lat="45.85531" lon="4.71348">
        <ele>258.60602</ele>
        <time>2023-04-10T15:05:15.000Z</time>
      </trkpt>
      <trkpt lat="45.85527" lon="4.71349">
        <ele>258.90326</ele>
        <time>2023-04-10T15:05:16.000Z</time>
      </trkpt>
      <trkpt lat="45.85523" lon="4.7135">
        <ele>259.22089</ele>
        <time>2023-04-10T15:05:17.000Z</time>
      </trkpt>
      <trkpt lat="45.85519" lon="4.71351">
        <ele>259.53366</ele>
        <time>2023-04-10T15:05:18.000Z</time>
      </trkpt>
      <trkpt lat="45.85515" lon="4.71351">
        <ele>259.86411</ele>
        <time>2023-04-10T15:05:19.000Z</time>
      </trkpt>
      <trkpt lat="45.85511" lon="4.71353">
        <ele>259.96432</ele>
        <time>2023-04-10T15:05:20.000Z</time>
      </trkpt>
      <trkpt lat="45.85507" lon="4.71354">
        <ele>260.10202</ele>
        <time>2023-04-10T15:05:21.000Z</time>
      </trkpt>
      <trkpt lat="45.85503" lon="4.71355">
        <ele>260.26602</ele>
        <time>2023-04-10T15:05:22.000Z</time>
      </trkpt>
      <trkpt lat="45.85499" lon="4.71356">
        <ele>260.40414</ele>
        <time>2023-04-10T15:05:23.000Z</time>
      </trkpt>
      <trkpt lat="45.85495" lon="4.71358">
        <ele>260.8692</ele>
        <time>2023-04-10T15:05:24.000Z</time>
      </trkpt>
      <trkpt lat="45.85491" lon="4.71359">
        <ele>261.34415</ele>
        <time>2023-04-10T15:05:25.000Z</time>
      </trkpt>
      <trkpt lat="45.85488" lon="4.71361">
        <ele>261.74634</ele>
        <time>2023-04-10T15:05:26.000Z</time>
      </trkpt>
      <trkpt lat="45.85484" lon="4.71362">
        <ele>262.17709</ele>
        <time>2023-04-10T15:05:27.000Z</time>
      </trkpt>
      <trkpt lat="45.8548" lon="4.71364">
        <ele>262.68179</ele>
        <time>2023-04-10T15:05:28.000Z</time>
      </trkpt>
      <trkpt lat="45.85476" lon="4.71365">
        <ele>263.20041</ele>
        <time>2023-04-10T15:05:29.000Z</time>
      </trkpt>
      <trkpt lat="45.85473" lon="4.71367">
        <ele>263.68283</ele>
        <time>2023-04-10T15:05:30.000Z</time>
      </trkpt>
      <trkpt lat="45.85469" lon="4.7137">
        <ele>264.13736</ele>
        <time>2023-04-10T15:05:31.000Z</time>
      </trkpt>
      <trkpt lat="45.85466" lon="4.71372">
        <ele>264.61874</ele>
        <time>2023-04-10T15:05:32.000Z</time>
      </trkpt>
      <trkpt lat="45.85463" lon="4.71375">
        <ele>265.10858</ele>
        <time>2023-04-10T15:05:33.000Z</time>
      </trkpt>
      <trkpt lat="45.85459" lon="4.71377">
        <ele>265.62579</ele>
        <time>2023-04-10T15:05:34.000Z</time>
      </trkpt>
      <trkpt lat="45.85456" lon="4.7138">
        <ele>266.14786</ele>
        <time>2023-04-10T15:05:35.000Z</time>
      </trkpt>
      <trkpt lat="45.85452" lon="4.71383">
        <ele>266.63971</ele>
        <time>2023-04-10T15:05:36.000Z</time>
      </trkpt>
      <trkpt lat="45.85449" lon="4.71385">
        <ele>267.06381</ele>
        <time>2023-04-10T15:05:37.000Z</time>
      </trkpt>
      <trkpt lat="45.85446" lon="4.71387">
        <ele>267.51898</ele>
        <time>2023-04-10T15:05:38.000Z</time>
      </trkpt>
      <trkpt lat="45.85442" lon="4.7139">
        <ele>267.96222</ele>
        <time>2023-04-10T15:05:39.000Z</time>
      </trkpt>
      <trkpt lat="45.85439" lon="4.71393">
        <ele>268.59717</ele>
        <time>2023-04-10T15:05:40.000Z</time>
      </trkpt>
      <trkpt lat="45.85435" lon="4.71396">
        <ele>269.19507</ele>
        <time>2023-04-10T15:05:41.000Z</time>
      </trkpt>
      <trkpt lat="45.85432" lon="4.71398">
        <ele>269.82285</ele>
        <time>2023-04-10T15:05:42.000Z</time>
      </trkpt>
      <trkpt lat="45.85429" lon="4.71401">
        <ele>270.43451</ele>
        <time>2023-04-10T15:05:43.000Z</time>
      </trkpt>
      <trkpt lat="45.85425" lon="4.71404">
        <ele>270.68658</ele>
        <time>2023-04-10T15:05:44.000Z</time>
      </trkpt>
      <trkpt lat="45.85422" lon="4.71407">
        <ele>270.9729</ele>
        <time>2023-04-10T15:05:45.000Z</time>
      </trkpt>
      <trkpt lat="45.85419" lon="4.71411">
        <ele>271.29581</ele>
        <time>2023-04-10T15:05:46.000Z</time>
      </trkpt>
      <trkpt lat="45.85415" lon="4.71414">
        <ele>271.61676</ele>
        <time>2023-04-10T15:05:47.000Z</time>
      </trkpt>
      <trkpt lat="45.85412" lon="4.71416">
        <ele>271.86288</ele>
        <time>2023-04-10T15:05:48.000Z</time>
      </trkpt>
      <trkpt lat="45.85408" lon="4.71419">
        <ele>272.06305</ele>
        <time>2023-04-10T15:05:49.000Z</time>
      </trkpt>
      <trkpt lat="45.85404" lon="4.71422">
        <ele>272.18826</ele>
        <time>2023-04-10T15:05:50.000Z</time>
      </trkpt>
      <trkpt lat="45.854" lon="4.71426">
        <ele>272.30542</ele>
        <time>2023-04-10T15:05:51.000Z</time>
      </trkpt>
      <trkpt lat="45.85396" lon="4.71429">
        <ele>272.42435</ele>
        <time>2023-04-10T15:05:52.000Z</time>
      </trkpt>
      <trkpt lat="45.85392" lon="4.71432">
        <ele>272.60812</ele>
        <time>2023-04-10T15:05:53.000Z</time>
      </trkpt>
      <trkpt lat="45.85389" lon="4.71436">
        <ele>272.79004</ele>
        <time>2023-04-10T15:05:54.000Z</time>
      </trkpt>
      <trkpt lat="45.85385" lon="4.7144">
        <ele>272.90497</ele>
        <time>2023-04-10T15:05:55.000Z</time>
      </trkpt>
      <trkpt lat="45.85381" lon="4.71443">
        <ele>272.92621</ele>
        <time>2023-04-10T15:05:56.000Z</time>
      </trkpt>
      <trkpt lat="45.85378" lon="4.71447">
        <ele>272.896</ele>
        <time>2023-04-10T15:05:57.000Z</time>
      </trkpt>
      <trkpt lat="45.85374" lon="4.7145">
        <ele>272.79172</ele>
        <time>2023-04-10T15:05:58.000Z</time>
      </trkpt>
      <trkpt lat="45.8537" lon="4.71454">
        <ele>272.73566</ele>
        <time>2023-04-10T15:05:59.000Z</time>
      </trkpt>
      <trkpt lat="45.85366" lon="4.71457">
        <ele>272.8891</ele>
        <time>2023-04-10T15:06:00.000Z</time>
      </trkpt>
      <trkpt lat="45.85363" lon="4.71461">
        <ele>272.78903</ele>
        <time>2023-04-10T15:06:01.000Z</time>
      </trkpt>
      <trkpt lat="45.85359" lon="4.71465">
        <ele>272.67328</ele>
        <time>2023-04-10T15:06:02.000Z</time>
      </trkpt>
      <trkpt lat="45.85356" lon="4.71469">
        <ele>272.56512</ele>
        <time>2023-04-10T15:06:03.000Z</time>
      </trkpt>
      <trkpt lat="45.85353" lon="4.71472">
        <ele>272.46744</ele>
        <time>2023-04-10T15:06:04.000Z</time>
      </trkpt>
      <trkpt lat="45.85349" lon="4.71475">
        <ele>272.3493</ele>
        <time>2023-04-10T15:06:05.000Z</time>
      </trkpt>
      <trkpt lat="45.85345" lon="4.71478">
        <ele>272.21744</ele>
        <time>2023-04-10T15:06:06.000Z</time>
      </trkpt>
      <trkpt lat="45.85342" lon="4.71482">
        <ele>272.07474</ele>
        <time>2023-04-10T15:06:07.000Z</time>
      </trkpt>
      <trkpt lat="45.85338" lon="4.71485">
        <ele>271.97656</ele>
        <time>2023-04-10T15:06:08.000Z</time>
      </trkpt>
      <trkpt lat="45.85334" lon="4.71489">
        <ele>272.21869</ele>
        <time>2023-04-10T15:06:09.000Z</time>
      </trkpt>
      <trkpt lat="45.85331" lon="4.71493">
        <ele>272.48495</ele>
        <time>2023-04-10T15:06:10.000Z</time>
      </trkpt>
      <trkpt lat="45.85327" lon="4.71496">
        <ele>272.74924</ele>
        <time>2023-04-10T15:06:11.000Z</time>
      </trkpt>
      <trkpt lat="45.85323" lon="4.715">
        <ele>272.97058</ele>
        <time>2023-04-10T15:06:12.000Z</time>
      </trkpt>
      <trkpt lat="45.8532" lon="4.71503">
        <ele>273.10492</ele>
        <time>2023-04-10T15:06:13.000Z</time>
      </trkpt>
      <trkpt lat="45.85317" lon="4.71506">
        <ele>273.2251</ele>
        <time>2023-04-10T15:06:14.000Z</time>
      </trkpt>
      <trkpt lat="45.85313" lon="4.71509">
        <ele>273.40686</ele>
        <time>2023-04-10T15:06:15.000Z</time>
      </trkpt>
      <trkpt lat="45.85309" lon="4.71512">
        <ele>273.68863</ele>
        <time>2023-04-10T15:06:16.000Z</time>
      </trkpt>
      <trkpt lat="45.85305" lon="4.71515">
        <ele>274.00357</ele>
        <time>2023-04-10T15:06:17.000Z</time>
      </trkpt>
      <trkpt lat="45.85302" lon="4.71518">
        <ele>274.35669</ele>
        <time>2023-04-10T15:06:18.000Z</time>
      </trkpt>
      <trkpt lat="45.85299" lon="4.71521">
        <ele>274.63623</ele>
        <time>2023-04-10T15:06:19.000Z</time>
      </trkpt>
      <trkpt lat="45.85295" lon="4.71525">
        <ele>274.61969</ele>
        <time>2023-04-10T15:06:20.000Z</time>
      </trkpt>
      <trkpt lat="45.85292" lon="4.71528">
        <ele>274.85773</ele>
        <time>2023-04-10T15:06:21.000Z</time>
      </trkpt>
      <trkpt lat="45.85289" lon="4.71531">
        <ele>275.09335</ele>
        <time>2023-04-10T15:06:22.000Z</time>
      </trkpt>
      <trkpt lat="45.85285" lon="4.71534">
        <ele>275.32965</ele>
        <time>2023-04-10T15:06:23.000Z</time>
      </trkpt>
      <trkpt lat="45.85282" lon="4.71536">
        <ele>275.56958</ele>
        <time>2023-04-10T15:06:24.000Z</time>
      </trkpt>
      <trkpt lat="45.85278" lon="4.71538">
        <ele>275.83371</ele>
        <time>2023-04-10T15:06:25.000Z</time>
      </trkpt>
      <trkpt lat="45.85274" lon="4.71539">
        <ele>276.13751</ele>
        <time>2023-04-10T15:06:26.000Z</time>
      </trkpt>
      <trkpt lat="45.8527" lon="4.71541">
        <ele>276.43466</ele>
        <time>2023-04-10T15:06:27.000Z</time>
      </trkpt>
      <trkpt lat="45.85267" lon="4.71543">
        <ele>276.73474</ele>
        <time>2023-04-10T15:06:28.000Z</time>
      </trkpt>
      <trkpt lat="45.85262" lon="4.71545">
        <ele>276.70874</ele>
        <time>2023-04-10T15:06:29.000Z</time>
      </trkpt>
      <trkpt lat="45.85258" lon="4.71547">
        <ele>276.62686</ele>
        <time>2023-04-10T15:06:30.000Z</time>
      </trkpt>
      <trkpt lat="45.85254" lon="4.71549">
        <ele>276.54684</ele>
        <time>2023-04-10T15:06:31.000Z</time>
      </trkpt>
      <trkpt lat="45.85249" lon="4.71551">
        <ele>276.4711</ele>
        <time>2023-04-10T15:06:32.000Z</time>
      </trkpt>
      <trkpt lat="45.85245" lon="4.71553">
        <ele>276.18707</ele>
        <time>2023-04-10T15:06:33.000Z</time>
      </trkpt>
      <trkpt lat="45.85241" lon="4.71555">
        <ele>275.95819</ele>
        <time>2023-04-10T15:06:34.000Z</time>
      </trkpt>
      <trkpt lat="45.85236" lon="4.71557">
        <ele>275.64642</ele>
        <time>2023-04-10T15:06:35.000Z</time>
      </trkpt>
      <trkpt lat="45.85232" lon="4.71559">
        <ele>275.26608</ele>
        <time>2023-04-10T15:06:36.000Z</time>
      </trkpt>
      <trkpt lat="45.85227" lon="4.71561">
        <ele>275.27606</ele>
        <time>2023-04-10T15:06:37.000Z</time>
      </trkpt>
      <trkpt lat="45.85223" lon="4.71563">
        <ele>275.13614</ele>
        <time>2023-04-10T15:06:38.000Z</time>
      </trkpt>
      <trkpt lat="45.85218" lon="4.71565">
        <ele>275.00528</ele>
        <time>2023-04-10T15:06:39.000Z</time>
      </trkpt>
      <trkpt lat="45.85212" lon="4.71567">
        <ele>274.99094</ele>
        <time>2023-04-10T15:06:40.000Z</time>
      </trkpt>
      <trkpt lat="45.85207" lon="4.7157">
        <ele>274.96246</ele>
        <time>2023-04-10T15:06:41.000Z</time>
      </trkpt>
      <trkpt lat="45.85203" lon="4.71573">
        <ele>274.97919</ele>
        <time>2023-04-10T15:06:42.000Z</time>
      </trkpt>
      <trkpt lat="45.85198" lon="4.71575">
        <ele>274.92044</ele>
        <time>2023-04-10T15:06:43.000Z</time>
      </trkpt>
      <trkpt lat="45.85193" lon="4.71578">
        <ele>274.60638</ele>
        <time>2023-04-10T15:06:44.000Z</time>
      </trkpt>
      <trkpt lat="45.85188" lon="4.71581">
        <ele>274.29172</ele>
        <time>2023-04-10T15:06:45.000Z</time>
      </trkpt>
      <trkpt lat="45.85182" lon="4.71583">
        <ele>273.91309</ele>
        <time>2023-04-10T15:06:46.000Z</time>
      </trkpt>
      <trkpt lat="45.85177" lon="4.71587">
        <ele>273.59772</ele>
        <time>2023-04-10T15:06:47.000Z</time>
      </trkpt>
      <trkpt lat="45.8517" lon="4.7159">
        <ele>274.01202</ele>
        <time>2023-04-10T15:06:48.000Z</time>
      </trkpt>
      <trkpt lat="45.85165" lon="4.71591">
        <ele>274.45117</ele>
        <time>2023-04-10T15:06:49.000Z</time>
      </trkpt>
      <trkpt lat="45.85159" lon="4.7159">
        <ele>274.12466</ele>
        <time>2023-04-10T15:06:50.000Z</time>
      </trkpt>
      <trkpt lat="45.85155" lon="4.71593">
        <ele>273.71637</ele>
        <time>2023-04-10T15:06:51.000Z</time>
      </trkpt>
      <trkpt lat="45.8515" lon="4.71594">
        <ele>273.40326</ele>
        <time>2023-04-10T15:06:52.000Z</time>
      </trkpt>
      <trkpt lat="45.85145" lon="4.71594">
        <ele>273.38126</ele>
        <time>2023-04-10T15:06:53.000Z</time>
      </trkpt>
      <trkpt lat="45.8514" lon="4.71594">
        <ele>273.2915</ele>
        <time>2023-04-10T15:06:54.000Z</time>
      </trkpt>
      <trkpt lat="45.85136" lon="4.71594">
        <ele>273.2106</ele>
        <time>2023-04-10T15:06:55.000Z</time>
      </trkpt>
      <trkpt lat="45.8513" lon="4.71595">
        <ele>273.40387</ele>
        <time>2023-04-10T15:06:56.000Z</time>
      </trkpt>
      <trkpt lat="45.85126" lon="4.71595">
        <ele>273.22668</ele>
        <time>2023-04-10T15:06:57.000Z</time>
      </trkpt>
      <trkpt lat="45.85121" lon="4.71596">
        <ele>273.18152</ele>
        <time>2023-04-10T15:06:58.000Z</time>
      </trkpt>
      <trkpt lat="45.85117" lon="4.71598">
        <ele>273.12701</ele>
        <time>2023-04-10T15:06:59.000Z</time>
      </trkpt>
      <trkpt lat="45.85113" lon="4.71601">
        <ele>273.03445</ele>
        <time>2023-04-10T15:07:00.000Z</time>
      </trkpt>
      <trkpt lat="45.85108" lon="4.71606">
        <ele>274.92484</ele>
        <time>2023-04-10T15:07:01.000Z</time>
      </trkpt>
      <trkpt lat="45.85104" lon="4.71609">
        <ele>274.86969</ele>
        <time>2023-04-10T15:07:02.000Z</time>
      </trkpt>
      <trkpt lat="45.851" lon="4.71611">
        <ele>274.87015</ele>
        <time>2023-04-10T15:07:03.000Z</time>
      </trkpt>
      <trkpt lat="45.85096" lon="4.71615">
        <ele>275.11533</ele>
        <time>2023-04-10T15:07:04.000Z</time>
      </trkpt>
      <trkpt lat="45.85091" lon="4.71619">
        <ele>275.35333</ele>
        <time>2023-04-10T15:07:05.000Z</time>
      </trkpt>
      <trkpt lat="45.85087" lon="4.71622">
        <ele>275.63715</ele>
        <time>2023-04-10T15:07:06.000Z</time>
      </trkpt>
      <trkpt lat="45.85085" lon="4.71624">
        <ele>278.25873</ele>
        <time>2023-04-10T15:07:07.000Z</time>
      </trkpt>
      <trkpt lat="45.8508" lon="4.71625">
        <ele>277.34253</ele>
        <time>2023-04-10T15:07:08.000Z</time>
      </trkpt>
      <trkpt lat="45.85077" lon="4.71627">
        <ele>276.45038</ele>
        <time>2023-04-10T15:07:09.000Z</time>
      </trkpt>
      <trkpt lat="45.85072" lon="4.71629">
        <ele>276.88834</ele>
        <time>2023-04-10T15:07:10.000Z</time>
      </trkpt>
      <trkpt lat="45.85068" lon="4.71631">
        <ele>277.43695</ele>
        <time>2023-04-10T15:07:11.000Z</time>
      </trkpt>
      <trkpt lat="45.85064" lon="4.71632">
        <ele>278.10602</ele>
        <time>2023-04-10T15:07:12.000Z</time>
      </trkpt>
      <trkpt lat="45.85061" lon="4.71633">
        <ele>278.72638</ele>
        <time>2023-04-10T15:07:13.000Z</time>
      </trkpt>
      <trkpt lat="45.85058" lon="4.71635">
        <ele>279.48083</ele>
        <time>2023-04-10T15:07:14.000Z</time>
      </trkpt>
      <trkpt lat="45.85054" lon="4.71636">
        <ele>280.29181</ele>
        <time>2023-04-10T15:07:15.000Z</time>
      </trkpt>
      <trkpt lat="45.85049" lon="4.71637">
        <ele>281.0517</ele>
        <time>2023-04-10T15:07:16.000Z</time>
      </trkpt>
      <trkpt lat="45.85045" lon="4.71639">
        <ele>281.8255</ele>
        <time>2023-04-10T15:07:17.000Z</time>
      </trkpt>
      <trkpt lat="45.85041" lon="4.71641">
        <ele>282.64484</ele>
        <time>2023-04-10T15:07:18.000Z</time>
      </trkpt>
      <trkpt lat="45.85037" lon="4.71643">
        <ele>283.45383</ele>
        <time>2023-04-10T15:07:19.000Z</time>
      </trkpt>
      <trkpt lat="45.85033" lon="4.71645">
        <ele>284.24326</ele>
        <time>2023-04-10T15:07:20.000Z</time>
      </trkpt>
      <trkpt lat="45.85029" lon="4.71647">
        <ele>283.06543</ele>
        <time>2023-04-10T15:07:21.000Z</time>
      </trkpt>
      <trkpt lat="45.85025" lon="4.71649">
        <ele>283.79999</ele>
        <time>2023-04-10T15:07:22.000Z</time>
      </trkpt>
      <trkpt lat="45.85022" lon="4.71651">
        <ele>284.54877</ele>
        <time>2023-04-10T15:07:23.000Z</time>
      </trkpt>
      <trkpt lat="45.85018" lon="4.71653">
        <ele>285.29941</ele>
        <time>2023-04-10T15:07:24.000Z</time>
      </trkpt>
      <trkpt lat="45.85015" lon="4.71656">
        <ele>286.00806</ele>
        <time>2023-04-10T15:07:25.000Z</time>
      </trkpt>
      <trkpt lat="45.85011" lon="4.71658">
        <ele>286.69336</ele>
        <time>2023-04-10T15:07:26.000Z</time>
      </trkpt>
      <trkpt lat="45.85008" lon="4.7166">
        <ele>284.98407</ele>
        <time>2023-04-10T15:07:27.000Z</time>
      </trkpt>
      <trkpt lat="45.85005" lon="4.71661">
        <ele>286.07779</ele>
        <time>2023-04-10T15:07:28.000Z</time>
      </trkpt>
      <trkpt lat="45.85002" lon="4.71662">
        <ele>287.13779</ele>
        <time>2023-04-10T15:07:29.000Z</time>
      </trkpt>
      <trkpt lat="45.84999" lon="4.71664">
        <ele>287.69916</ele>
        <time>2023-04-10T15:07:30.000Z</time>
      </trkpt>
      <trkpt lat="45.84996" lon="4.71665">
        <ele>288.25671</ele>
        <time>2023-04-10T15:07:31.000Z</time>
      </trkpt>
      <trkpt lat="45.84993" lon="4.71666">
        <ele>288.6127</ele>
        <time>2023-04-10T15:07:32.000Z</time>
      </trkpt>
      <trkpt lat="45.84989" lon="4.71667">
        <ele>288.95526</ele>
        <time>2023-04-10T15:07:33.000Z</time>
      </trkpt>
      <trkpt lat="45.84986" lon="4.71668">
        <ele>289.21191</ele>
        <time>2023-04-10T15:07:34.000Z</time>
      </trkpt>
      <trkpt lat="45.84983" lon="4.71669">
        <ele>289.48639</ele>
        <time>2023-04-10T15:07:35.000Z</time>
      </trkpt>
      <trkpt lat="45.8498" lon="4.7167">
        <ele>289.59341</ele>
        <time>2023-04-10T15:07:36.000Z</time>
      </trkpt>
      <trkpt lat="45.84977" lon="4.7167">
        <ele>289.70184</ele>
        <time>2023-04-10T15:07:37.000Z</time>
      </trkpt>
      <trkpt lat="45.84974" lon="4.71671">
        <ele>289.76282</ele>
        <time>2023-04-10T15:07:38.000Z</time>
      </trkpt>
      <trkpt lat="45.84971" lon="4.71671">
        <ele>289.89581</ele>
        <time>2023-04-10T15:07:39.000Z</time>
      </trkpt>
      <trkpt lat="45.84968" lon="4.71671">
        <ele>290.01776</ele>
        <time>2023-04-10T15:07:40.000Z</time>
      </trkpt>
      <trkpt lat="45.84965" lon="4.7167">
        <ele>290.13214</ele>
        <time>2023-04-10T15:07:41.000Z</time>
      </trkpt>
      <trkpt lat="45.84962" lon="4.71669">
        <ele>290.24359</ele>
        <time>2023-04-10T15:07:42.000Z</time>
      </trkpt>
      <trkpt lat="45.84959" lon="4.71668">
        <ele>290.33987</ele>
        <time>2023-04-10T15:07:43.000Z</time>
      </trkpt>
      <trkpt lat="45.84956" lon="4.71668">
        <ele>290.40482</ele>
        <time>2023-04-10T15:07:44.000Z</time>
      </trkpt>
      <trkpt lat="45.84953" lon="4.71667">
        <ele>290.52481</ele>
        <time>2023-04-10T15:07:45.000Z</time>
      </trkpt>
      <trkpt lat="45.8495" lon="4.71667">
        <ele>290.70569</ele>
        <time>2023-04-10T15:07:46.000Z</time>
      </trkpt>
      <trkpt lat="45.84947" lon="4.71666">
        <ele>290.90015</ele>
        <time>2023-04-10T15:07:47.000Z</time>
      </trkpt>
      <trkpt lat="45.84944" lon="4.71665">
        <ele>291.06833</ele>
        <time>2023-04-10T15:07:48.000Z</time>
      </trkpt>
      <trkpt lat="45.8494" lon="4.71664">
        <ele>291.24136</ele>
        <time>2023-04-10T15:07:49.000Z</time>
      </trkpt>
      <trkpt lat="45.84937" lon="4.71663">
        <ele>291.42108</ele>
        <time>2023-04-10T15:07:50.000Z</time>
      </trkpt>
      <trkpt lat="45.84934" lon="4.71662">
        <ele>291.5358</ele>
        <time>2023-04-10T15:07:51.000Z</time>
      </trkpt>
      <trkpt lat="45.8493" lon="4.71661">
        <ele>291.62283</ele>
        <time>2023-04-10T15:07:52.000Z</time>
      </trkpt>
      <trkpt lat="45.84926" lon="4.71662">
        <ele>291.70599</ele>
        <time>2023-04-10T15:07:53.000Z</time>
      </trkpt>
      <trkpt lat="45.84922" lon="4.71662">
        <ele>291.77042</ele>
        <time>2023-04-10T15:07:54.000Z</time>
      </trkpt>
      <trkpt lat="45.84918" lon="4.71663">
        <ele>291.83005</ele>
        <time>2023-04-10T15:07:55.000Z</time>
      </trkpt>
      <trkpt lat="45.84914" lon="4.71664">
        <ele>291.91122</ele>
        <time>2023-04-10T15:07:56.000Z</time>
      </trkpt>
      <trkpt lat="45.8491" lon="4.71664">
        <ele>292.01328</ele>
        <time>2023-04-10T15:07:57.000Z</time>
      </trkpt>
      <trkpt lat="45.84906" lon="4.71665">
        <ele>292.11856</ele>
        <time>2023-04-10T15:07:58.000Z</time>
      </trkpt>
      <trkpt lat="45.84901" lon="4.71666">
        <ele>292.18976</ele>
        <time>2023-04-10T15:07:59.000Z</time>
      </trkpt>
      <trkpt lat="45.84897" lon="4.71668">
        <ele>292.30582</ele>
        <time>2023-04-10T15:08:00.000Z</time>
      </trkpt>
      <trkpt lat="45.84894" lon="4.71669">
        <ele>292.4101</ele>
        <time>2023-04-10T15:08:01.000Z</time>
      </trkpt>
      <trkpt lat="45.8489" lon="4.7167">
        <ele>292.49777</ele>
        <time>2023-04-10T15:08:02.000Z</time>
      </trkpt>
      <trkpt lat="45.84886" lon="4.71671">
        <ele>292.58014</ele>
        <time>2023-04-10T15:08:03.000Z</time>
      </trkpt>
      <trkpt lat="45.84882" lon="4.71672">
        <ele>292.71906</ele>
        <time>2023-04-10T15:08:04.000Z</time>
      </trkpt>
      <trkpt lat="45.84878" lon="4.71674">
        <ele>292.85883</ele>
        <time>2023-04-10T15:08:05.000Z</time>
      </trkpt>
      <trkpt lat="45.84874" lon="4.71675">
        <ele>292.96515</ele>
        <time>2023-04-10T15:08:06.000Z</time>
      </trkpt>
      <trkpt lat="45.8487" lon="4.71677">
        <ele>293.05621</ele>
        <time>2023-04-10T15:08:07.000Z</time>
      </trkpt>
      <trkpt lat="45.84866" lon="4.71678">
        <ele>293.14166</ele>
        <time>2023-04-10T15:08:08.000Z</time>
      </trkpt>
      <trkpt lat="45.84862" lon="4.7168">
        <ele>293.18085</ele>
        <time>2023-04-10T15:08:09.000Z</time>
      </trkpt>
      <trkpt lat="45.84857" lon="4.71684">
        <ele>293.21179</ele>
        <time>2023-04-10T15:08:10.000Z</time>
      </trkpt>
      <trkpt lat="45.84853" lon="4.71687">
        <ele>293.25964</ele>
        <time>2023-04-10T15:08:11.000Z</time>
      </trkpt>
      <trkpt lat="45.84849" lon="4.7169">
        <ele>293.31998</ele>
        <time>2023-04-10T15:08:12.000Z</time>
      </trkpt>
      <trkpt lat="45.84844" lon="4.71694">
        <ele>293.39319</ele>
        <time>2023-04-10T15:08:13.000Z</time>
      </trkpt>
      <trkpt lat="45.84839" lon="4.71697">
        <ele>293.45868</ele>
        <time>2023-04-10T15:08:14.000Z</time>
      </trkpt>
      <trkpt lat="45.84836" lon="4.71701">
        <ele>293.52469</ele>
        <time>2023-04-10T15:08:15.000Z</time>
      </trkpt>
      <trkpt lat="45.84831" lon="4.71704">
        <ele>293.55286</ele>
        <time>2023-04-10T15:08:16.000Z</time>
      </trkpt>
      <trkpt lat="45.84826" lon="4.71705">
        <ele>293.55014</ele>
        <time>2023-04-10T15:08:17.000Z</time>
      </trkpt>
      <trkpt lat="45.84823" lon="4.71706">
        <ele>293.57144</ele>
        <time>2023-04-10T15:08:18.000Z</time>
      </trkpt>
      <trkpt lat="45.84818" lon="4.71708">
        <ele>293.57788</ele>
        <time>2023-04-10T15:08:19.000Z</time>
      </trkpt>
      <trkpt lat="45.84813" lon="4.71712">
        <ele>293.58105</ele>
        <time>2023-04-10T15:08:20.000Z</time>
      </trkpt>
      <trkpt lat="45.84809" lon="4.71715">
        <ele>293.58307</ele>
        <time>2023-04-10T15:08:21.000Z</time>
      </trkpt>
      <trkpt lat="45.84805" lon="4.71719">
        <ele>293.59677</ele>
        <time>2023-04-10T15:08:22.000Z</time>
      </trkpt>
      <trkpt lat="45.848" lon="4.71722">
        <ele>293.64624</ele>
        <time>2023-04-10T15:08:23.000Z</time>
      </trkpt>
      <trkpt lat="45.84795" lon="4.71725">
        <ele>293.67438</ele>
        <time>2023-04-10T15:08:24.000Z</time>
      </trkpt>
      <trkpt lat="45.8479" lon="4.7173">
        <ele>293.69638</ele>
        <time>2023-04-10T15:08:25.000Z</time>
      </trkpt>
      <trkpt lat="45.84785" lon="4.71733">
        <ele>293.6709</ele>
        <time>2023-04-10T15:08:26.000Z</time>
      </trkpt>
      <trkpt lat="45.8478" lon="4.71736">
        <ele>293.60986</ele>
        <time>2023-04-10T15:08:27.000Z</time>
      </trkpt>
      <trkpt lat="45.84774" lon="4.71739">
        <ele>293.5864</ele>
        <time>2023-04-10T15:08:28.000Z</time>
      </trkpt>
      <trkpt lat="45.84769" lon="4.71743">
        <ele>293.58536</ele>
        <time>2023-04-10T15:08:29.000Z</time>
      </trkpt>
      <trkpt lat="45.84765" lon="4.71745">
        <ele>293.59116</ele>
        <time>2023-04-10T15:08:30.000Z</time>
      </trkpt>
      <trkpt lat="45.8476" lon="4.7175">
        <ele>293.62311</ele>
        <time>2023-04-10T15:08:31.000Z</time>
      </trkpt>
      <trkpt lat="45.84754" lon="4.71753">
        <ele>293.68307</ele>
        <time>2023-04-10T15:08:32.000Z</time>
      </trkpt>
      <trkpt lat="45.84749" lon="4.71756">
        <ele>293.71271</ele>
        <time>2023-04-10T15:08:33.000Z</time>
      </trkpt>
      <trkpt lat="45.84743" lon="4.71759">
        <ele>293.71011</ele>
        <time>2023-04-10T15:08:34.000Z</time>
      </trkpt>
      <trkpt lat="45.84737" lon="4.71764">
        <ele>293.71872</ele>
        <time>2023-04-10T15:08:35.000Z</time>
      </trkpt>
      <trkpt lat="45.84734" lon="4.71766">
        <ele>293.70706</ele>
        <time>2023-04-10T15:08:36.000Z</time>
      </trkpt>
      <trkpt lat="45.84728" lon="4.71769">
        <ele>293.66962</ele>
        <time>2023-04-10T15:08:37.000Z</time>
      </trkpt>
      <trkpt lat="45.84723" lon="4.71771">
        <ele>293.64325</ele>
        <time>2023-04-10T15:08:38.000Z</time>
      </trkpt>
      <trkpt lat="45.84717" lon="4.71772">
        <ele>293.60654</ele>
        <time>2023-04-10T15:08:39.000Z</time>
      </trkpt>
      <trkpt lat="45.84712" lon="4.71775">
        <ele>293.55597</ele>
        <time>2023-04-10T15:08:40.000Z</time>
      </trkpt>
      <trkpt lat="45.84707" lon="4.71777">
        <ele>293.52502</ele>
        <time>2023-04-10T15:08:41.000Z</time>
      </trkpt>
      <trkpt lat="45.84702" lon="4.71778">
        <ele>293.47223</ele>
        <time>2023-04-10T15:08:42.000Z</time>
      </trkpt>
      <trkpt lat="45.84696" lon="4.71781">
        <ele>293.39481</ele>
        <time>2023-04-10T15:08:43.000Z</time>
      </trkpt>
      <trkpt lat="45.84692" lon="4.71783">
        <ele>293.29575</ele>
        <time>2023-04-10T15:08:44.000Z</time>
      </trkpt>
      <trkpt lat="45.84687" lon="4.71786">
        <ele>293.2088</ele>
        <time>2023-04-10T15:08:45.000Z</time>
      </trkpt>
      <trkpt lat="45.84681" lon="4.7179">
        <ele>293.18585</ele>
        <time>2023-04-10T15:08:46.000Z</time>
      </trkpt>
      <trkpt lat="45.84676" lon="4.71794">
        <ele>293.18768</ele>
        <time>2023-04-10T15:08:47.000Z</time>
      </trkpt>
      <trkpt lat="45.84671" lon="4.71798">
        <ele>293.20578</ele>
        <time>2023-04-10T15:08:48.000Z</time>
      </trkpt>
      <trkpt lat="45.84664" lon="4.71799">
        <ele>293.14795</ele>
        <time>2023-04-10T15:08:49.000Z</time>
      </trkpt>
      <trkpt lat="45.84659" lon="4.71803">
        <ele>293.09369</ele>
        <time>2023-04-10T15:08:50.000Z</time>
      </trkpt>
      <trkpt lat="45.84653" lon="4.71806">
        <ele>293.04962</ele>
        <time>2023-04-10T15:08:51.000Z</time>
      </trkpt>
      <trkpt lat="45.84648" lon="4.71809">
        <ele>293.03531</ele>
        <time>2023-04-10T15:08:52.000Z</time>
      </trkpt>
      <trkpt lat="45.84643" lon="4.71812">
        <ele>293.04291</ele>
        <time>2023-04-10T15:08:53.000Z</time>
      </trkpt>
      <trkpt lat="45.84638" lon="4.71815">
        <ele>293.07465</ele>
        <time>2023-04-10T15:08:54.000Z</time>
      </trkpt>
      <trkpt lat="45.84634" lon="4.71817">
        <ele>293.10944</ele>
        <time>2023-04-10T15:08:55.000Z</time>
      </trkpt>
      <trkpt lat="45.8463" lon="4.7182">
        <ele>293.19186</ele>
        <time>2023-04-10T15:08:56.000Z</time>
      </trkpt>
      <trkpt lat="45.84624" lon="4.71823">
        <ele>293.27753</ele>
        <time>2023-04-10T15:08:57.000Z</time>
      </trkpt>
      <trkpt lat="45.84621" lon="4.71825">
        <ele>293.32321</ele>
        <time>2023-04-10T15:08:58.000Z</time>
      </trkpt>
      <trkpt lat="45.84617" lon="4.71826">
        <ele>293.35745</ele>
        <time>2023-04-10T15:08:59.000Z</time>
      </trkpt>
      <trkpt lat="45.84613" lon="4.71828">
        <ele>293.41373</ele>
        <time>2023-04-10T15:09:00.000Z</time>
      </trkpt>
      <trkpt lat="45.84609" lon="4.7183">
        <ele>293.47836</ele>
        <time>2023-04-10T15:09:01.000Z</time>
      </trkpt>
      <trkpt lat="45.84606" lon="4.7183">
        <ele>293.57111</ele>
        <time>2023-04-10T15:09:02.000Z</time>
      </trkpt>
      <trkpt lat="45.84602" lon="4.71832">
        <ele>293.65002</ele>
        <time>2023-04-10T15:09:03.000Z</time>
      </trkpt>
      <trkpt lat="45.84597" lon="4.71835">
        <ele>293.73599</ele>
        <time>2023-04-10T15:09:04.000Z</time>
      </trkpt>
      <trkpt lat="45.84593" lon="4.71837">
        <ele>293.77429</ele>
        <time>2023-04-10T15:09:05.000Z</time>
      </trkpt>
      <trkpt lat="45.84589" lon="4.71839">
        <ele>293.77759</ele>
        <time>2023-04-10T15:09:06.000Z</time>
      </trkpt>
      <trkpt lat="45.84585" lon="4.71842">
        <ele>293.73007</ele>
        <time>2023-04-10T15:09:07.000Z</time>
      </trkpt>
      <trkpt lat="45.8458" lon="4.71846">
        <ele>294.67715</ele>
        <time>2023-04-10T15:09:08.000Z</time>
      </trkpt>
      <trkpt lat="45.84576" lon="4.7185">
        <ele>295.72751</ele>
        <time>2023-04-10T15:09:09.000Z</time>
      </trkpt>
      <trkpt lat="45.84571" lon="4.71853">
        <ele>296.80734</ele>
        <time>2023-04-10T15:09:10.000Z</time>
      </trkpt>
      <trkpt lat="45.84568" lon="4.71856">
        <ele>297.87482</ele>
        <time>2023-04-10T15:09:11.000Z</time>
      </trkpt>
      <trkpt lat="45.84564" lon="4.71858">
        <ele>299.16058</ele>
        <time>2023-04-10T15:09:12.000Z</time>
      </trkpt>
      <trkpt lat="45.84559" lon="4.7186">
        <ele>300.43097</ele>
        <time>2023-04-10T15:09:13.000Z</time>
      </trkpt>
      <trkpt lat="45.84555" lon="4.71862">
        <ele>301.82288</ele>
        <time>2023-04-10T15:09:14.000Z</time>
      </trkpt>
      <trkpt lat="45.84551" lon="4.71864">
        <ele>303.22446</ele>
        <time>2023-04-10T15:09:15.000Z</time>
      </trkpt>
      <trkpt lat="45.84548" lon="4.71867">
        <ele>304.64148</ele>
        <time>2023-04-10T15:09:16.000Z</time>
      </trkpt>
      <trkpt lat="45.84544" lon="4.71869">
        <ele>306.0668</ele>
        <time>2023-04-10T15:09:17.000Z</time>
      </trkpt>
      <trkpt lat="45.8454" lon="4.71871">
        <ele>307.62946</ele>
        <time>2023-04-10T15:09:18.000Z</time>
      </trkpt>
      <trkpt lat="45.84538" lon="4.71874">
        <ele>309.07913</ele>
        <time>2023-04-10T15:09:19.000Z</time>
      </trkpt>
      <trkpt lat="45.84534" lon="4.71878">
        <ele>310.15533</ele>
        <time>2023-04-10T15:09:20.000Z</time>
      </trkpt>
      <trkpt lat="45.84532" lon="4.71882">
        <ele>311.2912</ele>
        <time>2023-04-10T15:09:21.000Z</time>
      </trkpt>
      <trkpt lat="45.84529" lon="4.71883">
        <ele>312.35916</ele>
        <time>2023-04-10T15:09:22.000Z</time>
      </trkpt>
      <trkpt lat="45.84525" lon="4.71886">
        <ele>313.40826</ele>
        <time>2023-04-10T15:09:23.000Z</time>
      </trkpt>
      <trkpt lat="45.84523" lon="4.71889">
        <ele>314.52124</ele>
        <time>2023-04-10T15:09:24.000Z</time>
      </trkpt>
      <trkpt lat="45.8452" lon="4.71892">
        <ele>315.62186</ele>
        <time>2023-04-10T15:09:25.000Z</time>
      </trkpt>
      <trkpt lat="45.84517" lon="4.71896">
        <ele>316.63922</ele>
        <time>2023-04-10T15:09:26.000Z</time>
      </trkpt>
      <trkpt lat="45.84514" lon="4.71899">
        <ele>317.7261</ele>
        <time>2023-04-10T15:09:27.000Z</time>
      </trkpt>
      <trkpt lat="45.84511" lon="4.71902">
        <ele>317.80222</ele>
        <time>2023-04-10T15:09:28.000Z</time>
      </trkpt>
      <trkpt lat="45.84508" lon="4.71905">
        <ele>317.85626</ele>
        <time>2023-04-10T15:09:29.000Z</time>
      </trkpt>
      <trkpt lat="45.84504" lon="4.71908">
        <ele>317.84747</ele>
        <time>2023-04-10T15:09:30.000Z</time>
      </trkpt>
      <trkpt lat="45.845" lon="4.71911">
        <ele>317.84641</ele>
        <time>2023-04-10T15:09:31.000Z</time>
      </trkpt>
      <trkpt lat="45.84496" lon="4.71914">
        <ele>317.56992</ele>
        <time>2023-04-10T15:09:32.000Z</time>
      </trkpt>
      <trkpt lat="45.84493" lon="4.71917">
        <ele>317.30145</ele>
        <time>2023-04-10T15:09:33.000Z</time>
      </trkpt>
      <trkpt lat="45.84488" lon="4.7192">
        <ele>316.93817</ele>
        <time>2023-04-10T15:09:34.000Z</time>
      </trkpt>
      <trkpt lat="45.84484" lon="4.71922">
        <ele>316.53745</ele>
        <time>2023-04-10T15:09:35.000Z</time>
      </trkpt>
      <trkpt lat="45.84478" lon="4.71925">
        <ele>316.09439</ele>
        <time>2023-04-10T15:09:36.000Z</time>
      </trkpt>
      <trkpt lat="45.84474" lon="4.71929">
        <ele>315.66443</ele>
        <time>2023-04-10T15:09:37.000Z</time>
      </trkpt>
      <trkpt lat="45.8447" lon="4.7193">
        <ele>315.11835</ele>
        <time>2023-04-10T15:09:38.000Z</time>
      </trkpt>
      <trkpt lat="45.84465" lon="4.71932">
        <ele>314.71558</ele>
        <time>2023-04-10T15:09:39.000Z</time>
      </trkpt>
      <trkpt lat="45.84461" lon="4.71932">
        <ele>314.6922</ele>
        <time>2023-04-10T15:09:40.000Z</time>
      </trkpt>
      <trkpt lat="45.84456" lon="4.71933">
        <ele>314.58289</ele>
        <time>2023-04-10T15:09:41.000Z</time>
      </trkpt>
      <trkpt lat="45.84452" lon="4.71933">
        <ele>314.51309</ele>
        <time>2023-04-10T15:09:42.000Z</time>
      </trkpt>
      <trkpt lat="45.84447" lon="4.71935">
        <ele>314.7186</ele>
        <time>2023-04-10T15:09:43.000Z</time>
      </trkpt>
      <trkpt lat="45.84443" lon="4.71937">
        <ele>313.7471</ele>
        <time>2023-04-10T15:09:44.000Z</time>
      </trkpt>
      <trkpt lat="45.84439" lon="4.71938">
        <ele>312.83163</ele>
        <time>2023-04-10T15:09:45.000Z</time>
      </trkpt>
      <trkpt lat="45.84435" lon="4.71941">
        <ele>312.01556</ele>
        <time>2023-04-10T15:09:46.000Z</time>
      </trkpt>
      <trkpt lat="45.84431" lon="4.71941">
        <ele>311.29581</ele>
        <time>2023-04-10T15:09:47.000Z</time>
      </trkpt>
      <trkpt lat="45.84427" lon="4.71942">
        <ele>310.565</ele>
        <time>2023-04-10T15:09:48.000Z</time>
      </trkpt>
      <trkpt lat="45.84423" lon="4.71943">
        <ele>309.84579</ele>
        <time>2023-04-10T15:09:49.000Z</time>
      </trkpt>
      <trkpt lat="45.84419" lon="4.71944">
        <ele>309.17938</ele>
        <time>2023-04-10T15:09:50.000Z</time>
      </trkpt>
      <trkpt lat="45.84415" lon="4.71944">
        <ele>308.49152</ele>
        <time>2023-04-10T15:09:51.000Z</time>
      </trkpt>
      <trkpt lat="45.8441" lon="4.71946">
        <ele>307.84235</ele>
        <time>2023-04-10T15:09:52.000Z</time>
      </trkpt>
      <trkpt lat="45.84406" lon="4.71947">
        <ele>307.19522</ele>
        <time>2023-04-10T15:09:53.000Z</time>
      </trkpt>
      <trkpt lat="45.84402" lon="4.71949">
        <ele>306.52704</ele>
        <time>2023-04-10T15:09:54.000Z</time>
      </trkpt>
      <trkpt lat="45.84398" lon="4.71951">
        <ele>305.88498</ele>
        <time>2023-04-10T15:09:55.000Z</time>
      </trkpt>
      <trkpt lat="45.84394" lon="4.71953">
        <ele>305.28607</ele>
        <time>2023-04-10T15:09:56.000Z</time>
      </trkpt>
      <trkpt lat="45.84389" lon="4.71955">
        <ele>304.64886</ele>
        <time>2023-04-10T15:09:57.000Z</time>
      </trkpt>
      <trkpt lat="45.84385" lon="4.71957">
        <ele>304.01129</ele>
        <time>2023-04-10T15:09:58.000Z</time>
      </trkpt>
      <trkpt lat="45.84381" lon="4.71958">
        <ele>303.35947</ele>
        <time>2023-04-10T15:09:59.000Z</time>
      </trkpt>
      <trkpt lat="45.84377" lon="4.7196">
        <ele>302.67023</ele>
        <time>2023-04-10T15:10:00.000Z</time>
      </trkpt>
      <trkpt lat="45.84373" lon="4.71961">
        <ele>301.98816</ele>
        <time>2023-04-10T15:10:01.000Z</time>
      </trkpt>
      <trkpt lat="45.84369" lon="4.71962">
        <ele>301.29767</ele>
        <time>2023-04-10T15:10:02.000Z</time>
      </trkpt>
      <trkpt lat="45.84365" lon="4.71962">
        <ele>300.35654</ele>
        <time>2023-04-10T15:10:03.000Z</time>
      </trkpt>
      <trkpt lat="45.84362" lon="4.71963">
        <ele>300.55515</ele>
        <time>2023-04-10T15:10:04.000Z</time>
      </trkpt>
      <trkpt lat="45.84358" lon="4.71964">
        <ele>300.74405</ele>
        <time>2023-04-10T15:10:05.000Z</time>
      </trkpt>
      <trkpt lat="45.84354" lon="4.71965">
        <ele>300.93121</ele>
        <time>2023-04-10T15:10:06.000Z</time>
      </trkpt>
      <trkpt lat="45.8435" lon="4.71967">
        <ele>301.00354</ele>
        <time>2023-04-10T15:10:07.000Z</time>
      </trkpt>
      <trkpt lat="45.84346" lon="4.71969">
        <ele>301.086</ele>
        <time>2023-04-10T15:10:08.000Z</time>
      </trkpt>
      <trkpt lat="45.84342" lon="4.71971">
        <ele>301.97491</ele>
        <time>2023-04-10T15:10:09.000Z</time>
      </trkpt>
      <trkpt lat="45.84337" lon="4.71972">
        <ele>302.85022</ele>
        <time>2023-04-10T15:10:10.000Z</time>
      </trkpt>
      <trkpt lat="45.84333" lon="4.71974">
        <ele>303.77277</ele>
        <time>2023-04-10T15:10:11.000Z</time>
      </trkpt>
      <trkpt lat="45.84329" lon="4.71976">
        <ele>304.64066</ele>
        <time>2023-04-10T15:10:12.000Z</time>
      </trkpt>
      <trkpt lat="45.84325" lon="4.71977">
        <ele>305.57715</ele>
        <time>2023-04-10T15:10:13.000Z</time>
      </trkpt>
      <trkpt lat="45.8432" lon="4.7198">
        <ele>306.49673</ele>
        <time>2023-04-10T15:10:14.000Z</time>
      </trkpt>
      <trkpt lat="45.84316" lon="4.71982">
        <ele>307.38065</ele>
        <time>2023-04-10T15:10:15.000Z</time>
      </trkpt>
      <trkpt lat="45.84312" lon="4.71984">
        <ele>307.45331</ele>
        <time>2023-04-10T15:10:16.000Z</time>
      </trkpt>
      <trkpt lat="45.84308" lon="4.71986">
        <ele>307.5773</ele>
        <time>2023-04-10T15:10:17.000Z</time>
      </trkpt>
      <trkpt lat="45.84305" lon="4.71988">
        <ele>307.71078</ele>
        <time>2023-04-10T15:10:18.000Z</time>
      </trkpt>
      <trkpt lat="45.84301" lon="4.7199">
        <ele>307.88309</ele>
        <time>2023-04-10T15:10:19.000Z</time>
      </trkpt>
      <trkpt lat="45.84295" lon="4.71992">
        <ele>307.95874</ele>
        <time>2023-04-10T15:10:20.000Z</time>
      </trkpt>
      <trkpt lat="45.84292" lon="4.71994">
        <ele>308.96994</ele>
        <time>2023-04-10T15:10:21.000Z</time>
      </trkpt>
      <trkpt lat="45.84287" lon="4.71996">
        <ele>309.9971</ele>
        <time>2023-04-10T15:10:22.000Z</time>
      </trkpt>
      <trkpt lat="45.84284" lon="4.71999">
        <ele>311.02991</ele>
        <time>2023-04-10T15:10:23.000Z</time>
      </trkpt>
      <trkpt lat="45.8428" lon="4.72">
        <ele>312.04523</ele>
        <time>2023-04-10T15:10:24.000Z</time>
      </trkpt>
      <trkpt lat="45.84277" lon="4.72002">
        <ele>313.04956</ele>
        <time>2023-04-10T15:10:25.000Z</time>
      </trkpt>
      <trkpt lat="45.84274" lon="4.72004">
        <ele>314.02924</ele>
        <time>2023-04-10T15:10:26.000Z</time>
      </trkpt>
      <trkpt lat="45.84271" lon="4.72006">
        <ele>315.06378</ele>
        <time>2023-04-10T15:10:27.000Z</time>
      </trkpt>
      <trkpt lat="45.84268" lon="4.72008">
        <ele>316.10568</ele>
        <time>2023-04-10T15:10:28.000Z</time>
      </trkpt>
      <trkpt lat="45.84264" lon="4.72009">
        <ele>315.50519</ele>
        <time>2023-04-10T15:10:29.000Z</time>
      </trkpt>
      <trkpt lat="45.8426" lon="4.72012">
        <ele>314.89731</ele>
        <time>2023-04-10T15:10:30.000Z</time>
      </trkpt>
      <trkpt lat="45.84257" lon="4.72014">
        <ele>314.27866</ele>
        <time>2023-04-10T15:10:31.000Z</time>
      </trkpt>
      <trkpt lat="45.84254" lon="4.72016">
        <ele>313.69397</ele>
        <time>2023-04-10T15:10:32.000Z</time>
      </trkpt>
      <trkpt lat="45.8425" lon="4.72017">
        <ele>313.03745</ele>
        <time>2023-04-10T15:10:33.000Z</time>
      </trkpt>
      <trkpt lat="45.84247" lon="4.72019">
        <ele>312.43674</ele>
        <time>2023-04-10T15:10:34.000Z</time>
      </trkpt>
      <trkpt lat="45.84243" lon="4.72021">
        <ele>311.89886</ele>
        <time>2023-04-10T15:10:35.000Z</time>
      </trkpt>
      <trkpt lat="45.8424" lon="4.72023">
        <ele>312.15686</ele>
        <time>2023-04-10T15:10:36.000Z</time>
      </trkpt>
      <trkpt lat="45.84236" lon="4.72024">
        <ele>312.39316</ele>
        <time>2023-04-10T15:10:37.000Z</time>
      </trkpt>
      <trkpt lat="45.84233" lon="4.72026">
        <ele>312.54745</ele>
        <time>2023-04-10T15:10:38.000Z</time>
      </trkpt>
      <trkpt lat="45.84229" lon="4.72028">
        <ele>312.64899</ele>
        <time>2023-04-10T15:10:39.000Z</time>
      </trkpt>
      <trkpt lat="45.84225" lon="4.7203">
        <ele>312.84344</ele>
        <time>2023-04-10T15:10:40.000Z</time>
      </trkpt>
      <trkpt lat="45.84222" lon="4.72032">
        <ele>313.18488</ele>
        <time>2023-04-10T15:10:41.000Z</time>
      </trkpt>
      <trkpt lat="45.84219" lon="4.72034">
        <ele>313.52164</ele>
        <time>2023-04-10T15:10:42.000Z</time>
      </trkpt>
      <trkpt lat="45.84215" lon="4.72037">
        <ele>313.85883</ele>
        <time>2023-04-10T15:10:43.000Z</time>
      </trkpt>
      <trkpt lat="45.84212" lon="4.72039">
        <ele>314.20929</ele>
        <time>2023-04-10T15:10:44.000Z</time>
      </trkpt>
      <trkpt lat="45.84209" lon="4.72042">
        <ele>314.56784</ele>
        <time>2023-04-10T15:10:45.000Z</time>
      </trkpt>
      <trkpt lat="45.84206" lon="4.72044">
        <ele>314.95566</ele>
        <time>2023-04-10T15:10:46.000Z</time>
      </trkpt>
      <trkpt lat="45.84202" lon="4.72047">
        <ele>315.31073</ele>
        <time>2023-04-10T15:10:47.000Z</time>
      </trkpt>
      <trkpt lat="45.84199" lon="4.72051">
        <ele>315.64844</ele>
        <time>2023-04-10T15:10:48.000Z</time>
      </trkpt>
      <trkpt lat="45.84195" lon="4.72054">
        <ele>316.80804</ele>
        <time>2023-04-10T15:10:49.000Z</time>
      </trkpt>
      <trkpt lat="45.84192" lon="4.72057">
        <ele>318.02655</ele>
        <time>2023-04-10T15:10:50.000Z</time>
      </trkpt>
      <trkpt lat="45.84189" lon="4.7206">
        <ele>319.25192</ele>
        <time>2023-04-10T15:10:51.000Z</time>
      </trkpt>
      <trkpt lat="45.84185" lon="4.72063">
        <ele>320.53522</ele>
        <time>2023-04-10T15:10:52.000Z</time>
      </trkpt>
      <trkpt lat="45.84182" lon="4.72067">
        <ele>321.50168</ele>
        <time>2023-04-10T15:10:53.000Z</time>
      </trkpt>
      <trkpt lat="45.84178" lon="4.72071">
        <ele>322.48578</ele>
        <time>2023-04-10T15:10:54.000Z</time>
      </trkpt>
      <trkpt lat="45.84175" lon="4.72074">
        <ele>323.43747</ele>
        <time>2023-04-10T15:10:55.000Z</time>
      </trkpt>
      <trkpt lat="45.84172" lon="4.72077">
        <ele>324.43839</ele>
        <time>2023-04-10T15:10:56.000Z</time>
      </trkpt>
      <trkpt lat="45.84168" lon="4.72081">
        <ele>325.45221</ele>
        <time>2023-04-10T15:10:57.000Z</time>
      </trkpt>
      <trkpt lat="45.84165" lon="4.72084">
        <ele>326.66467</ele>
        <time>2023-04-10T15:10:58.000Z</time>
      </trkpt>
      <trkpt lat="45.84161" lon="4.72088">
        <ele>327.89737</ele>
        <time>2023-04-10T15:10:59.000Z</time>
      </trkpt>
      <trkpt lat="45.84158" lon="4.72091">
        <ele>329.15079</ele>
        <time>2023-04-10T15:11:00.000Z</time>
      </trkpt>
      <trkpt lat="45.84154" lon="4.72095">
        <ele>329.32495</ele>
        <time>2023-04-10T15:11:01.000Z</time>
      </trkpt>
      <trkpt lat="45.84151" lon="4.72098">
        <ele>329.48383</ele>
        <time>2023-04-10T15:11:02.000Z</time>
      </trkpt>
      <trkpt lat="45.84148" lon="4.72102">
        <ele>329.65259</ele>
        <time>2023-04-10T15:11:03.000Z</time>
      </trkpt>
      <trkpt lat="45.84144" lon="4.72107">
        <ele>329.86386</ele>
        <time>2023-04-10T15:11:04.000Z</time>
      </trkpt>
      <trkpt lat="45.84139" lon="4.7211">
        <ele>330.18854</ele>
        <time>2023-04-10T15:11:05.000Z</time>
      </trkpt>
      <trkpt lat="45.84136" lon="4.72113">
        <ele>330.22678</ele>
        <time>2023-04-10T15:11:06.000Z</time>
      </trkpt>
      <trkpt lat="45.84131" lon="4.72118">
        <ele>330.72495</ele>
        <time>2023-04-10T15:11:07.000Z</time>
      </trkpt>
      <trkpt lat="45.84127" lon="4.72121">
        <ele>330.85876</ele>
        <time>2023-04-10T15:11:08.000Z</time>
      </trkpt>
      <trkpt lat="45.84123" lon="4.72123">
        <ele>330.99731</ele>
        <time>2023-04-10T15:11:09.000Z</time>
      </trkpt>
      <trkpt lat="45.84119" lon="4.72124">
        <ele>331.06003</ele>
        <time>2023-04-10T15:11:10.000Z</time>
      </trkpt>
      <trkpt lat="45.84115" lon="4.72127">
        <ele>331.03262</ele>
        <time>2023-04-10T15:11:11.000Z</time>
      </trkpt>
      <trkpt lat="45.8411" lon="4.72129">
        <ele>330.96729</ele>
        <time>2023-04-10T15:11:12.000Z</time>
      </trkpt>
      <trkpt lat="45.84106" lon="4.72131">
        <ele>331.19571</ele>
        <time>2023-04-10T15:11:13.000Z</time>
      </trkpt>
      <trkpt lat="45.84101" lon="4.72133">
        <ele>331.39716</ele>
        <time>2023-04-10T15:11:14.000Z</time>
      </trkpt>
      <trkpt lat="45.84097" lon="4.72136">
        <ele>331.58554</ele>
        <time>2023-04-10T15:11:15.000Z</time>
      </trkpt>
      <trkpt lat="45.84092" lon="4.72138">
        <ele>331.96835</ele>
        <time>2023-04-10T15:11:16.000Z</time>
      </trkpt>
      <trkpt lat="45.84088" lon="4.72141">
        <ele>332.37094</ele>
        <time>2023-04-10T15:11:17.000Z</time>
      </trkpt>
      <trkpt lat="45.84084" lon="4.72144">
        <ele>332.27768</ele>
        <time>2023-04-10T15:11:18.000Z</time>
      </trkpt>
      <trkpt lat="45.84081" lon="4.72146">
        <ele>332.22296</ele>
        <time>2023-04-10T15:11:19.000Z</time>
      </trkpt>
      <trkpt lat="45.84077" lon="4.7215">
        <ele>332.0611</ele>
        <time>2023-04-10T15:11:20.000Z</time>
      </trkpt>
      <trkpt lat="45.84073" lon="4.72151">
        <ele>331.90375</ele>
        <time>2023-04-10T15:11:21.000Z</time>
      </trkpt>
      <trkpt lat="45.8407" lon="4.72153">
        <ele>331.78217</ele>
        <time>2023-04-10T15:11:22.000Z</time>
      </trkpt>
      <trkpt lat="45.84066" lon="4.72156">
        <ele>331.63754</ele>
        <time>2023-04-10T15:11:23.000Z</time>
      </trkpt>
      <trkpt lat="45.84062" lon="4.72158">
        <ele>331.45453</ele>
        <time>2023-04-10T15:11:24.000Z</time>
      </trkpt>
      <trkpt lat="45.84058" lon="4.7216">
        <ele>331.14606</ele>
        <time>2023-04-10T15:11:25.000Z</time>
      </trkpt>
      <trkpt lat="45.84053" lon="4.72161">
        <ele>331.1011</ele>
        <time>2023-04-10T15:11:26.000Z</time>
      </trkpt>
      <trkpt lat="45.84048" lon="4.72162">
        <ele>330.57083</ele>
        <time>2023-04-10T15:11:27.000Z</time>
      </trkpt>
      <trkpt lat="45.84043" lon="4.72163">
        <ele>330.42157</ele>
        <time>2023-04-10T15:11:28.000Z</time>
      </trkpt>
      <trkpt lat="45.84038" lon="4.72164">
        <ele>330.38882</ele>
        <time>2023-04-10T15:11:29.000Z</time>
      </trkpt>
      <trkpt lat="45.84033" lon="4.72165">
        <ele>330.42999</ele>
        <time>2023-04-10T15:11:30.000Z</time>
      </trkpt>
      <trkpt lat="45.84028" lon="4.72164">
        <ele>330.56219</ele>
        <time>2023-04-10T15:11:31.000Z</time>
      </trkpt>
      <trkpt lat="45.84025" lon="4.72163">
        <ele>330.37799</ele>
        <time>2023-04-10T15:11:32.000Z</time>
      </trkpt>
      <trkpt lat="45.84022" lon="4.72163">
        <ele>330.28012</ele>
        <time>2023-04-10T15:11:33.000Z</time>
      </trkpt>
      <trkpt lat="45.84019" lon="4.72164">
        <ele>330.15543</ele>
        <time>2023-04-10T15:11:35.000Z</time>
      </trkpt>
      <trkpt lat="45.84017" lon="4.72164">
        <ele>330.01157</ele>
        <time>2023-04-10T15:11:37.000Z</time>
      </trkpt>
      <trkpt lat="45.84015" lon="4.72169">
        <ele>329.7522</ele>
        <time>2023-04-10T15:11:39.000Z</time>
      </trkpt>
      <trkpt lat="45.84017" lon="4.72169">
        <ele>329.52188</ele>
        <time>2023-04-10T15:11:40.000Z</time>
      </trkpt>
      <trkpt lat="45.84019" lon="4.72168">
        <ele>329.67633</ele>
        <time>2023-04-10T15:11:41.000Z</time>
      </trkpt>
      <trkpt lat="45.84022" lon="4.72166">
        <ele>329.49701</ele>
        <time>2023-04-10T15:11:42.000Z</time>
      </trkpt>
      <trkpt lat="45.84023" lon="4.72162">
        <ele>328.59854</ele>
        <time>2023-04-10T15:11:43.000Z</time>
      </trkpt>
      <trkpt lat="45.84024" lon="4.72156">
        <ele>327.73065</ele>
        <time>2023-04-10T15:11:44.000Z</time>
      </trkpt>
      <trkpt lat="45.84025" lon="4.7215">
        <ele>326.85696</ele>
        <time>2023-04-10T15:11:45.000Z</time>
      </trkpt>
      <trkpt lat="45.84025" lon="4.72143">
        <ele>326.0127</ele>
        <time>2023-04-10T15:11:46.000Z</time>
      </trkpt>
      <trkpt lat="45.84023" lon="4.72134">
        <ele>325.12723</ele>
        <time>2023-04-10T15:11:47.000Z</time>
      </trkpt>
      <trkpt lat="45.84023" lon="4.72127">
        <ele>324.22687</ele>
        <time>2023-04-10T15:11:48.000Z</time>
      </trkpt>
      <trkpt lat="45.84023" lon="4.72119">
        <ele>323.21234</ele>
        <time>2023-04-10T15:11:49.000Z</time>
      </trkpt>
      <trkpt lat="45.84023" lon="4.72113">
        <ele>322.21606</ele>
        <time>2023-04-10T15:11:50.000Z</time>
      </trkpt>
      <trkpt lat="45.84023" lon="4.72104">
        <ele>321.18854</ele>
        <time>2023-04-10T15:11:51.000Z</time>
      </trkpt>
      <trkpt lat="45.84023" lon="4.72096">
        <ele>320.0137</ele>
        <time>2023-04-10T15:11:52.000Z</time>
      </trkpt>
      <trkpt lat="45.84022" lon="4.72089">
        <ele>318.96548</ele>
        <time>2023-04-10T15:11:53.000Z</time>
      </trkpt>
      <trkpt lat="45.84021" lon="4.72082">
        <ele>317.83795</ele>
        <time>2023-04-10T15:11:54.000Z</time>
      </trkpt>
      <trkpt lat="45.8402" lon="4.72076">
        <ele>316.99579</ele>
        <time>2023-04-10T15:11:55.000Z</time>
      </trkpt>
      <trkpt lat="45.84019" lon="4.72069">
        <ele>316.07254</ele>
        <time>2023-04-10T15:11:56.000Z</time>
      </trkpt>
      <trkpt lat="45.84019" lon="4.72062">
        <ele>315.16745</ele>
        <time>2023-04-10T15:11:57.000Z</time>
      </trkpt>
      <trkpt lat="45.84018" lon="4.72056">
        <ele>314.29849</ele>
        <time>2023-04-10T15:11:58.000Z</time>
      </trkpt>
      <trkpt lat="45.84017" lon="4.72049">
        <ele>313.29733</ele>
        <time>2023-04-10T15:11:59.000Z</time>
      </trkpt>
      <trkpt lat="45.84016" lon="4.72043">
        <ele>313.16174</ele>
        <time>2023-04-10T15:12:00.000Z</time>
      </trkpt>
      <trkpt lat="45.84016" lon="4.72036">
        <ele>313.02246</ele>
        <time>2023-04-10T15:12:01.000Z</time>
      </trkpt>
      <trkpt lat="45.84015" lon="4.7203">
        <ele>313.18375</ele>
        <time>2023-04-10T15:12:02.000Z</time>
      </trkpt>
      <trkpt lat="45.84015" lon="4.72024">
        <ele>314.15872</ele>
        <time>2023-04-10T15:12:03.000Z</time>
      </trkpt>
      <trkpt lat="45.84015" lon="4.72019">
        <ele>315.12347</ele>
        <time>2023-04-10T15:12:04.000Z</time>
      </trkpt>
      <trkpt lat="45.84015" lon="4.72013">
        <ele>316.05286</ele>
        <time>2023-04-10T15:12:05.000Z</time>
      </trkpt>
      <trkpt lat="45.84015" lon="4.72006">
        <ele>317.25903</ele>
        <time>2023-04-10T15:12:06.000Z</time>
      </trkpt>
      <trkpt lat="45.84016" lon="4.72001">
        <ele>318.5629</ele>
        <time>2023-04-10T15:12:07.000Z</time>
      </trkpt>
      <trkpt lat="45.84016" lon="4.71994">
        <ele>319.87198</ele>
        <time>2023-04-10T15:12:08.000Z</time>
      </trkpt>
      <trkpt lat="45.84016" lon="4.71988">
        <ele>321.28482</ele>
        <time>2023-04-10T15:12:09.000Z</time>
      </trkpt>
      <trkpt lat="45.84016" lon="4.71982">
        <ele>322.67282</ele>
        <time>2023-04-10T15:12:10.000Z</time>
      </trkpt>
      <trkpt lat="45.84016" lon="4.71976">
        <ele>324.06012</ele>
        <time>2023-04-10T15:12:11.000Z</time>
      </trkpt>
      <trkpt lat="45.84016" lon="4.71968">
        <ele>325.44733</ele>
        <time>2023-04-10T15:12:12.000Z</time>
      </trkpt>
      <trkpt lat="45.84015" lon="4.71962">
        <ele>326.66788</ele>
        <time>2023-04-10T15:12:13.000Z</time>
      </trkpt>
      <trkpt lat="45.84015" lon="4.71957">
        <ele>327.95892</ele>
        <time>2023-04-10T15:12:14.000Z</time>
      </trkpt>
      <trkpt lat="45.84015" lon="4.71951">
        <ele>329.34055</ele>
        <time>2023-04-10T15:12:15.000Z</time>
      </trkpt>
      <trkpt lat="45.84014" lon="4.71945">
        <ele>330.3331</ele>
        <time>2023-04-10T15:12:16.000Z</time>
      </trkpt>
      <trkpt lat="45.84013" lon="4.71939">
        <ele>331.36902</ele>
        <time>2023-04-10T15:12:17.000Z</time>
      </trkpt>
      <trkpt lat="45.84013" lon="4.71934">
        <ele>332.42703</ele>
        <time>2023-04-10T15:12:18.000Z</time>
      </trkpt>
      <trkpt lat="45.84013" lon="4.71929">
        <ele>333.49738</ele>
        <time>2023-04-10T15:12:19.000Z</time>
      </trkpt>
      <trkpt lat="45.84012" lon="4.71924">
        <ele>333.64117</ele>
        <time>2023-04-10T15:12:20.000Z</time>
      </trkpt>
      <trkpt lat="45.84012" lon="4.71919">
        <ele>333.7836</ele>
        <time>2023-04-10T15:12:21.000Z</time>
      </trkpt>
      <trkpt lat="45.84012" lon="4.71914">
        <ele>333.92099</ele>
        <time>2023-04-10T15:12:22.000Z</time>
      </trkpt>
      <trkpt lat="45.84012" lon="4.71909">
        <ele>334.08603</ele>
        <time>2023-04-10T15:12:23.000Z</time>
      </trkpt>
      <trkpt lat="45.84012" lon="4.71903">
        <ele>334.23618</ele>
        <time>2023-04-10T15:12:24.000Z</time>
      </trkpt>
      <trkpt lat="45.84011" lon="4.71898">
        <ele>334.43515</ele>
        <time>2023-04-10T15:12:25.000Z</time>
      </trkpt>
      <trkpt lat="45.84011" lon="4.71893">
        <ele>334.32504</ele>
        <time>2023-04-10T15:12:26.000Z</time>
      </trkpt>
      <trkpt lat="45.8401" lon="4.71887">
        <ele>334.17505</ele>
        <time>2023-04-10T15:12:27.000Z</time>
      </trkpt>
      <trkpt lat="45.84009" lon="4.71883">
        <ele>333.99509</ele>
        <time>2023-04-10T15:12:28.000Z</time>
      </trkpt>
      <trkpt lat="45.84007" lon="4.71878">
        <ele>333.85864</ele>
        <time>2023-04-10T15:12:29.000Z</time>
      </trkpt>
      <trkpt lat="45.84004" lon="4.71874">
        <ele>333.78702</ele>
        <time>2023-04-10T15:12:30.000Z</time>
      </trkpt>
      <trkpt lat="45.84001" lon="4.7187">
        <ele>333.7254</ele>
        <time>2023-04-10T15:12:31.000Z</time>
      </trkpt>
      <trkpt lat="45.83998" lon="4.71866">
        <ele>333.71463</ele>
        <time>2023-04-10T15:12:32.000Z</time>
      </trkpt>
      <trkpt lat="45.83995" lon="4.71862">
        <ele>333.67291</ele>
        <time>2023-04-10T15:12:33.000Z</time>
      </trkpt>
      <trkpt lat="45.83992" lon="4.71857">
        <ele>333.6073</ele>
        <time>2023-04-10T15:12:34.000Z</time>
      </trkpt>
      <trkpt lat="45.83988" lon="4.71853">
        <ele>333.41556</ele>
        <time>2023-04-10T15:12:35.000Z</time>
      </trkpt>
      <trkpt lat="45.83984" lon="4.71847">
        <ele>333.76959</ele>
        <time>2023-04-10T15:12:36.000Z</time>
      </trkpt>
      <trkpt lat="45.83981" lon="4.71843">
        <ele>334.0401</ele>
        <time>2023-04-10T15:12:37.000Z</time>
      </trkpt>
      <trkpt lat="45.83977" lon="4.71838">
        <ele>334.27863</ele>
        <time>2023-04-10T15:12:38.000Z</time>
      </trkpt>
      <trkpt lat="45.83974" lon="4.71833">
        <ele>334.47015</ele>
        <time>2023-04-10T15:12:39.000Z</time>
      </trkpt>
      <trkpt lat="45.8397" lon="4.71828">
        <ele>334.67194</ele>
        <time>2023-04-10T15:12:40.000Z</time>
      </trkpt>
      <trkpt lat="45.83967" lon="4.71825">
        <ele>334.89532</ele>
        <time>2023-04-10T15:12:41.000Z</time>
      </trkpt>
      <trkpt lat="45.83963" lon="4.71819">
        <ele>335.10083</ele>
        <time>2023-04-10T15:12:42.000Z</time>
      </trkpt>
      <trkpt lat="45.8396" lon="4.71814">
        <ele>335.29694</ele>
        <time>2023-04-10T15:12:43.000Z</time>
      </trkpt>
      <trkpt lat="45.83957" lon="4.71807">
        <ele>335.48853</ele>
        <time>2023-04-10T15:12:44.000Z</time>
      </trkpt>
      <trkpt lat="45.83955" lon="4.718">
        <ele>335.68347</ele>
        <time>2023-04-10T15:12:45.000Z</time>
      </trkpt>
      <trkpt lat="45.83954" lon="4.71792">
        <ele>335.90042</ele>
        <time>2023-04-10T15:12:46.000Z</time>
      </trkpt>
      <trkpt lat="45.83952" lon="4.71783">
        <ele>336.10944</ele>
        <time>2023-04-10T15:12:47.000Z</time>
      </trkpt>
      <trkpt lat="45.83949" lon="4.71776">
        <ele>336.32104</ele>
        <time>2023-04-10T15:12:48.000Z</time>
      </trkpt>
      <trkpt lat="45.83947" lon="4.7177">
        <ele>336.47855</ele>
        <time>2023-04-10T15:12:49.000Z</time>
      </trkpt>
      <trkpt lat="45.83944" lon="4.71764">
        <ele>336.57513</ele>
        <time>2023-04-10T15:12:50.000Z</time>
      </trkpt>
      <trkpt lat="45.83939" lon="4.71759">
        <ele>336.68747</ele>
        <time>2023-04-10T15:12:51.000Z</time>
      </trkpt>
      <trkpt lat="45.83934" lon="4.71756">
        <ele>336.76648</ele>
        <time>2023-04-10T15:12:52.000Z</time>
      </trkpt>
      <trkpt lat="45.83928" lon="4.71752">
        <ele>337.02777</ele>
        <time>2023-04-10T15:12:53.000Z</time>
      </trkpt>
      <trkpt lat="45.83923" lon="4.7175">
        <ele>337.18539</ele>
        <time>2023-04-10T15:12:54.000Z</time>
      </trkpt>
      <trkpt lat="45.83919" lon="4.71748">
        <ele>337.39691</ele>
        <time>2023-04-10T15:12:55.000Z</time>
      </trkpt>
      <trkpt lat="45.83914" lon="4.71747">
        <ele>337.10614</ele>
        <time>2023-04-10T15:12:56.000Z</time>
      </trkpt>
      <trkpt lat="45.83909" lon="4.71745">
        <ele>336.8988</ele>
        <time>2023-04-10T15:12:57.000Z</time>
      </trkpt>
      <trkpt lat="45.83904" lon="4.71742">
        <ele>336.66837</ele>
        <time>2023-04-10T15:12:58.000Z</time>
      </trkpt>
      <trkpt lat="45.83898" lon="4.71738">
        <ele>336.43387</ele>
        <time>2023-04-10T15:12:59.000Z</time>
      </trkpt>
      <trkpt lat="45.83891" lon="4.71736">
        <ele>336.16159</ele>
        <time>2023-04-10T15:13:00.000Z</time>
      </trkpt>
      <trkpt lat="45.83885" lon="4.71734">
        <ele>335.80746</ele>
        <time>2023-04-10T15:13:01.000Z</time>
      </trkpt>
      <trkpt lat="45.83879" lon="4.71731">
        <ele>335.40833</ele>
        <time>2023-04-10T15:13:02.000Z</time>
      </trkpt>
      <trkpt lat="45.83873" lon="4.71728">
        <ele>335.0094</ele>
        <time>2023-04-10T15:13:03.000Z</time>
      </trkpt>
      <trkpt lat="45.83866" lon="4.71726">
        <ele>334.60062</ele>
        <time>2023-04-10T15:13:04.000Z</time>
      </trkpt>
      <trkpt lat="45.83859" lon="4.71725">
        <ele>334.17749</ele>
        <time>2023-04-10T15:13:05.000Z</time>
      </trkpt>
      <trkpt lat="45.83853" lon="4.71725">
        <ele>333.8761</ele>
        <time>2023-04-10T15:13:06.000Z</time>
      </trkpt>
      <trkpt lat="45.83846" lon="4.71723">
        <ele>333.53485</ele>
        <time>2023-04-10T15:13:07.000Z</time>
      </trkpt>
      <trkpt lat="45.8384" lon="4.71721">
        <ele>333.31064</ele>
        <time>2023-04-10T15:13:08.000Z</time>
      </trkpt>
      <trkpt lat="45.83834" lon="4.7172">
        <ele>333.13364</ele>
        <time>2023-04-10T15:13:09.000Z</time>
      </trkpt>
      <trkpt lat="45.83828" lon="4.71719">
        <ele>333.01996</ele>
        <time>2023-04-10T15:13:10.000Z</time>
      </trkpt>
      <trkpt lat="45.83825" lon="4.71717">
        <ele>332.95139</ele>
        <time>2023-04-10T15:13:11.000Z</time>
      </trkpt>
      <trkpt lat="45.83823" lon="4.71715">
        <ele>332.96133</ele>
        <time>2023-04-10T15:13:14.000Z</time>
      </trkpt>
      <trkpt lat="45.83821" lon="4.71714">
        <ele>331.65698</ele>
        <time>2023-04-10T15:13:38.000Z</time>
      </trkpt>
      <trkpt lat="45.83819" lon="4.71715">
        <ele>330.45654</ele>
        <time>2023-04-10T15:13:39.000Z</time>
      </trkpt>
      <trkpt lat="45.83816" lon="4.71714">
        <ele>330.40927</ele>
        <time>2023-04-10T15:13:41.000Z</time>
      </trkpt>
      <trkpt lat="45.83812" lon="4.71713">
        <ele>330.7218</ele>
        <time>2023-04-10T15:13:42.000Z</time>
      </trkpt>
      <trkpt lat="45.8381" lon="4.71712">
        <ele>331.12073</ele>
        <time>2023-04-10T15:13:43.000Z</time>
      </trkpt>
      <trkpt lat="45.83808" lon="4.71712">
        <ele>331.64404</ele>
        <time>2023-04-10T15:13:44.000Z</time>
      </trkpt>
      <trkpt lat="45.83804" lon="4.71711">
        <ele>331.96729</ele>
        <time>2023-04-10T15:13:45.000Z</time>
      </trkpt>
      <trkpt lat="45.83801" lon="4.7171">
        <ele>332.27042</ele>
        <time>2023-04-10T15:13:46.000Z</time>
      </trkpt>
      <trkpt lat="45.83798" lon="4.71708">
        <ele>332.5419</ele>
        <time>2023-04-10T15:13:47.000Z</time>
      </trkpt>
      <trkpt lat="45.83796" lon="4.71707">
        <ele>332.85992</ele>
        <time>2023-04-10T15:13:48.000Z</time>
      </trkpt>
      <trkpt lat="45.83794" lon="4.71706">
        <ele>333.16016</ele>
        <time>2023-04-10T15:13:49.000Z</time>
      </trkpt>
      <trkpt lat="45.83791" lon="4.71705">
        <ele>333.44589</ele>
        <time>2023-04-10T15:13:50.000Z</time>
      </trkpt>
      <trkpt lat="45.83789" lon="4.71705">
        <ele>334.0004</ele>
        <time>2023-04-10T15:13:51.000Z</time>
      </trkpt>
      <trkpt lat="45.83786" lon="4.71704">
        <ele>334.52341</ele>
        <time>2023-04-10T15:13:52.000Z</time>
      </trkpt>
      <trkpt lat="45.83784" lon="4.71704">
        <ele>335.10526</ele>
        <time>2023-04-10T15:13:53.000Z</time>
      </trkpt>
      <trkpt lat="45.8378" lon="4.71703">
        <ele>335.52127</ele>
        <time>2023-04-10T15:13:54.000Z</time>
      </trkpt>
      <trkpt lat="45.83777" lon="4.71703">
        <ele>335.96753</ele>
        <time>2023-04-10T15:13:55.000Z</time>
      </trkpt>
      <trkpt lat="45.83774" lon="4.71703">
        <ele>336.58984</ele>
        <time>2023-04-10T15:13:56.000Z</time>
      </trkpt>
      <trkpt lat="45.8377" lon="4.71703">
        <ele>337.18826</ele>
        <time>2023-04-10T15:13:57.000Z</time>
      </trkpt>
      <trkpt lat="45.83766" lon="4.71702">
        <ele>337.70654</ele>
        <time>2023-04-10T15:13:58.000Z</time>
      </trkpt>
      <trkpt lat="45.83759" lon="4.71701">
        <ele>339.22235</ele>
        <time>2023-04-10T15:13:59.000Z</time>
      </trkpt>
      <trkpt lat="45.83753" lon="4.71701">
        <ele>340.59985</ele>
        <time>2023-04-10T15:14:00.000Z</time>
      </trkpt>
      <trkpt lat="45.83747" lon="4.717">
        <ele>340.85513</ele>
        <time>2023-04-10T15:14:01.000Z</time>
      </trkpt>
      <trkpt lat="45.83741" lon="4.71699">
        <ele>341.11581</ele>
        <time>2023-04-10T15:14:02.000Z</time>
      </trkpt>
      <trkpt lat="45.83736" lon="4.717">
        <ele>341.23132</ele>
        <time>2023-04-10T15:14:03.000Z</time>
      </trkpt>
      <trkpt lat="45.8373" lon="4.71702">
        <ele>341.24698</ele>
        <time>2023-04-10T15:14:04.000Z</time>
      </trkpt>
      <trkpt lat="45.83723" lon="4.71705">
        <ele>341.50909</ele>
        <time>2023-04-10T15:14:05.000Z</time>
      </trkpt>
      <trkpt lat="45.8372" lon="4.7171">
        <ele>341.8233</ele>
        <time>2023-04-10T15:14:06.000Z</time>
      </trkpt>
      <trkpt lat="45.83717" lon="4.71713">
        <ele>342.23749</ele>
        <time>2023-04-10T15:14:07.000Z</time>
      </trkpt>
      <trkpt lat="45.83713" lon="4.71715">
        <ele>342.77719</ele>
        <time>2023-04-10T15:14:08.000Z</time>
      </trkpt>
      <trkpt lat="45.83709" lon="4.7172">
        <ele>343.31839</ele>
        <time>2023-04-10T15:14:09.000Z</time>
      </trkpt>
      <trkpt lat="45.83705" lon="4.71724">
        <ele>344.04956</ele>
        <time>2023-04-10T15:14:10.000Z</time>
      </trkpt>
      <trkpt lat="45.83702" lon="4.71728">
        <ele>344.41208</ele>
        <time>2023-04-10T15:14:11.000Z</time>
      </trkpt>
      <trkpt lat="45.83698" lon="4.71733">
        <ele>344.75946</ele>
        <time>2023-04-10T15:14:12.000Z</time>
      </trkpt>
      <trkpt lat="45.83695" lon="4.71736">
        <ele>345.10895</ele>
        <time>2023-04-10T15:14:13.000Z</time>
      </trkpt>
      <trkpt lat="45.83694" lon="4.71741">
        <ele>345.52023</ele>
        <time>2023-04-10T15:14:14.000Z</time>
      </trkpt>
      <trkpt lat="45.8369" lon="4.71744">
        <ele>345.99863</ele>
        <time>2023-04-10T15:14:15.000Z</time>
      </trkpt>
      <trkpt lat="45.83689" lon="4.7175">
        <ele>346.27359</ele>
        <time>2023-04-10T15:14:16.000Z</time>
      </trkpt>
      <trkpt lat="45.83686" lon="4.71754">
        <ele>346.46637</ele>
        <time>2023-04-10T15:14:17.000Z</time>
      </trkpt>
      <trkpt lat="45.83682" lon="4.71756">
        <ele>346.97299</ele>
        <time>2023-04-10T15:14:18.000Z</time>
      </trkpt>
      <trkpt lat="45.83679" lon="4.71758">
        <ele>347.87332</ele>
        <time>2023-04-10T15:14:19.000Z</time>
      </trkpt>
      <trkpt lat="45.83675" lon="4.7176">
        <ele>348.11237</ele>
        <time>2023-04-10T15:14:20.000Z</time>
      </trkpt>
      <trkpt lat="45.83672" lon="4.71763">
        <ele>348.49338</ele>
        <time>2023-04-10T15:14:21.000Z</time>
      </trkpt>
      <trkpt lat="45.8367" lon="4.71766">
        <ele>348.73523</ele>
        <time>2023-04-10T15:14:22.000Z</time>
      </trkpt>
      <trkpt lat="45.83668" lon="4.71769">
        <ele>349.01614</ele>
        <time>2023-04-10T15:14:23.000Z</time>
      </trkpt>
      <trkpt lat="45.83665" lon="4.71771">
        <ele>349.26514</ele>
        <time>2023-04-10T15:14:24.000Z</time>
      </trkpt>
      <trkpt lat="45.83663" lon="4.71775">
        <ele>349.4985</ele>
        <time>2023-04-10T15:14:25.000Z</time>
      </trkpt>
      <trkpt lat="45.83661" lon="4.71778">
        <ele>349.70227</ele>
        <time>2023-04-10T15:14:26.000Z</time>
      </trkpt>
      <trkpt lat="45.83659" lon="4.71782">
        <ele>350.04865</ele>
        <time>2023-04-10T15:14:27.000Z</time>
      </trkpt>
      <trkpt lat="45.83657" lon="4.71786">
        <ele>350.45816</ele>
        <time>2023-04-10T15:14:28.000Z</time>
      </trkpt>
      <trkpt lat="45.83655" lon="4.71789">
        <ele>350.80762</ele>
        <time>2023-04-10T15:14:29.000Z</time>
      </trkpt>
      <trkpt lat="45.83652" lon="4.71791">
        <ele>350.93597</ele>
        <time>2023-04-10T15:14:30.000Z</time>
      </trkpt>
      <trkpt lat="45.8365" lon="4.71792">
        <ele>351.54755</ele>
        <time>2023-04-10T15:14:31.000Z</time>
      </trkpt>
      <trkpt lat="45.83647" lon="4.71791">
        <ele>351.99155</ele>
        <time>2023-04-10T15:14:32.000Z</time>
      </trkpt>
      <trkpt lat="45.83645" lon="4.71791">
        <ele>352.45844</ele>
        <time>2023-04-10T15:14:33.000Z</time>
      </trkpt>
      <trkpt lat="45.83642" lon="4.7179">
        <ele>352.8103</ele>
        <time>2023-04-10T15:14:34.000Z</time>
      </trkpt>
      <trkpt lat="45.83639" lon="4.7179">
        <ele>353.05975</ele>
        <time>2023-04-10T15:14:35.000Z</time>
      </trkpt>
      <trkpt lat="45.83635" lon="4.7179">
        <ele>353.15762</ele>
        <time>2023-04-10T15:14:36.000Z</time>
      </trkpt>
      <trkpt lat="45.83633" lon="4.71791">
        <ele>353.19095</ele>
        <time>2023-04-10T15:14:37.000Z</time>
      </trkpt>
      <trkpt lat="45.8363" lon="4.71792">
        <ele>352.79489</ele>
        <time>2023-04-10T15:14:38.000Z</time>
      </trkpt>
      <trkpt lat="45.83626" lon="4.71792">
        <ele>352.10614</ele>
        <time>2023-04-10T15:14:39.000Z</time>
      </trkpt>
      <trkpt lat="45.83623" lon="4.71792">
        <ele>352.1817</ele>
        <time>2023-04-10T15:14:40.000Z</time>
      </trkpt>
      <trkpt lat="45.8362" lon="4.71791">
        <ele>352.22028</ele>
        <time>2023-04-10T15:14:41.000Z</time>
      </trkpt>
      <trkpt lat="45.83617" lon="4.7179">
        <ele>352.59195</ele>
        <time>2023-04-10T15:14:42.000Z</time>
      </trkpt>
      <trkpt lat="45.83613" lon="4.7179">
        <ele>352.30612</ele>
        <time>2023-04-10T15:14:43.000Z</time>
      </trkpt>
      <trkpt lat="45.8361" lon="4.71789">
        <ele>352.26819</ele>
        <time>2023-04-10T15:14:44.000Z</time>
      </trkpt>
      <trkpt lat="45.83608" lon="4.71789">
        <ele>352.06308</ele>
        <time>2023-04-10T15:14:45.000Z</time>
      </trkpt>
      <trkpt lat="45.83606" lon="4.71788">
        <ele>351.90845</ele>
        <time>2023-04-10T15:14:46.000Z</time>
      </trkpt>
      <trkpt lat="45.83603" lon="4.71786">
        <ele>351.59265</ele>
        <time>2023-04-10T15:14:48.000Z</time>
      </trkpt>
      <trkpt lat="45.83602" lon="4.71783">
        <ele>351.43451</ele>
        <time>2023-04-10T15:14:49.000Z</time>
      </trkpt>
      <trkpt lat="45.836" lon="4.7178">
        <ele>351.73578</ele>
        <time>2023-04-10T15:14:50.000Z</time>
      </trkpt>
      <trkpt lat="45.83598" lon="4.71776">
        <ele>351.97107</ele>
        <time>2023-04-10T15:14:51.000Z</time>
      </trkpt>
      <trkpt lat="45.83595" lon="4.71773">
        <ele>351.04651</ele>
        <time>2023-04-10T15:14:52.000Z</time>
      </trkpt>
      <trkpt lat="45.83593" lon="4.71769">
        <ele>350.29434</ele>
        <time>2023-04-10T15:14:53.000Z</time>
      </trkpt>
      <trkpt lat="45.83591" lon="4.71766">
        <ele>349.53217</ele>
        <time>2023-04-10T15:14:54.000Z</time>
      </trkpt>
      <trkpt lat="45.8359" lon="4.71764">
        <ele>349.09238</ele>
        <time>2023-04-10T15:14:55.000Z</time>
      </trkpt>
      <trkpt lat="45.83588" lon="4.71762">
        <ele>348.60583</ele>
        <time>2023-04-10T15:14:56.000Z</time>
      </trkpt>
      <trkpt lat="45.83586" lon="4.71759">
        <ele>348.53906</ele>
        <time>2023-04-10T15:14:57.000Z</time>
      </trkpt>
      <trkpt lat="45.83583" lon="4.71755">
        <ele>348.46326</ele>
        <time>2023-04-10T15:14:58.000Z</time>
      </trkpt>
      <trkpt lat="45.83581" lon="4.71752">
        <ele>348.49286</ele>
        <time>2023-04-10T15:14:59.000Z</time>
      </trkpt>
      <trkpt lat="45.83578" lon="4.71748">
        <ele>348.85318</ele>
        <time>2023-04-10T15:15:00.000Z</time>
      </trkpt>
      <trkpt lat="45.83576" lon="4.71744">
        <ele>349.38641</ele>
        <time>2023-04-10T15:15:01.000Z</time>
      </trkpt>
      <trkpt lat="45.83573" lon="4.71741">
        <ele>349.06079</ele>
        <time>2023-04-10T15:15:02.000Z</time>
      </trkpt>
      <trkpt lat="45.83571" lon="4.71738">
        <ele>348.59271</ele>
        <time>2023-04-10T15:15:03.000Z</time>
      </trkpt>
      <trkpt lat="45.83569" lon="4.71736">
        <ele>348.73761</ele>
        <time>2023-04-10T15:15:04.000Z</time>
      </trkpt>
      <trkpt lat="45.83567" lon="4.71733">
        <ele>348.54886</ele>
        <time>2023-04-10T15:15:05.000Z</time>
      </trkpt>
      <trkpt lat="45.83564" lon="4.71732">
        <ele>348.43668</ele>
        <time>2023-04-10T15:15:06.000Z</time>
      </trkpt>
      <trkpt lat="45.83561" lon="4.7173">
        <ele>348.40613</ele>
        <time>2023-04-10T15:15:07.000Z</time>
      </trkpt>
      <trkpt lat="45.83558" lon="4.71729">
        <ele>348.74667</ele>
        <time>2023-04-10T15:15:08.000Z</time>
      </trkpt>
      <trkpt lat="45.83554" lon="4.71728">
        <ele>348.68698</ele>
        <time>2023-04-10T15:15:09.000Z</time>
      </trkpt>
      <trkpt lat="45.83551" lon="4.71726">
        <ele>347.61584</ele>
        <time>2023-04-10T15:15:10.000Z</time>
      </trkpt>
      <trkpt lat="45.83548" lon="4.71724">
        <ele>346.91599</ele>
        <time>2023-04-10T15:15:11.000Z</time>
      </trkpt>
      <trkpt lat="45.83545" lon="4.71724">
        <ele>346.97461</ele>
        <time>2023-04-10T15:15:12.000Z</time>
      </trkpt>
      <trkpt lat="45.83542" lon="4.71724">
        <ele>346.86813</ele>
        <time>2023-04-10T15:15:13.000Z</time>
      </trkpt>
      <trkpt lat="45.83539" lon="4.71724">
        <ele>346.66544</ele>
        <time>2023-04-10T15:15:14.000Z</time>
      </trkpt>
      <trkpt lat="45.83536" lon="4.71724">
        <ele>346.34247</ele>
        <time>2023-04-10T15:15:15.000Z</time>
      </trkpt>
      <trkpt lat="45.83533" lon="4.71724">
        <ele>346.03241</ele>
        <time>2023-04-10T15:15:16.000Z</time>
      </trkpt>
      <trkpt lat="45.8353" lon="4.71724">
        <ele>345.49115</ele>
        <time>2023-04-10T15:15:17.000Z</time>
      </trkpt>
      <trkpt lat="45.83527" lon="4.71724">
        <ele>345.4903</ele>
        <time>2023-04-10T15:15:18.000Z</time>
      </trkpt>
      <trkpt lat="45.83523" lon="4.71724">
        <ele>345.58109</ele>
        <time>2023-04-10T15:15:19.000Z</time>
      </trkpt>
      <trkpt lat="45.83519" lon="4.71725">
        <ele>345.62518</ele>
        <time>2023-04-10T15:15:20.000Z</time>
      </trkpt>
      <trkpt lat="45.83516" lon="4.71725">
        <ele>345.5903</ele>
        <time>2023-04-10T15:15:21.000Z</time>
      </trkpt>
      <trkpt lat="45.83509" lon="4.71725">
        <ele>345.48846</ele>
        <time>2023-04-10T15:15:22.000Z</time>
      </trkpt>
      <trkpt lat="45.83504" lon="4.71725">
        <ele>345.40173</ele>
        <time>2023-04-10T15:15:23.000Z</time>
      </trkpt>
      <trkpt lat="45.83499" lon="4.71726">
        <ele>345.23334</ele>
        <time>2023-04-10T15:15:24.000Z</time>
      </trkpt>
      <trkpt lat="45.83494" lon="4.71727">
        <ele>345.20474</ele>
        <time>2023-04-10T15:15:25.000Z</time>
      </trkpt>
      <trkpt lat="45.83491" lon="4.71728">
        <ele>345.68658</ele>
        <time>2023-04-10T15:15:26.000Z</time>
      </trkpt>
      <trkpt lat="45.83489" lon="4.71728">
        <ele>346.04242</ele>
        <time>2023-04-10T15:15:27.000Z</time>
      </trkpt>
      <trkpt lat="45.83487" lon="4.71728">
        <ele>345.94913</ele>
        <time>2023-04-10T15:15:28.000Z</time>
      </trkpt>
      <trkpt lat="45.83485" lon="4.71729">
        <ele>345.98212</ele>
        <time>2023-04-10T15:15:29.000Z</time>
      </trkpt>
      <trkpt lat="45.83483" lon="4.71728">
        <ele>347.0874</ele>
        <time>2023-04-10T15:15:30.000Z</time>
      </trkpt>
      <trkpt lat="45.83481" lon="4.71729">
        <ele>347.97968</ele>
        <time>2023-04-10T15:15:31.000Z</time>
      </trkpt>
      <trkpt lat="45.83479" lon="4.71729">
        <ele>348.03241</ele>
        <time>2023-04-10T15:15:32.000Z</time>
      </trkpt>
      <trkpt lat="45.83476" lon="4.7173">
        <ele>348.46036</ele>
        <time>2023-04-10T15:15:34.000Z</time>
      </trkpt>
      <trkpt lat="45.83474" lon="4.71733">
        <ele>349.02185</ele>
        <time>2023-04-10T15:15:35.000Z</time>
      </trkpt>
      <trkpt lat="45.83472" lon="4.71736">
        <ele>349.56796</ele>
        <time>2023-04-10T15:15:36.000Z</time>
      </trkpt>
      <trkpt lat="45.83471" lon="4.71739">
        <ele>350.02444</ele>
        <time>2023-04-10T15:15:37.000Z</time>
      </trkpt>
      <trkpt lat="45.83469" lon="4.71741">
        <ele>350.52905</ele>
        <time>2023-04-10T15:15:38.000Z</time>
      </trkpt>
      <trkpt lat="45.83467" lon="4.71742">
        <ele>350.64297</ele>
        <time>2023-04-10T15:15:39.000Z</time>
      </trkpt>
      <trkpt lat="45.83465" lon="4.71742">
        <ele>350.3833</ele>
        <time>2023-04-10T15:15:40.000Z</time>
      </trkpt>
      <trkpt lat="45.83461" lon="4.71742">
        <ele>349.93179</ele>
        <time>2023-04-10T15:15:41.000Z</time>
      </trkpt>
      <trkpt lat="45.83458" lon="4.71743">
        <ele>349.50568</ele>
        <time>2023-04-10T15:15:42.000Z</time>
      </trkpt>
      <trkpt lat="45.83455" lon="4.71743">
        <ele>349.82401</ele>
        <time>2023-04-10T15:15:43.000Z</time>
      </trkpt>
      <trkpt lat="45.83452" lon="4.71745">
        <ele>350.09952</ele>
        <time>2023-04-10T15:15:44.000Z</time>
      </trkpt>
      <trkpt lat="45.83449" lon="4.71746">
        <ele>350.85583</ele>
        <time>2023-04-10T15:15:45.000Z</time>
      </trkpt>
      <trkpt lat="45.83446" lon="4.71747">
        <ele>351.51593</ele>
        <time>2023-04-10T15:15:46.000Z</time>
      </trkpt>
      <trkpt lat="45.83444" lon="4.71748">
        <ele>352.06265</ele>
        <time>2023-04-10T15:15:47.000Z</time>
      </trkpt>
      <trkpt lat="45.83442" lon="4.71748">
        <ele>352.73856</ele>
        <time>2023-04-10T15:15:48.000Z</time>
      </trkpt>
      <trkpt lat="45.8344" lon="4.71749">
        <ele>353.39279</ele>
        <time>2023-04-10T15:15:49.000Z</time>
      </trkpt>
      <trkpt lat="45.83437" lon="4.71751">
        <ele>353.14029</ele>
        <time>2023-04-10T15:15:50.000Z</time>
      </trkpt>
      <trkpt lat="45.83436" lon="4.71755">
        <ele>352.3584</ele>
        <time>2023-04-10T15:15:51.000Z</time>
      </trkpt>
      <trkpt lat="45.83436" lon="4.7176">
        <ele>351.42023</ele>
        <time>2023-04-10T15:15:52.000Z</time>
      </trkpt>
      <trkpt lat="45.83437" lon="4.71763">
        <ele>351.32974</ele>
        <time>2023-04-10T15:15:53.000Z</time>
      </trkpt>
      <trkpt lat="45.83438" lon="4.71768">
        <ele>350.89166</ele>
        <time>2023-04-10T15:15:54.000Z</time>
      </trkpt>
      <trkpt lat="45.8344" lon="4.71773">
        <ele>350.20572</ele>
        <time>2023-04-10T15:15:55.000Z</time>
      </trkpt>
      <trkpt lat="45.83442" lon="4.71778">
        <ele>349.41107</ele>
        <time>2023-04-10T15:15:56.000Z</time>
      </trkpt>
      <trkpt lat="45.83443" lon="4.71783">
        <ele>348.86673</ele>
        <time>2023-04-10T15:15:57.000Z</time>
      </trkpt>
      <trkpt lat="45.83445" lon="4.71788">
        <ele>348.20404</ele>
        <time>2023-04-10T15:15:58.000Z</time>
      </trkpt>
      <trkpt lat="45.83447" lon="4.71793">
        <ele>347.3316</ele>
        <time>2023-04-10T15:15:59.000Z</time>
      </trkpt>
      <trkpt lat="45.83448" lon="4.71797">
        <ele>346.72421</ele>
        <time>2023-04-10T15:16:00.000Z</time>
      </trkpt>
      <trkpt lat="45.8345" lon="4.71802">
        <ele>346.38165</ele>
        <time>2023-04-10T15:16:01.000Z</time>
      </trkpt>
      <trkpt lat="45.83452" lon="4.71806">
        <ele>346.18573</ele>
        <time>2023-04-10T15:16:02.000Z</time>
      </trkpt>
      <trkpt lat="45.83453" lon="4.71811">
        <ele>345.39441</ele>
        <time>2023-04-10T15:16:03.000Z</time>
      </trkpt>
      <trkpt lat="45.83455" lon="4.71816">
        <ele>344.69147</ele>
        <time>2023-04-10T15:16:04.000Z</time>
      </trkpt>
      <trkpt lat="45.83456" lon="4.71821">
        <ele>343.58984</ele>
        <time>2023-04-10T15:16:05.000Z</time>
      </trkpt>
      <trkpt lat="45.83458" lon="4.71826">
        <ele>342.58322</ele>
        <time>2023-04-10T15:16:06.000Z</time>
      </trkpt>
      <trkpt lat="45.8346" lon="4.7183">
        <ele>341.74063</ele>
        <time>2023-04-10T15:16:07.000Z</time>
      </trkpt>
      <trkpt lat="45.83461" lon="4.71835">
        <ele>340.79922</ele>
        <time>2023-04-10T15:16:08.000Z</time>
      </trkpt>
      <trkpt lat="45.83463" lon="4.7184">
        <ele>340.13721</ele>
        <time>2023-04-10T15:16:09.000Z</time>
      </trkpt>
      <trkpt lat="45.83466" lon="4.71844">
        <ele>339.63913</ele>
        <time>2023-04-10T15:16:10.000Z</time>
      </trkpt>
      <trkpt lat="45.83468" lon="4.71848">
        <ele>339.28363</ele>
        <time>2023-04-10T15:16:11.000Z</time>
      </trkpt>
      <trkpt lat="45.8347" lon="4.71853">
        <ele>339.08798</ele>
        <time>2023-04-10T15:16:12.000Z</time>
      </trkpt>
      <trkpt lat="45.83472" lon="4.71857">
        <ele>338.86688</ele>
        <time>2023-04-10T15:16:13.000Z</time>
      </trkpt>
      <trkpt lat="45.83474" lon="4.71862">
        <ele>338.67584</ele>
        <time>2023-04-10T15:16:14.000Z</time>
      </trkpt>
      <trkpt lat="45.83476" lon="4.71867">
        <ele>338.65253</ele>
        <time>2023-04-10T15:16:15.000Z</time>
      </trkpt>
      <trkpt lat="45.83478" lon="4.71872">
        <ele>338.69843</ele>
        <time>2023-04-10T15:16:16.000Z</time>
      </trkpt>
      <trkpt lat="45.83478" lon="4.71877">
        <ele>338.57666</ele>
        <time>2023-04-10T15:16:17.000Z</time>
      </trkpt>
      <trkpt lat="45.83479" lon="4.71883">
        <ele>338.48871</ele>
        <time>2023-04-10T15:16:18.000Z</time>
      </trkpt>
      <trkpt lat="45.83479" lon="4.71888">
        <ele>338.63638</ele>
        <time>2023-04-10T15:16:19.000Z</time>
      </trkpt>
      <trkpt lat="45.83478" lon="4.71894">
        <ele>339.26459</ele>
        <time>2023-04-10T15:16:20.000Z</time>
      </trkpt>
      <trkpt lat="45.83477" lon="4.71899">
        <ele>339.69955</ele>
        <time>2023-04-10T15:16:21.000Z</time>
      </trkpt>
      <trkpt lat="45.83476" lon="4.71904">
        <ele>339.89996</ele>
        <time>2023-04-10T15:16:22.000Z</time>
      </trkpt>
      <trkpt lat="45.83474" lon="4.7191">
        <ele>340.76007</ele>
        <time>2023-04-10T15:16:23.000Z</time>
      </trkpt>
      <trkpt lat="45.83473" lon="4.71915">
        <ele>340.871</ele>
        <time>2023-04-10T15:16:24.000Z</time>
      </trkpt>
      <trkpt lat="45.83472" lon="4.7192">
        <ele>341.05917</ele>
        <time>2023-04-10T15:16:25.000Z</time>
      </trkpt>
      <trkpt lat="45.8347" lon="4.71924">
        <ele>341.23843</ele>
        <time>2023-04-10T15:16:26.000Z</time>
      </trkpt>
      <trkpt lat="45.83469" lon="4.71929">
        <ele>340.9968</ele>
        <time>2023-04-10T15:16:27.000Z</time>
      </trkpt>
      <trkpt lat="45.83467" lon="4.71934">
        <ele>340.72031</ele>
        <time>2023-04-10T15:16:28.000Z</time>
      </trkpt>
      <trkpt lat="45.83466" lon="4.71939">
        <ele>340.28546</ele>
        <time>2023-04-10T15:16:29.000Z</time>
      </trkpt>
      <trkpt lat="45.83465" lon="4.71944">
        <ele>340.53043</ele>
        <time>2023-04-10T15:16:30.000Z</time>
      </trkpt>
      <trkpt lat="45.83464" lon="4.71948">
        <ele>340.68924</ele>
        <time>2023-04-10T15:16:31.000Z</time>
      </trkpt>
      <trkpt lat="45.83462" lon="4.71953">
        <ele>340.79205</ele>
        <time>2023-04-10T15:16:32.000Z</time>
      </trkpt>
      <trkpt lat="45.83461" lon="4.71958">
        <ele>340.91522</ele>
        <time>2023-04-10T15:16:33.000Z</time>
      </trkpt>
      <trkpt lat="45.8346" lon="4.71963">
        <ele>341.07257</ele>
        <time>2023-04-10T15:16:34.000Z</time>
      </trkpt>
      <trkpt lat="45.83459" lon="4.71968">
        <ele>341.21219</ele>
        <time>2023-04-10T15:16:35.000Z</time>
      </trkpt>
      <trkpt lat="45.83458" lon="4.71973">
        <ele>341.36282</ele>
        <time>2023-04-10T15:16:36.000Z</time>
      </trkpt>
      <trkpt lat="45.83457" lon="4.71978">
        <ele>341.81219</ele>
        <time>2023-04-10T15:16:37.000Z</time>
      </trkpt>
      <trkpt lat="45.83455" lon="4.71983">
        <ele>342.25104</ele>
        <time>2023-04-10T15:16:38.000Z</time>
      </trkpt>
      <trkpt lat="45.83454" lon="4.71988">
        <ele>342.66367</ele>
        <time>2023-04-10T15:16:39.000Z</time>
      </trkpt>
      <trkpt lat="45.83452" lon="4.71992">
        <ele>342.61441</ele>
        <time>2023-04-10T15:16:40.000Z</time>
      </trkpt>
      <trkpt lat="45.8345" lon="4.71996">
        <ele>342.44849</ele>
        <time>2023-04-10T15:16:41.000Z</time>
      </trkpt>
      <trkpt lat="45.83448" lon="4.72">
        <ele>342.30103</ele>
        <time>2023-04-10T15:16:42.000Z</time>
      </trkpt>
      <trkpt lat="45.83447" lon="4.72004">
        <ele>342.11539</ele>
        <time>2023-04-10T15:16:43.000Z</time>
      </trkpt>
      <trkpt lat="45.83445" lon="4.72008">
        <ele>342.7583</ele>
        <time>2023-04-10T15:16:44.000Z</time>
      </trkpt>
      <trkpt lat="45.83444" lon="4.72013">
        <ele>342.75137</ele>
        <time>2023-04-10T15:16:45.000Z</time>
      </trkpt>
      <trkpt lat="45.83442" lon="4.72017">
        <ele>342.83691</ele>
        <time>2023-04-10T15:16:46.000Z</time>
      </trkpt>
      <trkpt lat="45.83441" lon="4.72021">
        <ele>342.86929</ele>
        <time>2023-04-10T15:16:47.000Z</time>
      </trkpt>
      <trkpt lat="45.8344" lon="4.72026">
        <ele>342.94098</ele>
        <time>2023-04-10T15:16:48.000Z</time>
      </trkpt>
      <trkpt lat="45.83439" lon="4.7203">
        <ele>343.00677</ele>
        <time>2023-04-10T15:16:49.000Z</time>
      </trkpt>
      <trkpt lat="45.83439" lon="4.72034">
        <ele>343.05914</ele>
        <time>2023-04-10T15:16:50.000Z</time>
      </trkpt>
      <trkpt lat="45.83438" lon="4.72037">
        <ele>343.13565</ele>
        <time>2023-04-10T15:16:51.000Z</time>
      </trkpt>
      <trkpt lat="45.83435" lon="4.72039">
        <ele>343.18219</ele>
        <time>2023-04-10T15:16:52.000Z</time>
      </trkpt>
      <trkpt lat="45.83432" lon="4.72038">
        <ele>343.61298</ele>
        <time>2023-04-10T15:16:53.000Z</time>
      </trkpt>
      <trkpt lat="45.83428" lon="4.72035">
        <ele>344.03979</ele>
        <time>2023-04-10T15:16:54.000Z</time>
      </trkpt>
      <trkpt lat="45.83423" lon="4.72029">
        <ele>344.57617</ele>
        <time>2023-04-10T15:16:55.000Z</time>
      </trkpt>
      <trkpt lat="45.83419" lon="4.72028">
        <ele>345.10016</ele>
        <time>2023-04-10T15:16:56.000Z</time>
      </trkpt>
      <trkpt lat="45.83414" lon="4.72026">
        <ele>344.73309</ele>
        <time>2023-04-10T15:16:57.000Z</time>
      </trkpt>
      <trkpt lat="45.8341" lon="4.72025">
        <ele>344.46854</ele>
        <time>2023-04-10T15:16:58.000Z</time>
      </trkpt>
      <trkpt lat="45.83404" lon="4.72024">
        <ele>344.17566</ele>
        <time>2023-04-10T15:16:59.000Z</time>
      </trkpt>
      <trkpt lat="45.83398" lon="4.72023">
        <ele>343.99625</ele>
        <time>2023-04-10T15:17:00.000Z</time>
      </trkpt>
      <trkpt lat="45.83394" lon="4.72019">
        <ele>344.17358</ele>
        <time>2023-04-10T15:17:01.000Z</time>
      </trkpt>
      <trkpt lat="45.83389" lon="4.72015">
        <ele>344.32727</ele>
        <time>2023-04-10T15:17:02.000Z</time>
      </trkpt>
      <trkpt lat="45.83385" lon="4.7201">
        <ele>344.05289</ele>
        <time>2023-04-10T15:17:03.000Z</time>
      </trkpt>
      <trkpt lat="45.83378" lon="4.72004">
        <ele>343.54974</ele>
        <time>2023-04-10T15:17:04.000Z</time>
      </trkpt>
      <trkpt lat="45.83373" lon="4.71999">
        <ele>343.53659</ele>
        <time>2023-04-10T15:17:05.000Z</time>
      </trkpt>
      <trkpt lat="45.83367" lon="4.71995">
        <ele>343.51434</ele>
        <time>2023-04-10T15:17:06.000Z</time>
      </trkpt>
      <trkpt lat="45.83361" lon="4.71991">
        <ele>343.5965</ele>
        <time>2023-04-10T15:17:07.000Z</time>
      </trkpt>
      <trkpt lat="45.83355" lon="4.71985">
        <ele>343.66721</ele>
        <time>2023-04-10T15:17:08.000Z</time>
      </trkpt>
      <trkpt lat="45.83349" lon="4.71978">
        <ele>343.59268</ele>
        <time>2023-04-10T15:17:09.000Z</time>
      </trkpt>
      <trkpt lat="45.83342" lon="4.71974">
        <ele>343.4169</ele>
        <time>2023-04-10T15:17:10.000Z</time>
      </trkpt>
      <trkpt lat="45.83336" lon="4.71968">
        <ele>343.26154</ele>
        <time>2023-04-10T15:17:11.000Z</time>
      </trkpt>
      <trkpt lat="45.8333" lon="4.71961">
        <ele>343.284</ele>
        <time>2023-04-10T15:17:12.000Z</time>
      </trkpt>
      <trkpt lat="45.83326" lon="4.71954">
        <ele>342.87506</ele>
        <time>2023-04-10T15:17:13.000Z</time>
      </trkpt>
      <trkpt lat="45.83323" lon="4.71947">
        <ele>342.42993</ele>
        <time>2023-04-10T15:17:14.000Z</time>
      </trkpt>
      <trkpt lat="45.83318" lon="4.71939">
        <ele>342.11591</ele>
        <time>2023-04-10T15:17:15.000Z</time>
      </trkpt>
      <trkpt lat="45.83315" lon="4.71932">
        <ele>341.88052</ele>
        <time>2023-04-10T15:17:16.000Z</time>
      </trkpt>
      <trkpt lat="45.83312" lon="4.71925">
        <ele>342.30685</ele>
        <time>2023-04-10T15:17:17.000Z</time>
      </trkpt>
      <trkpt lat="45.83308" lon="4.71919">
        <ele>342.74561</ele>
        <time>2023-04-10T15:17:18.000Z</time>
      </trkpt>
      <trkpt lat="45.83301" lon="4.71916">
        <ele>343.19159</ele>
        <time>2023-04-10T15:17:19.000Z</time>
      </trkpt>
      <trkpt lat="45.83296" lon="4.71913">
        <ele>343.62134</ele>
        <time>2023-04-10T15:17:20.000Z</time>
      </trkpt>
      <trkpt lat="45.83291" lon="4.71909">
        <ele>343.10211</ele>
        <time>2023-04-10T15:17:21.000Z</time>
      </trkpt>
      <trkpt lat="45.83286" lon="4.71904">
        <ele>342.7951</ele>
        <time>2023-04-10T15:17:22.000Z</time>
      </trkpt>
      <trkpt lat="45.83279" lon="4.71901">
        <ele>342.89081</ele>
        <time>2023-04-10T15:17:23.000Z</time>
      </trkpt>
      <trkpt lat="45.83274" lon="4.71896">
        <ele>342.89331</ele>
        <time>2023-04-10T15:17:24.000Z</time>
      </trkpt>
      <trkpt lat="45.83269" lon="4.71893">
        <ele>342.93619</ele>
        <time>2023-04-10T15:17:25.000Z</time>
      </trkpt>
      <trkpt lat="45.83264" lon="4.71889">
        <ele>342.97681</ele>
        <time>2023-04-10T15:17:26.000Z</time>
      </trkpt>
      <trkpt lat="45.8326" lon="4.71885">
        <ele>342.82748</ele>
        <time>2023-04-10T15:17:27.000Z</time>
      </trkpt>
      <trkpt lat="45.83256" lon="4.71881">
        <ele>342.64413</ele>
        <time>2023-04-10T15:17:28.000Z</time>
      </trkpt>
      <trkpt lat="45.83251" lon="4.71878">
        <ele>342.66385</ele>
        <time>2023-04-10T15:17:29.000Z</time>
      </trkpt>
      <trkpt lat="45.83246" lon="4.71874">
        <ele>342.84033</ele>
        <time>2023-04-10T15:17:30.000Z</time>
      </trkpt>
      <trkpt lat="45.83241" lon="4.7187">
        <ele>343.37238</ele>
        <time>2023-04-10T15:17:31.000Z</time>
      </trkpt>
      <trkpt lat="45.83235" lon="4.71868">
        <ele>343.76929</ele>
        <time>2023-04-10T15:17:32.000Z</time>
      </trkpt>
      <trkpt lat="45.83229" lon="4.71864">
        <ele>344.14667</ele>
        <time>2023-04-10T15:17:33.000Z</time>
      </trkpt>
      <trkpt lat="45.83223" lon="4.71861">
        <ele>344.63068</ele>
        <time>2023-04-10T15:17:34.000Z</time>
      </trkpt>
      <trkpt lat="45.83218" lon="4.71857">
        <ele>344.82626</ele>
        <time>2023-04-10T15:17:35.000Z</time>
      </trkpt>
      <trkpt lat="45.83214" lon="4.71854">
        <ele>345.0563</ele>
        <time>2023-04-10T15:17:36.000Z</time>
      </trkpt>
      <trkpt lat="45.83209" lon="4.71854">
        <ele>345.11929</ele>
        <time>2023-04-10T15:17:37.000Z</time>
      </trkpt>
      <trkpt lat="45.83204" lon="4.71852">
        <ele>345.39713</ele>
        <time>2023-04-10T15:17:38.000Z</time>
      </trkpt>
      <trkpt lat="45.832" lon="4.71851">
        <ele>345.79614</ele>
        <time>2023-04-10T15:17:39.000Z</time>
      </trkpt>
      <trkpt lat="45.83195" lon="4.7185">
        <ele>345.4704</ele>
        <time>2023-04-10T15:17:40.000Z</time>
      </trkpt>
      <trkpt lat="45.8319" lon="4.71849">
        <ele>345.88513</ele>
        <time>2023-04-10T15:17:41.000Z</time>
      </trkpt>
      <trkpt lat="45.83185" lon="4.71849">
        <ele>346.2233</ele>
        <time>2023-04-10T15:17:42.000Z</time>
      </trkpt>
      <trkpt lat="45.83181" lon="4.71849">
        <ele>346.65558</ele>
        <time>2023-04-10T15:17:43.000Z</time>
      </trkpt>
      <trkpt lat="45.83177" lon="4.71848">
        <ele>347.14484</ele>
        <time>2023-04-10T15:17:44.000Z</time>
      </trkpt>
      <trkpt lat="45.83172" lon="4.71849">
        <ele>347.77271</ele>
        <time>2023-04-10T15:17:45.000Z</time>
      </trkpt>
      <trkpt lat="45.83167" lon="4.7185">
        <ele>348.35342</ele>
        <time>2023-04-10T15:17:46.000Z</time>
      </trkpt>
      <trkpt lat="45.8316" lon="4.7185">
        <ele>348.99738</ele>
        <time>2023-04-10T15:17:47.000Z</time>
      </trkpt>
      <trkpt lat="45.83157" lon="4.7185">
        <ele>349.59369</ele>
        <time>2023-04-10T15:17:48.000Z</time>
      </trkpt>
      <trkpt lat="45.83154" lon="4.71849">
        <ele>350.02164</ele>
        <time>2023-04-10T15:17:49.000Z</time>
      </trkpt>
      <trkpt lat="45.83149" lon="4.7185">
        <ele>350.37125</ele>
        <time>2023-04-10T15:17:50.000Z</time>
      </trkpt>
      <trkpt lat="45.83146" lon="4.71851">
        <ele>350.29184</ele>
        <time>2023-04-10T15:17:51.000Z</time>
      </trkpt>
      <trkpt lat="45.83144" lon="4.71851">
        <ele>350.23792</ele>
        <time>2023-04-10T15:17:52.000Z</time>
      </trkpt>
      <trkpt lat="45.8314" lon="4.71851">
        <ele>350.32358</ele>
        <time>2023-04-10T15:17:53.000Z</time>
      </trkpt>
      <trkpt lat="45.83137" lon="4.71851">
        <ele>350.418</ele>
        <time>2023-04-10T15:17:54.000Z</time>
      </trkpt>
      <trkpt lat="45.83134" lon="4.7185">
        <ele>350.63007</ele>
        <time>2023-04-10T15:17:55.000Z</time>
      </trkpt>
      <trkpt lat="45.83131" lon="4.7185">
        <ele>350.70273</ele>
        <time>2023-04-10T15:17:56.000Z</time>
      </trkpt>
      <trkpt lat="45.83128" lon="4.71849">
        <ele>350.9386</ele>
        <time>2023-04-10T15:17:57.000Z</time>
      </trkpt>
      <trkpt lat="45.83125" lon="4.71848">
        <ele>350.70352</ele>
        <time>2023-04-10T15:17:58.000Z</time>
      </trkpt>
      <trkpt lat="45.83121" lon="4.71847">
        <ele>350.35587</ele>
        <time>2023-04-10T15:17:59.000Z</time>
      </trkpt>
      <trkpt lat="45.83118" lon="4.71846">
        <ele>350.69424</ele>
        <time>2023-04-10T15:18:00.000Z</time>
      </trkpt>
      <trkpt lat="45.83114" lon="4.71845">
        <ele>350.89639</ele>
        <time>2023-04-10T15:18:01.000Z</time>
      </trkpt>
      <trkpt lat="45.83111" lon="4.71844">
        <ele>350.99857</ele>
        <time>2023-04-10T15:18:02.000Z</time>
      </trkpt>
      <trkpt lat="45.83107" lon="4.71842">
        <ele>350.98846</ele>
        <time>2023-04-10T15:18:03.000Z</time>
      </trkpt>
      <trkpt lat="45.83104" lon="4.7184">
        <ele>351.45844</ele>
        <time>2023-04-10T15:18:04.000Z</time>
      </trkpt>
      <trkpt lat="45.831" lon="4.71837">
        <ele>350.8963</ele>
        <time>2023-04-10T15:18:05.000Z</time>
      </trkpt>
      <trkpt lat="45.83096" lon="4.71835">
        <ele>350.31958</ele>
        <time>2023-04-10T15:18:06.000Z</time>
      </trkpt>
      <trkpt lat="45.83092" lon="4.71833">
        <ele>349.73251</ele>
        <time>2023-04-10T15:18:07.000Z</time>
      </trkpt>
      <trkpt lat="45.83089" lon="4.7183">
        <ele>349.22955</ele>
        <time>2023-04-10T15:18:08.000Z</time>
      </trkpt>
      <trkpt lat="45.83085" lon="4.71827">
        <ele>348.79291</ele>
        <time>2023-04-10T15:18:09.000Z</time>
      </trkpt>
      <trkpt lat="45.83082" lon="4.71825">
        <ele>348.52814</ele>
        <time>2023-04-10T15:18:10.000Z</time>
      </trkpt>
      <trkpt lat="45.83078" lon="4.71822">
        <ele>348.39771</ele>
        <time>2023-04-10T15:18:11.000Z</time>
      </trkpt>
      <trkpt lat="45.83075" lon="4.71819">
        <ele>348.05325</ele>
        <time>2023-04-10T15:18:12.000Z</time>
      </trkpt>
      <trkpt lat="45.83071" lon="4.71816">
        <ele>347.6347</ele>
        <time>2023-04-10T15:18:13.000Z</time>
      </trkpt>
      <trkpt lat="45.83068" lon="4.71814">
        <ele>347.11679</ele>
        <time>2023-04-10T15:18:14.000Z</time>
      </trkpt>
      <trkpt lat="45.83064" lon="4.71812">
        <ele>346.54401</ele>
        <time>2023-04-10T15:18:15.000Z</time>
      </trkpt>
      <trkpt lat="45.83061" lon="4.7181">
        <ele>346.0004</ele>
        <time>2023-04-10T15:18:16.000Z</time>
      </trkpt>
      <trkpt lat="45.83057" lon="4.71808">
        <ele>345.17929</ele>
        <time>2023-04-10T15:18:17.000Z</time>
      </trkpt>
      <trkpt lat="45.83054" lon="4.71805">
        <ele>344.48425</ele>
        <time>2023-04-10T15:18:18.000Z</time>
      </trkpt>
      <trkpt lat="45.83051" lon="4.71803">
        <ele>343.78488</ele>
        <time>2023-04-10T15:18:19.000Z</time>
      </trkpt>
      <trkpt lat="45.83048" lon="4.718">
        <ele>343.02875</ele>
        <time>2023-04-10T15:18:20.000Z</time>
      </trkpt>
      <trkpt lat="45.83044" lon="4.71798">
        <ele>342.27023</ele>
        <time>2023-04-10T15:18:21.000Z</time>
      </trkpt>
      <trkpt lat="45.83041" lon="4.71796">
        <ele>341.45334</ele>
        <time>2023-04-10T15:18:22.000Z</time>
      </trkpt>
      <trkpt lat="45.83037" lon="4.71793">
        <ele>340.65179</ele>
        <time>2023-04-10T15:18:23.000Z</time>
      </trkpt>
      <trkpt lat="45.83034" lon="4.71791">
        <ele>339.44464</ele>
        <time>2023-04-10T15:18:24.000Z</time>
      </trkpt>
      <trkpt lat="45.83031" lon="4.7179">
        <ele>339.21768</ele>
        <time>2023-04-10T15:18:25.000Z</time>
      </trkpt>
      <trkpt lat="45.83029" lon="4.71789">
        <ele>338.9519</ele>
        <time>2023-04-10T15:18:26.000Z</time>
      </trkpt>
      <trkpt lat="45.83027" lon="4.71787">
        <ele>338.71674</ele>
        <time>2023-04-10T15:18:27.000Z</time>
      </trkpt>
      <trkpt lat="45.83026" lon="4.71786">
        <ele>338.47485</ele>
        <time>2023-04-10T15:18:28.000Z</time>
      </trkpt>
      <trkpt lat="45.83024" lon="4.71784">
        <ele>338.25897</ele>
        <time>2023-04-10T15:18:29.000Z</time>
      </trkpt>
      <trkpt lat="45.83022" lon="4.71782">
        <ele>337.90118</ele>
        <time>2023-04-10T15:18:30.000Z</time>
      </trkpt>
      <trkpt lat="45.83019" lon="4.71781">
        <ele>337.52539</ele>
        <time>2023-04-10T15:18:31.000Z</time>
      </trkpt>
      <trkpt lat="45.83017" lon="4.7178">
        <ele>337.33563</ele>
        <time>2023-04-10T15:18:32.000Z</time>
      </trkpt>
      <trkpt lat="45.83013" lon="4.7178">
        <ele>337.18286</ele>
        <time>2023-04-10T15:18:33.000Z</time>
      </trkpt>
      <trkpt lat="45.83009" lon="4.71779">
        <ele>337.06927</ele>
        <time>2023-04-10T15:18:34.000Z</time>
      </trkpt>
      <trkpt lat="45.83006" lon="4.71778">
        <ele>336.94687</ele>
        <time>2023-04-10T15:18:35.000Z</time>
      </trkpt>
      <trkpt lat="45.83003" lon="4.71776">
        <ele>336.82318</ele>
        <time>2023-04-10T15:18:36.000Z</time>
      </trkpt>
      <trkpt lat="45.83" lon="4.71775">
        <ele>336.9512</ele>
        <time>2023-04-10T15:18:37.000Z</time>
      </trkpt>
      <trkpt lat="45.82997" lon="4.71774">
        <ele>337.10144</ele>
        <time>2023-04-10T15:18:38.000Z</time>
      </trkpt>
      <trkpt lat="45.82994" lon="4.71773">
        <ele>337.25189</ele>
        <time>2023-04-10T15:18:39.000Z</time>
      </trkpt>
      <trkpt lat="45.82991" lon="4.71772">
        <ele>337.41132</ele>
        <time>2023-04-10T15:18:40.000Z</time>
      </trkpt>
      <trkpt lat="45.82988" lon="4.71771">
        <ele>337.56662</ele>
        <time>2023-04-10T15:18:41.000Z</time>
      </trkpt>
      <trkpt lat="45.82985" lon="4.71769">
        <ele>337.75293</ele>
        <time>2023-04-10T15:18:42.000Z</time>
      </trkpt>
      <trkpt lat="45.82981" lon="4.71768">
        <ele>337.97479</ele>
        <time>2023-04-10T15:18:43.000Z</time>
      </trkpt>
      <trkpt lat="45.82978" lon="4.71767">
        <ele>338.19287</ele>
        <time>2023-04-10T15:18:44.000Z</time>
      </trkpt>
      <trkpt lat="45.82975" lon="4.71766">
        <ele>338.36996</ele>
        <time>2023-04-10T15:18:45.000Z</time>
      </trkpt>
      <trkpt lat="45.82972" lon="4.71767">
        <ele>338.55502</ele>
        <time>2023-04-10T15:18:46.000Z</time>
      </trkpt>
      <trkpt lat="45.82969" lon="4.71768">
        <ele>338.77191</ele>
        <time>2023-04-10T15:18:47.000Z</time>
      </trkpt>
      <trkpt lat="45.82967" lon="4.7177">
        <ele>339.00125</ele>
        <time>2023-04-10T15:18:48.000Z</time>
      </trkpt>
      <trkpt lat="45.82964" lon="4.71772">
        <ele>339.22549</ele>
        <time>2023-04-10T15:18:49.000Z</time>
      </trkpt>
      <trkpt lat="45.82961" lon="4.71775">
        <ele>339.45825</ele>
        <time>2023-04-10T15:18:50.000Z</time>
      </trkpt>
      <trkpt lat="45.82958" lon="4.71777">
        <ele>339.60641</ele>
        <time>2023-04-10T15:18:51.000Z</time>
      </trkpt>
      <trkpt lat="45.82955" lon="4.7178">
        <ele>339.71912</ele>
        <time>2023-04-10T15:18:52.000Z</time>
      </trkpt>
      <trkpt lat="45.82952" lon="4.71783">
        <ele>339.81296</ele>
        <time>2023-04-10T15:18:53.000Z</time>
      </trkpt>
      <trkpt lat="45.82949" lon="4.71784">
        <ele>339.85831</ele>
        <time>2023-04-10T15:18:54.000Z</time>
      </trkpt>
      <trkpt lat="45.82946" lon="4.71784">
        <ele>339.9032</ele>
        <time>2023-04-10T15:18:55.000Z</time>
      </trkpt>
      <trkpt lat="45.82943" lon="4.71784">
        <ele>339.93683</ele>
        <time>2023-04-10T15:18:56.000Z</time>
      </trkpt>
      <trkpt lat="45.82939" lon="4.71784">
        <ele>339.9361</ele>
        <time>2023-04-10T15:18:57.000Z</time>
      </trkpt>
      <trkpt lat="45.82936" lon="4.71784">
        <ele>339.93527</ele>
        <time>2023-04-10T15:18:58.000Z</time>
      </trkpt>
      <trkpt lat="45.82933" lon="4.71783">
        <ele>339.93573</ele>
        <time>2023-04-10T15:18:59.000Z</time>
      </trkpt>
      <trkpt lat="45.8293" lon="4.71783">
        <ele>339.94739</ele>
        <time>2023-04-10T15:19:00.000Z</time>
      </trkpt>
      <trkpt lat="45.82928" lon="4.71783">
        <ele>339.95859</ele>
        <time>2023-04-10T15:19:01.000Z</time>
      </trkpt>
      <trkpt lat="45.82926" lon="4.71782">
        <ele>339.96216</ele>
        <time>2023-04-10T15:19:02.000Z</time>
      </trkpt>
      <trkpt lat="45.82923" lon="4.71782">
        <ele>339.9426</ele>
        <time>2023-04-10T15:19:03.000Z</time>
      </trkpt>
      <trkpt lat="45.82921" lon="4.71782">
        <ele>339.90567</ele>
        <time>2023-04-10T15:19:04.000Z</time>
      </trkpt>
      <trkpt lat="45.82919" lon="4.71783">
        <ele>339.87762</ele>
        <time>2023-04-10T15:19:05.000Z</time>
      </trkpt>
      <trkpt lat="45.82917" lon="4.71783">
        <ele>339.86371</ele>
        <time>2023-04-10T15:19:06.000Z</time>
      </trkpt>
      <trkpt lat="45.82915" lon="4.71783">
        <ele>339.82239</ele>
        <time>2023-04-10T15:19:07.000Z</time>
      </trkpt>
      <trkpt lat="45.82913" lon="4.71783">
        <ele>339.77695</ele>
        <time>2023-04-10T15:19:08.000Z</time>
      </trkpt>
      <trkpt lat="45.8291" lon="4.71783">
        <ele>339.74741</ele>
        <time>2023-04-10T15:19:09.000Z</time>
      </trkpt>
      <trkpt lat="45.82907" lon="4.71783">
        <ele>339.73251</ele>
        <time>2023-04-10T15:19:10.000Z</time>
      </trkpt>
      <trkpt lat="45.82903" lon="4.71783">
        <ele>339.71982</ele>
        <time>2023-04-10T15:19:11.000Z</time>
      </trkpt>
      <trkpt lat="45.829" lon="4.71783">
        <ele>339.75186</ele>
        <time>2023-04-10T15:19:12.000Z</time>
      </trkpt>
      <trkpt lat="45.82897" lon="4.71784">
        <ele>339.79657</ele>
        <time>2023-04-10T15:19:13.000Z</time>
      </trkpt>
      <trkpt lat="45.82894" lon="4.71784">
        <ele>339.8627</ele>
        <time>2023-04-10T15:19:14.000Z</time>
      </trkpt>
      <trkpt lat="45.82891" lon="4.71785">
        <ele>339.92172</ele>
        <time>2023-04-10T15:19:15.000Z</time>
      </trkpt>
      <trkpt lat="45.82887" lon="4.71786">
        <ele>339.98505</ele>
        <time>2023-04-10T15:19:16.000Z</time>
      </trkpt>
      <trkpt lat="45.82884" lon="4.71786">
        <ele>340.06152</ele>
        <time>2023-04-10T15:19:17.000Z</time>
      </trkpt>
      <trkpt lat="45.82881" lon="4.71786">
        <ele>340.11655</ele>
        <time>2023-04-10T15:19:18.000Z</time>
      </trkpt>
      <trkpt lat="45.82878" lon="4.71785">
        <ele>340.15729</ele>
        <time>2023-04-10T15:19:19.000Z</time>
      </trkpt>
      <trkpt lat="45.82875" lon="4.71785">
        <ele>340.1929</ele>
        <time>2023-04-10T15:19:20.000Z</time>
      </trkpt>
      <trkpt lat="45.82872" lon="4.71786">
        <ele>340.22198</ele>
        <time>2023-04-10T15:19:21.000Z</time>
      </trkpt>
      <trkpt lat="45.82869" lon="4.71786">
        <ele>340.24365</ele>
        <time>2023-04-10T15:19:22.000Z</time>
      </trkpt>
      <trkpt lat="45.82865" lon="4.71785">
        <ele>340.26205</ele>
        <time>2023-04-10T15:19:23.000Z</time>
      </trkpt>
      <trkpt lat="45.82862" lon="4.71785">
        <ele>340.27701</ele>
        <time>2023-04-10T15:19:24.000Z</time>
      </trkpt>
      <trkpt lat="45.82859" lon="4.71785">
        <ele>340.28531</ele>
        <time>2023-04-10T15:19:25.000Z</time>
      </trkpt>
      <trkpt lat="45.82856" lon="4.71785">
        <ele>340.28967</ele>
        <time>2023-04-10T15:19:26.000Z</time>
      </trkpt>
      <trkpt lat="45.82852" lon="4.71785">
        <ele>340.56296</ele>
        <time>2023-04-10T15:19:27.000Z</time>
      </trkpt>
      <trkpt lat="45.82849" lon="4.71785">
        <ele>340.82422</ele>
        <time>2023-04-10T15:19:28.000Z</time>
      </trkpt>
      <trkpt lat="45.82845" lon="4.71785">
        <ele>341.07562</ele>
        <time>2023-04-10T15:19:29.000Z</time>
      </trkpt>
      <trkpt lat="45.82842" lon="4.71785">
        <ele>341.29288</ele>
        <time>2023-04-10T15:19:30.000Z</time>
      </trkpt>
      <trkpt lat="45.82839" lon="4.71785">
        <ele>341.52365</ele>
        <time>2023-04-10T15:19:31.000Z</time>
      </trkpt>
      <trkpt lat="45.82835" lon="4.71786">
        <ele>341.77145</ele>
        <time>2023-04-10T15:19:32.000Z</time>
      </trkpt>
      <trkpt lat="45.82833" lon="4.71786">
        <ele>341.82843</ele>
        <time>2023-04-10T15:19:33.000Z</time>
      </trkpt>
      <trkpt lat="45.8283" lon="4.71786">
        <ele>341.87842</ele>
        <time>2023-04-10T15:19:34.000Z</time>
      </trkpt>
      <trkpt lat="45.82828" lon="4.71786">
        <ele>341.9212</ele>
        <time>2023-04-10T15:19:35.000Z</time>
      </trkpt>
      <trkpt lat="45.82826" lon="4.71788">
        <ele>341.95798</ele>
        <time>2023-04-10T15:19:36.000Z</time>
      </trkpt>
      <trkpt lat="45.82823" lon="4.71791">
        <ele>341.9949</ele>
        <time>2023-04-10T15:19:37.000Z</time>
      </trkpt>
      <trkpt lat="45.82821" lon="4.71794">
        <ele>342.00278</ele>
        <time>2023-04-10T15:19:38.000Z</time>
      </trkpt>
      <trkpt lat="45.82819" lon="4.71799">
        <ele>342.03278</ele>
        <time>2023-04-10T15:19:39.000Z</time>
      </trkpt>
      <trkpt lat="45.82818" lon="4.71806">
        <ele>342.0882</ele>
        <time>2023-04-10T15:19:40.000Z</time>
      </trkpt>
      <trkpt lat="45.82818" lon="4.71812">
        <ele>342.1586</ele>
        <time>2023-04-10T15:19:41.000Z</time>
      </trkpt>
      <trkpt lat="45.8282" lon="4.7182">
        <ele>342.37906</ele>
        <time>2023-04-10T15:19:42.000Z</time>
      </trkpt>
      <trkpt lat="45.82819" lon="4.71826">
        <ele>342.62488</ele>
        <time>2023-04-10T15:19:43.000Z</time>
      </trkpt>
      <trkpt lat="45.82819" lon="4.71833">
        <ele>342.92804</ele>
        <time>2023-04-10T15:19:44.000Z</time>
      </trkpt>
      <trkpt lat="45.82818" lon="4.7184">
        <ele>343.07877</ele>
        <time>2023-04-10T15:19:45.000Z</time>
      </trkpt>
      <trkpt lat="45.82817" lon="4.71845">
        <ele>343.23526</ele>
        <time>2023-04-10T15:19:46.000Z</time>
      </trkpt>
      <trkpt lat="45.82816" lon="4.71852">
        <ele>343.13498</ele>
        <time>2023-04-10T15:19:47.000Z</time>
      </trkpt>
      <trkpt lat="45.82816" lon="4.71858">
        <ele>343.00156</ele>
        <time>2023-04-10T15:19:48.000Z</time>
      </trkpt>
      <trkpt lat="45.82815" lon="4.71866">
        <ele>342.83612</ele>
        <time>2023-04-10T15:19:49.000Z</time>
      </trkpt>
      <trkpt lat="45.82814" lon="4.71872">
        <ele>342.70111</ele>
        <time>2023-04-10T15:19:50.000Z</time>
      </trkpt>
      <trkpt lat="45.82813" lon="4.7188">
        <ele>342.59317</ele>
        <time>2023-04-10T15:19:51.000Z</time>
      </trkpt>
      <trkpt lat="45.82812" lon="4.71887">
        <ele>342.46945</ele>
        <time>2023-04-10T15:19:52.000Z</time>
      </trkpt>
      <trkpt lat="45.8281" lon="4.71893">
        <ele>342.59351</ele>
        <time>2023-04-10T15:19:53.000Z</time>
      </trkpt>
      <trkpt lat="45.8281" lon="4.71901">
        <ele>342.75311</ele>
        <time>2023-04-10T15:19:54.000Z</time>
      </trkpt>
      <trkpt lat="45.82809" lon="4.71908">
        <ele>342.97864</ele>
        <time>2023-04-10T15:19:55.000Z</time>
      </trkpt>
      <trkpt lat="45.82808" lon="4.71915">
        <ele>343.03864</ele>
        <time>2023-04-10T15:19:56.000Z</time>
      </trkpt>
      <trkpt lat="45.82807" lon="4.71922">
        <ele>343.13373</ele>
        <time>2023-04-10T15:19:57.000Z</time>
      </trkpt>
      <trkpt lat="45.82806" lon="4.7193">
        <ele>343.29117</ele>
        <time>2023-04-10T15:19:58.000Z</time>
      </trkpt>
      <trkpt lat="45.82804" lon="4.71937">
        <ele>343.43512</ele>
        <time>2023-04-10T15:19:59.000Z</time>
      </trkpt>
      <trkpt lat="45.82804" lon="4.71942">
        <ele>343.5014</ele>
        <time>2023-04-10T15:20:00.000Z</time>
      </trkpt>
      <trkpt lat="45.82803" lon="4.71949">
        <ele>343.5578</ele>
        <time>2023-04-10T15:20:01.000Z</time>
      </trkpt>
      <trkpt lat="45.82803" lon="4.71954">
        <ele>343.59494</ele>
        <time>2023-04-10T15:20:02.000Z</time>
      </trkpt>
      <trkpt lat="45.82802" lon="4.71961">
        <ele>343.66095</ele>
        <time>2023-04-10T15:20:03.000Z</time>
      </trkpt>
      <trkpt lat="45.82802" lon="4.71967">
        <ele>343.68854</ele>
        <time>2023-04-10T15:20:04.000Z</time>
      </trkpt>
      <trkpt lat="45.82802" lon="4.71974">
        <ele>343.91318</ele>
        <time>2023-04-10T15:20:05.000Z</time>
      </trkpt>
      <trkpt lat="45.82802" lon="4.71982">
        <ele>344.0224</ele>
        <time>2023-04-10T15:20:06.000Z</time>
      </trkpt>
      <trkpt lat="45.82801" lon="4.71988">
        <ele>344.16364</ele>
        <time>2023-04-10T15:20:07.000Z</time>
      </trkpt>
      <trkpt lat="45.82801" lon="4.71995">
        <ele>344.32797</ele>
        <time>2023-04-10T15:20:08.000Z</time>
      </trkpt>
      <trkpt lat="45.82801" lon="4.72">
        <ele>344.51218</ele>
        <time>2023-04-10T15:20:09.000Z</time>
      </trkpt>
      <trkpt lat="45.828" lon="4.72007">
        <ele>344.7019</ele>
        <time>2023-04-10T15:20:10.000Z</time>
      </trkpt>
      <trkpt lat="45.828" lon="4.72012">
        <ele>344.88116</ele>
        <time>2023-04-10T15:20:11.000Z</time>
      </trkpt>
      <trkpt lat="45.82799" lon="4.72018">
        <ele>345.03925</ele>
        <time>2023-04-10T15:20:12.000Z</time>
      </trkpt>
      <trkpt lat="45.82798" lon="4.72023">
        <ele>345.10757</ele>
        <time>2023-04-10T15:20:13.000Z</time>
      </trkpt>
      <trkpt lat="45.82796" lon="4.72029">
        <ele>345.15558</ele>
        <time>2023-04-10T15:20:14.000Z</time>
      </trkpt>
      <trkpt lat="45.82795" lon="4.72034">
        <ele>345.19965</ele>
        <time>2023-04-10T15:20:15.000Z</time>
      </trkpt>
      <trkpt lat="45.82793" lon="4.72039">
        <ele>345.42758</ele>
        <time>2023-04-10T15:20:16.000Z</time>
      </trkpt>
      <trkpt lat="45.82791" lon="4.72044">
        <ele>345.63202</ele>
        <time>2023-04-10T15:20:17.000Z</time>
      </trkpt>
      <trkpt lat="45.8279" lon="4.72049">
        <ele>345.83878</ele>
        <time>2023-04-10T15:20:18.000Z</time>
      </trkpt>
      <trkpt lat="45.82788" lon="4.72054">
        <ele>346.07275</ele>
        <time>2023-04-10T15:20:19.000Z</time>
      </trkpt>
      <trkpt lat="45.82787" lon="4.72058">
        <ele>346.41351</ele>
        <time>2023-04-10T15:20:20.000Z</time>
      </trkpt>
      <trkpt lat="45.82785" lon="4.72063">
        <ele>346.64999</ele>
        <time>2023-04-10T15:20:21.000Z</time>
      </trkpt>
      <trkpt lat="45.82784" lon="4.72068">
        <ele>346.82178</ele>
        <time>2023-04-10T15:20:22.000Z</time>
      </trkpt>
      <trkpt lat="45.82783" lon="4.72073">
        <ele>346.95941</ele>
        <time>2023-04-10T15:20:23.000Z</time>
      </trkpt>
      <trkpt lat="45.82782" lon="4.72078">
        <ele>347.11353</ele>
        <time>2023-04-10T15:20:24.000Z</time>
      </trkpt>
      <trkpt lat="45.82781" lon="4.72083">
        <ele>347.21036</ele>
        <time>2023-04-10T15:20:25.000Z</time>
      </trkpt>
      <trkpt lat="45.82779" lon="4.72088">
        <ele>347.42224</ele>
        <time>2023-04-10T15:20:26.000Z</time>
      </trkpt>
      <trkpt lat="45.82778" lon="4.72094">
        <ele>347.6315</ele>
        <time>2023-04-10T15:20:27.000Z</time>
      </trkpt>
      <trkpt lat="45.82776" lon="4.72099">
        <ele>347.86786</ele>
        <time>2023-04-10T15:20:28.000Z</time>
      </trkpt>
      <trkpt lat="45.82775" lon="4.72104">
        <ele>348.13593</ele>
        <time>2023-04-10T15:20:29.000Z</time>
      </trkpt>
      <trkpt lat="45.82774" lon="4.72109">
        <ele>348.29712</ele>
        <time>2023-04-10T15:20:30.000Z</time>
      </trkpt>
      <trkpt lat="45.82772" lon="4.72114">
        <ele>348.47531</ele>
        <time>2023-04-10T15:20:31.000Z</time>
      </trkpt>
      <trkpt lat="45.8277" lon="4.72119">
        <ele>348.65369</ele>
        <time>2023-04-10T15:20:32.000Z</time>
      </trkpt>
      <trkpt lat="45.82768" lon="4.72125">
        <ele>348.8396</ele>
        <time>2023-04-10T15:20:33.000Z</time>
      </trkpt>
      <trkpt lat="45.82767" lon="4.7213">
        <ele>349.02173</ele>
        <time>2023-04-10T15:20:34.000Z</time>
      </trkpt>
      <trkpt lat="45.82766" lon="4.72135">
        <ele>349.16867</ele>
        <time>2023-04-10T15:20:35.000Z</time>
      </trkpt>
      <trkpt lat="45.82764" lon="4.72141">
        <ele>349.30511</ele>
        <time>2023-04-10T15:20:36.000Z</time>
      </trkpt>
      <trkpt lat="45.82762" lon="4.72146">
        <ele>349.42841</ele>
        <time>2023-04-10T15:20:37.000Z</time>
      </trkpt>
      <trkpt lat="45.82761" lon="4.72151">
        <ele>349.54865</ele>
        <time>2023-04-10T15:20:38.000Z</time>
      </trkpt>
      <trkpt lat="45.8276" lon="4.72156">
        <ele>349.66266</ele>
        <time>2023-04-10T15:20:39.000Z</time>
      </trkpt>
      <trkpt lat="45.82758" lon="4.72161">
        <ele>349.75555</ele>
        <time>2023-04-10T15:20:40.000Z</time>
      </trkpt>
      <trkpt lat="45.82756" lon="4.72166">
        <ele>349.97137</ele>
        <time>2023-04-10T15:20:41.000Z</time>
      </trkpt>
      <trkpt lat="45.82755" lon="4.72172">
        <ele>350.12747</ele>
        <time>2023-04-10T15:20:42.000Z</time>
      </trkpt>
      <trkpt lat="45.82753" lon="4.72177">
        <ele>350.28995</ele>
        <time>2023-04-10T15:20:43.000Z</time>
      </trkpt>
      <trkpt lat="45.82752" lon="4.72182">
        <ele>350.44696</ele>
        <time>2023-04-10T15:20:44.000Z</time>
      </trkpt>
      <trkpt lat="45.82751" lon="4.72188">
        <ele>350.62897</ele>
        <time>2023-04-10T15:20:45.000Z</time>
      </trkpt>
      <trkpt lat="45.8275" lon="4.72193">
        <ele>350.83246</ele>
        <time>2023-04-10T15:20:46.000Z</time>
      </trkpt>
      <trkpt lat="45.82748" lon="4.72198">
        <ele>351.01108</ele>
        <time>2023-04-10T15:20:47.000Z</time>
      </trkpt>
      <trkpt lat="45.82747" lon="4.72203">
        <ele>351.17389</ele>
        <time>2023-04-10T15:20:48.000Z</time>
      </trkpt>
      <trkpt lat="45.82746" lon="4.72209">
        <ele>351.32248</ele>
        <time>2023-04-10T15:20:49.000Z</time>
      </trkpt>
      <trkpt lat="45.82744" lon="4.72214">
        <ele>351.57312</ele>
        <time>2023-04-10T15:20:50.000Z</time>
      </trkpt>
      <trkpt lat="45.82743" lon="4.7222">
        <ele>351.8074</ele>
        <time>2023-04-10T15:20:51.000Z</time>
      </trkpt>
      <trkpt lat="45.82742" lon="4.72225">
        <ele>352.05322</ele>
        <time>2023-04-10T15:20:52.000Z</time>
      </trkpt>
      <trkpt lat="45.82741" lon="4.72231">
        <ele>352.31488</ele>
        <time>2023-04-10T15:20:53.000Z</time>
      </trkpt>
      <trkpt lat="45.82739" lon="4.72236">
        <ele>352.58517</ele>
        <time>2023-04-10T15:20:54.000Z</time>
      </trkpt>
      <trkpt lat="45.82738" lon="4.72241">
        <ele>352.84778</ele>
        <time>2023-04-10T15:20:55.000Z</time>
      </trkpt>
      <trkpt lat="45.82736" lon="4.72246">
        <ele>353.11642</ele>
        <time>2023-04-10T15:20:56.000Z</time>
      </trkpt>
      <trkpt lat="45.82735" lon="4.72252">
        <ele>353.42273</ele>
        <time>2023-04-10T15:20:57.000Z</time>
      </trkpt>
      <trkpt lat="45.82733" lon="4.72257">
        <ele>353.65558</ele>
        <time>2023-04-10T15:20:58.000Z</time>
      </trkpt>
      <trkpt lat="45.82732" lon="4.72262">
        <ele>353.85968</ele>
        <time>2023-04-10T15:20:59.000Z</time>
      </trkpt>
      <trkpt lat="45.82731" lon="4.72267">
        <ele>354.04846</ele>
        <time>2023-04-10T15:21:00.000Z</time>
      </trkpt>
      <trkpt lat="45.82729" lon="4.72273">
        <ele>354.23712</ele>
        <time>2023-04-10T15:21:01.000Z</time>
      </trkpt>
      <trkpt lat="45.82727" lon="4.72278">
        <ele>354.45258</ele>
        <time>2023-04-10T15:21:02.000Z</time>
      </trkpt>
      <trkpt lat="45.82726" lon="4.72284">
        <ele>354.65106</ele>
        <time>2023-04-10T15:21:03.000Z</time>
      </trkpt>
      <trkpt lat="45.82724" lon="4.72289">
        <ele>354.87686</ele>
        <time>2023-04-10T15:21:04.000Z</time>
      </trkpt>
      <trkpt lat="45.82724" lon="4.72295">
        <ele>355.10904</ele>
        <time>2023-04-10T15:21:05.000Z</time>
      </trkpt>
      <trkpt lat="45.82723" lon="4.723">
        <ele>355.32254</ele>
        <time>2023-04-10T15:21:06.000Z</time>
      </trkpt>
      <trkpt lat="45.82721" lon="4.72306">
        <ele>355.51746</ele>
        <time>2023-04-10T15:21:07.000Z</time>
      </trkpt>
      <trkpt lat="45.8272" lon="4.72311">
        <ele>355.71094</ele>
        <time>2023-04-10T15:21:08.000Z</time>
      </trkpt>
      <trkpt lat="45.82719" lon="4.72317">
        <ele>355.89276</ele>
        <time>2023-04-10T15:21:09.000Z</time>
      </trkpt>
      <trkpt lat="45.82717" lon="4.72323">
        <ele>356.08859</ele>
        <time>2023-04-10T15:21:10.000Z</time>
      </trkpt>
      <trkpt lat="45.82716" lon="4.72328">
        <ele>356.2818</ele>
        <time>2023-04-10T15:21:11.000Z</time>
      </trkpt>
      <trkpt lat="45.82715" lon="4.72334">
        <ele>356.49149</ele>
        <time>2023-04-10T15:21:12.000Z</time>
      </trkpt>
      <trkpt lat="45.82714" lon="4.7234">
        <ele>356.69171</ele>
        <time>2023-04-10T15:21:13.000Z</time>
      </trkpt>
      <trkpt lat="45.82713" lon="4.72346">
        <ele>356.89767</ele>
        <time>2023-04-10T15:21:14.000Z</time>
      </trkpt>
      <trkpt lat="45.82711" lon="4.72351">
        <ele>357.09357</ele>
        <time>2023-04-10T15:21:15.000Z</time>
      </trkpt>
      <trkpt lat="45.82709" lon="4.72357">
        <ele>357.28778</ele>
        <time>2023-04-10T15:21:16.000Z</time>
      </trkpt>
      <trkpt lat="45.82707" lon="4.72362">
        <ele>357.45685</ele>
        <time>2023-04-10T15:21:17.000Z</time>
      </trkpt>
      <trkpt lat="45.82705" lon="4.72367">
        <ele>357.68048</ele>
        <time>2023-04-10T15:21:18.000Z</time>
      </trkpt>
      <trkpt lat="45.82702" lon="4.72372">
        <ele>357.92068</ele>
        <time>2023-04-10T15:21:19.000Z</time>
      </trkpt>
      <trkpt lat="45.82698" lon="4.72378">
        <ele>358.1337</ele>
        <time>2023-04-10T15:21:20.000Z</time>
      </trkpt>
      <trkpt lat="45.82696" lon="4.72382">
        <ele>358.35181</ele>
        <time>2023-04-10T15:21:21.000Z</time>
      </trkpt>
      <trkpt lat="45.82693" lon="4.72386">
        <ele>358.59277</ele>
        <time>2023-04-10T15:21:22.000Z</time>
      </trkpt>
      <trkpt lat="45.82691" lon="4.72392">
        <ele>358.82739</ele>
        <time>2023-04-10T15:21:23.000Z</time>
      </trkpt>
      <trkpt lat="45.82689" lon="4.72398">
        <ele>359.02826</ele>
        <time>2023-04-10T15:21:24.000Z</time>
      </trkpt>
      <trkpt lat="45.82686" lon="4.72404">
        <ele>359.1882</ele>
        <time>2023-04-10T15:21:25.000Z</time>
      </trkpt>
      <trkpt lat="45.82683" lon="4.7241">
        <ele>359.3399</ele>
        <time>2023-04-10T15:21:26.000Z</time>
      </trkpt>
      <trkpt lat="45.82681" lon="4.72415">
        <ele>359.50354</ele>
        <time>2023-04-10T15:21:27.000Z</time>
      </trkpt>
      <trkpt lat="45.82679" lon="4.7242">
        <ele>359.65921</ele>
        <time>2023-04-10T15:21:28.000Z</time>
      </trkpt>
      <trkpt lat="45.82678" lon="4.72425">
        <ele>359.83743</ele>
        <time>2023-04-10T15:21:29.000Z</time>
      </trkpt>
      <trkpt lat="45.82675" lon="4.7243">
        <ele>359.99103</ele>
        <time>2023-04-10T15:21:30.000Z</time>
      </trkpt>
      <trkpt lat="45.82673" lon="4.72436">
        <ele>360.14081</ele>
        <time>2023-04-10T15:21:31.000Z</time>
      </trkpt>
      <trkpt lat="45.82672" lon="4.72441">
        <ele>360.28058</ele>
        <time>2023-04-10T15:21:32.000Z</time>
      </trkpt>
      <trkpt lat="45.8267" lon="4.72445">
        <ele>360.43127</ele>
        <time>2023-04-10T15:21:33.000Z</time>
      </trkpt>
      <trkpt lat="45.82668" lon="4.72451">
        <ele>360.56747</ele>
        <time>2023-04-10T15:21:34.000Z</time>
      </trkpt>
      <trkpt lat="45.82665" lon="4.72455">
        <ele>360.69574</ele>
        <time>2023-04-10T15:21:35.000Z</time>
      </trkpt>
      <trkpt lat="45.82663" lon="4.7246">
        <ele>360.80954</ele>
        <time>2023-04-10T15:21:36.000Z</time>
      </trkpt>
      <trkpt lat="45.82661" lon="4.72466">
        <ele>360.94186</ele>
        <time>2023-04-10T15:21:37.000Z</time>
      </trkpt>
      <trkpt lat="45.82659" lon="4.72472">
        <ele>361.06934</ele>
        <time>2023-04-10T15:21:38.000Z</time>
      </trkpt>
      <trkpt lat="45.82656" lon="4.72476">
        <ele>361.20218</ele>
        <time>2023-04-10T15:21:39.000Z</time>
      </trkpt>
      <trkpt lat="45.82654" lon="4.72481">
        <ele>361.36044</ele>
        <time>2023-04-10T15:21:40.000Z</time>
      </trkpt>
      <trkpt lat="45.82652" lon="4.72487">
        <ele>361.53278</ele>
        <time>2023-04-10T15:21:41.000Z</time>
      </trkpt>
      <trkpt lat="45.8265" lon="4.72491">
        <ele>361.67255</ele>
        <time>2023-04-10T15:21:42.000Z</time>
      </trkpt>
      <trkpt lat="45.82648" lon="4.72496">
        <ele>361.85065</ele>
        <time>2023-04-10T15:21:43.000Z</time>
      </trkpt>
      <trkpt lat="45.82645" lon="4.725">
        <ele>362.02762</ele>
        <time>2023-04-10T15:21:44.000Z</time>
      </trkpt>
      <trkpt lat="45.82643" lon="4.72505">
        <ele>362.22382</ele>
        <time>2023-04-10T15:21:45.000Z</time>
      </trkpt>
      <trkpt lat="45.82641" lon="4.7251">
        <ele>362.43427</ele>
        <time>2023-04-10T15:21:46.000Z</time>
      </trkpt>
      <trkpt lat="45.82639" lon="4.72515">
        <ele>362.65674</ele>
        <time>2023-04-10T15:21:47.000Z</time>
      </trkpt>
      <trkpt lat="45.82636" lon="4.7252">
        <ele>362.91315</ele>
        <time>2023-04-10T15:21:48.000Z</time>
      </trkpt>
      <trkpt lat="45.82634" lon="4.72525">
        <ele>363.16187</ele>
        <time>2023-04-10T15:21:49.000Z</time>
      </trkpt>
      <trkpt lat="45.82632" lon="4.7253">
        <ele>363.41537</ele>
        <time>2023-04-10T15:21:50.000Z</time>
      </trkpt>
      <trkpt lat="45.8263" lon="4.72534">
        <ele>363.66574</ele>
        <time>2023-04-10T15:21:51.000Z</time>
      </trkpt>
      <trkpt lat="45.82628" lon="4.72539">
        <ele>363.92587</ele>
        <time>2023-04-10T15:21:52.000Z</time>
      </trkpt>
      <trkpt lat="45.82626" lon="4.72543">
        <ele>364.17828</ele>
        <time>2023-04-10T15:21:53.000Z</time>
      </trkpt>
      <trkpt lat="45.82624" lon="4.72548">
        <ele>364.44675</ele>
        <time>2023-04-10T15:21:54.000Z</time>
      </trkpt>
      <trkpt lat="45.82622" lon="4.72552">
        <ele>364.74692</ele>
        <time>2023-04-10T15:21:55.000Z</time>
      </trkpt>
      <trkpt lat="45.8262" lon="4.72557">
        <ele>365.0687</ele>
        <time>2023-04-10T15:21:56.000Z</time>
      </trkpt>
      <trkpt lat="45.82618" lon="4.72562">
        <ele>365.38544</ele>
        <time>2023-04-10T15:21:57.000Z</time>
      </trkpt>
      <trkpt lat="45.82616" lon="4.72567">
        <ele>365.72089</ele>
        <time>2023-04-10T15:21:58.000Z</time>
      </trkpt>
      <trkpt lat="45.82615" lon="4.72571">
        <ele>366.07526</ele>
        <time>2023-04-10T15:21:59.000Z</time>
      </trkpt>
      <trkpt lat="45.82613" lon="4.72576">
        <ele>366.42691</ele>
        <time>2023-04-10T15:22:00.000Z</time>
      </trkpt>
      <trkpt lat="45.82611" lon="4.72581">
        <ele>366.75461</ele>
        <time>2023-04-10T15:22:01.000Z</time>
      </trkpt>
      <trkpt lat="45.82609" lon="4.72585">
        <ele>367.08624</ele>
        <time>2023-04-10T15:22:02.000Z</time>
      </trkpt>
      <trkpt lat="45.82607" lon="4.7259">
        <ele>367.40833</ele>
        <time>2023-04-10T15:22:03.000Z</time>
      </trkpt>
      <trkpt lat="45.82605" lon="4.72595">
        <ele>367.74762</ele>
        <time>2023-04-10T15:22:04.000Z</time>
      </trkpt>
      <trkpt lat="45.82603" lon="4.726">
        <ele>368.10413</ele>
        <time>2023-04-10T15:22:05.000Z</time>
      </trkpt>
      <trkpt lat="45.82602" lon="4.72604">
        <ele>368.45886</ele>
        <time>2023-04-10T15:22:06.000Z</time>
      </trkpt>
      <trkpt lat="45.826" lon="4.72609">
        <ele>368.82025</ele>
        <time>2023-04-10T15:22:07.000Z</time>
      </trkpt>
      <trkpt lat="45.82598" lon="4.72614">
        <ele>369.1662</ele>
        <time>2023-04-10T15:22:08.000Z</time>
      </trkpt>
      <trkpt lat="45.82597" lon="4.72618">
        <ele>369.5119</ele>
        <time>2023-04-10T15:22:09.000Z</time>
      </trkpt>
      <trkpt lat="45.82595" lon="4.72623">
        <ele>369.86505</ele>
        <time>2023-04-10T15:22:10.000Z</time>
      </trkpt>
      <trkpt lat="45.82594" lon="4.72628">
        <ele>370.22968</ele>
        <time>2023-04-10T15:22:11.000Z</time>
      </trkpt>
      <trkpt lat="45.82592" lon="4.72633">
        <ele>370.58002</ele>
        <time>2023-04-10T15:22:12.000Z</time>
      </trkpt>
      <trkpt lat="45.8259" lon="4.72638">
        <ele>370.93848</ele>
        <time>2023-04-10T15:22:13.000Z</time>
      </trkpt>
      <trkpt lat="45.82589" lon="4.72642">
        <ele>371.27795</ele>
        <time>2023-04-10T15:22:14.000Z</time>
      </trkpt>
      <trkpt lat="45.82587" lon="4.72647">
        <ele>371.61456</ele>
        <time>2023-04-10T15:22:15.000Z</time>
      </trkpt>
      <trkpt lat="45.82585" lon="4.72652">
        <ele>371.93582</ele>
        <time>2023-04-10T15:22:16.000Z</time>
      </trkpt>
      <trkpt lat="45.82584" lon="4.72657">
        <ele>372.26175</ele>
        <time>2023-04-10T15:22:17.000Z</time>
      </trkpt>
      <trkpt lat="45.82582" lon="4.72663">
        <ele>372.57001</ele>
        <time>2023-04-10T15:22:18.000Z</time>
      </trkpt>
      <trkpt lat="45.8258" lon="4.72668">
        <ele>372.86884</ele>
        <time>2023-04-10T15:22:19.000Z</time>
      </trkpt>
      <trkpt lat="45.82578" lon="4.72673">
        <ele>373.15765</ele>
        <time>2023-04-10T15:22:20.000Z</time>
      </trkpt>
      <trkpt lat="45.82576" lon="4.72677">
        <ele>373.44504</ele>
        <time>2023-04-10T15:22:21.000Z</time>
      </trkpt>
      <trkpt lat="45.82575" lon="4.72682">
        <ele>373.73328</ele>
        <time>2023-04-10T15:22:22.000Z</time>
      </trkpt>
      <trkpt lat="45.82573" lon="4.72687">
        <ele>374.009</ele>
        <time>2023-04-10T15:22:23.000Z</time>
      </trkpt>
      <trkpt lat="45.82572" lon="4.72692">
        <ele>374.28406</ele>
        <time>2023-04-10T15:22:24.000Z</time>
      </trkpt>
      <trkpt lat="45.82571" lon="4.72697">
        <ele>374.54694</ele>
        <time>2023-04-10T15:22:25.000Z</time>
      </trkpt>
      <trkpt lat="45.8257" lon="4.72702">
        <ele>374.80258</ele>
        <time>2023-04-10T15:22:26.000Z</time>
      </trkpt>
      <trkpt lat="45.82569" lon="4.72708">
        <ele>375.04181</ele>
        <time>2023-04-10T15:22:27.000Z</time>
      </trkpt>
      <trkpt lat="45.82568" lon="4.72714">
        <ele>375.25305</ele>
        <time>2023-04-10T15:22:28.000Z</time>
      </trkpt>
      <trkpt lat="45.82566" lon="4.7272">
        <ele>375.41614</ele>
        <time>2023-04-10T15:22:29.000Z</time>
      </trkpt>
      <trkpt lat="45.82565" lon="4.72727">
        <ele>375.56195</ele>
        <time>2023-04-10T15:22:30.000Z</time>
      </trkpt>
      <trkpt lat="45.82565" lon="4.72734">
        <ele>375.60297</ele>
        <time>2023-04-10T15:22:31.000Z</time>
      </trkpt>
      <trkpt lat="45.82565" lon="4.7274">
        <ele>375.61813</ele>
        <time>2023-04-10T15:22:32.000Z</time>
      </trkpt>
      <trkpt lat="45.82564" lon="4.72748">
        <ele>375.55759</ele>
        <time>2023-04-10T15:22:33.000Z</time>
      </trkpt>
      <trkpt lat="45.82563" lon="4.72755">
        <ele>375.69644</ele>
        <time>2023-04-10T15:22:34.000Z</time>
      </trkpt>
      <trkpt lat="45.82563" lon="4.72763">
        <ele>375.80643</ele>
        <time>2023-04-10T15:22:35.000Z</time>
      </trkpt>
      <trkpt lat="45.82562" lon="4.7277">
        <ele>375.93887</ele>
        <time>2023-04-10T15:22:36.000Z</time>
      </trkpt>
      <trkpt lat="45.82562" lon="4.72777">
        <ele>376.06964</ele>
        <time>2023-04-10T15:22:37.000Z</time>
      </trkpt>
      <trkpt lat="45.82561" lon="4.72784">
        <ele>376.19888</ele>
        <time>2023-04-10T15:22:38.000Z</time>
      </trkpt>
      <trkpt lat="45.8256" lon="4.72792">
        <ele>376.35736</ele>
        <time>2023-04-10T15:22:39.000Z</time>
      </trkpt>
      <trkpt lat="45.82561" lon="4.72801">
        <ele>376.46927</ele>
        <time>2023-04-10T15:22:40.000Z</time>
      </trkpt>
      <trkpt lat="45.82561" lon="4.72808">
        <ele>376.57785</ele>
        <time>2023-04-10T15:22:41.000Z</time>
      </trkpt>
      <trkpt lat="45.8256" lon="4.72816">
        <ele>376.67398</ele>
        <time>2023-04-10T15:22:42.000Z</time>
      </trkpt>
      <trkpt lat="45.82559" lon="4.72823">
        <ele>376.76944</ele>
        <time>2023-04-10T15:22:43.000Z</time>
      </trkpt>
      <trkpt lat="45.82558" lon="4.72831">
        <ele>376.85031</ele>
        <time>2023-04-10T15:22:44.000Z</time>
      </trkpt>
      <trkpt lat="45.82558" lon="4.72839">
        <ele>376.92334</ele>
        <time>2023-04-10T15:22:45.000Z</time>
      </trkpt>
      <trkpt lat="45.82558" lon="4.72847">
        <ele>377.00226</ele>
        <time>2023-04-10T15:22:46.000Z</time>
      </trkpt>
      <trkpt lat="45.82557" lon="4.72855">
        <ele>377.11151</ele>
        <time>2023-04-10T15:22:47.000Z</time>
      </trkpt>
      <trkpt lat="45.82557" lon="4.72864">
        <ele>377.24353</ele>
        <time>2023-04-10T15:22:48.000Z</time>
      </trkpt>
      <trkpt lat="45.82558" lon="4.72871">
        <ele>377.40811</ele>
        <time>2023-04-10T15:22:49.000Z</time>
      </trkpt>
      <trkpt lat="45.82559" lon="4.7288">
        <ele>377.6022</ele>
        <time>2023-04-10T15:22:50.000Z</time>
      </trkpt>
      <trkpt lat="45.82559" lon="4.72888">
        <ele>377.88614</ele>
        <time>2023-04-10T15:22:51.000Z</time>
      </trkpt>
      <trkpt lat="45.8256" lon="4.72896">
        <ele>378.18671</ele>
        <time>2023-04-10T15:22:52.000Z</time>
      </trkpt>
      <trkpt lat="45.82561" lon="4.72905">
        <ele>378.58505</ele>
        <time>2023-04-10T15:22:53.000Z</time>
      </trkpt>
      <trkpt lat="45.82562" lon="4.72913">
        <ele>378.79926</ele>
        <time>2023-04-10T15:22:54.000Z</time>
      </trkpt>
      <trkpt lat="45.82563" lon="4.7292">
        <ele>378.86127</ele>
        <time>2023-04-10T15:22:55.000Z</time>
      </trkpt>
      <trkpt lat="45.82565" lon="4.72928">
        <ele>378.92957</ele>
        <time>2023-04-10T15:22:56.000Z</time>
      </trkpt>
      <trkpt lat="45.82566" lon="4.72936">
        <ele>378.98685</ele>
        <time>2023-04-10T15:22:57.000Z</time>
      </trkpt>
      <trkpt lat="45.82568" lon="4.72943">
        <ele>379.02744</ele>
        <time>2023-04-10T15:22:58.000Z</time>
      </trkpt>
      <trkpt lat="45.82569" lon="4.72951">
        <ele>378.98691</ele>
        <time>2023-04-10T15:22:59.000Z</time>
      </trkpt>
      <trkpt lat="45.82572" lon="4.72958">
        <ele>379.27292</ele>
        <time>2023-04-10T15:23:00.000Z</time>
      </trkpt>
      <trkpt lat="45.82574" lon="4.72965">
        <ele>379.5278</ele>
        <time>2023-04-10T15:23:01.000Z</time>
      </trkpt>
      <trkpt lat="45.82576" lon="4.72973">
        <ele>379.81259</ele>
        <time>2023-04-10T15:23:02.000Z</time>
      </trkpt>
      <trkpt lat="45.82579" lon="4.7298">
        <ele>380.08505</ele>
        <time>2023-04-10T15:23:03.000Z</time>
      </trkpt>
      <trkpt lat="45.82581" lon="4.72988">
        <ele>380.36517</ele>
        <time>2023-04-10T15:23:04.000Z</time>
      </trkpt>
      <trkpt lat="45.82583" lon="4.72995">
        <ele>380.63434</ele>
        <time>2023-04-10T15:23:05.000Z</time>
      </trkpt>
      <trkpt lat="45.82586" lon="4.73003">
        <ele>380.90027</ele>
        <time>2023-04-10T15:23:06.000Z</time>
      </trkpt>
      <trkpt lat="45.82588" lon="4.73011">
        <ele>381.12671</ele>
        <time>2023-04-10T15:23:07.000Z</time>
      </trkpt>
      <trkpt lat="45.82591" lon="4.73019">
        <ele>381.35281</ele>
        <time>2023-04-10T15:23:08.000Z</time>
      </trkpt>
      <trkpt lat="45.82594" lon="4.73027">
        <ele>381.57614</ele>
        <time>2023-04-10T15:23:09.000Z</time>
      </trkpt>
      <trkpt lat="45.82596" lon="4.73035">
        <ele>381.75763</ele>
        <time>2023-04-10T15:23:10.000Z</time>
      </trkpt>
      <trkpt lat="45.82599" lon="4.73043">
        <ele>381.94833</ele>
        <time>2023-04-10T15:23:11.000Z</time>
      </trkpt>
      <trkpt lat="45.82602" lon="4.7305">
        <ele>382.13373</ele>
        <time>2023-04-10T15:23:12.000Z</time>
      </trkpt>
      <trkpt lat="45.82605" lon="4.73058">
        <ele>382.26291</ele>
        <time>2023-04-10T15:23:13.000Z</time>
      </trkpt>
      <trkpt lat="45.82608" lon="4.73065">
        <ele>382.38922</ele>
        <time>2023-04-10T15:23:14.000Z</time>
      </trkpt>
      <trkpt lat="45.82611" lon="4.73072">
        <ele>382.66153</ele>
        <time>2023-04-10T15:23:15.000Z</time>
      </trkpt>
      <trkpt lat="45.82614" lon="4.7308">
        <ele>382.91064</ele>
        <time>2023-04-10T15:23:16.000Z</time>
      </trkpt>
      <trkpt lat="45.82618" lon="4.73087">
        <ele>383.17926</ele>
        <time>2023-04-10T15:23:17.000Z</time>
      </trkpt>
      <trkpt lat="45.8262" lon="4.73095">
        <ele>383.4697</ele>
        <time>2023-04-10T15:23:18.000Z</time>
      </trkpt>
      <trkpt lat="45.82624" lon="4.73102">
        <ele>383.80698</ele>
        <time>2023-04-10T15:23:19.000Z</time>
      </trkpt>
      <trkpt lat="45.82626" lon="4.7311">
        <ele>383.86615</ele>
        <time>2023-04-10T15:23:20.000Z</time>
      </trkpt>
      <trkpt lat="45.82628" lon="4.73118">
        <ele>383.77576</ele>
        <time>2023-04-10T15:23:21.000Z</time>
      </trkpt>
      <trkpt lat="45.82631" lon="4.73125">
        <ele>383.67029</ele>
        <time>2023-04-10T15:23:22.000Z</time>
      </trkpt>
      <trkpt lat="45.82633" lon="4.73133">
        <ele>383.55414</ele>
        <time>2023-04-10T15:23:23.000Z</time>
      </trkpt>
      <trkpt lat="45.82635" lon="4.7314">
        <ele>383.43686</ele>
        <time>2023-04-10T15:23:24.000Z</time>
      </trkpt>
      <trkpt lat="45.82637" lon="4.73149">
        <ele>383.31958</ele>
        <time>2023-04-10T15:23:25.000Z</time>
      </trkpt>
      <trkpt lat="45.82639" lon="4.73158">
        <ele>383.13828</ele>
        <time>2023-04-10T15:23:26.000Z</time>
      </trkpt>
      <trkpt lat="45.82641" lon="4.73165">
        <ele>382.94794</ele>
        <time>2023-04-10T15:23:27.000Z</time>
      </trkpt>
      <trkpt lat="45.82643" lon="4.73173">
        <ele>383.10898</ele>
        <time>2023-04-10T15:23:28.000Z</time>
      </trkpt>
      <trkpt lat="45.82644" lon="4.73181">
        <ele>383.23956</ele>
        <time>2023-04-10T15:23:29.000Z</time>
      </trkpt>
      <trkpt lat="45.82645" lon="4.7319">
        <ele>383.40088</ele>
        <time>2023-04-10T15:23:30.000Z</time>
      </trkpt>
      <trkpt lat="45.82645" lon="4.73198">
        <ele>383.54953</ele>
        <time>2023-04-10T15:23:31.000Z</time>
      </trkpt>
      <trkpt lat="45.82646" lon="4.73206">
        <ele>383.69589</ele>
        <time>2023-04-10T15:23:32.000Z</time>
      </trkpt>
      <trkpt lat="45.82648" lon="4.73214">
        <ele>383.87268</ele>
        <time>2023-04-10T15:23:33.000Z</time>
      </trkpt>
      <trkpt lat="45.82648" lon="4.73222">
        <ele>384.02515</ele>
        <time>2023-04-10T15:23:34.000Z</time>
      </trkpt>
      <trkpt lat="45.82649" lon="4.7323">
        <ele>384.1871</ele>
        <time>2023-04-10T15:23:35.000Z</time>
      </trkpt>
      <trkpt lat="45.8265" lon="4.73238">
        <ele>384.21252</ele>
        <time>2023-04-10T15:23:36.000Z</time>
      </trkpt>
      <trkpt lat="45.82652" lon="4.73246">
        <ele>384.13525</ele>
        <time>2023-04-10T15:23:37.000Z</time>
      </trkpt>
      <trkpt lat="45.82652" lon="4.73254">
        <ele>383.99884</ele>
        <time>2023-04-10T15:23:38.000Z</time>
      </trkpt>
      <trkpt lat="45.82653" lon="4.73262">
        <ele>384.13638</ele>
        <time>2023-04-10T15:23:39.000Z</time>
      </trkpt>
      <trkpt lat="45.82652" lon="4.73271">
        <ele>384.23343</ele>
        <time>2023-04-10T15:23:40.000Z</time>
      </trkpt>
      <trkpt lat="45.82653" lon="4.7328">
        <ele>384.46954</ele>
        <time>2023-04-10T15:23:41.000Z</time>
      </trkpt>
      <trkpt lat="45.82655" lon="4.73288">
        <ele>384.69867</ele>
        <time>2023-04-10T15:23:42.000Z</time>
      </trkpt>
      <trkpt lat="45.82657" lon="4.73296">
        <ele>384.961</ele>
        <time>2023-04-10T15:23:43.000Z</time>
      </trkpt>
      <trkpt lat="45.82658" lon="4.73304">
        <ele>385.27042</ele>
        <time>2023-04-10T15:23:44.000Z</time>
      </trkpt>
      <trkpt lat="45.82659" lon="4.73313">
        <ele>385.58722</ele>
        <time>2023-04-10T15:23:45.000Z</time>
      </trkpt>
      <trkpt lat="45.8266" lon="4.73321">
        <ele>385.95224</ele>
        <time>2023-04-10T15:23:46.000Z</time>
      </trkpt>
      <trkpt lat="45.82662" lon="4.7333">
        <ele>386.3179</ele>
        <time>2023-04-10T15:23:47.000Z</time>
      </trkpt>
      <trkpt lat="45.82664" lon="4.73338">
        <ele>386.33478</ele>
        <time>2023-04-10T15:23:48.000Z</time>
      </trkpt>
      <trkpt lat="45.82664" lon="4.73347">
        <ele>386.40704</ele>
        <time>2023-04-10T15:23:49.000Z</time>
      </trkpt>
      <trkpt lat="45.82666" lon="4.73356">
        <ele>386.47858</ele>
        <time>2023-04-10T15:23:50.000Z</time>
      </trkpt>
      <trkpt lat="45.82667" lon="4.73364">
        <ele>386.58475</ele>
        <time>2023-04-10T15:23:51.000Z</time>
      </trkpt>
      <trkpt lat="45.82669" lon="4.73373">
        <ele>386.68417</ele>
        <time>2023-04-10T15:23:52.000Z</time>
      </trkpt>
      <trkpt lat="45.8267" lon="4.73382">
        <ele>386.79401</ele>
        <time>2023-04-10T15:23:53.000Z</time>
      </trkpt>
      <trkpt lat="45.82671" lon="4.73391">
        <ele>386.89935</ele>
        <time>2023-04-10T15:23:54.000Z</time>
      </trkpt>
      <trkpt lat="45.82672" lon="4.73399">
        <ele>386.99789</ele>
        <time>2023-04-10T15:23:55.000Z</time>
      </trkpt>
      <trkpt lat="45.82673" lon="4.73409">
        <ele>387.25186</ele>
        <time>2023-04-10T15:23:56.000Z</time>
      </trkpt>
      <trkpt lat="45.82674" lon="4.73417">
        <ele>387.55328</ele>
        <time>2023-04-10T15:23:57.000Z</time>
      </trkpt>
      <trkpt lat="45.82674" lon="4.73425">
        <ele>387.88501</ele>
        <time>2023-04-10T15:23:58.000Z</time>
      </trkpt>
      <trkpt lat="45.82674" lon="4.73434">
        <ele>387.92581</ele>
        <time>2023-04-10T15:23:59.000Z</time>
      </trkpt>
      <trkpt lat="45.82674" lon="4.73444">
        <ele>387.99139</ele>
        <time>2023-04-10T15:24:00.000Z</time>
      </trkpt>
      <trkpt lat="45.82674" lon="4.73453">
        <ele>388.08911</ele>
        <time>2023-04-10T15:24:01.000Z</time>
      </trkpt>
      <trkpt lat="45.82673" lon="4.73461">
        <ele>388.20856</ele>
        <time>2023-04-10T15:24:02.000Z</time>
      </trkpt>
      <trkpt lat="45.82671" lon="4.73468">
        <ele>388.29105</ele>
        <time>2023-04-10T15:24:03.000Z</time>
      </trkpt>
      <trkpt lat="45.82671" lon="4.73477">
        <ele>388.33716</ele>
        <time>2023-04-10T15:24:04.000Z</time>
      </trkpt>
      <trkpt lat="45.82671" lon="4.73486">
        <ele>388.39691</ele>
        <time>2023-04-10T15:24:05.000Z</time>
      </trkpt>
      <trkpt lat="45.8267" lon="4.73494">
        <ele>388.45029</ele>
        <time>2023-04-10T15:24:06.000Z</time>
      </trkpt>
      <trkpt lat="45.82669" lon="4.73501">
        <ele>388.52332</ele>
        <time>2023-04-10T15:24:07.000Z</time>
      </trkpt>
      <trkpt lat="45.82668" lon="4.73509">
        <ele>388.54779</ele>
        <time>2023-04-10T15:24:08.000Z</time>
      </trkpt>
      <trkpt lat="45.82666" lon="4.73517">
        <ele>388.55392</ele>
        <time>2023-04-10T15:24:09.000Z</time>
      </trkpt>
      <trkpt lat="45.82664" lon="4.73525">
        <ele>388.4086</ele>
        <time>2023-04-10T15:24:10.000Z</time>
      </trkpt>
      <trkpt lat="45.82662" lon="4.73534">
        <ele>388.22314</ele>
        <time>2023-04-10T15:24:11.000Z</time>
      </trkpt>
      <trkpt lat="45.82659" lon="4.73541">
        <ele>388.04639</ele>
        <time>2023-04-10T15:24:12.000Z</time>
      </trkpt>
      <trkpt lat="45.82657" lon="4.73549">
        <ele>387.87323</ele>
        <time>2023-04-10T15:24:13.000Z</time>
      </trkpt>
      <trkpt lat="45.82654" lon="4.73558">
        <ele>387.63339</ele>
        <time>2023-04-10T15:24:14.000Z</time>
      </trkpt>
      <trkpt lat="45.82651" lon="4.73566">
        <ele>387.32544</ele>
        <time>2023-04-10T15:24:15.000Z</time>
      </trkpt>
      <trkpt lat="45.82648" lon="4.73576">
        <ele>387.28223</ele>
        <time>2023-04-10T15:24:16.000Z</time>
      </trkpt>
      <trkpt lat="45.82645" lon="4.73585">
        <ele>387.2229</ele>
        <time>2023-04-10T15:24:17.000Z</time>
      </trkpt>
      <trkpt lat="45.82643" lon="4.73594">
        <ele>387.19785</ele>
        <time>2023-04-10T15:24:18.000Z</time>
      </trkpt>
      <trkpt lat="45.82639" lon="4.73602">
        <ele>387.19037</ele>
        <time>2023-04-10T15:24:19.000Z</time>
      </trkpt>
      <trkpt lat="45.82635" lon="4.7361">
        <ele>387.13812</ele>
        <time>2023-04-10T15:24:20.000Z</time>
      </trkpt>
      <trkpt lat="45.82631" lon="4.73618">
        <ele>387.08148</ele>
        <time>2023-04-10T15:24:21.000Z</time>
      </trkpt>
      <trkpt lat="45.82627" lon="4.73626">
        <ele>386.96991</ele>
        <time>2023-04-10T15:24:22.000Z</time>
      </trkpt>
      <trkpt lat="45.82624" lon="4.73634">
        <ele>386.87054</ele>
        <time>2023-04-10T15:24:23.000Z</time>
      </trkpt>
      <trkpt lat="45.82622" lon="4.73642">
        <ele>386.73309</ele>
        <time>2023-04-10T15:24:24.000Z</time>
      </trkpt>
      <trkpt lat="45.82621" lon="4.73649">
        <ele>386.57169</ele>
        <time>2023-04-10T15:24:25.000Z</time>
      </trkpt>
      <trkpt lat="45.8262" lon="4.73656">
        <ele>386.41052</ele>
        <time>2023-04-10T15:24:26.000Z</time>
      </trkpt>
      <trkpt lat="45.82621" lon="4.73665">
        <ele>386.23401</ele>
        <time>2023-04-10T15:24:27.000Z</time>
      </trkpt>
      <trkpt lat="45.8262" lon="4.73674">
        <ele>386.07172</ele>
        <time>2023-04-10T15:24:28.000Z</time>
      </trkpt>
      <trkpt lat="45.82618" lon="4.73683">
        <ele>385.89304</ele>
        <time>2023-04-10T15:24:29.000Z</time>
      </trkpt>
      <trkpt lat="45.82616" lon="4.73692">
        <ele>385.82944</ele>
        <time>2023-04-10T15:24:30.000Z</time>
      </trkpt>
      <trkpt lat="45.82615" lon="4.737">
        <ele>385.76227</ele>
        <time>2023-04-10T15:24:31.000Z</time>
      </trkpt>
      <trkpt lat="45.82615" lon="4.73709">
        <ele>385.67542</ele>
        <time>2023-04-10T15:24:32.000Z</time>
      </trkpt>
      <trkpt lat="45.82619" lon="4.73716">
        <ele>385.57349</ele>
        <time>2023-04-10T15:24:33.000Z</time>
      </trkpt>
      <trkpt lat="45.82623" lon="4.73718">
        <ele>385.55402</ele>
        <time>2023-04-10T15:24:34.000Z</time>
      </trkpt>
      <trkpt lat="45.82628" lon="4.73719">
        <ele>385.44769</ele>
        <time>2023-04-10T15:24:35.000Z</time>
      </trkpt>
      <trkpt lat="45.82634" lon="4.73717">
        <ele>385.04178</ele>
        <time>2023-04-10T15:24:36.000Z</time>
      </trkpt>
      <trkpt lat="45.82639" lon="4.73717">
        <ele>384.61673</ele>
        <time>2023-04-10T15:24:37.000Z</time>
      </trkpt>
      <trkpt lat="45.82644" lon="4.73717">
        <ele>384.44077</ele>
        <time>2023-04-10T15:24:38.000Z</time>
      </trkpt>
      <trkpt lat="45.8265" lon="4.73718">
        <ele>384.2099</ele>
        <time>2023-04-10T15:24:39.000Z</time>
      </trkpt>
      <trkpt lat="45.82656" lon="4.73719">
        <ele>383.99615</ele>
        <time>2023-04-10T15:24:40.000Z</time>
      </trkpt>
      <trkpt lat="45.82661" lon="4.73717">
        <ele>383.784</ele>
        <time>2023-04-10T15:24:41.000Z</time>
      </trkpt>
      <trkpt lat="45.82666" lon="4.73714">
        <ele>383.60306</ele>
        <time>2023-04-10T15:24:42.000Z</time>
      </trkpt>
      <trkpt lat="45.8267" lon="4.73711">
        <ele>383.45914</ele>
        <time>2023-04-10T15:24:43.000Z</time>
      </trkpt>
      <trkpt lat="45.82675" lon="4.73708">
        <ele>383.32507</ele>
        <time>2023-04-10T15:24:44.000Z</time>
      </trkpt>
      <trkpt lat="45.82679" lon="4.73705">
        <ele>383.20905</ele>
        <time>2023-04-10T15:24:45.000Z</time>
      </trkpt>
      <trkpt lat="45.82683" lon="4.73702">
        <ele>383.08026</ele>
        <time>2023-04-10T15:24:46.000Z</time>
      </trkpt>
      <trkpt lat="45.82686" lon="4.73698">
        <ele>382.96271</ele>
        <time>2023-04-10T15:24:47.000Z</time>
      </trkpt>
      <trkpt lat="45.8269" lon="4.73694">
        <ele>382.88788</ele>
        <time>2023-04-10T15:24:48.000Z</time>
      </trkpt>
      <trkpt lat="45.82695" lon="4.73691">
        <ele>382.83896</ele>
        <time>2023-04-10T15:24:49.000Z</time>
      </trkpt>
      <trkpt lat="45.82699" lon="4.73688">
        <ele>382.79565</ele>
        <time>2023-04-10T15:24:50.000Z</time>
      </trkpt>
      <trkpt lat="45.82703" lon="4.73684">
        <ele>382.77802</ele>
        <time>2023-04-10T15:24:51.000Z</time>
      </trkpt>
      <trkpt lat="45.82707" lon="4.7368">
        <ele>382.78546</ele>
        <time>2023-04-10T15:24:52.000Z</time>
      </trkpt>
      <trkpt lat="45.82711" lon="4.73676">
        <ele>382.78473</ele>
        <time>2023-04-10T15:24:53.000Z</time>
      </trkpt>
      <trkpt lat="45.82715" lon="4.73673">
        <ele>382.72916</ele>
        <time>2023-04-10T15:24:54.000Z</time>
      </trkpt>
      <trkpt lat="45.82719" lon="4.73668">
        <ele>382.83173</ele>
        <time>2023-04-10T15:24:55.000Z</time>
      </trkpt>
      <trkpt lat="45.82724" lon="4.73664">
        <ele>382.92648</ele>
        <time>2023-04-10T15:24:56.000Z</time>
      </trkpt>
      <trkpt lat="45.82729" lon="4.73659">
        <ele>383.07175</ele>
        <time>2023-04-10T15:24:57.000Z</time>
      </trkpt>
      <trkpt lat="45.82733" lon="4.73655">
        <ele>382.76587</ele>
        <time>2023-04-10T15:24:58.000Z</time>
      </trkpt>
      <trkpt lat="45.82738" lon="4.7365">
        <ele>382.48135</ele>
        <time>2023-04-10T15:24:59.000Z</time>
      </trkpt>
      <trkpt lat="45.82742" lon="4.73645">
        <ele>382.23322</ele>
        <time>2023-04-10T15:25:00.000Z</time>
      </trkpt>
      <trkpt lat="45.82747" lon="4.7364">
        <ele>381.93353</ele>
        <time>2023-04-10T15:25:01.000Z</time>
      </trkpt>
      <trkpt lat="45.82751" lon="4.73635">
        <ele>381.89044</ele>
        <time>2023-04-10T15:25:02.000Z</time>
      </trkpt>
      <trkpt lat="45.82756" lon="4.73631">
        <ele>381.763</ele>
        <time>2023-04-10T15:25:03.000Z</time>
      </trkpt>
      <trkpt lat="45.82761" lon="4.73626">
        <ele>381.64032</ele>
        <time>2023-04-10T15:25:04.000Z</time>
      </trkpt>
      <trkpt lat="45.82766" lon="4.73623">
        <ele>381.50601</ele>
        <time>2023-04-10T15:25:05.000Z</time>
      </trkpt>
      <trkpt lat="45.82772" lon="4.73615">
        <ele>381.36493</ele>
        <time>2023-04-10T15:25:06.000Z</time>
      </trkpt>
      <trkpt lat="45.82777" lon="4.73609">
        <ele>381.22092</ele>
        <time>2023-04-10T15:25:07.000Z</time>
      </trkpt>
      <trkpt lat="45.82782" lon="4.73603">
        <ele>381.0835</ele>
        <time>2023-04-10T15:25:08.000Z</time>
      </trkpt>
      <trkpt lat="45.82788" lon="4.73596">
        <ele>380.91519</ele>
        <time>2023-04-10T15:25:09.000Z</time>
      </trkpt>
      <trkpt lat="45.82794" lon="4.73588">
        <ele>380.73022</ele>
        <time>2023-04-10T15:25:10.000Z</time>
      </trkpt>
      <trkpt lat="45.82799" lon="4.73582">
        <ele>380.47272</ele>
        <time>2023-04-10T15:25:11.000Z</time>
      </trkpt>
      <trkpt lat="45.82803" lon="4.73575">
        <ele>380.20648</ele>
        <time>2023-04-10T15:25:12.000Z</time>
      </trkpt>
      <trkpt lat="45.8281" lon="4.73568">
        <ele>379.88531</ele>
        <time>2023-04-10T15:25:13.000Z</time>
      </trkpt>
      <trkpt lat="45.82817" lon="4.73561">
        <ele>379.64703</ele>
        <time>2023-04-10T15:25:14.000Z</time>
      </trkpt>
      <trkpt lat="45.82824" lon="4.73556">
        <ele>379.45319</ele>
        <time>2023-04-10T15:25:15.000Z</time>
      </trkpt>
      <trkpt lat="45.8283" lon="4.7355">
        <ele>379.21988</ele>
        <time>2023-04-10T15:25:16.000Z</time>
      </trkpt>
      <trkpt lat="45.82836" lon="4.73541">
        <ele>378.98297</ele>
        <time>2023-04-10T15:25:17.000Z</time>
      </trkpt>
      <trkpt lat="45.82842" lon="4.73532">
        <ele>378.90656</ele>
        <time>2023-04-10T15:25:18.000Z</time>
      </trkpt>
      <trkpt lat="45.82848" lon="4.73526">
        <ele>378.85052</ele>
        <time>2023-04-10T15:25:19.000Z</time>
      </trkpt>
      <trkpt lat="45.82858" lon="4.73517">
        <ele>378.68207</ele>
        <time>2023-04-10T15:25:20.000Z</time>
      </trkpt>
      <trkpt lat="45.82866" lon="4.73509">
        <ele>378.42087</ele>
        <time>2023-04-10T15:25:21.000Z</time>
      </trkpt>
      <trkpt lat="45.82873" lon="4.73501">
        <ele>377.87576</ele>
        <time>2023-04-10T15:25:22.000Z</time>
      </trkpt>
      <trkpt lat="45.8288" lon="4.73492">
        <ele>377.34009</ele>
        <time>2023-04-10T15:25:23.000Z</time>
      </trkpt>
      <trkpt lat="45.82885" lon="4.73485">
        <ele>376.7551</ele>
        <time>2023-04-10T15:25:24.000Z</time>
      </trkpt>
      <trkpt lat="45.82893" lon="4.73475">
        <ele>376.11206</ele>
        <time>2023-04-10T15:25:25.000Z</time>
      </trkpt>
      <trkpt lat="45.829" lon="4.73468">
        <ele>375.48132</ele>
        <time>2023-04-10T15:25:26.000Z</time>
      </trkpt>
      <trkpt lat="45.82908" lon="4.7346">
        <ele>374.94424</ele>
        <time>2023-04-10T15:25:27.000Z</time>
      </trkpt>
      <trkpt lat="45.82915" lon="4.73452">
        <ele>374.36343</ele>
        <time>2023-04-10T15:25:28.000Z</time>
      </trkpt>
      <trkpt lat="45.82922" lon="4.73446">
        <ele>373.75195</ele>
        <time>2023-04-10T15:25:29.000Z</time>
      </trkpt>
      <trkpt lat="45.8293" lon="4.73438">
        <ele>373.1582</ele>
        <time>2023-04-10T15:25:30.000Z</time>
      </trkpt>
      <trkpt lat="45.82939" lon="4.7343">
        <ele>372.6196</ele>
        <time>2023-04-10T15:25:31.000Z</time>
      </trkpt>
      <trkpt lat="45.82948" lon="4.73422">
        <ele>372.05685</ele>
        <time>2023-04-10T15:25:32.000Z</time>
      </trkpt>
      <trkpt lat="45.82955" lon="4.73415">
        <ele>371.53403</ele>
        <time>2023-04-10T15:25:33.000Z</time>
      </trkpt>
      <trkpt lat="45.82963" lon="4.73408">
        <ele>370.94937</ele>
        <time>2023-04-10T15:25:34.000Z</time>
      </trkpt>
      <trkpt lat="45.8297" lon="4.73405">
        <ele>370.30075</ele>
        <time>2023-04-10T15:25:35.000Z</time>
      </trkpt>
      <trkpt lat="45.82977" lon="4.73399">
        <ele>369.68488</ele>
        <time>2023-04-10T15:25:36.000Z</time>
      </trkpt>
      <trkpt lat="45.82985" lon="4.73392">
        <ele>369.06494</ele>
        <time>2023-04-10T15:25:37.000Z</time>
      </trkpt>
      <trkpt lat="45.82992" lon="4.73384">
        <ele>368.45599</ele>
        <time>2023-04-10T15:25:38.000Z</time>
      </trkpt>
      <trkpt lat="45.83" lon="4.73378">
        <ele>367.80142</ele>
        <time>2023-04-10T15:25:39.000Z</time>
      </trkpt>
      <trkpt lat="45.83008" lon="4.73372">
        <ele>367.23062</ele>
        <time>2023-04-10T15:25:40.000Z</time>
      </trkpt>
      <trkpt lat="45.83015" lon="4.73366">
        <ele>366.75879</ele>
        <time>2023-04-10T15:25:41.000Z</time>
      </trkpt>
      <trkpt lat="45.83022" lon="4.73359">
        <ele>366.30127</ele>
        <time>2023-04-10T15:25:42.000Z</time>
      </trkpt>
      <trkpt lat="45.83029" lon="4.73353">
        <ele>365.8688</ele>
        <time>2023-04-10T15:25:43.000Z</time>
      </trkpt>
      <trkpt lat="45.83036" lon="4.73346">
        <ele>365.44785</ele>
        <time>2023-04-10T15:25:44.000Z</time>
      </trkpt>
      <trkpt lat="45.83044" lon="4.7334">
        <ele>365.05426</ele>
        <time>2023-04-10T15:25:45.000Z</time>
      </trkpt>
      <trkpt lat="45.83051" lon="4.73334">
        <ele>364.62848</ele>
        <time>2023-04-10T15:25:46.000Z</time>
      </trkpt>
      <trkpt lat="45.83058" lon="4.73326">
        <ele>364.12378</ele>
        <time>2023-04-10T15:25:47.000Z</time>
      </trkpt>
      <trkpt lat="45.83065" lon="4.73319">
        <ele>363.53931</ele>
        <time>2023-04-10T15:25:48.000Z</time>
      </trkpt>
      <trkpt lat="45.83072" lon="4.73312">
        <ele>362.99399</ele>
        <time>2023-04-10T15:25:49.000Z</time>
      </trkpt>
      <trkpt lat="45.83078" lon="4.73305">
        <ele>362.41663</ele>
        <time>2023-04-10T15:25:50.000Z</time>
      </trkpt>
      <trkpt lat="45.83087" lon="4.73296">
        <ele>361.86377</ele>
        <time>2023-04-10T15:25:51.000Z</time>
      </trkpt>
      <trkpt lat="45.83093" lon="4.73289">
        <ele>361.34439</ele>
        <time>2023-04-10T15:25:52.000Z</time>
      </trkpt>
      <trkpt lat="45.83101" lon="4.73282">
        <ele>360.83578</ele>
        <time>2023-04-10T15:25:53.000Z</time>
      </trkpt>
      <trkpt lat="45.83109" lon="4.73273">
        <ele>360.31622</ele>
        <time>2023-04-10T15:25:54.000Z</time>
      </trkpt>
      <trkpt lat="45.83117" lon="4.73265">
        <ele>359.82233</ele>
        <time>2023-04-10T15:25:55.000Z</time>
      </trkpt>
      <trkpt lat="45.83122" lon="4.73256">
        <ele>359.34576</ele>
        <time>2023-04-10T15:25:56.000Z</time>
      </trkpt>
      <trkpt lat="45.83129" lon="4.7325">
        <ele>358.84576</ele>
        <time>2023-04-10T15:25:57.000Z</time>
      </trkpt>
      <trkpt lat="45.83135" lon="4.73243">
        <ele>358.36411</ele>
        <time>2023-04-10T15:25:58.000Z</time>
      </trkpt>
      <trkpt lat="45.83141" lon="4.73239">
        <ele>357.92151</ele>
        <time>2023-04-10T15:25:59.000Z</time>
      </trkpt>
      <trkpt lat="45.83145" lon="4.73233">
        <ele>357.49103</ele>
        <time>2023-04-10T15:26:00.000Z</time>
      </trkpt>
      <trkpt lat="45.83153" lon="4.73226">
        <ele>357.12469</ele>
        <time>2023-04-10T15:26:01.000Z</time>
      </trkpt>
      <trkpt lat="45.83158" lon="4.73223">
        <ele>356.76239</ele>
        <time>2023-04-10T15:26:02.000Z</time>
      </trkpt>
      <trkpt lat="45.83163" lon="4.73219">
        <ele>356.41901</ele>
        <time>2023-04-10T15:26:03.000Z</time>
      </trkpt>
      <trkpt lat="45.83168" lon="4.73214">
        <ele>356.08383</ele>
        <time>2023-04-10T15:26:04.000Z</time>
      </trkpt>
      <trkpt lat="45.83172" lon="4.73209">
        <ele>355.75031</ele>
        <time>2023-04-10T15:26:05.000Z</time>
      </trkpt>
      <trkpt lat="45.83177" lon="4.73206">
        <ele>355.47714</ele>
        <time>2023-04-10T15:26:06.000Z</time>
      </trkpt>
      <trkpt lat="45.83182" lon="4.73203">
        <ele>355.26825</ele>
        <time>2023-04-10T15:26:07.000Z</time>
      </trkpt>
      <trkpt lat="45.83187" lon="4.73195">
        <ele>355.14197</ele>
        <time>2023-04-10T15:26:08.000Z</time>
      </trkpt>
      <trkpt lat="45.83193" lon="4.73188">
        <ele>355.08832</ele>
        <time>2023-04-10T15:26:09.000Z</time>
      </trkpt>
      <trkpt lat="45.83197" lon="4.73181">
        <ele>354.91693</ele>
        <time>2023-04-10T15:26:10.000Z</time>
      </trkpt>
      <trkpt lat="45.83201" lon="4.73173">
        <ele>354.76889</ele>
        <time>2023-04-10T15:26:11.000Z</time>
      </trkpt>
      <trkpt lat="45.83201" lon="4.73167">
        <ele>354.61945</ele>
        <time>2023-04-10T15:26:12.000Z</time>
      </trkpt>
      <trkpt lat="45.83202" lon="4.73161">
        <ele>354.43918</ele>
        <time>2023-04-10T15:26:13.000Z</time>
      </trkpt>
      <trkpt lat="45.83203" lon="4.73156">
        <ele>354.31573</ele>
        <time>2023-04-10T15:26:14.000Z</time>
      </trkpt>
      <trkpt lat="45.83206" lon="4.73151">
        <ele>354.20349</ele>
        <time>2023-04-10T15:26:15.000Z</time>
      </trkpt>
      <trkpt lat="45.83205" lon="4.73148">
        <ele>354.13696</ele>
        <time>2023-04-10T15:26:16.000Z</time>
      </trkpt>
      <trkpt lat="45.83207" lon="4.73145">
        <ele>354.17499</ele>
        <time>2023-04-10T15:26:17.000Z</time>
      </trkpt>
      <trkpt lat="45.83209" lon="4.7314">
        <ele>354.20425</ele>
        <time>2023-04-10T15:26:18.000Z</time>
      </trkpt>
      <trkpt lat="45.8321" lon="4.73134">
        <ele>354.30643</ele>
        <time>2023-04-10T15:26:19.000Z</time>
      </trkpt>
      <trkpt lat="45.83211" lon="4.73126">
        <ele>354.23346</ele>
        <time>2023-04-10T15:26:20.000Z</time>
      </trkpt>
      <trkpt lat="45.83211" lon="4.7312">
        <ele>354.1246</ele>
        <time>2023-04-10T15:26:21.000Z</time>
      </trkpt>
      <trkpt lat="45.83211" lon="4.73112">
        <ele>354.01703</ele>
        <time>2023-04-10T15:26:22.000Z</time>
      </trkpt>
      <trkpt lat="45.83212" lon="4.73105">
        <ele>353.87494</ele>
        <time>2023-04-10T15:26:23.000Z</time>
      </trkpt>
      <trkpt lat="45.83214" lon="4.73098">
        <ele>353.67462</ele>
        <time>2023-04-10T15:26:24.000Z</time>
      </trkpt>
      <trkpt lat="45.83217" lon="4.7309">
        <ele>353.49454</ele>
        <time>2023-04-10T15:26:25.000Z</time>
      </trkpt>
      <trkpt lat="45.83221" lon="4.73083">
        <ele>353.2532</ele>
        <time>2023-04-10T15:26:26.000Z</time>
      </trkpt>
      <trkpt lat="45.83226" lon="4.73077">
        <ele>352.89862</ele>
        <time>2023-04-10T15:26:27.000Z</time>
      </trkpt>
      <trkpt lat="45.8323" lon="4.73071">
        <ele>352.4957</ele>
        <time>2023-04-10T15:26:28.000Z</time>
      </trkpt>
      <trkpt lat="45.83234" lon="4.73064">
        <ele>352.03204</ele>
        <time>2023-04-10T15:26:29.000Z</time>
      </trkpt>
      <trkpt lat="45.83238" lon="4.73058">
        <ele>351.702</ele>
        <time>2023-04-10T15:26:30.000Z</time>
      </trkpt>
      <trkpt lat="45.83241" lon="4.7305">
        <ele>351.48032</ele>
        <time>2023-04-10T15:26:31.000Z</time>
      </trkpt>
      <trkpt lat="45.83244" lon="4.73042">
        <ele>351.31183</ele>
        <time>2023-04-10T15:26:32.000Z</time>
      </trkpt>
      <trkpt lat="45.83247" lon="4.73035">
        <ele>351.16022</ele>
        <time>2023-04-10T15:26:33.000Z</time>
      </trkpt>
      <trkpt lat="45.8325" lon="4.73027">
        <ele>350.81024</ele>
        <time>2023-04-10T15:26:34.000Z</time>
      </trkpt>
      <trkpt lat="45.83253" lon="4.73019">
        <ele>350.47366</ele>
        <time>2023-04-10T15:26:35.000Z</time>
      </trkpt>
      <trkpt lat="45.83256" lon="4.73011">
        <ele>350.09668</ele>
        <time>2023-04-10T15:26:36.000Z</time>
      </trkpt>
      <trkpt lat="45.83259" lon="4.73003">
        <ele>349.63446</ele>
        <time>2023-04-10T15:26:37.000Z</time>
      </trkpt>
      <trkpt lat="45.83261" lon="4.72995">
        <ele>349.17889</ele>
        <time>2023-04-10T15:26:38.000Z</time>
      </trkpt>
      <trkpt lat="45.83264" lon="4.72985">
        <ele>348.70087</ele>
        <time>2023-04-10T15:26:39.000Z</time>
      </trkpt>
      <trkpt lat="45.83267" lon="4.72978">
        <ele>348.38672</ele>
        <time>2023-04-10T15:26:40.000Z</time>
      </trkpt>
      <trkpt lat="45.83272" lon="4.7297">
        <ele>348.27679</ele>
        <time>2023-04-10T15:26:41.000Z</time>
      </trkpt>
      <trkpt lat="45.83275" lon="4.72961">
        <ele>347.8172</ele>
        <time>2023-04-10T15:26:42.000Z</time>
      </trkpt>
      <trkpt lat="45.83278" lon="4.72951">
        <ele>347.34308</ele>
        <time>2023-04-10T15:26:43.000Z</time>
      </trkpt>
      <trkpt lat="45.83281" lon="4.72942">
        <ele>347.08401</ele>
        <time>2023-04-10T15:26:44.000Z</time>
      </trkpt>
      <trkpt lat="45.83283" lon="4.72935">
        <ele>346.83478</ele>
        <time>2023-04-10T15:26:45.000Z</time>
      </trkpt>
      <trkpt lat="45.83286" lon="4.72926">
        <ele>346.64713</ele>
        <time>2023-04-10T15:26:46.000Z</time>
      </trkpt>
      <trkpt lat="45.83289" lon="4.72917">
        <ele>346.47556</ele>
        <time>2023-04-10T15:26:47.000Z</time>
      </trkpt>
      <trkpt lat="45.83293" lon="4.72909">
        <ele>346.35123</ele>
        <time>2023-04-10T15:26:48.000Z</time>
      </trkpt>
      <trkpt lat="45.83293" lon="4.72902">
        <ele>346.31842</ele>
        <time>2023-04-10T15:26:49.000Z</time>
      </trkpt>
      <trkpt lat="45.83297" lon="4.72898">
        <ele>346.33255</ele>
        <time>2023-04-10T15:26:50.000Z</time>
      </trkpt>
      <trkpt lat="45.833" lon="4.72894">
        <ele>346.20786</ele>
        <time>2023-04-10T15:26:51.000Z</time>
      </trkpt>
      <trkpt lat="45.83299" lon="4.72886">
        <ele>345.73154</ele>
        <time>2023-04-10T15:26:52.000Z</time>
      </trkpt>
      <trkpt lat="45.83297" lon="4.72878">
        <ele>345.28375</ele>
        <time>2023-04-10T15:26:53.000Z</time>
      </trkpt>
      <trkpt lat="45.83294" lon="4.72871">
        <ele>345.02817</ele>
        <time>2023-04-10T15:26:54.000Z</time>
      </trkpt>
      <trkpt lat="45.8329" lon="4.72864">
        <ele>344.73245</ele>
        <time>2023-04-10T15:26:55.000Z</time>
      </trkpt>
      <trkpt lat="45.83286" lon="4.72857">
        <ele>344.43213</ele>
        <time>2023-04-10T15:26:56.000Z</time>
      </trkpt>
      <trkpt lat="45.83282" lon="4.72852">
        <ele>344.09293</ele>
        <time>2023-04-10T15:26:57.000Z</time>
      </trkpt>
      <trkpt lat="45.83277" lon="4.72847">
        <ele>343.87485</ele>
        <time>2023-04-10T15:26:58.000Z</time>
      </trkpt>
      <trkpt lat="45.83271" lon="4.72844">
        <ele>343.5791</ele>
        <time>2023-04-10T15:26:59.000Z</time>
      </trkpt>
      <trkpt lat="45.83264" lon="4.72841">
        <ele>343.26398</ele>
        <time>2023-04-10T15:27:00.000Z</time>
      </trkpt>
      <trkpt lat="45.83259" lon="4.72838">
        <ele>342.7663</ele>
        <time>2023-04-10T15:27:01.000Z</time>
      </trkpt>
      <trkpt lat="45.83253" lon="4.72834">
        <ele>342.6658</ele>
        <time>2023-04-10T15:27:02.000Z</time>
      </trkpt>
      <trkpt lat="45.83246" lon="4.72832">
        <ele>342.61041</ele>
        <time>2023-04-10T15:27:03.000Z</time>
      </trkpt>
      <trkpt lat="45.8324" lon="4.7283">
        <ele>342.15225</ele>
        <time>2023-04-10T15:27:04.000Z</time>
      </trkpt>
      <trkpt lat="45.83234" lon="4.72829">
        <ele>341.72125</ele>
        <time>2023-04-10T15:27:05.000Z</time>
      </trkpt>
      <trkpt lat="45.83227" lon="4.72826">
        <ele>341.22754</ele>
        <time>2023-04-10T15:27:06.000Z</time>
      </trkpt>
      <trkpt lat="45.8322" lon="4.72822">
        <ele>340.71588</ele>
        <time>2023-04-10T15:27:07.000Z</time>
      </trkpt>
      <trkpt lat="45.83218" lon="4.72815">
        <ele>340.20688</ele>
        <time>2023-04-10T15:27:08.000Z</time>
      </trkpt>
      <trkpt lat="45.83215" lon="4.72808">
        <ele>339.62097</ele>
        <time>2023-04-10T15:27:09.000Z</time>
      </trkpt>
      <trkpt lat="45.83215" lon="4.72801">
        <ele>339.01837</ele>
        <time>2023-04-10T15:27:10.000Z</time>
      </trkpt>
      <trkpt lat="45.83217" lon="4.72795">
        <ele>338.35855</ele>
        <time>2023-04-10T15:27:11.000Z</time>
      </trkpt>
      <trkpt lat="45.83217" lon="4.7279">
        <ele>338.06024</ele>
        <time>2023-04-10T15:27:12.000Z</time>
      </trkpt>
      <trkpt lat="45.83217" lon="4.72784">
        <ele>337.71219</ele>
        <time>2023-04-10T15:27:13.000Z</time>
      </trkpt>
      <trkpt lat="45.83219" lon="4.72777">
        <ele>337.436</ele>
        <time>2023-04-10T15:27:14.000Z</time>
      </trkpt>
      <trkpt lat="45.83221" lon="4.72771">
        <ele>337.14838</ele>
        <time>2023-04-10T15:27:15.000Z</time>
      </trkpt>
      <trkpt lat="45.83222" lon="4.72765">
        <ele>336.89243</ele>
        <time>2023-04-10T15:27:16.000Z</time>
      </trkpt>
      <trkpt lat="45.83223" lon="4.7276">
        <ele>336.69595</ele>
        <time>2023-04-10T15:27:17.000Z</time>
      </trkpt>
      <trkpt lat="45.83227" lon="4.72753">
        <ele>336.37384</ele>
        <time>2023-04-10T15:27:18.000Z</time>
      </trkpt>
      <trkpt lat="45.8323" lon="4.72748">
        <ele>336.06738</ele>
        <time>2023-04-10T15:27:19.000Z</time>
      </trkpt>
      <trkpt lat="45.83235" lon="4.72745">
        <ele>335.79572</ele>
        <time>2023-04-10T15:27:20.000Z</time>
      </trkpt>
      <trkpt lat="45.83239" lon="4.72742">
        <ele>335.47818</ele>
        <time>2023-04-10T15:27:21.000Z</time>
      </trkpt>
      <trkpt lat="45.83243" lon="4.7274">
        <ele>335.11969</ele>
        <time>2023-04-10T15:27:22.000Z</time>
      </trkpt>
      <trkpt lat="45.83248" lon="4.72738">
        <ele>335.11545</ele>
        <time>2023-04-10T15:27:23.000Z</time>
      </trkpt>
      <trkpt lat="45.83252" lon="4.72736">
        <ele>335.3129</ele>
        <time>2023-04-10T15:27:24.000Z</time>
      </trkpt>
      <trkpt lat="45.83255" lon="4.72735">
        <ele>335.49725</ele>
        <time>2023-04-10T15:27:25.000Z</time>
      </trkpt>
      <trkpt lat="45.83258" lon="4.72732">
        <ele>335.81314</ele>
        <time>2023-04-10T15:27:27.000Z</time>
      </trkpt>
      <trkpt lat="45.83258" lon="4.72728">
        <ele>336.17767</ele>
        <time>2023-04-10T15:27:28.000Z</time>
      </trkpt>
      <trkpt lat="45.83255" lon="4.72728">
        <ele>336.26434</ele>
        <time>2023-04-10T15:27:29.000Z</time>
      </trkpt>
      <trkpt lat="45.83252" lon="4.72729">
        <ele>336.36816</ele>
        <time>2023-04-10T15:27:30.000Z</time>
      </trkpt>
      <trkpt lat="45.83247" lon="4.72731">
        <ele>336.47684</ele>
        <time>2023-04-10T15:27:31.000Z</time>
      </trkpt>
      <trkpt lat="45.83243" lon="4.72731">
        <ele>336.63934</ele>
        <time>2023-04-10T15:27:32.000Z</time>
      </trkpt>
      <trkpt lat="45.83237" lon="4.72731">
        <ele>336.73029</ele>
        <time>2023-04-10T15:27:33.000Z</time>
      </trkpt>
      <trkpt lat="45.83232" lon="4.72731">
        <ele>336.85196</ele>
        <time>2023-04-10T15:27:34.000Z</time>
      </trkpt>
      <trkpt lat="45.83227" lon="4.7273">
        <ele>337.12784</ele>
        <time>2023-04-10T15:27:35.000Z</time>
      </trkpt>
      <trkpt lat="45.83221" lon="4.72729">
        <ele>337.21304</ele>
        <time>2023-04-10T15:27:36.000Z</time>
      </trkpt>
      <trkpt lat="45.83216" lon="4.72728">
        <ele>337.29037</ele>
        <time>2023-04-10T15:27:37.000Z</time>
      </trkpt>
      <trkpt lat="45.83211" lon="4.72725">
        <ele>337.37933</ele>
        <time>2023-04-10T15:27:38.000Z</time>
      </trkpt>
      <trkpt lat="45.83209" lon="4.72721">
        <ele>337.48508</ele>
        <time>2023-04-10T15:27:39.000Z</time>
      </trkpt>
      <trkpt lat="45.83208" lon="4.72715">
        <ele>337.60776</ele>
        <time>2023-04-10T15:27:40.000Z</time>
      </trkpt>
      <trkpt lat="45.83209" lon="4.72708">
        <ele>337.74921</ele>
        <time>2023-04-10T15:27:41.000Z</time>
      </trkpt>
      <trkpt lat="45.8321" lon="4.727">
        <ele>337.95078</ele>
        <time>2023-04-10T15:27:42.000Z</time>
      </trkpt>
      <trkpt lat="45.83211" lon="4.72691">
        <ele>338.18585</ele>
        <time>2023-04-10T15:27:43.000Z</time>
      </trkpt>
      <trkpt lat="45.83212" lon="4.72683">
        <ele>338.10754</ele>
        <time>2023-04-10T15:27:44.000Z</time>
      </trkpt>
      <trkpt lat="45.83213" lon="4.72674">
        <ele>338.10532</ele>
        <time>2023-04-10T15:27:45.000Z</time>
      </trkpt>
      <trkpt lat="45.83214" lon="4.72666">
        <ele>338.11417</ele>
        <time>2023-04-10T15:27:46.000Z</time>
      </trkpt>
      <trkpt lat="45.83214" lon="4.7266">
        <ele>338.02206</ele>
        <time>2023-04-10T15:27:47.000Z</time>
      </trkpt>
      <trkpt lat="45.83216" lon="4.72653">
        <ele>337.9064</ele>
        <time>2023-04-10T15:27:48.000Z</time>
      </trkpt>
      <trkpt lat="45.83216" lon="4.72645">
        <ele>338.07648</ele>
        <time>2023-04-10T15:27:49.000Z</time>
      </trkpt>
      <trkpt lat="45.83217" lon="4.72636">
        <ele>338.17368</ele>
        <time>2023-04-10T15:27:50.000Z</time>
      </trkpt>
      <trkpt lat="45.83218" lon="4.72627">
        <ele>338.24734</ele>
        <time>2023-04-10T15:27:51.000Z</time>
      </trkpt>
      <trkpt lat="45.83219" lon="4.72619">
        <ele>338.29712</ele>
        <time>2023-04-10T15:27:52.000Z</time>
      </trkpt>
      <trkpt lat="45.83221" lon="4.72609">
        <ele>338.3428</ele>
        <time>2023-04-10T15:27:53.000Z</time>
      </trkpt>
      <trkpt lat="45.83222" lon="4.72599">
        <ele>338.49908</ele>
        <time>2023-04-10T15:27:54.000Z</time>
      </trkpt>
      <trkpt lat="45.83224" lon="4.7259">
        <ele>338.5062</ele>
        <time>2023-04-10T15:27:55.000Z</time>
      </trkpt>
      <trkpt lat="45.83226" lon="4.7258">
        <ele>338.73679</ele>
        <time>2023-04-10T15:27:56.000Z</time>
      </trkpt>
      <trkpt lat="45.83228" lon="4.72571">
        <ele>338.64575</ele>
        <time>2023-04-10T15:27:57.000Z</time>
      </trkpt>
      <trkpt lat="45.8323" lon="4.7256">
        <ele>338.56802</ele>
        <time>2023-04-10T15:27:58.000Z</time>
      </trkpt>
      <trkpt lat="45.83232" lon="4.72551">
        <ele>338.47513</ele>
        <time>2023-04-10T15:27:59.000Z</time>
      </trkpt>
      <trkpt lat="45.83234" lon="4.7254">
        <ele>338.39069</ele>
        <time>2023-04-10T15:28:00.000Z</time>
      </trkpt>
      <trkpt lat="45.83236" lon="4.72531">
        <ele>338.29373</ele>
        <time>2023-04-10T15:28:01.000Z</time>
      </trkpt>
      <trkpt lat="45.83238" lon="4.7252">
        <ele>338.1669</ele>
        <time>2023-04-10T15:28:02.000Z</time>
      </trkpt>
      <trkpt lat="45.8324" lon="4.7251">
        <ele>337.84866</ele>
        <time>2023-04-10T15:28:03.000Z</time>
      </trkpt>
      <trkpt lat="45.83241" lon="4.72499">
        <ele>337.50241</ele>
        <time>2023-04-10T15:28:04.000Z</time>
      </trkpt>
      <trkpt lat="45.83242" lon="4.72489">
        <ele>337.1618</ele>
        <time>2023-04-10T15:28:05.000Z</time>
      </trkpt>
      <trkpt lat="45.83242" lon="4.72479">
        <ele>336.80484</ele>
        <time>2023-04-10T15:28:06.000Z</time>
      </trkpt>
      <trkpt lat="45.83241" lon="4.7247">
        <ele>336.6459</ele>
        <time>2023-04-10T15:28:07.000Z</time>
      </trkpt>
      <trkpt lat="45.83241" lon="4.7246">
        <ele>336.50186</ele>
        <time>2023-04-10T15:28:08.000Z</time>
      </trkpt>
      <trkpt lat="45.83239" lon="4.72452">
        <ele>336.38647</ele>
        <time>2023-04-10T15:28:09.000Z</time>
      </trkpt>
      <trkpt lat="45.83238" lon="4.72443">
        <ele>336.33875</ele>
        <time>2023-04-10T15:28:10.000Z</time>
      </trkpt>
      <trkpt lat="45.83238" lon="4.72435">
        <ele>336.32294</ele>
        <time>2023-04-10T15:28:11.000Z</time>
      </trkpt>
      <trkpt lat="45.83237" lon="4.72427">
        <ele>336.34821</ele>
        <time>2023-04-10T15:28:12.000Z</time>
      </trkpt>
      <trkpt lat="45.83237" lon="4.72419">
        <ele>336.40457</ele>
        <time>2023-04-10T15:28:13.000Z</time>
      </trkpt>
      <trkpt lat="45.83236" lon="4.7241">
        <ele>336.35248</ele>
        <time>2023-04-10T15:28:14.000Z</time>
      </trkpt>
      <trkpt lat="45.83235" lon="4.72403">
        <ele>336.23666</ele>
        <time>2023-04-10T15:28:15.000Z</time>
      </trkpt>
      <trkpt lat="45.83234" lon="4.72394">
        <ele>336.15619</ele>
        <time>2023-04-10T15:28:16.000Z</time>
      </trkpt>
      <trkpt lat="45.83233" lon="4.72387">
        <ele>336.40762</ele>
        <time>2023-04-10T15:28:17.000Z</time>
      </trkpt>
      <trkpt lat="45.83232" lon="4.72379">
        <ele>336.63974</ele>
        <time>2023-04-10T15:28:18.000Z</time>
      </trkpt>
      <trkpt lat="45.8323" lon="4.72373">
        <ele>336.89026</ele>
        <time>2023-04-10T15:28:19.000Z</time>
      </trkpt>
      <trkpt lat="45.83229" lon="4.72366">
        <ele>337.1366</ele>
        <time>2023-04-10T15:28:20.000Z</time>
      </trkpt>
      <trkpt lat="45.83228" lon="4.72359">
        <ele>337.41223</ele>
        <time>2023-04-10T15:28:21.000Z</time>
      </trkpt>
      <trkpt lat="45.83228" lon="4.72352">
        <ele>337.67001</ele>
        <time>2023-04-10T15:28:22.000Z</time>
      </trkpt>
      <trkpt lat="45.83227" lon="4.72344">
        <ele>338.07196</ele>
        <time>2023-04-10T15:28:23.000Z</time>
      </trkpt>
      <trkpt lat="45.83225" lon="4.72338">
        <ele>338.48303</ele>
        <time>2023-04-10T15:28:24.000Z</time>
      </trkpt>
      <trkpt lat="45.83224" lon="4.72332">
        <ele>338.89569</ele>
        <time>2023-04-10T15:28:25.000Z</time>
      </trkpt>
      <trkpt lat="45.83223" lon="4.72326">
        <ele>339.30371</ele>
        <time>2023-04-10T15:28:26.000Z</time>
      </trkpt>
      <trkpt lat="45.83222" lon="4.72321">
        <ele>339.55423</ele>
        <time>2023-04-10T15:28:27.000Z</time>
      </trkpt>
      <trkpt lat="45.83222" lon="4.72315">
        <ele>339.81061</ele>
        <time>2023-04-10T15:28:28.000Z</time>
      </trkpt>
      <trkpt lat="45.83221" lon="4.7231">
        <ele>340.05014</ele>
        <time>2023-04-10T15:28:29.000Z</time>
      </trkpt>
      <trkpt lat="45.83222" lon="4.72307">
        <ele>340.26572</ele>
        <time>2023-04-10T15:28:30.000Z</time>
      </trkpt>
      <trkpt lat="45.83225" lon="4.72303">
        <ele>340.52417</ele>
        <time>2023-04-10T15:28:31.000Z</time>
      </trkpt>
      <trkpt lat="45.83227" lon="4.723">
        <ele>340.74405</ele>
        <time>2023-04-10T15:28:32.000Z</time>
      </trkpt>
      <trkpt lat="45.8323" lon="4.72297">
        <ele>340.92691</ele>
        <time>2023-04-10T15:28:33.000Z</time>
      </trkpt>
      <trkpt lat="45.83234" lon="4.72295">
        <ele>341.1348</ele>
        <time>2023-04-10T15:28:34.000Z</time>
      </trkpt>
      <trkpt lat="45.83237" lon="4.72292">
        <ele>341.2818</ele>
        <time>2023-04-10T15:28:35.000Z</time>
      </trkpt>
      <trkpt lat="45.83241" lon="4.72289">
        <ele>341.40857</ele>
        <time>2023-04-10T15:28:36.000Z</time>
      </trkpt>
      <trkpt lat="45.83245" lon="4.72287">
        <ele>341.49301</ele>
        <time>2023-04-10T15:28:37.000Z</time>
      </trkpt>
      <trkpt lat="45.83249" lon="4.72282">
        <ele>341.57968</ele>
        <time>2023-04-10T15:28:38.000Z</time>
      </trkpt>
      <trkpt lat="45.83252" lon="4.72279">
        <ele>341.66284</ele>
        <time>2023-04-10T15:28:39.000Z</time>
      </trkpt>
      <trkpt lat="45.83257" lon="4.72275">
        <ele>341.7525</ele>
        <time>2023-04-10T15:28:40.000Z</time>
      </trkpt>
      <trkpt lat="45.83261" lon="4.72271">
        <ele>341.80194</ele>
        <time>2023-04-10T15:28:41.000Z</time>
      </trkpt>
      <trkpt lat="45.83265" lon="4.72267">
        <ele>341.90942</ele>
        <time>2023-04-10T15:28:42.000Z</time>
      </trkpt>
      <trkpt lat="45.83269" lon="4.72263">
        <ele>342.0094</ele>
        <time>2023-04-10T15:28:43.000Z</time>
      </trkpt>
      <trkpt lat="45.83273" lon="4.72259">
        <ele>342.09653</ele>
        <time>2023-04-10T15:28:44.000Z</time>
      </trkpt>
      <trkpt lat="45.83278" lon="4.72255">
        <ele>342.17532</ele>
        <time>2023-04-10T15:28:45.000Z</time>
      </trkpt>
      <trkpt lat="45.83283" lon="4.72251">
        <ele>342.267</ele>
        <time>2023-04-10T15:28:46.000Z</time>
      </trkpt>
      <trkpt lat="45.83287" lon="4.72248">
        <ele>342.31323</ele>
        <time>2023-04-10T15:28:47.000Z</time>
      </trkpt>
      <trkpt lat="45.83291" lon="4.72244">
        <ele>342.32819</ele>
        <time>2023-04-10T15:28:48.000Z</time>
      </trkpt>
      <trkpt lat="45.83296" lon="4.72241">
        <ele>342.30804</ele>
        <time>2023-04-10T15:28:49.000Z</time>
      </trkpt>
      <trkpt lat="45.83301" lon="4.72237">
        <ele>342.28922</ele>
        <time>2023-04-10T15:28:50.000Z</time>
      </trkpt>
      <trkpt lat="45.83306" lon="4.72232">
        <ele>342.19266</ele>
        <time>2023-04-10T15:28:51.000Z</time>
      </trkpt>
      <trkpt lat="45.8331" lon="4.72228">
        <ele>342.02948</ele>
        <time>2023-04-10T15:28:52.000Z</time>
      </trkpt>
      <trkpt lat="45.83315" lon="4.72224">
        <ele>341.85486</ele>
        <time>2023-04-10T15:28:53.000Z</time>
      </trkpt>
      <trkpt lat="45.83319" lon="4.7222">
        <ele>341.6402</ele>
        <time>2023-04-10T15:28:54.000Z</time>
      </trkpt>
      <trkpt lat="45.83324" lon="4.72216">
        <ele>341.58813</ele>
        <time>2023-04-10T15:28:55.000Z</time>
      </trkpt>
      <trkpt lat="45.83329" lon="4.72211">
        <ele>341.49753</ele>
        <time>2023-04-10T15:28:56.000Z</time>
      </trkpt>
      <trkpt lat="45.83334" lon="4.72206">
        <ele>341.42264</ele>
        <time>2023-04-10T15:28:57.000Z</time>
      </trkpt>
      <trkpt lat="45.83339" lon="4.72201">
        <ele>341.15604</ele>
        <time>2023-04-10T15:28:58.000Z</time>
      </trkpt>
      <trkpt lat="45.83344" lon="4.72199">
        <ele>340.91422</ele>
        <time>2023-04-10T15:28:59.000Z</time>
      </trkpt>
      <trkpt lat="45.83349" lon="4.72195">
        <ele>340.65656</ele>
        <time>2023-04-10T15:29:00.000Z</time>
      </trkpt>
      <trkpt lat="45.83354" lon="4.72191">
        <ele>340.40326</ele>
        <time>2023-04-10T15:29:01.000Z</time>
      </trkpt>
      <trkpt lat="45.8336" lon="4.72186">
        <ele>340.11426</ele>
        <time>2023-04-10T15:29:02.000Z</time>
      </trkpt>
      <trkpt lat="45.83365" lon="4.72182">
        <ele>339.84808</ele>
        <time>2023-04-10T15:29:03.000Z</time>
      </trkpt>
      <trkpt lat="45.83371" lon="4.72178">
        <ele>339.58456</ele>
        <time>2023-04-10T15:29:04.000Z</time>
      </trkpt>
      <trkpt lat="45.83377" lon="4.72174">
        <ele>339.30411</ele>
        <time>2023-04-10T15:29:05.000Z</time>
      </trkpt>
      <trkpt lat="45.83383" lon="4.7217">
        <ele>339.03033</ele>
        <time>2023-04-10T15:29:06.000Z</time>
      </trkpt>
      <trkpt lat="45.83388" lon="4.72166">
        <ele>338.76007</ele>
        <time>2023-04-10T15:29:07.000Z</time>
      </trkpt>
      <trkpt lat="45.83395" lon="4.72162">
        <ele>338.49234</ele>
        <time>2023-04-10T15:29:08.000Z</time>
      </trkpt>
      <trkpt lat="45.834" lon="4.72158">
        <ele>338.23318</ele>
        <time>2023-04-10T15:29:09.000Z</time>
      </trkpt>
      <trkpt lat="45.83404" lon="4.72153">
        <ele>337.96634</ele>
        <time>2023-04-10T15:29:10.000Z</time>
      </trkpt>
      <trkpt lat="45.83409" lon="4.72146">
        <ele>337.79752</ele>
        <time>2023-04-10T15:29:11.000Z</time>
      </trkpt>
      <trkpt lat="45.83413" lon="4.72138">
        <ele>337.69888</ele>
        <time>2023-04-10T15:29:12.000Z</time>
      </trkpt>
      <trkpt lat="45.83417" lon="4.72129">
        <ele>337.6282</ele>
        <time>2023-04-10T15:29:13.000Z</time>
      </trkpt>
      <trkpt lat="45.8342" lon="4.72121">
        <ele>337.61832</ele>
        <time>2023-04-10T15:29:14.000Z</time>
      </trkpt>
      <trkpt lat="45.83422" lon="4.72112">
        <ele>337.50864</ele>
        <time>2023-04-10T15:29:15.000Z</time>
      </trkpt>
      <trkpt lat="45.83425" lon="4.72103">
        <ele>337.21143</ele>
        <time>2023-04-10T15:29:16.000Z</time>
      </trkpt>
      <trkpt lat="45.83427" lon="4.72093">
        <ele>336.89752</ele>
        <time>2023-04-10T15:29:17.000Z</time>
      </trkpt>
      <trkpt lat="45.8343" lon="4.72084">
        <ele>336.76553</ele>
        <time>2023-04-10T15:29:18.000Z</time>
      </trkpt>
      <trkpt lat="45.83432" lon="4.72076">
        <ele>336.60922</ele>
        <time>2023-04-10T15:29:19.000Z</time>
      </trkpt>
      <trkpt lat="45.83434" lon="4.72068">
        <ele>336.47003</ele>
        <time>2023-04-10T15:29:20.000Z</time>
      </trkpt>
      <trkpt lat="45.83437" lon="4.7206">
        <ele>336.37061</ele>
        <time>2023-04-10T15:29:21.000Z</time>
      </trkpt>
      <trkpt lat="45.8344" lon="4.72054">
        <ele>336.35162</ele>
        <time>2023-04-10T15:29:22.000Z</time>
      </trkpt>
      <trkpt lat="45.83442" lon="4.72048">
        <ele>336.30658</ele>
        <time>2023-04-10T15:29:23.000Z</time>
      </trkpt>
      <trkpt lat="45.83446" lon="4.72043">
        <ele>336.18979</ele>
        <time>2023-04-10T15:29:24.000Z</time>
      </trkpt>
      <trkpt lat="45.83448" lon="4.72035">
        <ele>336.1091</ele>
        <time>2023-04-10T15:29:25.000Z</time>
      </trkpt>
      <trkpt lat="45.83449" lon="4.72027">
        <ele>335.97592</ele>
        <time>2023-04-10T15:29:26.000Z</time>
      </trkpt>
      <trkpt lat="45.83449" lon="4.7202">
        <ele>335.85663</ele>
        <time>2023-04-10T15:29:27.000Z</time>
      </trkpt>
      <trkpt lat="45.83451" lon="4.72012">
        <ele>335.72113</ele>
        <time>2023-04-10T15:29:28.000Z</time>
      </trkpt>
      <trkpt lat="45.83453" lon="4.72005">
        <ele>335.61407</ele>
        <time>2023-04-10T15:29:29.000Z</time>
      </trkpt>
      <trkpt lat="45.83455" lon="4.71996">
        <ele>335.50247</ele>
        <time>2023-04-10T15:29:30.000Z</time>
      </trkpt>
      <trkpt lat="45.83458" lon="4.71988">
        <ele>335.29446</ele>
        <time>2023-04-10T15:29:31.000Z</time>
      </trkpt>
      <trkpt lat="45.8346" lon="4.7198">
        <ele>335.08746</ele>
        <time>2023-04-10T15:29:32.000Z</time>
      </trkpt>
      <trkpt lat="45.83462" lon="4.71971">
        <ele>334.89771</ele>
        <time>2023-04-10T15:29:33.000Z</time>
      </trkpt>
      <trkpt lat="45.83465" lon="4.71962">
        <ele>334.66983</ele>
        <time>2023-04-10T15:29:34.000Z</time>
      </trkpt>
      <trkpt lat="45.83467" lon="4.71954">
        <ele>334.383</ele>
        <time>2023-04-10T15:29:35.000Z</time>
      </trkpt>
      <trkpt lat="45.83469" lon="4.71944">
        <ele>334.27737</ele>
        <time>2023-04-10T15:29:36.000Z</time>
      </trkpt>
      <trkpt lat="45.83471" lon="4.71935">
        <ele>334.18411</ele>
        <time>2023-04-10T15:29:37.000Z</time>
      </trkpt>
      <trkpt lat="45.83473" lon="4.71925">
        <ele>334.06744</ele>
        <time>2023-04-10T15:29:38.000Z</time>
      </trkpt>
      <trkpt lat="45.83475" lon="4.71915">
        <ele>333.93024</ele>
        <time>2023-04-10T15:29:39.000Z</time>
      </trkpt>
      <trkpt lat="45.83478" lon="4.71905">
        <ele>333.78607</ele>
        <time>2023-04-10T15:29:40.000Z</time>
      </trkpt>
      <trkpt lat="45.8348" lon="4.71895">
        <ele>333.5928</ele>
        <time>2023-04-10T15:29:41.000Z</time>
      </trkpt>
      <trkpt lat="45.83481" lon="4.71884">
        <ele>333.32919</ele>
        <time>2023-04-10T15:29:42.000Z</time>
      </trkpt>
      <trkpt lat="45.8348" lon="4.71874">
        <ele>333.04602</ele>
        <time>2023-04-10T15:29:43.000Z</time>
      </trkpt>
      <trkpt lat="45.83477" lon="4.71863">
        <ele>332.82022</ele>
        <time>2023-04-10T15:29:44.000Z</time>
      </trkpt>
      <trkpt lat="45.83472" lon="4.71853">
        <ele>332.66287</ele>
        <time>2023-04-10T15:29:45.000Z</time>
      </trkpt>
      <trkpt lat="45.83467" lon="4.71843">
        <ele>332.50836</ele>
        <time>2023-04-10T15:29:46.000Z</time>
      </trkpt>
      <trkpt lat="45.83463" lon="4.71832">
        <ele>332.32364</ele>
        <time>2023-04-10T15:29:47.000Z</time>
      </trkpt>
      <trkpt lat="45.83458" lon="4.71821">
        <ele>332.14462</ele>
        <time>2023-04-10T15:29:48.000Z</time>
      </trkpt>
      <trkpt lat="45.83454" lon="4.71809">
        <ele>332.08972</ele>
        <time>2023-04-10T15:29:49.000Z</time>
      </trkpt>
      <trkpt lat="45.8345" lon="4.71797">
        <ele>332.09579</ele>
        <time>2023-04-10T15:29:50.000Z</time>
      </trkpt>
      <trkpt lat="45.83446" lon="4.71785">
        <ele>332.08826</ele>
        <time>2023-04-10T15:29:51.000Z</time>
      </trkpt>
      <trkpt lat="45.83441" lon="4.71772">
        <ele>332.12378</ele>
        <time>2023-04-10T15:29:52.000Z</time>
      </trkpt>
      <trkpt lat="45.83437" lon="4.7176">
        <ele>331.71576</ele>
        <time>2023-04-10T15:29:53.000Z</time>
      </trkpt>
      <trkpt lat="45.83433" lon="4.71748">
        <ele>331.3688</ele>
        <time>2023-04-10T15:29:54.000Z</time>
      </trkpt>
      <trkpt lat="45.83431" lon="4.71734">
        <ele>331.05768</ele>
        <time>2023-04-10T15:29:55.000Z</time>
      </trkpt>
      <trkpt lat="45.83428" lon="4.71722">
        <ele>330.76138</ele>
        <time>2023-04-10T15:29:56.000Z</time>
      </trkpt>
      <trkpt lat="45.83426" lon="4.7171">
        <ele>330.48859</ele>
        <time>2023-04-10T15:29:57.000Z</time>
      </trkpt>
      <trkpt lat="45.83424" lon="4.717">
        <ele>330.46082</ele>
        <time>2023-04-10T15:29:58.000Z</time>
      </trkpt>
      <trkpt lat="45.83422" lon="4.7169">
        <ele>330.45978</ele>
        <time>2023-04-10T15:29:59.000Z</time>
      </trkpt>
      <trkpt lat="45.8342" lon="4.71682">
        <ele>330.45786</ele>
        <time>2023-04-10T15:30:00.000Z</time>
      </trkpt>
      <trkpt lat="45.83419" lon="4.71675">
        <ele>330.59415</ele>
        <time>2023-04-10T15:30:01.000Z</time>
      </trkpt>
      <trkpt lat="45.83419" lon="4.71669">
        <ele>330.75049</ele>
        <time>2023-04-10T15:30:02.000Z</time>
      </trkpt>
      <trkpt lat="45.83418" lon="4.71664">
        <ele>330.95413</ele>
        <time>2023-04-10T15:30:03.000Z</time>
      </trkpt>
      <trkpt lat="45.83415" lon="4.71657">
        <ele>330.79245</ele>
        <time>2023-04-10T15:30:04.000Z</time>
      </trkpt>
      <trkpt lat="45.83414" lon="4.7165">
        <ele>330.64902</ele>
        <time>2023-04-10T15:30:05.000Z</time>
      </trkpt>
      <trkpt lat="45.83413" lon="4.71643">
        <ele>330.53833</ele>
        <time>2023-04-10T15:30:06.000Z</time>
      </trkpt>
      <trkpt lat="45.83412" lon="4.71635">
        <ele>330.48096</ele>
        <time>2023-04-10T15:30:07.000Z</time>
      </trkpt>
      <trkpt lat="45.8341" lon="4.71629">
        <ele>330.4678</ele>
        <time>2023-04-10T15:30:08.000Z</time>
      </trkpt>
      <trkpt lat="45.83409" lon="4.71622">
        <ele>330.33652</ele>
        <time>2023-04-10T15:30:09.000Z</time>
      </trkpt>
      <trkpt lat="45.83407" lon="4.71615">
        <ele>330.15442</ele>
        <time>2023-04-10T15:30:10.000Z</time>
      </trkpt>
      <trkpt lat="45.83406" lon="4.71609">
        <ele>329.98019</ele>
        <time>2023-04-10T15:30:11.000Z</time>
      </trkpt>
      <trkpt lat="45.83405" lon="4.71603">
        <ele>329.80908</ele>
        <time>2023-04-10T15:30:12.000Z</time>
      </trkpt>
      <trkpt lat="45.83403" lon="4.71597">
        <ele>330.07861</ele>
        <time>2023-04-10T15:30:13.000Z</time>
      </trkpt>
      <trkpt lat="45.83401" lon="4.71591">
        <ele>330.28421</ele>
        <time>2023-04-10T15:30:14.000Z</time>
      </trkpt>
      <trkpt lat="45.83398" lon="4.71584">
        <ele>330.50266</ele>
        <time>2023-04-10T15:30:15.000Z</time>
      </trkpt>
      <trkpt lat="45.83394" lon="4.71582">
        <ele>330.75992</ele>
        <time>2023-04-10T15:30:16.000Z</time>
      </trkpt>
      <trkpt lat="45.83389" lon="4.71581">
        <ele>331.01364</ele>
        <time>2023-04-10T15:30:17.000Z</time>
      </trkpt>
      <trkpt lat="45.83384" lon="4.71582">
        <ele>331.24973</ele>
        <time>2023-04-10T15:30:18.000Z</time>
      </trkpt>
      <trkpt lat="45.8338" lon="4.71586">
        <ele>331.56039</ele>
        <time>2023-04-10T15:30:19.000Z</time>
      </trkpt>
      <trkpt lat="45.83377" lon="4.71592">
        <ele>331.91815</ele>
        <time>2023-04-10T15:30:20.000Z</time>
      </trkpt>
      <trkpt lat="45.83375" lon="4.71598">
        <ele>331.85776</ele>
        <time>2023-04-10T15:30:21.000Z</time>
      </trkpt>
      <trkpt lat="45.83374" lon="4.71605">
        <ele>331.8587</ele>
        <time>2023-04-10T15:30:22.000Z</time>
      </trkpt>
      <trkpt lat="45.83372" lon="4.7161">
        <ele>331.86707</ele>
        <time>2023-04-10T15:30:23.000Z</time>
      </trkpt>
      <trkpt lat="45.83369" lon="4.71615">
        <ele>332.25327</ele>
        <time>2023-04-10T15:30:24.000Z</time>
      </trkpt>
      <trkpt lat="45.83368" lon="4.71619">
        <ele>332.59003</ele>
        <time>2023-04-10T15:30:25.000Z</time>
      </trkpt>
      <trkpt lat="45.83364" lon="4.71621">
        <ele>332.90067</ele>
        <time>2023-04-10T15:30:26.000Z</time>
      </trkpt>
      <trkpt lat="45.83361" lon="4.7162">
        <ele>333.24081</ele>
        <time>2023-04-10T15:30:27.000Z</time>
      </trkpt>
      <trkpt lat="45.83359" lon="4.71615">
        <ele>333.56284</ele>
        <time>2023-04-10T15:30:28.000Z</time>
      </trkpt>
      <trkpt lat="45.83361" lon="4.7161">
        <ele>333.8681</ele>
        <time>2023-04-10T15:30:29.000Z</time>
      </trkpt>
      <trkpt lat="45.83363" lon="4.71603">
        <ele>334.16037</ele>
        <time>2023-04-10T15:30:30.000Z</time>
      </trkpt>
      <trkpt lat="45.83366" lon="4.71597">
        <ele>334.49374</ele>
        <time>2023-04-10T15:30:31.000Z</time>
      </trkpt>
      <trkpt lat="45.83368" lon="4.7159">
        <ele>334.79315</ele>
        <time>2023-04-10T15:30:32.000Z</time>
      </trkpt>
      <trkpt lat="45.8337" lon="4.71585">
        <ele>335.05054</ele>
        <time>2023-04-10T15:30:33.000Z</time>
      </trkpt>
      <trkpt lat="45.83372" lon="4.71578">
        <ele>335.31573</ele>
        <time>2023-04-10T15:30:34.000Z</time>
      </trkpt>
      <trkpt lat="45.83375" lon="4.71572">
        <ele>335.59671</ele>
        <time>2023-04-10T15:30:35.000Z</time>
      </trkpt>
      <trkpt lat="45.83378" lon="4.71566">
        <ele>335.84067</ele>
        <time>2023-04-10T15:30:36.000Z</time>
      </trkpt>
      <trkpt lat="45.83381" lon="4.71561">
        <ele>336.19293</ele>
        <time>2023-04-10T15:30:37.000Z</time>
      </trkpt>
      <trkpt lat="45.83385" lon="4.71557">
        <ele>336.34836</ele>
        <time>2023-04-10T15:30:38.000Z</time>
      </trkpt>
      <trkpt lat="45.83389" lon="4.71554">
        <ele>336.42578</ele>
        <time>2023-04-10T15:30:39.000Z</time>
      </trkpt>
      <trkpt lat="45.83394" lon="4.71553">
        <ele>336.54608</ele>
        <time>2023-04-10T15:30:40.000Z</time>
      </trkpt>
      <trkpt lat="45.83398" lon="4.71553">
        <ele>336.6897</ele>
        <time>2023-04-10T15:30:41.000Z</time>
      </trkpt>
      <trkpt lat="45.83403" lon="4.71554">
        <ele>336.86407</ele>
        <time>2023-04-10T15:30:42.000Z</time>
      </trkpt>
      <trkpt lat="45.83407" lon="4.71557">
        <ele>337.05084</ele>
        <time>2023-04-10T15:30:43.000Z</time>
      </trkpt>
      <trkpt lat="45.83411" lon="4.71561">
        <ele>337.23398</ele>
        <time>2023-04-10T15:30:44.000Z</time>
      </trkpt>
      <trkpt lat="45.83414" lon="4.71565">
        <ele>337.38824</ele>
        <time>2023-04-10T15:30:45.000Z</time>
      </trkpt>
      <trkpt lat="45.83418" lon="4.7157">
        <ele>337.56671</ele>
        <time>2023-04-10T15:30:46.000Z</time>
      </trkpt>
      <trkpt lat="45.83422" lon="4.71574">
        <ele>337.75067</ele>
        <time>2023-04-10T15:30:47.000Z</time>
      </trkpt>
      <trkpt lat="45.83426" lon="4.71578">
        <ele>337.94183</ele>
        <time>2023-04-10T15:30:48.000Z</time>
      </trkpt>
      <trkpt lat="45.8343" lon="4.71582">
        <ele>338.12601</ele>
        <time>2023-04-10T15:30:49.000Z</time>
      </trkpt>
      <trkpt lat="45.83434" lon="4.71585">
        <ele>338.29153</ele>
        <time>2023-04-10T15:30:50.000Z</time>
      </trkpt>
      <trkpt lat="45.83437" lon="4.71588">
        <ele>338.47021</ele>
        <time>2023-04-10T15:30:51.000Z</time>
      </trkpt>
      <trkpt lat="45.83442" lon="4.71588">
        <ele>338.65063</ele>
        <time>2023-04-10T15:30:52.000Z</time>
      </trkpt>
      <trkpt lat="45.83445" lon="4.71584">
        <ele>338.88019</ele>
        <time>2023-04-10T15:30:53.000Z</time>
      </trkpt>
      <trkpt lat="45.83449" lon="4.71578">
        <ele>339.11844</ele>
        <time>2023-04-10T15:30:54.000Z</time>
      </trkpt>
      <trkpt lat="45.83451" lon="4.71571">
        <ele>339.34503</ele>
        <time>2023-04-10T15:30:55.000Z</time>
      </trkpt>
      <trkpt lat="45.83451" lon="4.71565">
        <ele>339.5769</ele>
        <time>2023-04-10T15:30:56.000Z</time>
      </trkpt>
      <trkpt lat="45.83451" lon="4.71558">
        <ele>339.68893</ele>
        <time>2023-04-10T15:30:57.000Z</time>
      </trkpt>
      <trkpt lat="45.83453" lon="4.71552">
        <ele>339.81247</ele>
        <time>2023-04-10T15:30:58.000Z</time>
      </trkpt>
      <trkpt lat="45.83453" lon="4.71545">
        <ele>339.9285</ele>
        <time>2023-04-10T15:30:59.000Z</time>
      </trkpt>
      <trkpt lat="45.83454" lon="4.71539">
        <ele>339.97079</ele>
        <time>2023-04-10T15:31:00.000Z</time>
      </trkpt>
      <trkpt lat="45.83455" lon="4.71532">
        <ele>340.25311</ele>
        <time>2023-04-10T15:31:01.000Z</time>
      </trkpt>
      <trkpt lat="45.83456" lon="4.71526">
        <ele>340.39612</ele>
        <time>2023-04-10T15:31:02.000Z</time>
      </trkpt>
      <trkpt lat="45.83456" lon="4.7152">
        <ele>340.52512</ele>
        <time>2023-04-10T15:31:03.000Z</time>
      </trkpt>
      <trkpt lat="45.83457" lon="4.71514">
        <ele>340.66742</ele>
        <time>2023-04-10T15:31:04.000Z</time>
      </trkpt>
      <trkpt lat="45.83458" lon="4.71508">
        <ele>340.81604</ele>
        <time>2023-04-10T15:31:05.000Z</time>
      </trkpt>
      <trkpt lat="45.83458" lon="4.71503">
        <ele>340.96771</ele>
        <time>2023-04-10T15:31:06.000Z</time>
      </trkpt>
      <trkpt lat="45.8346" lon="4.71498">
        <ele>341.07196</ele>
        <time>2023-04-10T15:31:07.000Z</time>
      </trkpt>
      <trkpt lat="45.8346" lon="4.71493">
        <ele>341.17575</ele>
        <time>2023-04-10T15:31:08.000Z</time>
      </trkpt>
      <trkpt lat="45.83459" lon="4.71488">
        <ele>341.48117</ele>
        <time>2023-04-10T15:31:09.000Z</time>
      </trkpt>
      <trkpt lat="45.83458" lon="4.71482">
        <ele>341.82855</ele>
        <time>2023-04-10T15:31:10.000Z</time>
      </trkpt>
      <trkpt lat="45.83452" lon="4.71481">
        <ele>342.14005</ele>
        <time>2023-04-10T15:31:11.000Z</time>
      </trkpt>
      <trkpt lat="45.83449" lon="4.71478">
        <ele>342.44708</ele>
        <time>2023-04-10T15:31:12.000Z</time>
      </trkpt>
      <trkpt lat="45.83444" lon="4.71475">
        <ele>342.73169</ele>
        <time>2023-04-10T15:31:13.000Z</time>
      </trkpt>
      <trkpt lat="45.83439" lon="4.71473">
        <ele>343.0061</ele>
        <time>2023-04-10T15:31:14.000Z</time>
      </trkpt>
      <trkpt lat="45.83435" lon="4.7147">
        <ele>343.27228</ele>
        <time>2023-04-10T15:31:15.000Z</time>
      </trkpt>
      <trkpt lat="45.8343" lon="4.71468">
        <ele>343.5517</ele>
        <time>2023-04-10T15:31:16.000Z</time>
      </trkpt>
      <trkpt lat="45.83426" lon="4.71465">
        <ele>343.83929</ele>
        <time>2023-04-10T15:31:17.000Z</time>
      </trkpt>
      <trkpt lat="45.83422" lon="4.71462">
        <ele>344.1105</ele>
        <time>2023-04-10T15:31:18.000Z</time>
      </trkpt>
      <trkpt lat="45.83418" lon="4.71458">
        <ele>344.21896</ele>
        <time>2023-04-10T15:31:19.000Z</time>
      </trkpt>
      <trkpt lat="45.83415" lon="4.71454">
        <ele>344.3663</ele>
        <time>2023-04-10T15:31:20.000Z</time>
      </trkpt>
      <trkpt lat="45.83411" lon="4.7145">
        <ele>344.55695</ele>
        <time>2023-04-10T15:31:21.000Z</time>
      </trkpt>
      <trkpt lat="45.83408" lon="4.71445">
        <ele>344.77258</ele>
        <time>2023-04-10T15:31:22.000Z</time>
      </trkpt>
      <trkpt lat="45.83404" lon="4.71441">
        <ele>345.00787</ele>
        <time>2023-04-10T15:31:23.000Z</time>
      </trkpt>
      <trkpt lat="45.83401" lon="4.71436">
        <ele>345.3154</ele>
        <time>2023-04-10T15:31:24.000Z</time>
      </trkpt>
      <trkpt lat="45.83398" lon="4.7143">
        <ele>345.60812</ele>
        <time>2023-04-10T15:31:25.000Z</time>
      </trkpt>
      <trkpt lat="45.83395" lon="4.71426">
        <ele>345.93149</ele>
        <time>2023-04-10T15:31:26.000Z</time>
      </trkpt>
      <trkpt lat="45.83392" lon="4.71421">
        <ele>346.2749</ele>
        <time>2023-04-10T15:31:27.000Z</time>
      </trkpt>
      <trkpt lat="45.83389" lon="4.71416">
        <ele>346.6098</ele>
        <time>2023-04-10T15:31:28.000Z</time>
      </trkpt>
      <trkpt lat="45.83386" lon="4.71412">
        <ele>346.78143</ele>
        <time>2023-04-10T15:31:29.000Z</time>
      </trkpt>
      <trkpt lat="45.83383" lon="4.71406">
        <ele>346.96518</ele>
        <time>2023-04-10T15:31:30.000Z</time>
      </trkpt>
      <trkpt lat="45.8338" lon="4.71401">
        <ele>347.00854</ele>
        <time>2023-04-10T15:31:31.000Z</time>
      </trkpt>
      <trkpt lat="45.83378" lon="4.71395">
        <ele>347.04608</ele>
        <time>2023-04-10T15:31:32.000Z</time>
      </trkpt>
      <trkpt lat="45.83374" lon="4.7139">
        <ele>347.09848</ele>
        <time>2023-04-10T15:31:33.000Z</time>
      </trkpt>
      <trkpt lat="45.83371" lon="4.71385">
        <ele>347.13885</ele>
        <time>2023-04-10T15:31:34.000Z</time>
      </trkpt>
      <trkpt lat="45.83369" lon="4.7138">
        <ele>347.22421</ele>
        <time>2023-04-10T15:31:35.000Z</time>
      </trkpt>
      <trkpt lat="45.83367" lon="4.71375">
        <ele>347.3129</ele>
        <time>2023-04-10T15:31:36.000Z</time>
      </trkpt>
      <trkpt lat="45.83364" lon="4.7137">
        <ele>347.39948</ele>
        <time>2023-04-10T15:31:37.000Z</time>
      </trkpt>
      <trkpt lat="45.83361" lon="4.71366">
        <ele>347.48407</ele>
        <time>2023-04-10T15:31:38.000Z</time>
      </trkpt>
      <trkpt lat="45.83357" lon="4.71362">
        <ele>347.69394</ele>
        <time>2023-04-10T15:31:39.000Z</time>
      </trkpt>
      <trkpt lat="45.83353" lon="4.7136">
        <ele>347.83878</ele>
        <time>2023-04-10T15:31:40.000Z</time>
      </trkpt>
      <trkpt lat="45.83349" lon="4.71359">
        <ele>347.96924</ele>
        <time>2023-04-10T15:31:41.000Z</time>
      </trkpt>
      <trkpt lat="45.83344" lon="4.71361">
        <ele>348.13669</ele>
        <time>2023-04-10T15:31:42.000Z</time>
      </trkpt>
      <trkpt lat="45.83339" lon="4.71363">
        <ele>348.32294</ele>
        <time>2023-04-10T15:31:43.000Z</time>
      </trkpt>
      <trkpt lat="45.83333" lon="4.71365">
        <ele>348.40723</ele>
        <time>2023-04-10T15:31:44.000Z</time>
      </trkpt>
      <trkpt lat="45.83328" lon="4.71366">
        <ele>348.46454</ele>
        <time>2023-04-10T15:31:45.000Z</time>
      </trkpt>
      <trkpt lat="45.83322" lon="4.71368">
        <ele>348.30219</ele>
        <time>2023-04-10T15:31:46.000Z</time>
      </trkpt>
      <trkpt lat="45.83316" lon="4.7137">
        <ele>348.14014</ele>
        <time>2023-04-10T15:31:47.000Z</time>
      </trkpt>
      <trkpt lat="45.8331" lon="4.71371">
        <ele>347.97552</ele>
        <time>2023-04-10T15:31:48.000Z</time>
      </trkpt>
      <trkpt lat="45.83303" lon="4.71372">
        <ele>347.77402</ele>
        <time>2023-04-10T15:31:49.000Z</time>
      </trkpt>
      <trkpt lat="45.83297" lon="4.71374">
        <ele>347.53452</ele>
        <time>2023-04-10T15:31:50.000Z</time>
      </trkpt>
      <trkpt lat="45.83291" lon="4.71376">
        <ele>347.4296</ele>
        <time>2023-04-10T15:31:51.000Z</time>
      </trkpt>
      <trkpt lat="45.83285" lon="4.71378">
        <ele>347.31076</ele>
        <time>2023-04-10T15:31:52.000Z</time>
      </trkpt>
      <trkpt lat="45.83279" lon="4.71379">
        <ele>347.21762</ele>
        <time>2023-04-10T15:31:53.000Z</time>
      </trkpt>
      <trkpt lat="45.83273" lon="4.7138">
        <ele>347.11475</ele>
        <time>2023-04-10T15:31:54.000Z</time>
      </trkpt>
      <trkpt lat="45.83268" lon="4.7138">
        <ele>346.95609</ele>
        <time>2023-04-10T15:31:55.000Z</time>
      </trkpt>
      <trkpt lat="45.83264" lon="4.71379">
        <ele>346.79181</ele>
        <time>2023-04-10T15:31:56.000Z</time>
      </trkpt>
      <trkpt lat="45.8326" lon="4.71379">
        <ele>346.75241</ele>
        <time>2023-04-10T15:31:57.000Z</time>
      </trkpt>
      <trkpt lat="45.83255" lon="4.71379">
        <ele>346.74509</ele>
        <time>2023-04-10T15:31:58.000Z</time>
      </trkpt>
      <trkpt lat="45.8325" lon="4.71378">
        <ele>346.84015</ele>
        <time>2023-04-10T15:31:59.000Z</time>
      </trkpt>
      <trkpt lat="45.83245" lon="4.71377">
        <ele>346.7912</ele>
        <time>2023-04-10T15:32:00.000Z</time>
      </trkpt>
      <trkpt lat="45.83241" lon="4.71377">
        <ele>346.79102</ele>
        <time>2023-04-10T15:32:01.000Z</time>
      </trkpt>
      <trkpt lat="45.83237" lon="4.71377">
        <ele>346.75104</ele>
        <time>2023-04-10T15:32:02.000Z</time>
      </trkpt>
      <trkpt lat="45.83233" lon="4.71377">
        <ele>346.63379</ele>
        <time>2023-04-10T15:32:03.000Z</time>
      </trkpt>
      <trkpt lat="45.83229" lon="4.71378">
        <ele>346.56268</ele>
        <time>2023-04-10T15:32:04.000Z</time>
      </trkpt>
      <trkpt lat="45.83225" lon="4.71379">
        <ele>346.52463</ele>
        <time>2023-04-10T15:32:05.000Z</time>
      </trkpt>
      <trkpt lat="45.83222" lon="4.7138">
        <ele>346.66379</ele>
        <time>2023-04-10T15:32:06.000Z</time>
      </trkpt>
      <trkpt lat="45.83218" lon="4.71381">
        <ele>346.80075</ele>
        <time>2023-04-10T15:32:07.000Z</time>
      </trkpt>
      <trkpt lat="45.83215" lon="4.71382">
        <ele>346.92731</ele>
        <time>2023-04-10T15:32:08.000Z</time>
      </trkpt>
      <trkpt lat="45.83212" lon="4.71382">
        <ele>347.07925</ele>
        <time>2023-04-10T15:32:09.000Z</time>
      </trkpt>
      <trkpt lat="45.83209" lon="4.71383">
        <ele>347.25128</ele>
        <time>2023-04-10T15:32:10.000Z</time>
      </trkpt>
      <trkpt lat="45.83206" lon="4.71384">
        <ele>347.42804</ele>
        <time>2023-04-10T15:32:11.000Z</time>
      </trkpt>
      <trkpt lat="45.83204" lon="4.71383">
        <ele>347.60712</ele>
        <time>2023-04-10T15:32:12.000Z</time>
      </trkpt>
      <trkpt lat="45.83202" lon="4.71382">
        <ele>347.7338</ele>
        <time>2023-04-10T15:32:13.000Z</time>
      </trkpt>
      <trkpt lat="45.83202" lon="4.71379">
        <ele>347.86661</ele>
        <time>2023-04-10T15:32:14.000Z</time>
      </trkpt>
      <trkpt lat="45.83202" lon="4.71375">
        <ele>347.99146</ele>
        <time>2023-04-10T15:32:15.000Z</time>
      </trkpt>
      <trkpt lat="45.83204" lon="4.71373">
        <ele>348.12933</ele>
        <time>2023-04-10T15:32:16.000Z</time>
      </trkpt>
      <trkpt lat="45.83206" lon="4.71372">
        <ele>348.12604</ele>
        <time>2023-04-10T15:32:17.000Z</time>
      </trkpt>
      <trkpt lat="45.83209" lon="4.71371">
        <ele>348.09399</ele>
        <time>2023-04-10T15:32:18.000Z</time>
      </trkpt>
      <trkpt lat="45.83211" lon="4.71369">
        <ele>347.97296</ele>
        <time>2023-04-10T15:32:19.000Z</time>
      </trkpt>
      <trkpt lat="45.83213" lon="4.71367">
        <ele>347.98865</ele>
        <time>2023-04-10T15:32:20.000Z</time>
      </trkpt>
      <trkpt lat="45.83214" lon="4.71363">
        <ele>348.04803</ele>
        <time>2023-04-10T15:32:21.000Z</time>
      </trkpt>
      <trkpt lat="45.83215" lon="4.71359">
        <ele>348.13779</ele>
        <time>2023-04-10T15:32:22.000Z</time>
      </trkpt>
      <trkpt lat="45.83215" lon="4.71354">
        <ele>348.27344</ele>
        <time>2023-04-10T15:32:23.000Z</time>
      </trkpt>
      <trkpt lat="45.83214" lon="4.7135">
        <ele>348.26227</ele>
        <time>2023-04-10T15:32:24.000Z</time>
      </trkpt>
      <trkpt lat="45.83213" lon="4.71346">
        <ele>348.21051</ele>
        <time>2023-04-10T15:32:25.000Z</time>
      </trkpt>
      <trkpt lat="45.83212" lon="4.71341">
        <ele>348.1691</ele>
        <time>2023-04-10T15:32:26.000Z</time>
      </trkpt>
      <trkpt lat="45.83212" lon="4.71337">
        <ele>348.12152</ele>
        <time>2023-04-10T15:32:27.000Z</time>
      </trkpt>
      <trkpt lat="45.83212" lon="4.71331">
        <ele>348.06448</ele>
        <time>2023-04-10T15:32:28.000Z</time>
      </trkpt>
      <trkpt lat="45.83212" lon="4.71326">
        <ele>347.99573</ele>
        <time>2023-04-10T15:32:29.000Z</time>
      </trkpt>
      <trkpt lat="45.83213" lon="4.71321">
        <ele>347.90988</ele>
        <time>2023-04-10T15:32:30.000Z</time>
      </trkpt>
      <trkpt lat="45.83213" lon="4.71316">
        <ele>347.83652</ele>
        <time>2023-04-10T15:32:31.000Z</time>
      </trkpt>
      <trkpt lat="45.83214" lon="4.71311">
        <ele>347.75424</ele>
        <time>2023-04-10T15:32:32.000Z</time>
      </trkpt>
      <trkpt lat="45.83214" lon="4.71306">
        <ele>347.70377</ele>
        <time>2023-04-10T15:32:33.000Z</time>
      </trkpt>
      <trkpt lat="45.83214" lon="4.71301">
        <ele>347.70874</ele>
        <time>2023-04-10T15:32:34.000Z</time>
      </trkpt>
      <trkpt lat="45.83215" lon="4.71296">
        <ele>347.72952</ele>
        <time>2023-04-10T15:32:35.000Z</time>
      </trkpt>
      <trkpt lat="45.83215" lon="4.71291">
        <ele>347.80069</ele>
        <time>2023-04-10T15:32:36.000Z</time>
      </trkpt>
      <trkpt lat="45.83216" lon="4.71287">
        <ele>347.78745</ele>
        <time>2023-04-10T15:32:37.000Z</time>
      </trkpt>
      <trkpt lat="45.83218" lon="4.71282">
        <ele>347.73145</ele>
        <time>2023-04-10T15:32:38.000Z</time>
      </trkpt>
      <trkpt lat="45.83219" lon="4.71278">
        <ele>347.73297</ele>
        <time>2023-04-10T15:32:39.000Z</time>
      </trkpt>
      <trkpt lat="45.8322" lon="4.71275">
        <ele>347.7579</ele>
        <time>2023-04-10T15:32:40.000Z</time>
      </trkpt>
      <trkpt lat="45.83221" lon="4.71271">
        <ele>347.69345</ele>
        <time>2023-04-10T15:32:41.000Z</time>
      </trkpt>
      <trkpt lat="45.83222" lon="4.71267">
        <ele>347.61301</ele>
        <time>2023-04-10T15:32:42.000Z</time>
      </trkpt>
      <trkpt lat="45.83222" lon="4.71263">
        <ele>347.52386</ele>
        <time>2023-04-10T15:32:43.000Z</time>
      </trkpt>
      <trkpt lat="45.83222" lon="4.71259">
        <ele>347.61963</ele>
        <time>2023-04-10T15:32:44.000Z</time>
      </trkpt>
      <trkpt lat="45.83222" lon="4.71255">
        <ele>347.7713</ele>
        <time>2023-04-10T15:32:45.000Z</time>
      </trkpt>
      <trkpt lat="45.83221" lon="4.71251">
        <ele>348.01324</ele>
        <time>2023-04-10T15:32:46.000Z</time>
      </trkpt>
      <trkpt lat="45.8322" lon="4.71247">
        <ele>348.03326</ele>
        <time>2023-04-10T15:32:47.000Z</time>
      </trkpt>
      <trkpt lat="45.83219" lon="4.71243">
        <ele>348.15408</ele>
        <time>2023-04-10T15:32:48.000Z</time>
      </trkpt>
      <trkpt lat="45.83216" lon="4.71238">
        <ele>348.25711</ele>
        <time>2023-04-10T15:32:49.000Z</time>
      </trkpt>
      <trkpt lat="45.83214" lon="4.71234">
        <ele>348.34085</ele>
        <time>2023-04-10T15:32:50.000Z</time>
      </trkpt>
      <trkpt lat="45.83213" lon="4.7123">
        <ele>348.41187</ele>
        <time>2023-04-10T15:32:51.000Z</time>
      </trkpt>
      <trkpt lat="45.8321" lon="4.71225">
        <ele>348.50626</ele>
        <time>2023-04-10T15:32:52.000Z</time>
      </trkpt>
      <trkpt lat="45.83207" lon="4.71221">
        <ele>348.58588</ele>
        <time>2023-04-10T15:32:53.000Z</time>
      </trkpt>
      <trkpt lat="45.83203" lon="4.71217">
        <ele>348.61365</ele>
        <time>2023-04-10T15:32:54.000Z</time>
      </trkpt>
      <trkpt lat="45.832" lon="4.71213">
        <ele>348.62259</ele>
        <time>2023-04-10T15:32:55.000Z</time>
      </trkpt>
      <trkpt lat="45.83197" lon="4.71211">
        <ele>348.58646</ele>
        <time>2023-04-10T15:32:56.000Z</time>
      </trkpt>
      <trkpt lat="45.83194" lon="4.71208">
        <ele>348.55417</ele>
        <time>2023-04-10T15:32:57.000Z</time>
      </trkpt>
      <trkpt lat="45.83192" lon="4.71205">
        <ele>348.57373</ele>
        <time>2023-04-10T15:32:58.000Z</time>
      </trkpt>
      <trkpt lat="45.8319" lon="4.71202">
        <ele>348.55923</ele>
        <time>2023-04-10T15:32:59.000Z</time>
      </trkpt>
      <trkpt lat="45.83187" lon="4.71199">
        <ele>348.56842</ele>
        <time>2023-04-10T15:33:00.000Z</time>
      </trkpt>
      <trkpt lat="45.83185" lon="4.71195">
        <ele>348.57761</ele>
        <time>2023-04-10T15:33:01.000Z</time>
      </trkpt>
      <trkpt lat="45.83184" lon="4.7119">
        <ele>348.58618</ele>
        <time>2023-04-10T15:33:02.000Z</time>
      </trkpt>
      <trkpt lat="45.83182" lon="4.71185">
        <ele>348.5845</ele>
        <time>2023-04-10T15:33:03.000Z</time>
      </trkpt>
      <trkpt lat="45.83181" lon="4.7118">
        <ele>348.53696</ele>
        <time>2023-04-10T15:33:04.000Z</time>
      </trkpt>
      <trkpt lat="45.83181" lon="4.71175">
        <ele>348.47617</ele>
        <time>2023-04-10T15:33:05.000Z</time>
      </trkpt>
      <trkpt lat="45.8318" lon="4.71171">
        <ele>348.35995</ele>
        <time>2023-04-10T15:33:06.000Z</time>
      </trkpt>
      <trkpt lat="45.83179" lon="4.71167">
        <ele>348.48477</ele>
        <time>2023-04-10T15:33:07.000Z</time>
      </trkpt>
      <trkpt lat="45.83178" lon="4.71164">
        <ele>348.54776</ele>
        <time>2023-04-10T15:33:08.000Z</time>
      </trkpt>
      <trkpt lat="45.83178" lon="4.71161">
        <ele>348.70139</ele>
        <time>2023-04-10T15:33:09.000Z</time>
      </trkpt>
      <trkpt lat="45.83177" lon="4.71158">
        <ele>348.85034</ele>
        <time>2023-04-10T15:33:10.000Z</time>
      </trkpt>
      <trkpt lat="45.83176" lon="4.71155">
        <ele>349.02789</ele>
        <time>2023-04-10T15:33:11.000Z</time>
      </trkpt>
      <trkpt lat="45.83175" lon="4.71152">
        <ele>349.23761</ele>
        <time>2023-04-10T15:33:12.000Z</time>
      </trkpt>
      <trkpt lat="45.83175" lon="4.71149">
        <ele>349.46881</ele>
        <time>2023-04-10T15:33:13.000Z</time>
      </trkpt>
      <trkpt lat="45.83174" lon="4.71147">
        <ele>349.63144</ele>
        <time>2023-04-10T15:33:14.000Z</time>
      </trkpt>
      <trkpt lat="45.83174" lon="4.71144">
        <ele>349.85483</ele>
        <time>2023-04-10T15:33:15.000Z</time>
      </trkpt>
      <trkpt lat="45.83174" lon="4.71141">
        <ele>350.05145</ele>
        <time>2023-04-10T15:33:16.000Z</time>
      </trkpt>
      <trkpt lat="45.83173" lon="4.71138">
        <ele>350.37283</ele>
        <time>2023-04-10T15:33:17.000Z</time>
      </trkpt>
      <trkpt lat="45.83172" lon="4.71135">
        <ele>350.6879</ele>
        <time>2023-04-10T15:33:18.000Z</time>
      </trkpt>
      <trkpt lat="45.83171" lon="4.71131">
        <ele>351.01401</ele>
        <time>2023-04-10T15:33:19.000Z</time>
      </trkpt>
      <trkpt lat="45.83169" lon="4.71128">
        <ele>351.35632</ele>
        <time>2023-04-10T15:33:20.000Z</time>
      </trkpt>
      <trkpt lat="45.83168" lon="4.71124">
        <ele>351.71979</ele>
        <time>2023-04-10T15:33:21.000Z</time>
      </trkpt>
      <trkpt lat="45.83167" lon="4.71121">
        <ele>352.01456</ele>
        <time>2023-04-10T15:33:22.000Z</time>
      </trkpt>
      <trkpt lat="45.83165" lon="4.71115">
        <ele>352.30145</ele>
        <time>2023-04-10T15:33:23.000Z</time>
      </trkpt>
      <trkpt lat="45.83164" lon="4.7111">
        <ele>352.6098</ele>
        <time>2023-04-10T15:33:24.000Z</time>
      </trkpt>
      <trkpt lat="45.83162" lon="4.71108">
        <ele>352.97549</ele>
        <time>2023-04-10T15:33:25.000Z</time>
      </trkpt>
      <trkpt lat="45.83162" lon="4.71104">
        <ele>353.30145</ele>
        <time>2023-04-10T15:33:26.000Z</time>
      </trkpt>
      <trkpt lat="45.83161" lon="4.71099">
        <ele>353.60022</ele>
        <time>2023-04-10T15:33:27.000Z</time>
      </trkpt>
      <trkpt lat="45.8316" lon="4.71095">
        <ele>353.84845</ele>
        <time>2023-04-10T15:33:28.000Z</time>
      </trkpt>
      <trkpt lat="45.83159" lon="4.7109">
        <ele>354.00754</ele>
        <time>2023-04-10T15:33:29.000Z</time>
      </trkpt>
      <trkpt lat="45.83159" lon="4.71086">
        <ele>354.21503</ele>
        <time>2023-04-10T15:33:30.000Z</time>
      </trkpt>
      <trkpt lat="45.83158" lon="4.71082">
        <ele>354.42166</ele>
        <time>2023-04-10T15:33:31.000Z</time>
      </trkpt>
      <trkpt lat="45.83156" lon="4.71077">
        <ele>354.60693</ele>
        <time>2023-04-10T15:33:32.000Z</time>
      </trkpt>
      <trkpt lat="45.83154" lon="4.71072">
        <ele>354.79123</ele>
        <time>2023-04-10T15:33:33.000Z</time>
      </trkpt>
      <trkpt lat="45.83153" lon="4.71068">
        <ele>355.01004</ele>
        <time>2023-04-10T15:33:34.000Z</time>
      </trkpt>
      <trkpt lat="45.83153" lon="4.71063">
        <ele>355.20148</ele>
        <time>2023-04-10T15:33:35.000Z</time>
      </trkpt>
      <trkpt lat="45.83152" lon="4.71059">
        <ele>355.39801</ele>
        <time>2023-04-10T15:33:36.000Z</time>
      </trkpt>
      <trkpt lat="45.83152" lon="4.71056">
        <ele>355.58417</ele>
        <time>2023-04-10T15:33:37.000Z</time>
      </trkpt>
      <trkpt lat="45.83151" lon="4.71052">
        <ele>355.80008</ele>
        <time>2023-04-10T15:33:38.000Z</time>
      </trkpt>
      <trkpt lat="45.83151" lon="4.71047">
        <ele>355.90359</ele>
        <time>2023-04-10T15:33:39.000Z</time>
      </trkpt>
      <trkpt lat="45.83151" lon="4.71043">
        <ele>355.9668</ele>
        <time>2023-04-10T15:33:40.000Z</time>
      </trkpt>
      <trkpt lat="45.8315" lon="4.71038">
        <ele>355.97754</ele>
        <time>2023-04-10T15:33:41.000Z</time>
      </trkpt>
      <trkpt lat="45.83149" lon="4.71034">
        <ele>356.07159</ele>
        <time>2023-04-10T15:33:42.000Z</time>
      </trkpt>
      <trkpt lat="45.83148" lon="4.71029">
        <ele>356.20721</ele>
        <time>2023-04-10T15:33:43.000Z</time>
      </trkpt>
      <trkpt lat="45.83147" lon="4.71025">
        <ele>356.32147</ele>
        <time>2023-04-10T15:33:44.000Z</time>
      </trkpt>
      <trkpt lat="45.83146" lon="4.71021">
        <ele>356.29037</ele>
        <time>2023-04-10T15:33:45.000Z</time>
      </trkpt>
      <trkpt lat="45.83145" lon="4.71017">
        <ele>356.28189</ele>
        <time>2023-04-10T15:33:46.000Z</time>
      </trkpt>
      <trkpt lat="45.83144" lon="4.71013">
        <ele>356.2796</ele>
        <time>2023-04-10T15:33:47.000Z</time>
      </trkpt>
      <trkpt lat="45.83143" lon="4.71009">
        <ele>356.31482</ele>
        <time>2023-04-10T15:33:48.000Z</time>
      </trkpt>
      <trkpt lat="45.83141" lon="4.71006">
        <ele>356.37485</ele>
        <time>2023-04-10T15:33:49.000Z</time>
      </trkpt>
      <trkpt lat="45.8314" lon="4.71001">
        <ele>356.42767</ele>
        <time>2023-04-10T15:33:50.000Z</time>
      </trkpt>
      <trkpt lat="45.83139" lon="4.70997">
        <ele>356.40686</ele>
        <time>2023-04-10T15:33:51.000Z</time>
      </trkpt>
      <trkpt lat="45.83138" lon="4.70992">
        <ele>356.39511</ele>
        <time>2023-04-10T15:33:52.000Z</time>
      </trkpt>
      <trkpt lat="45.83137" lon="4.70988">
        <ele>356.38129</ele>
        <time>2023-04-10T15:33:53.000Z</time>
      </trkpt>
      <trkpt lat="45.83136" lon="4.70984">
        <ele>356.40875</ele>
        <time>2023-04-10T15:33:54.000Z</time>
      </trkpt>
      <trkpt lat="45.83135" lon="4.70979">
        <ele>356.3851</ele>
        <time>2023-04-10T15:33:55.000Z</time>
      </trkpt>
      <trkpt lat="45.83133" lon="4.70974">
        <ele>356.31909</ele>
        <time>2023-04-10T15:33:56.000Z</time>
      </trkpt>
      <trkpt lat="45.83132" lon="4.70969">
        <ele>356.25339</ele>
        <time>2023-04-10T15:33:57.000Z</time>
      </trkpt>
      <trkpt lat="45.8313" lon="4.70965">
        <ele>356.19547</ele>
        <time>2023-04-10T15:33:58.000Z</time>
      </trkpt>
      <trkpt lat="45.83129" lon="4.7096">
        <ele>356.28711</ele>
        <time>2023-04-10T15:33:59.000Z</time>
      </trkpt>
      <trkpt lat="45.83128" lon="4.70956">
        <ele>356.39911</ele>
        <time>2023-04-10T15:34:00.000Z</time>
      </trkpt>
      <trkpt lat="45.83126" lon="4.70952">
        <ele>356.55148</ele>
        <time>2023-04-10T15:34:01.000Z</time>
      </trkpt>
      <trkpt lat="45.83126" lon="4.70947">
        <ele>356.60254</ele>
        <time>2023-04-10T15:34:02.000Z</time>
      </trkpt>
      <trkpt lat="45.83127" lon="4.70942">
        <ele>356.62518</ele>
        <time>2023-04-10T15:34:03.000Z</time>
      </trkpt>
      <trkpt lat="45.83129" lon="4.70938">
        <ele>356.63126</ele>
        <time>2023-04-10T15:34:04.000Z</time>
      </trkpt>
      <trkpt lat="45.83132" lon="4.70935">
        <ele>356.64059</ele>
        <time>2023-04-10T15:34:05.000Z</time>
      </trkpt>
      <trkpt lat="45.83135" lon="4.70934">
        <ele>356.61142</ele>
        <time>2023-04-10T15:34:06.000Z</time>
      </trkpt>
      <trkpt lat="45.83139" lon="4.70933">
        <ele>356.59113</ele>
        <time>2023-04-10T15:34:07.000Z</time>
      </trkpt>
      <trkpt lat="45.83143" lon="4.70933">
        <ele>356.58405</ele>
        <time>2023-04-10T15:34:08.000Z</time>
      </trkpt>
      <trkpt lat="45.83147" lon="4.70932">
        <ele>356.55792</ele>
        <time>2023-04-10T15:34:09.000Z</time>
      </trkpt>
      <trkpt lat="45.83151" lon="4.70932">
        <ele>356.54672</ele>
        <time>2023-04-10T15:34:10.000Z</time>
      </trkpt>
      <trkpt lat="45.83154" lon="4.7093">
        <ele>356.58865</ele>
        <time>2023-04-10T15:34:11.000Z</time>
      </trkpt>
      <trkpt lat="45.83158" lon="4.70929">
        <ele>356.65341</ele>
        <time>2023-04-10T15:34:12.000Z</time>
      </trkpt>
      <trkpt lat="45.83161" lon="4.70928">
        <ele>356.7298</ele>
        <time>2023-04-10T15:34:13.000Z</time>
      </trkpt>
      <trkpt lat="45.83165" lon="4.70926">
        <ele>356.8064</ele>
        <time>2023-04-10T15:34:14.000Z</time>
      </trkpt>
      <trkpt lat="45.83168" lon="4.70925">
        <ele>356.92566</ele>
        <time>2023-04-10T15:34:15.000Z</time>
      </trkpt>
      <trkpt lat="45.83172" lon="4.70923">
        <ele>357.07507</ele>
        <time>2023-04-10T15:34:16.000Z</time>
      </trkpt>
      <trkpt lat="45.83175" lon="4.70922">
        <ele>357.20654</ele>
        <time>2023-04-10T15:34:17.000Z</time>
      </trkpt>
      <trkpt lat="45.83179" lon="4.7092">
        <ele>357.28311</ele>
        <time>2023-04-10T15:34:18.000Z</time>
      </trkpt>
      <trkpt lat="45.83183" lon="4.70919">
        <ele>357.30115</ele>
        <time>2023-04-10T15:34:19.000Z</time>
      </trkpt>
      <trkpt lat="45.83187" lon="4.70917">
        <ele>357.27069</ele>
        <time>2023-04-10T15:34:20.000Z</time>
      </trkpt>
      <trkpt lat="45.8319" lon="4.70915">
        <ele>357.22736</ele>
        <time>2023-04-10T15:34:21.000Z</time>
      </trkpt>
      <trkpt lat="45.83194" lon="4.70913">
        <ele>357.2381</ele>
        <time>2023-04-10T15:34:22.000Z</time>
      </trkpt>
      <trkpt lat="45.83195" lon="4.70912">
        <ele>357.25464</ele>
        <time>2023-04-10T15:34:23.000Z</time>
      </trkpt>
      <trkpt lat="45.83197" lon="4.70909">
        <ele>357.28326</ele>
        <time>2023-04-10T15:34:24.000Z</time>
      </trkpt>
      <trkpt lat="45.83197" lon="4.70904">
        <ele>357.37259</ele>
        <time>2023-04-10T15:34:25.000Z</time>
      </trkpt>
      <trkpt lat="45.83196" lon="4.70899">
        <ele>357.49146</ele>
        <time>2023-04-10T15:34:26.000Z</time>
      </trkpt>
      <trkpt lat="45.83194" lon="4.70894">
        <ele>357.58792</ele>
        <time>2023-04-10T15:34:27.000Z</time>
      </trkpt>
      <trkpt lat="45.83192" lon="4.70889">
        <ele>357.69128</ele>
        <time>2023-04-10T15:34:28.000Z</time>
      </trkpt>
      <trkpt lat="45.83189" lon="4.70885">
        <ele>357.79849</ele>
        <time>2023-04-10T15:34:29.000Z</time>
      </trkpt>
      <trkpt lat="45.83187" lon="4.7088">
        <ele>357.89392</ele>
        <time>2023-04-10T15:34:30.000Z</time>
      </trkpt>
      <trkpt lat="45.83185" lon="4.70875">
        <ele>358.01276</ele>
        <time>2023-04-10T15:34:31.000Z</time>
      </trkpt>
      <trkpt lat="45.83183" lon="4.7087">
        <ele>358.0943</ele>
        <time>2023-04-10T15:34:32.000Z</time>
      </trkpt>
      <trkpt lat="45.8318" lon="4.70865">
        <ele>358.15338</ele>
        <time>2023-04-10T15:34:33.000Z</time>
      </trkpt>
      <trkpt lat="45.83177" lon="4.7086">
        <ele>358.18784</ele>
        <time>2023-04-10T15:34:34.000Z</time>
      </trkpt>
      <trkpt lat="45.83174" lon="4.70855">
        <ele>358.20779</ele>
        <time>2023-04-10T15:34:35.000Z</time>
      </trkpt>
      <trkpt lat="45.83172" lon="4.70849">
        <ele>358.2478</ele>
        <time>2023-04-10T15:34:36.000Z</time>
      </trkpt>
      <trkpt lat="45.83169" lon="4.70844">
        <ele>358.27118</ele>
        <time>2023-04-10T15:34:37.000Z</time>
      </trkpt>
      <trkpt lat="45.83167" lon="4.70837">
        <ele>358.3056</ele>
        <time>2023-04-10T15:34:38.000Z</time>
      </trkpt>
      <trkpt lat="45.83165" lon="4.70831">
        <ele>358.35834</ele>
        <time>2023-04-10T15:34:39.000Z</time>
      </trkpt>
      <trkpt lat="45.83163" lon="4.70825">
        <ele>358.4295</ele>
        <time>2023-04-10T15:34:40.000Z</time>
      </trkpt>
      <trkpt lat="45.83161" lon="4.70819">
        <ele>358.51709</ele>
        <time>2023-04-10T15:34:41.000Z</time>
      </trkpt>
      <trkpt lat="45.83159" lon="4.70813">
        <ele>358.6221</ele>
        <time>2023-04-10T15:34:42.000Z</time>
      </trkpt>
      <trkpt lat="45.83158" lon="4.70807">
        <ele>358.72794</ele>
        <time>2023-04-10T15:34:43.000Z</time>
      </trkpt>
      <trkpt lat="45.83156" lon="4.708">
        <ele>358.8139</ele>
        <time>2023-04-10T15:34:44.000Z</time>
      </trkpt>
      <trkpt lat="45.83154" lon="4.70794">
        <ele>358.90533</ele>
        <time>2023-04-10T15:34:45.000Z</time>
      </trkpt>
      <trkpt lat="45.83152" lon="4.70787">
        <ele>358.99713</ele>
        <time>2023-04-10T15:34:46.000Z</time>
      </trkpt>
      <trkpt lat="45.8315" lon="4.7078">
        <ele>359.11066</ele>
        <time>2023-04-10T15:34:47.000Z</time>
      </trkpt>
      <trkpt lat="45.83148" lon="4.70774">
        <ele>359.21637</ele>
        <time>2023-04-10T15:34:48.000Z</time>
      </trkpt>
      <trkpt lat="45.83146" lon="4.70766">
        <ele>359.34027</ele>
        <time>2023-04-10T15:34:49.000Z</time>
      </trkpt>
      <trkpt lat="45.83144" lon="4.70759">
        <ele>359.46136</ele>
        <time>2023-04-10T15:34:50.000Z</time>
      </trkpt>
      <trkpt lat="45.83141" lon="4.70752">
        <ele>359.55792</ele>
        <time>2023-04-10T15:34:51.000Z</time>
      </trkpt>
      <trkpt lat="45.83139" lon="4.70744">
        <ele>359.64886</ele>
        <time>2023-04-10T15:34:52.000Z</time>
      </trkpt>
      <trkpt lat="45.83136" lon="4.70736">
        <ele>359.74475</ele>
        <time>2023-04-10T15:34:53.000Z</time>
      </trkpt>
      <trkpt lat="45.83134" lon="4.70728">
        <ele>359.87152</ele>
        <time>2023-04-10T15:34:54.000Z</time>
      </trkpt>
      <trkpt lat="45.83132" lon="4.70721">
        <ele>359.99307</ele>
        <time>2023-04-10T15:34:55.000Z</time>
      </trkpt>
      <trkpt lat="45.8313" lon="4.70714">
        <ele>360.11292</ele>
        <time>2023-04-10T15:34:56.000Z</time>
      </trkpt>
      <trkpt lat="45.83128" lon="4.70707">
        <ele>360.24545</ele>
        <time>2023-04-10T15:34:57.000Z</time>
      </trkpt>
      <trkpt lat="45.83126" lon="4.707">
        <ele>360.39093</ele>
        <time>2023-04-10T15:34:58.000Z</time>
      </trkpt>
      <trkpt lat="45.83124" lon="4.70693">
        <ele>360.51166</ele>
        <time>2023-04-10T15:34:59.000Z</time>
      </trkpt>
      <trkpt lat="45.83122" lon="4.70687">
        <ele>360.64304</ele>
        <time>2023-04-10T15:35:00.000Z</time>
      </trkpt>
      <trkpt lat="45.8312" lon="4.70682">
        <ele>360.7785</ele>
        <time>2023-04-10T15:35:01.000Z</time>
      </trkpt>
      <trkpt lat="45.83119" lon="4.70677">
        <ele>360.91614</ele>
        <time>2023-04-10T15:35:02.000Z</time>
      </trkpt>
      <trkpt lat="45.83118" lon="4.70672">
        <ele>361.04453</ele>
        <time>2023-04-10T15:35:03.000Z</time>
      </trkpt>
      <trkpt lat="45.83117" lon="4.70668">
        <ele>361.17249</ele>
        <time>2023-04-10T15:35:04.000Z</time>
      </trkpt>
      <trkpt lat="45.83116" lon="4.70665">
        <ele>361.2807</ele>
        <time>2023-04-10T15:35:05.000Z</time>
      </trkpt>
      <trkpt lat="45.83115" lon="4.70661">
        <ele>361.36945</ele>
        <time>2023-04-10T15:35:06.000Z</time>
      </trkpt>
      <trkpt lat="45.83115" lon="4.70657">
        <ele>361.44107</ele>
        <time>2023-04-10T15:35:07.000Z</time>
      </trkpt>
      <trkpt lat="45.83114" lon="4.70653">
        <ele>361.48447</ele>
        <time>2023-04-10T15:35:08.000Z</time>
      </trkpt>
      <trkpt lat="45.83114" lon="4.70649">
        <ele>361.51044</ele>
        <time>2023-04-10T15:35:09.000Z</time>
      </trkpt>
      <trkpt lat="45.83114" lon="4.70644">
        <ele>361.56018</ele>
        <time>2023-04-10T15:35:10.000Z</time>
      </trkpt>
      <trkpt lat="45.83115" lon="4.7064">
        <ele>361.60324</ele>
        <time>2023-04-10T15:35:11.000Z</time>
      </trkpt>
      <trkpt lat="45.83117" lon="4.70636">
        <ele>361.62091</ele>
        <time>2023-04-10T15:35:12.000Z</time>
      </trkpt>
      <trkpt lat="45.8312" lon="4.70632">
        <ele>361.63779</ele>
        <time>2023-04-10T15:35:13.000Z</time>
      </trkpt>
      <trkpt lat="45.83123" lon="4.70628">
        <ele>361.65408</ele>
        <time>2023-04-10T15:35:14.000Z</time>
      </trkpt>
      <trkpt lat="45.83125" lon="4.70624">
        <ele>361.685</ele>
        <time>2023-04-10T15:35:15.000Z</time>
      </trkpt>
      <trkpt lat="45.83128" lon="4.7062">
        <ele>361.71149</ele>
        <time>2023-04-10T15:35:16.000Z</time>
      </trkpt>
      <trkpt lat="45.83131" lon="4.70616">
        <ele>361.75049</ele>
        <time>2023-04-10T15:35:17.000Z</time>
      </trkpt>
      <trkpt lat="45.83134" lon="4.70612">
        <ele>361.7843</ele>
        <time>2023-04-10T15:35:18.000Z</time>
      </trkpt>
      <trkpt lat="45.83138" lon="4.70607">
        <ele>361.86371</ele>
        <time>2023-04-10T15:35:19.000Z</time>
      </trkpt>
      <trkpt lat="45.83142" lon="4.70603">
        <ele>361.9295</ele>
        <time>2023-04-10T15:35:20.000Z</time>
      </trkpt>
      <trkpt lat="45.83145" lon="4.70598">
        <ele>361.98547</ele>
        <time>2023-04-10T15:35:21.000Z</time>
      </trkpt>
      <trkpt lat="45.83149" lon="4.70593">
        <ele>362.03439</ele>
        <time>2023-04-10T15:35:22.000Z</time>
      </trkpt>
      <trkpt lat="45.83152" lon="4.70588">
        <ele>362.07388</ele>
        <time>2023-04-10T15:35:23.000Z</time>
      </trkpt>
      <trkpt lat="45.83155" lon="4.70582">
        <ele>362.11984</ele>
        <time>2023-04-10T15:35:24.000Z</time>
      </trkpt>
      <trkpt lat="45.83159" lon="4.70576">
        <ele>362.16882</ele>
        <time>2023-04-10T15:35:25.000Z</time>
      </trkpt>
      <trkpt lat="45.83162" lon="4.70569">
        <ele>362.22125</ele>
        <time>2023-04-10T15:35:26.000Z</time>
      </trkpt>
      <trkpt lat="45.83167" lon="4.70563">
        <ele>362.27188</ele>
        <time>2023-04-10T15:35:27.000Z</time>
      </trkpt>
      <trkpt lat="45.83171" lon="4.70557">
        <ele>362.3428</ele>
        <time>2023-04-10T15:35:28.000Z</time>
      </trkpt>
      <trkpt lat="45.83175" lon="4.70551">
        <ele>362.43579</ele>
        <time>2023-04-10T15:35:29.000Z</time>
      </trkpt>
      <trkpt lat="45.83179" lon="4.70545">
        <ele>362.4917</ele>
        <time>2023-04-10T15:35:30.000Z</time>
      </trkpt>
      <trkpt lat="45.83183" lon="4.70539">
        <ele>362.54468</ele>
        <time>2023-04-10T15:35:31.000Z</time>
      </trkpt>
      <trkpt lat="45.83187" lon="4.70533">
        <ele>362.60892</ele>
        <time>2023-04-10T15:35:32.000Z</time>
      </trkpt>
      <trkpt lat="45.83192" lon="4.70526">
        <ele>362.66461</ele>
        <time>2023-04-10T15:35:33.000Z</time>
      </trkpt>
      <trkpt lat="45.83196" lon="4.70519">
        <ele>362.72281</ele>
        <time>2023-04-10T15:35:34.000Z</time>
      </trkpt>
      <trkpt lat="45.83201" lon="4.70513">
        <ele>362.75305</ele>
        <time>2023-04-10T15:35:35.000Z</time>
      </trkpt>
      <trkpt lat="45.83206" lon="4.70506">
        <ele>362.73468</ele>
        <time>2023-04-10T15:35:36.000Z</time>
      </trkpt>
      <trkpt lat="45.8321" lon="4.70499">
        <ele>362.68442</ele>
        <time>2023-04-10T15:35:37.000Z</time>
      </trkpt>
      <trkpt lat="45.83215" lon="4.70492">
        <ele>362.62616</ele>
        <time>2023-04-10T15:35:38.000Z</time>
      </trkpt>
      <trkpt lat="45.83219" lon="4.70484">
        <ele>362.5231</ele>
        <time>2023-04-10T15:35:39.000Z</time>
      </trkpt>
      <trkpt lat="45.83224" lon="4.70477">
        <ele>362.38739</ele>
        <time>2023-04-10T15:35:40.000Z</time>
      </trkpt>
      <trkpt lat="45.83229" lon="4.70468">
        <ele>362.23471</ele>
        <time>2023-04-10T15:35:41.000Z</time>
      </trkpt>
      <trkpt lat="45.83234" lon="4.7046">
        <ele>362.06793</ele>
        <time>2023-04-10T15:35:42.000Z</time>
      </trkpt>
      <trkpt lat="45.83239" lon="4.70451">
        <ele>361.89224</ele>
        <time>2023-04-10T15:35:43.000Z</time>
      </trkpt>
      <trkpt lat="45.83245" lon="4.70442">
        <ele>361.70313</ele>
        <time>2023-04-10T15:35:44.000Z</time>
      </trkpt>
      <trkpt lat="45.8325" lon="4.70433">
        <ele>361.48846</ele>
        <time>2023-04-10T15:35:45.000Z</time>
      </trkpt>
      <trkpt lat="45.83255" lon="4.70424">
        <ele>361.27319</ele>
        <time>2023-04-10T15:35:46.000Z</time>
      </trkpt>
      <trkpt lat="45.83261" lon="4.70415">
        <ele>361.05215</ele>
        <time>2023-04-10T15:35:47.000Z</time>
      </trkpt>
      <trkpt lat="45.83267" lon="4.70406">
        <ele>360.82135</ele>
        <time>2023-04-10T15:35:48.000Z</time>
      </trkpt>
      <trkpt lat="45.83273" lon="4.70396">
        <ele>360.56696</ele>
        <time>2023-04-10T15:35:49.000Z</time>
      </trkpt>
      <trkpt lat="45.83278" lon="4.70387">
        <ele>360.29852</ele>
        <time>2023-04-10T15:35:50.000Z</time>
      </trkpt>
      <trkpt lat="45.83285" lon="4.70378">
        <ele>360.02597</ele>
        <time>2023-04-10T15:35:51.000Z</time>
      </trkpt>
      <trkpt lat="45.83291" lon="4.7037">
        <ele>359.76172</ele>
        <time>2023-04-10T15:35:52.000Z</time>
      </trkpt>
      <trkpt lat="45.83296" lon="4.70361">
        <ele>359.48898</ele>
        <time>2023-04-10T15:35:53.000Z</time>
      </trkpt>
      <trkpt lat="45.83301" lon="4.70353">
        <ele>359.19586</ele>
        <time>2023-04-10T15:35:54.000Z</time>
      </trkpt>
      <trkpt lat="45.83306" lon="4.70345">
        <ele>358.93945</ele>
        <time>2023-04-10T15:35:55.000Z</time>
      </trkpt>
      <trkpt lat="45.8331" lon="4.70339">
        <ele>358.72632</ele>
        <time>2023-04-10T15:35:56.000Z</time>
      </trkpt>
      <trkpt lat="45.83314" lon="4.70335">
        <ele>358.50677</ele>
        <time>2023-04-10T15:35:57.000Z</time>
      </trkpt>
      <trkpt lat="45.83318" lon="4.70335">
        <ele>358.31329</ele>
        <time>2023-04-10T15:35:58.000Z</time>
      </trkpt>
      <trkpt lat="45.83321" lon="4.70338">
        <ele>358.12897</ele>
        <time>2023-04-10T15:35:59.000Z</time>
      </trkpt>
      <trkpt lat="45.83323" lon="4.70342">
        <ele>357.98111</ele>
        <time>2023-04-10T15:36:00.000Z</time>
      </trkpt>
      <trkpt lat="45.83324" lon="4.70348">
        <ele>357.8244</ele>
        <time>2023-04-10T15:36:01.000Z</time>
      </trkpt>
      <trkpt lat="45.83325" lon="4.70353">
        <ele>357.66757</ele>
        <time>2023-04-10T15:36:02.000Z</time>
      </trkpt>
      <trkpt lat="45.83325" lon="4.70359">
        <ele>357.5372</ele>
        <time>2023-04-10T15:36:03.000Z</time>
      </trkpt>
      <trkpt lat="45.83326" lon="4.70365">
        <ele>357.40201</ele>
        <time>2023-04-10T15:36:04.000Z</time>
      </trkpt>
      <trkpt lat="45.83326" lon="4.70371">
        <ele>357.28952</ele>
        <time>2023-04-10T15:36:05.000Z</time>
      </trkpt>
      <trkpt lat="45.83327" lon="4.70378">
        <ele>357.15378</ele>
        <time>2023-04-10T15:36:06.000Z</time>
      </trkpt>
      <trkpt lat="45.83328" lon="4.70384">
        <ele>357.01718</ele>
        <time>2023-04-10T15:36:07.000Z</time>
      </trkpt>
      <trkpt lat="45.83329" lon="4.7039">
        <ele>356.89291</ele>
        <time>2023-04-10T15:36:08.000Z</time>
      </trkpt>
      <trkpt lat="45.8333" lon="4.70397">
        <ele>356.76678</ele>
        <time>2023-04-10T15:36:09.000Z</time>
      </trkpt>
      <trkpt lat="45.83331" lon="4.70403">
        <ele>356.67719</ele>
        <time>2023-04-10T15:36:10.000Z</time>
      </trkpt>
      <trkpt lat="45.83333" lon="4.70409">
        <ele>356.61774</ele>
        <time>2023-04-10T15:36:11.000Z</time>
      </trkpt>
      <trkpt lat="45.83334" lon="4.70416">
        <ele>356.55273</ele>
        <time>2023-04-10T15:36:12.000Z</time>
      </trkpt>
      <trkpt lat="45.83335" lon="4.70422">
        <ele>356.49225</ele>
        <time>2023-04-10T15:36:13.000Z</time>
      </trkpt>
      <trkpt lat="45.83336" lon="4.70429">
        <ele>356.43256</ele>
        <time>2023-04-10T15:36:14.000Z</time>
      </trkpt>
      <trkpt lat="45.83337" lon="4.70436">
        <ele>356.37189</ele>
        <time>2023-04-10T15:36:15.000Z</time>
      </trkpt>
      <trkpt lat="45.83337" lon="4.70443">
        <ele>356.27179</ele>
        <time>2023-04-10T15:36:16.000Z</time>
      </trkpt>
      <trkpt lat="45.83338" lon="4.7045">
        <ele>356.20618</ele>
        <time>2023-04-10T15:36:17.000Z</time>
      </trkpt>
      <trkpt lat="45.83339" lon="4.70458">
        <ele>356.13412</ele>
        <time>2023-04-10T15:36:18.000Z</time>
      </trkpt>
      <trkpt lat="45.8334" lon="4.70466">
        <ele>356.04007</ele>
        <time>2023-04-10T15:36:19.000Z</time>
      </trkpt>
      <trkpt lat="45.8334" lon="4.70473">
        <ele>355.95944</ele>
        <time>2023-04-10T15:36:20.000Z</time>
      </trkpt>
      <trkpt lat="45.8334" lon="4.7048">
        <ele>355.8844</ele>
        <time>2023-04-10T15:36:21.000Z</time>
      </trkpt>
      <trkpt lat="45.83341" lon="4.70486">
        <ele>355.87201</ele>
        <time>2023-04-10T15:36:22.000Z</time>
      </trkpt>
      <trkpt lat="45.83342" lon="4.70494">
        <ele>355.84271</ele>
        <time>2023-04-10T15:36:23.000Z</time>
      </trkpt>
      <trkpt lat="45.83343" lon="4.70502">
        <ele>355.81671</ele>
        <time>2023-04-10T15:36:24.000Z</time>
      </trkpt>
      <trkpt lat="45.83344" lon="4.7051">
        <ele>355.78314</ele>
        <time>2023-04-10T15:36:25.000Z</time>
      </trkpt>
      <trkpt lat="45.83344" lon="4.70517">
        <ele>355.78244</ele>
        <time>2023-04-10T15:36:26.000Z</time>
      </trkpt>
      <trkpt lat="45.83345" lon="4.70523">
        <ele>355.75912</ele>
        <time>2023-04-10T15:36:27.000Z</time>
      </trkpt>
      <trkpt lat="45.83345" lon="4.70531">
        <ele>355.73929</ele>
        <time>2023-04-10T15:36:28.000Z</time>
      </trkpt>
      <trkpt lat="45.83346" lon="4.70538">
        <ele>355.7247</ele>
        <time>2023-04-10T15:36:29.000Z</time>
      </trkpt>
      <trkpt lat="45.83347" lon="4.70546">
        <ele>355.69098</ele>
        <time>2023-04-10T15:36:30.000Z</time>
      </trkpt>
      <trkpt lat="45.83347" lon="4.70553">
        <ele>355.64981</ele>
        <time>2023-04-10T15:36:31.000Z</time>
      </trkpt>
      <trkpt lat="45.83348" lon="4.70559">
        <ele>355.60675</ele>
        <time>2023-04-10T15:36:32.000Z</time>
      </trkpt>
      <trkpt lat="45.83349" lon="4.70567">
        <ele>355.57996</ele>
        <time>2023-04-10T15:36:33.000Z</time>
      </trkpt>
      <trkpt lat="45.83348" lon="4.70575">
        <ele>355.55621</ele>
        <time>2023-04-10T15:36:34.000Z</time>
      </trkpt>
      <trkpt lat="45.83349" lon="4.70581">
        <ele>355.52557</ele>
        <time>2023-04-10T15:36:35.000Z</time>
      </trkpt>
      <trkpt lat="45.83349" lon="4.70589">
        <ele>355.52527</ele>
        <time>2023-04-10T15:36:36.000Z</time>
      </trkpt>
      <trkpt lat="45.83349" lon="4.70597">
        <ele>355.50922</ele>
        <time>2023-04-10T15:36:37.000Z</time>
      </trkpt>
      <trkpt lat="45.8335" lon="4.70604">
        <ele>355.46695</ele>
        <time>2023-04-10T15:36:38.000Z</time>
      </trkpt>
      <trkpt lat="45.8335" lon="4.70612">
        <ele>355.44098</ele>
        <time>2023-04-10T15:36:39.000Z</time>
      </trkpt>
      <trkpt lat="45.83351" lon="4.7062">
        <ele>355.4129</ele>
        <time>2023-04-10T15:36:40.000Z</time>
      </trkpt>
      <trkpt lat="45.83352" lon="4.70628">
        <ele>355.39761</ele>
        <time>2023-04-10T15:36:41.000Z</time>
      </trkpt>
      <trkpt lat="45.83352" lon="4.70636">
        <ele>355.3808</ele>
        <time>2023-04-10T15:36:42.000Z</time>
      </trkpt>
      <trkpt lat="45.83351" lon="4.70644">
        <ele>355.37823</ele>
        <time>2023-04-10T15:36:43.000Z</time>
      </trkpt>
      <trkpt lat="45.8335" lon="4.70651">
        <ele>355.38449</ele>
        <time>2023-04-10T15:36:44.000Z</time>
      </trkpt>
      <trkpt lat="45.83349" lon="4.70659">
        <ele>355.42462</ele>
        <time>2023-04-10T15:36:45.000Z</time>
      </trkpt>
      <trkpt lat="45.83349" lon="4.70665">
        <ele>355.47787</ele>
        <time>2023-04-10T15:36:46.000Z</time>
      </trkpt>
      <trkpt lat="45.83348" lon="4.70673">
        <ele>355.58026</ele>
        <time>2023-04-10T15:36:47.000Z</time>
      </trkpt>
      <trkpt lat="45.83348" lon="4.7068">
        <ele>355.69769</ele>
        <time>2023-04-10T15:36:48.000Z</time>
      </trkpt>
      <trkpt lat="45.83347" lon="4.70686">
        <ele>355.8197</ele>
        <time>2023-04-10T15:36:49.000Z</time>
      </trkpt>
      <trkpt lat="45.83347" lon="4.70694">
        <ele>355.94156</ele>
        <time>2023-04-10T15:36:50.000Z</time>
      </trkpt>
      <trkpt lat="45.83346" lon="4.707">
        <ele>356.05447</ele>
        <time>2023-04-10T15:36:51.000Z</time>
      </trkpt>
      <trkpt lat="45.83346" lon="4.70706">
        <ele>356.1778</ele>
        <time>2023-04-10T15:36:52.000Z</time>
      </trkpt>
      <trkpt lat="45.83345" lon="4.70713">
        <ele>356.28485</ele>
        <time>2023-04-10T15:36:53.000Z</time>
      </trkpt>
      <trkpt lat="45.83344" lon="4.7072">
        <ele>356.39658</ele>
        <time>2023-04-10T15:36:54.000Z</time>
      </trkpt>
      <trkpt lat="45.83343" lon="4.70726">
        <ele>356.53781</ele>
        <time>2023-04-10T15:36:55.000Z</time>
      </trkpt>
      <trkpt lat="45.83343" lon="4.70733">
        <ele>356.6123</ele>
        <time>2023-04-10T15:36:56.000Z</time>
      </trkpt>
      <trkpt lat="45.83342" lon="4.70739">
        <ele>356.66541</ele>
        <time>2023-04-10T15:36:57.000Z</time>
      </trkpt>
      <trkpt lat="45.83342" lon="4.70745">
        <ele>356.71402</ele>
        <time>2023-04-10T15:36:58.000Z</time>
      </trkpt>
      <trkpt lat="45.83342" lon="4.70751">
        <ele>356.80939</ele>
        <time>2023-04-10T15:36:59.000Z</time>
      </trkpt>
      <trkpt lat="45.83342" lon="4.70757">
        <ele>356.87143</ele>
        <time>2023-04-10T15:37:00.000Z</time>
      </trkpt>
      <trkpt lat="45.83342" lon="4.70764">
        <ele>356.93951</ele>
        <time>2023-04-10T15:37:01.000Z</time>
      </trkpt>
      <trkpt lat="45.83341" lon="4.7077">
        <ele>356.96146</ele>
        <time>2023-04-10T15:37:02.000Z</time>
      </trkpt>
      <trkpt lat="45.83341" lon="4.70777">
        <ele>356.99323</ele>
        <time>2023-04-10T15:37:03.000Z</time>
      </trkpt>
      <trkpt lat="45.8334" lon="4.70783">
        <ele>357.02243</ele>
        <time>2023-04-10T15:37:04.000Z</time>
      </trkpt>
      <trkpt lat="45.8334" lon="4.7079">
        <ele>357.03119</ele>
        <time>2023-04-10T15:37:05.000Z</time>
      </trkpt>
      <trkpt lat="45.8334" lon="4.70796">
        <ele>357.05637</ele>
        <time>2023-04-10T15:37:06.000Z</time>
      </trkpt>
      <trkpt lat="45.83339" lon="4.70802">
        <ele>357.06439</ele>
        <time>2023-04-10T15:37:07.000Z</time>
      </trkpt>
      <trkpt lat="45.83339" lon="4.70809">
        <ele>357.01419</ele>
        <time>2023-04-10T15:37:08.000Z</time>
      </trkpt>
      <trkpt lat="45.83338" lon="4.70814">
        <ele>356.96539</ele>
        <time>2023-04-10T15:37:09.000Z</time>
      </trkpt>
      <trkpt lat="45.83337" lon="4.70821">
        <ele>356.91925</ele>
        <time>2023-04-10T15:37:10.000Z</time>
      </trkpt>
      <trkpt lat="45.83337" lon="4.70826">
        <ele>356.85745</ele>
        <time>2023-04-10T15:37:11.000Z</time>
      </trkpt>
      <trkpt lat="45.83337" lon="4.70832">
        <ele>356.80157</ele>
        <time>2023-04-10T15:37:12.000Z</time>
      </trkpt>
      <trkpt lat="45.83336" lon="4.70838">
        <ele>356.74802</ele>
        <time>2023-04-10T15:37:13.000Z</time>
      </trkpt>
      <trkpt lat="45.83336" lon="4.70844">
        <ele>356.69373</ele>
        <time>2023-04-10T15:37:14.000Z</time>
      </trkpt>
      <trkpt lat="45.83336" lon="4.70849">
        <ele>356.60358</ele>
        <time>2023-04-10T15:37:15.000Z</time>
      </trkpt>
    </trkseg>
  </trk>
</gpx>